<?xml version="1.0" encoding="UTF-8" standalone="no" ?>
<gpx xmlns="http://www.topografix.com/GPX/1/1" xmlns:xsi="http://www.w3.org/2001/XMLSchema-instance" xsi:schemaLocation="http://www.topografix.com/GPX/1/1 http://www.topografix.com/GPX/1/1/gpx.xsd" version="1.1" creator="VisuGPX - https://www.visugpx.com">
  <metadata>
    <name>2010-05-22_Rallye du Doux.gpx</name>
    <desc><![CDATA[2010-05-22_Rallye du Doux.gpx]]></desc>
  </metadata>
  <trk>
    <name><![CDATA[Rallye du Doux]]></name>
    <cmt><![CDATA[Bernard, JeanK, Patrick, Alain, Jacques, JeanPierre Thierry1&2, Philippe1&2, Gilles, Edouard Aimé]]></cmt>
    <trkseg>
      <trkpt lat="45.06688" lon="4.8066">
        <ele>129.91499328613</ele>
        <time>2010-05-22T06:36:39Z</time>
      </trkpt>
      <trkpt lat="45.06688" lon="4.8059">
        <ele>129.51699829102</ele>
        <time>2010-05-22T06:36:47Z</time>
      </trkpt>
      <trkpt lat="45.06688" lon="4.80555">
        <ele>129.34800720215</ele>
        <time>2010-05-22T06:36:51Z</time>
      </trkpt>
      <trkpt lat="45.06687" lon="4.80483">
        <ele>128.97300720215</ele>
        <time>2010-05-22T06:36:59Z</time>
      </trkpt>
      <trkpt lat="45.06687" lon="4.80384">
        <ele>129.15600585938</ele>
        <time>2010-05-22T06:37:10Z</time>
      </trkpt>
      <trkpt lat="45.06687" lon="4.80322">
        <ele>128.81900024414</ele>
        <time>2010-05-22T06:37:17Z</time>
      </trkpt>
      <trkpt lat="45.06688" lon="4.80268">
        <ele>128.51899719238</ele>
        <time>2010-05-22T06:37:23Z</time>
      </trkpt>
      <trkpt lat="45.06691" lon="4.80179">
        <ele>128.57200622559</ele>
        <time>2010-05-22T06:37:33Z</time>
      </trkpt>
      <trkpt lat="45.06692" lon="4.80095">
        <ele>129.23199462891</ele>
        <time>2010-05-22T06:37:43Z</time>
      </trkpt>
      <trkpt lat="45.06693" lon="4.8001">
        <ele>129.31900024414</ele>
        <time>2010-05-22T06:37:53Z</time>
      </trkpt>
      <trkpt lat="45.06694" lon="4.79907">
        <ele>129.51899719238</ele>
        <time>2010-05-22T06:38:05Z</time>
      </trkpt>
      <trkpt lat="45.06694" lon="4.79818">
        <ele>129.80299377441</ele>
        <time>2010-05-22T06:38:15Z</time>
      </trkpt>
      <trkpt lat="45.06687" lon="4.7977">
        <ele>130.33299255371</ele>
        <time>2010-05-22T06:38:21Z</time>
      </trkpt>
      <trkpt lat="45.06669" lon="4.79721">
        <ele>131.23699951172</ele>
        <time>2010-05-22T06:38:28Z</time>
      </trkpt>
      <trkpt lat="45.06638" lon="4.79654">
        <ele>133.34800720215</ele>
        <time>2010-05-22T06:38:38Z</time>
      </trkpt>
      <trkpt lat="45.06609" lon="4.79586">
        <ele>134.125</ele>
        <time>2010-05-22T06:38:48Z</time>
      </trkpt>
      <trkpt lat="45.06585" lon="4.79511">
        <ele>133.88999938965</ele>
        <time>2010-05-22T06:38:58Z</time>
      </trkpt>
      <trkpt lat="45.06553" lon="4.79417">
        <ele>134.60899353027</ele>
        <time>2010-05-22T06:39:11Z</time>
      </trkpt>
      <trkpt lat="45.06537" lon="4.79374">
        <ele>135.20599365234</ele>
        <time>2010-05-22T06:39:17Z</time>
      </trkpt>
      <trkpt lat="45.06507" lon="4.79333">
        <ele>135.23699951172</ele>
        <time>2010-05-22T06:39:24Z</time>
      </trkpt>
      <trkpt lat="45.06465" lon="4.79284">
        <ele>135.46899414062</ele>
        <time>2010-05-22T06:39:33Z</time>
      </trkpt>
      <trkpt lat="45.06443" lon="4.79243">
        <ele>135.62899780273</ele>
        <time>2010-05-22T06:39:39Z</time>
      </trkpt>
      <trkpt lat="45.0644" lon="4.79236">
        <ele>135.71200561523</ele>
        <time>2010-05-22T06:39:40Z</time>
      </trkpt>
      <trkpt lat="45.06432" lon="4.79212">
        <ele>137.4640045166</ele>
        <time>2010-05-22T06:39:43Z</time>
      </trkpt>
      <trkpt lat="45.06429" lon="4.79194">
        <ele>136.17300415039</ele>
        <time>2010-05-22T06:39:45Z</time>
      </trkpt>
      <trkpt lat="45.06427" lon="4.79167">
        <ele>136.30299377441</ele>
        <time>2010-05-22T06:39:48Z</time>
      </trkpt>
      <trkpt lat="45.0644" lon="4.79107">
        <ele>136.63900756836</ele>
        <time>2010-05-22T06:39:55Z</time>
      </trkpt>
      <trkpt lat="45.06463" lon="4.79046">
        <ele>137</ele>
        <time>2010-05-22T06:40:03Z</time>
      </trkpt>
      <trkpt lat="45.06482" lon="4.78974">
        <ele>137.125</ele>
        <time>2010-05-22T06:40:12Z</time>
      </trkpt>
      <trkpt lat="45.06494" lon="4.78917">
        <ele>137.56399536133</ele>
        <time>2010-05-22T06:40:19Z</time>
      </trkpt>
      <trkpt lat="45.06511" lon="4.78832">
        <ele>138.32000732422</ele>
        <time>2010-05-22T06:40:29Z</time>
      </trkpt>
      <trkpt lat="45.06532" lon="4.78769">
        <ele>139.18699645996</ele>
        <time>2010-05-22T06:40:37Z</time>
      </trkpt>
      <trkpt lat="45.06561" lon="4.78716">
        <ele>139.85299682617</ele>
        <time>2010-05-22T06:40:45Z</time>
      </trkpt>
      <trkpt lat="45.06586" lon="4.7867">
        <ele>141.11399841309</ele>
        <time>2010-05-22T06:40:52Z</time>
      </trkpt>
      <trkpt lat="45.06609" lon="4.78609">
        <ele>141.81599426269</ele>
        <time>2010-05-22T06:41:00Z</time>
      </trkpt>
      <trkpt lat="45.06627" lon="4.78537">
        <ele>142.68699645996</ele>
        <time>2010-05-22T06:41:09Z</time>
      </trkpt>
      <trkpt lat="45.06635" lon="4.78479">
        <ele>142.81300354004</ele>
        <time>2010-05-22T06:41:16Z</time>
      </trkpt>
      <trkpt lat="45.06631" lon="4.78431">
        <ele>143.0119934082</ele>
        <time>2010-05-22T06:41:22Z</time>
      </trkpt>
      <trkpt lat="45.06624" lon="4.7837">
        <ele>144.21000671387</ele>
        <time>2010-05-22T06:41:30Z</time>
      </trkpt>
      <trkpt lat="45.06626" lon="4.7831">
        <ele>145.91299438477</ele>
        <time>2010-05-22T06:41:38Z</time>
      </trkpt>
      <trkpt lat="45.06627" lon="4.78244">
        <ele>147.04800415039</ele>
        <time>2010-05-22T06:41:47Z</time>
      </trkpt>
      <trkpt lat="45.06623" lon="4.782">
        <ele>147.95300292969</ele>
        <time>2010-05-22T06:41:53Z</time>
      </trkpt>
      <trkpt lat="45.06605" lon="4.78163">
        <ele>149.04899597168</ele>
        <time>2010-05-22T06:41:59Z</time>
      </trkpt>
      <trkpt lat="45.06592" lon="4.7815">
        <ele>149.86199951172</ele>
        <time>2010-05-22T06:42:02Z</time>
      </trkpt>
      <trkpt lat="45.06582" lon="4.78144">
        <ele>150.01699829102</ele>
        <time>2010-05-22T06:42:04Z</time>
      </trkpt>
      <trkpt lat="45.06556" lon="4.78134">
        <ele>150.81700134277</ele>
        <time>2010-05-22T06:42:09Z</time>
      </trkpt>
      <trkpt lat="45.06513" lon="4.7813">
        <ele>151.47999572754</ele>
        <time>2010-05-22T06:42:17Z</time>
      </trkpt>
      <trkpt lat="45.06464" lon="4.78126">
        <ele>152.44299316406</ele>
        <time>2010-05-22T06:42:26Z</time>
      </trkpt>
      <trkpt lat="45.06459" lon="4.78126">
        <ele>152.66400146484</ele>
        <time>2010-05-22T06:42:27Z</time>
      </trkpt>
      <trkpt lat="45.06434" lon="4.78141">
        <ele>153.33099365234</ele>
        <time>2010-05-22T06:42:32Z</time>
      </trkpt>
      <trkpt lat="45.06421" lon="4.78166">
        <ele>153.39900207519</ele>
        <time>2010-05-22T06:42:36Z</time>
      </trkpt>
      <trkpt lat="45.06417" lon="4.78181">
        <ele>153.44700622559</ele>
        <time>2010-05-22T06:42:38Z</time>
      </trkpt>
      <trkpt lat="45.064" lon="4.78211">
        <ele>154.16600036621</ele>
        <time>2010-05-22T06:42:43Z</time>
      </trkpt>
      <trkpt lat="45.06387" lon="4.78244">
        <ele>154.73399353027</ele>
        <time>2010-05-22T06:42:48Z</time>
      </trkpt>
      <trkpt lat="45.0637" lon="4.78293">
        <ele>155.89399719238</ele>
        <time>2010-05-22T06:42:55Z</time>
      </trkpt>
      <trkpt lat="45.06349" lon="4.78347">
        <ele>156.34899902344</ele>
        <time>2010-05-22T06:43:03Z</time>
      </trkpt>
      <trkpt lat="45.06346" lon="4.78362">
        <ele>156.50199890137</ele>
        <time>2010-05-22T06:43:05Z</time>
      </trkpt>
      <trkpt lat="45.06344" lon="4.78417">
        <ele>157.58299255371</ele>
        <time>2010-05-22T06:43:12Z</time>
      </trkpt>
      <trkpt lat="45.06334" lon="4.78463">
        <ele>158.55200195312</ele>
        <time>2010-05-22T06:43:18Z</time>
      </trkpt>
      <trkpt lat="45.0631" lon="4.78518">
        <ele>159.76699829102</ele>
        <time>2010-05-22T06:43:26Z</time>
      </trkpt>
      <trkpt lat="45.06263" lon="4.78588">
        <ele>160.57299804688</ele>
        <time>2010-05-22T06:43:38Z</time>
      </trkpt>
      <trkpt lat="45.06251" lon="4.78606">
        <ele>161.08799743652</ele>
        <time>2010-05-22T06:43:41Z</time>
      </trkpt>
      <trkpt lat="45.06215" lon="4.78631">
        <ele>162.26100158691</ele>
        <time>2010-05-22T06:43:48Z</time>
      </trkpt>
      <trkpt lat="45.06164" lon="4.78661">
        <ele>163.98300170898</ele>
        <time>2010-05-22T06:43:58Z</time>
      </trkpt>
      <trkpt lat="45.06126" lon="4.78671">
        <ele>165.33799743652</ele>
        <time>2010-05-22T06:44:05Z</time>
      </trkpt>
      <trkpt lat="45.06081" lon="4.78669">
        <ele>166.53399658203</ele>
        <time>2010-05-22T06:44:13Z</time>
      </trkpt>
      <trkpt lat="45.0606" lon="4.78673">
        <ele>167.42300415039</ele>
        <time>2010-05-22T06:44:17Z</time>
      </trkpt>
      <trkpt lat="45.06033" lon="4.78665">
        <ele>168.48300170898</ele>
        <time>2010-05-22T06:44:22Z</time>
      </trkpt>
      <trkpt lat="45.05984" lon="4.78639">
        <ele>169.95899963379</ele>
        <time>2010-05-22T06:44:31Z</time>
      </trkpt>
      <trkpt lat="45.05978" lon="4.78636">
        <ele>170.24099731445</ele>
        <time>2010-05-22T06:44:32Z</time>
      </trkpt>
      <trkpt lat="45.0596" lon="4.78619">
        <ele>171.04100036621</ele>
        <time>2010-05-22T06:44:36Z</time>
      </trkpt>
      <trkpt lat="45.05934" lon="4.78573">
        <ele>172.08599853516</ele>
        <time>2010-05-22T06:44:43Z</time>
      </trkpt>
      <trkpt lat="45.05908" lon="4.78531">
        <ele>173.4940032959</ele>
        <time>2010-05-22T06:44:50Z</time>
      </trkpt>
      <trkpt lat="45.0589" lon="4.7849">
        <ele>174.66999816894</ele>
        <time>2010-05-22T06:44:57Z</time>
      </trkpt>
      <trkpt lat="45.0587" lon="4.78471">
        <ele>175.39799499512</ele>
        <time>2010-05-22T06:45:02Z</time>
      </trkpt>
      <trkpt lat="45.05849" lon="4.78472">
        <ele>175.93699645996</ele>
        <time>2010-05-22T06:45:06Z</time>
      </trkpt>
      <trkpt lat="45.05839" lon="4.78476">
        <ele>176.18499755859</ele>
        <time>2010-05-22T06:45:08Z</time>
      </trkpt>
      <trkpt lat="45.05813" lon="4.78475">
        <ele>176.97799682617</ele>
        <time>2010-05-22T06:45:13Z</time>
      </trkpt>
      <trkpt lat="45.05782" lon="4.78464">
        <ele>177.92100524902</ele>
        <time>2010-05-22T06:45:19Z</time>
      </trkpt>
      <trkpt lat="45.05751" lon="4.78473">
        <ele>178.94400024414</ele>
        <time>2010-05-22T06:45:25Z</time>
      </trkpt>
      <trkpt lat="45.05731" lon="4.78486">
        <ele>179.51899719238</ele>
        <time>2010-05-22T06:45:29Z</time>
      </trkpt>
      <trkpt lat="45.05701" lon="4.78489">
        <ele>180.82899475098</ele>
        <time>2010-05-22T06:45:35Z</time>
      </trkpt>
      <trkpt lat="45.0567" lon="4.78474">
        <ele>182.38499450684</ele>
        <time>2010-05-22T06:45:43Z</time>
      </trkpt>
      <trkpt lat="45.05651" lon="4.78456">
        <ele>183.66299438477</ele>
        <time>2010-05-22T06:45:49Z</time>
      </trkpt>
      <trkpt lat="45.05643" lon="4.78435">
        <ele>184.25500488281</ele>
        <time>2010-05-22T06:45:54Z</time>
      </trkpt>
      <trkpt lat="45.0565" lon="4.784">
        <ele>185.07400512695</ele>
        <time>2010-05-22T06:46:00Z</time>
      </trkpt>
      <trkpt lat="45.05666" lon="4.78338">
        <ele>186.35499572754</ele>
        <time>2010-05-22T06:46:10Z</time>
      </trkpt>
      <trkpt lat="45.0568" lon="4.78283">
        <ele>187.67300415039</ele>
        <time>2010-05-22T06:46:19Z</time>
      </trkpt>
      <trkpt lat="45.05691" lon="4.78239">
        <ele>188.84800720215</ele>
        <time>2010-05-22T06:46:26Z</time>
      </trkpt>
      <trkpt lat="45.05708" lon="4.78216">
        <ele>189.55799865723</ele>
        <time>2010-05-22T06:46:31Z</time>
      </trkpt>
      <trkpt lat="45.05712" lon="4.78214">
        <ele>189.71499633789</ele>
        <time>2010-05-22T06:46:32Z</time>
      </trkpt>
      <trkpt lat="45.05755" lon="4.78198">
        <ele>190.99800109863</ele>
        <time>2010-05-22T06:46:41Z</time>
      </trkpt>
      <trkpt lat="45.05765" lon="4.78195">
        <ele>191.4049987793</ele>
        <time>2010-05-22T06:46:43Z</time>
      </trkpt>
      <trkpt lat="45.05782" lon="4.78183">
        <ele>192.08099365234</ele>
        <time>2010-05-22T06:46:47Z</time>
      </trkpt>
      <trkpt lat="45.05795" lon="4.78161">
        <ele>192.74499511719</ele>
        <time>2010-05-22T06:46:51Z</time>
      </trkpt>
      <trkpt lat="45.058" lon="4.78141">
        <ele>193.0299987793</ele>
        <time>2010-05-22T06:46:54Z</time>
      </trkpt>
      <trkpt lat="45.05805" lon="4.78081">
        <ele>194.82899475098</ele>
        <time>2010-05-22T06:47:03Z</time>
      </trkpt>
      <trkpt lat="45.05806" lon="4.78067">
        <ele>195.17500305176</ele>
        <time>2010-05-22T06:47:05Z</time>
      </trkpt>
      <trkpt lat="45.05808" lon="4.7804">
        <ele>195.6549987793</ele>
        <time>2010-05-22T06:47:09Z</time>
      </trkpt>
      <trkpt lat="45.05805" lon="4.77999">
        <ele>196.72500610352</ele>
        <time>2010-05-22T06:47:15Z</time>
      </trkpt>
      <trkpt lat="45.05796" lon="4.77968">
        <ele>197.57899475098</ele>
        <time>2010-05-22T06:47:20Z</time>
      </trkpt>
      <trkpt lat="45.05799" lon="4.7794">
        <ele>198.15299987793</ele>
        <time>2010-05-22T06:47:24Z</time>
      </trkpt>
      <trkpt lat="45.05807" lon="4.7793">
        <ele>198.64599609375</ele>
        <time>2010-05-22T06:47:26Z</time>
      </trkpt>
      <trkpt lat="45.05819" lon="4.77916">
        <ele>199.47799682617</ele>
        <time>2010-05-22T06:47:29Z</time>
      </trkpt>
      <trkpt lat="45.05833" lon="4.77879">
        <ele>200.87800598144</ele>
        <time>2010-05-22T06:47:35Z</time>
      </trkpt>
      <trkpt lat="45.05846" lon="4.77832">
        <ele>202.13400268555</ele>
        <time>2010-05-22T06:47:42Z</time>
      </trkpt>
      <trkpt lat="45.05853" lon="4.77806">
        <ele>203.26300048828</ele>
        <time>2010-05-22T06:47:46Z</time>
      </trkpt>
      <trkpt lat="45.05857" lon="4.77758">
        <ele>204.2200012207</ele>
        <time>2010-05-22T06:47:53Z</time>
      </trkpt>
      <trkpt lat="45.05871" lon="4.77686">
        <ele>206.09700012207</ele>
        <time>2010-05-22T06:48:03Z</time>
      </trkpt>
      <trkpt lat="45.05866" lon="4.77651">
        <ele>206.8630065918</ele>
        <time>2010-05-22T06:48:08Z</time>
      </trkpt>
      <trkpt lat="45.05855" lon="4.77635">
        <ele>207.36399841309</ele>
        <time>2010-05-22T06:48:11Z</time>
      </trkpt>
      <trkpt lat="45.05821" lon="4.77612">
        <ele>209.19700622559</ele>
        <time>2010-05-22T06:48:18Z</time>
      </trkpt>
      <trkpt lat="45.05788" lon="4.77605">
        <ele>210.6369934082</ele>
        <time>2010-05-22T06:48:24Z</time>
      </trkpt>
      <trkpt lat="45.05783" lon="4.77604">
        <ele>210.81700134277</ele>
        <time>2010-05-22T06:48:25Z</time>
      </trkpt>
      <trkpt lat="45.05755" lon="4.77585">
        <ele>212.50999450684</ele>
        <time>2010-05-22T06:48:31Z</time>
      </trkpt>
      <trkpt lat="45.0575" lon="4.7758">
        <ele>212.79699707031</ele>
        <time>2010-05-22T06:48:32Z</time>
      </trkpt>
      <trkpt lat="45.05721" lon="4.77546">
        <ele>213.98599243164</ele>
        <time>2010-05-22T06:48:39Z</time>
      </trkpt>
      <trkpt lat="45.05693" lon="4.77497">
        <ele>215.72599792481</ele>
        <time>2010-05-22T06:48:48Z</time>
      </trkpt>
      <trkpt lat="45.0567" lon="4.77462">
        <ele>217.26100158691</ele>
        <time>2010-05-22T06:48:55Z</time>
      </trkpt>
      <trkpt lat="45.05649" lon="4.77446">
        <ele>218.36500549316</ele>
        <time>2010-05-22T06:49:00Z</time>
      </trkpt>
      <trkpt lat="45.05634" lon="4.77418">
        <ele>219.30000305176</ele>
        <time>2010-05-22T06:49:05Z</time>
      </trkpt>
      <trkpt lat="45.05632" lon="4.77411">
        <ele>219.47300720215</ele>
        <time>2010-05-22T06:49:06Z</time>
      </trkpt>
      <trkpt lat="45.0562" lon="4.77349">
        <ele>221.08700561523</ele>
        <time>2010-05-22T06:49:15Z</time>
      </trkpt>
      <trkpt lat="45.05608" lon="4.77279">
        <ele>223.12699890137</ele>
        <time>2010-05-22T06:49:24Z</time>
      </trkpt>
      <trkpt lat="45.05607" lon="4.77229">
        <ele>224.44200134277</ele>
        <time>2010-05-22T06:49:30Z</time>
      </trkpt>
      <trkpt lat="45.05616" lon="4.77174">
        <ele>225.61700439453</ele>
        <time>2010-05-22T06:49:37Z</time>
      </trkpt>
      <trkpt lat="45.05616" lon="4.77112">
        <ele>228.49200439453</ele>
        <time>2010-05-22T06:49:45Z</time>
      </trkpt>
      <trkpt lat="45.05613" lon="4.7708">
        <ele>229.39500427246</ele>
        <time>2010-05-22T06:49:49Z</time>
      </trkpt>
      <trkpt lat="45.0562" lon="4.77051">
        <ele>230.45799255371</ele>
        <time>2010-05-22T06:49:53Z</time>
      </trkpt>
      <trkpt lat="45.0563" lon="4.77043">
        <ele>230.78999328613</ele>
        <time>2010-05-22T06:49:55Z</time>
      </trkpt>
      <trkpt lat="45.05647" lon="4.77036">
        <ele>231.57299804688</ele>
        <time>2010-05-22T06:49:58Z</time>
      </trkpt>
      <trkpt lat="45.05666" lon="4.77017">
        <ele>232.60800170898</ele>
        <time>2010-05-22T06:50:02Z</time>
      </trkpt>
      <trkpt lat="45.05689" lon="4.76969">
        <ele>233.94700622559</ele>
        <time>2010-05-22T06:50:09Z</time>
      </trkpt>
      <trkpt lat="45.05716" lon="4.76936">
        <ele>235.12399291992</ele>
        <time>2010-05-22T06:50:15Z</time>
      </trkpt>
      <trkpt lat="45.05754" lon="4.76884">
        <ele>237.82299804688</ele>
        <time>2010-05-22T06:50:24Z</time>
      </trkpt>
      <trkpt lat="45.05784" lon="4.76844">
        <ele>239.35600280762</ele>
        <time>2010-05-22T06:50:31Z</time>
      </trkpt>
      <trkpt lat="45.05788" lon="4.76838">
        <ele>239.66400146484</ele>
        <time>2010-05-22T06:50:32Z</time>
      </trkpt>
      <trkpt lat="45.05794" lon="4.76823">
        <ele>240.10400390625</ele>
        <time>2010-05-22T06:50:34Z</time>
      </trkpt>
      <trkpt lat="45.05797" lon="4.76791">
        <ele>241.22999572754</ele>
        <time>2010-05-22T06:50:38Z</time>
      </trkpt>
      <trkpt lat="45.05796" lon="4.76782">
        <ele>241.67799377441</ele>
        <time>2010-05-22T06:50:39Z</time>
      </trkpt>
      <trkpt lat="45.05793" lon="4.76766">
        <ele>242.22099304199</ele>
        <time>2010-05-22T06:50:41Z</time>
      </trkpt>
      <trkpt lat="45.05797" lon="4.76735">
        <ele>243.45799255371</ele>
        <time>2010-05-22T06:50:45Z</time>
      </trkpt>
      <trkpt lat="45.05811" lon="4.76721">
        <ele>244.54899597168</ele>
        <time>2010-05-22T06:50:48Z</time>
      </trkpt>
      <trkpt lat="45.05822" lon="4.76719">
        <ele>245.08599853516</ele>
        <time>2010-05-22T06:50:50Z</time>
      </trkpt>
      <trkpt lat="45.0587" lon="4.76708">
        <ele>246.23399353027</ele>
        <time>2010-05-22T06:50:58Z</time>
      </trkpt>
      <trkpt lat="45.05902" lon="4.76693">
        <ele>247.62600708008</ele>
        <time>2010-05-22T06:51:04Z</time>
      </trkpt>
      <trkpt lat="45.05926" lon="4.76675">
        <ele>249.03900146484</ele>
        <time>2010-05-22T06:51:09Z</time>
      </trkpt>
      <trkpt lat="45.05939" lon="4.76653">
        <ele>250.08700561523</ele>
        <time>2010-05-22T06:51:13Z</time>
      </trkpt>
      <trkpt lat="45.05959" lon="4.76598">
        <ele>251.81100463867</ele>
        <time>2010-05-22T06:51:21Z</time>
      </trkpt>
      <trkpt lat="45.05983" lon="4.76563">
        <ele>252.88000488281</ele>
        <time>2010-05-22T06:51:27Z</time>
      </trkpt>
      <trkpt lat="45.05987" lon="4.76558">
        <ele>253.10099792481</ele>
        <time>2010-05-22T06:51:28Z</time>
      </trkpt>
      <trkpt lat="45.06014" lon="4.76548">
        <ele>255.21600341797</ele>
        <time>2010-05-22T06:51:33Z</time>
      </trkpt>
      <trkpt lat="45.06025" lon="4.76552">
        <ele>255.95899963379</ele>
        <time>2010-05-22T06:51:35Z</time>
      </trkpt>
      <trkpt lat="45.0603" lon="4.76554">
        <ele>256.44198608398</ele>
        <time>2010-05-22T06:51:36Z</time>
      </trkpt>
      <trkpt lat="45.06077" lon="4.7658">
        <ele>259.03399658203</ele>
        <time>2010-05-22T06:51:45Z</time>
      </trkpt>
      <trkpt lat="45.06104" lon="4.76574">
        <ele>260.35800170898</ele>
        <time>2010-05-22T06:51:50Z</time>
      </trkpt>
      <trkpt lat="45.06116" lon="4.76558">
        <ele>261.41900634766</ele>
        <time>2010-05-22T06:51:53Z</time>
      </trkpt>
      <trkpt lat="45.0612" lon="4.76533">
        <ele>262.28399658203</ele>
        <time>2010-05-22T06:51:56Z</time>
      </trkpt>
      <trkpt lat="45.06117" lon="4.76517">
        <ele>263.10198974609</ele>
        <time>2010-05-22T06:51:58Z</time>
      </trkpt>
      <trkpt lat="45.06113" lon="4.76501">
        <ele>263.57699584961</ele>
        <time>2010-05-22T06:52:00Z</time>
      </trkpt>
      <trkpt lat="45.06107" lon="4.76441">
        <ele>265.5710144043</ele>
        <time>2010-05-22T06:52:07Z</time>
      </trkpt>
      <trkpt lat="45.06108" lon="4.76391">
        <ele>266.69900512695</ele>
        <time>2010-05-22T06:52:13Z</time>
      </trkpt>
      <trkpt lat="45.06116" lon="4.7632">
        <ele>268.92199707031</ele>
        <time>2010-05-22T06:52:22Z</time>
      </trkpt>
      <trkpt lat="45.06128" lon="4.76248">
        <ele>271.38900756836</ele>
        <time>2010-05-22T06:52:31Z</time>
      </trkpt>
      <trkpt lat="45.06145" lon="4.76204">
        <ele>273.2200012207</ele>
        <time>2010-05-22T06:52:37Z</time>
      </trkpt>
      <trkpt lat="45.06172" lon="4.76151">
        <ele>275.08599853516</ele>
        <time>2010-05-22T06:52:45Z</time>
      </trkpt>
      <trkpt lat="45.06202" lon="4.76106">
        <ele>276.77301025391</ele>
        <time>2010-05-22T06:52:52Z</time>
      </trkpt>
      <trkpt lat="45.06232" lon="4.76076">
        <ele>278.34799194336</ele>
        <time>2010-05-22T06:52:58Z</time>
      </trkpt>
      <trkpt lat="45.06283" lon="4.7604">
        <ele>280.58401489258</ele>
        <time>2010-05-22T06:53:07Z</time>
      </trkpt>
      <trkpt lat="45.06326" lon="4.76009">
        <ele>282.70901489258</ele>
        <time>2010-05-22T06:53:15Z</time>
      </trkpt>
      <trkpt lat="45.06363" lon="4.75966">
        <ele>284.81900024414</ele>
        <time>2010-05-22T06:53:23Z</time>
      </trkpt>
      <trkpt lat="45.06382" lon="4.75946">
        <ele>285.61801147461</ele>
        <time>2010-05-22T06:53:27Z</time>
      </trkpt>
      <trkpt lat="45.06405" lon="4.75936">
        <ele>286.7919921875</ele>
        <time>2010-05-22T06:53:31Z</time>
      </trkpt>
      <trkpt lat="45.06427" lon="4.75946">
        <ele>287.96701049805</ele>
        <time>2010-05-22T06:53:35Z</time>
      </trkpt>
      <trkpt lat="45.06441" lon="4.75962">
        <ele>288.56100463867</ele>
        <time>2010-05-22T06:53:38Z</time>
      </trkpt>
      <trkpt lat="45.06449" lon="4.75976">
        <ele>289.00399780273</ele>
        <time>2010-05-22T06:53:40Z</time>
      </trkpt>
      <trkpt lat="45.06469" lon="4.75992">
        <ele>289.20700073242</ele>
        <time>2010-05-22T06:53:44Z</time>
      </trkpt>
      <trkpt lat="45.0648" lon="4.75991">
        <ele>289.54501342773</ele>
        <time>2010-05-22T06:53:46Z</time>
      </trkpt>
      <trkpt lat="45.06492" lon="4.75989">
        <ele>290.09399414062</ele>
        <time>2010-05-22T06:53:48Z</time>
      </trkpt>
      <trkpt lat="45.06509" lon="4.7599">
        <ele>291.375</ele>
        <time>2010-05-22T06:53:51Z</time>
      </trkpt>
      <trkpt lat="45.06532" lon="4.75994">
        <ele>292.94799804688</ele>
        <time>2010-05-22T06:53:56Z</time>
      </trkpt>
      <trkpt lat="45.06536" lon="4.75996">
        <ele>293.57400512695</ele>
        <time>2010-05-22T06:53:57Z</time>
      </trkpt>
      <trkpt lat="45.0655" lon="4.75998">
        <ele>294.86499023438</ele>
        <time>2010-05-22T06:54:00Z</time>
      </trkpt>
      <trkpt lat="45.06575" lon="4.75987">
        <ele>297.52398681641</ele>
        <time>2010-05-22T06:54:06Z</time>
      </trkpt>
      <trkpt lat="45.06583" lon="4.7598">
        <ele>298.37200927734</ele>
        <time>2010-05-22T06:54:08Z</time>
      </trkpt>
      <trkpt lat="45.06594" lon="4.75962">
        <ele>300.42401123047</ele>
        <time>2010-05-22T06:54:12Z</time>
      </trkpt>
      <trkpt lat="45.06603" lon="4.7594">
        <ele>301.83700561523</ele>
        <time>2010-05-22T06:54:16Z</time>
      </trkpt>
      <trkpt lat="45.06606" lon="4.75899">
        <ele>303.66101074219</ele>
        <time>2010-05-22T06:54:22Z</time>
      </trkpt>
      <trkpt lat="45.06603" lon="4.75885">
        <ele>304.00100708008</ele>
        <time>2010-05-22T06:54:24Z</time>
      </trkpt>
      <trkpt lat="45.06589" lon="4.75841">
        <ele>305.19900512695</ele>
        <time>2010-05-22T06:54:30Z</time>
      </trkpt>
      <trkpt lat="45.06585" lon="4.75809">
        <ele>306.30700683594</ele>
        <time>2010-05-22T06:54:34Z</time>
      </trkpt>
      <trkpt lat="45.0658" lon="4.75727">
        <ele>308.55599975586</ele>
        <time>2010-05-22T06:54:44Z</time>
      </trkpt>
      <trkpt lat="45.06578" lon="4.75695">
        <ele>309.31298828125</ele>
        <time>2010-05-22T06:54:48Z</time>
      </trkpt>
      <trkpt lat="45.06564" lon="4.75633">
        <ele>311.20498657227</ele>
        <time>2010-05-22T06:54:56Z</time>
      </trkpt>
      <trkpt lat="45.06563" lon="4.75626">
        <ele>311.43301391602</ele>
        <time>2010-05-22T06:54:57Z</time>
      </trkpt>
      <trkpt lat="45.06568" lon="4.75595">
        <ele>312.26098632812</ele>
        <time>2010-05-22T06:55:01Z</time>
      </trkpt>
      <trkpt lat="45.06577" lon="4.75584">
        <ele>312.86700439453</ele>
        <time>2010-05-22T06:55:03Z</time>
      </trkpt>
      <trkpt lat="45.06607" lon="4.75547">
        <ele>314.07699584961</ele>
        <time>2010-05-22T06:55:10Z</time>
      </trkpt>
      <trkpt lat="45.06618" lon="4.7551">
        <ele>315.25399780273</ele>
        <time>2010-05-22T06:55:15Z</time>
      </trkpt>
      <trkpt lat="45.06618" lon="4.75502">
        <ele>315.58099365234</ele>
        <time>2010-05-22T06:55:16Z</time>
      </trkpt>
      <trkpt lat="45.06614" lon="4.75445">
        <ele>317.31500244141</ele>
        <time>2010-05-22T06:55:23Z</time>
      </trkpt>
      <trkpt lat="45.06624" lon="4.7541">
        <ele>318.19100952148</ele>
        <time>2010-05-22T06:55:28Z</time>
      </trkpt>
      <trkpt lat="45.06633" lon="4.75399">
        <ele>318.49398803711</ele>
        <time>2010-05-22T06:55:30Z</time>
      </trkpt>
      <trkpt lat="45.06646" lon="4.75364">
        <ele>319.65399169922</ele>
        <time>2010-05-22T06:55:35Z</time>
      </trkpt>
      <trkpt lat="45.06646" lon="4.75356">
        <ele>319.88500976562</ele>
        <time>2010-05-22T06:55:36Z</time>
      </trkpt>
      <trkpt lat="45.06637" lon="4.75311">
        <ele>321.48599243164</ele>
        <time>2010-05-22T06:55:42Z</time>
      </trkpt>
      <trkpt lat="45.06622" lon="4.75301">
        <ele>322.25900268555</ele>
        <time>2010-05-22T06:55:45Z</time>
      </trkpt>
      <trkpt lat="45.06616" lon="4.753">
        <ele>322.61700439453</ele>
        <time>2010-05-22T06:55:46Z</time>
      </trkpt>
      <trkpt lat="45.06586" lon="4.75278">
        <ele>324.02700805664</ele>
        <time>2010-05-22T06:55:52Z</time>
      </trkpt>
      <trkpt lat="45.06582" lon="4.75255">
        <ele>325.27301025391</ele>
        <time>2010-05-22T06:55:55Z</time>
      </trkpt>
      <trkpt lat="45.06582" lon="4.75247">
        <ele>325.41198730469</ele>
        <time>2010-05-22T06:55:56Z</time>
      </trkpt>
      <trkpt lat="45.06581" lon="4.75223">
        <ele>325.75100708008</ele>
        <time>2010-05-22T06:55:59Z</time>
      </trkpt>
      <trkpt lat="45.06572" lon="4.75195">
        <ele>326.91400146484</ele>
        <time>2010-05-22T06:56:03Z</time>
      </trkpt>
      <trkpt lat="45.06539" lon="4.75138">
        <ele>328.87701416016</ele>
        <time>2010-05-22T06:56:12Z</time>
      </trkpt>
      <trkpt lat="45.06527" lon="4.75121">
        <ele>329.875</ele>
        <time>2010-05-22T06:56:15Z</time>
      </trkpt>
      <trkpt lat="45.06512" lon="4.7511">
        <ele>331.1130065918</ele>
        <time>2010-05-22T06:56:18Z</time>
      </trkpt>
      <trkpt lat="45.06501" lon="4.75104">
        <ele>331.35101318359</ele>
        <time>2010-05-22T06:56:20Z</time>
      </trkpt>
      <trkpt lat="45.06485" lon="4.75082">
        <ele>332.125</ele>
        <time>2010-05-22T06:56:24Z</time>
      </trkpt>
      <trkpt lat="45.06481" lon="4.75068">
        <ele>332.81698608398</ele>
        <time>2010-05-22T06:56:26Z</time>
      </trkpt>
      <trkpt lat="45.0647" lon="4.75004">
        <ele>334.48999023438</ele>
        <time>2010-05-22T06:56:34Z</time>
      </trkpt>
      <trkpt lat="45.06457" lon="4.74978">
        <ele>335.71398925781</ele>
        <time>2010-05-22T06:56:38Z</time>
      </trkpt>
      <trkpt lat="45.06446" lon="4.74971">
        <ele>336.16799926758</ele>
        <time>2010-05-22T06:56:40Z</time>
      </trkpt>
      <trkpt lat="45.06403" lon="4.74949">
        <ele>337.97100830078</ele>
        <time>2010-05-22T06:56:48Z</time>
      </trkpt>
      <trkpt lat="45.06381" lon="4.74924">
        <ele>339.15701293945</ele>
        <time>2010-05-22T06:56:53Z</time>
      </trkpt>
      <trkpt lat="45.06375" lon="4.74911">
        <ele>339.91101074219</ele>
        <time>2010-05-22T06:56:55Z</time>
      </trkpt>
      <trkpt lat="45.06367" lon="4.74881">
        <ele>340.87600708008</ele>
        <time>2010-05-22T06:56:59Z</time>
      </trkpt>
      <trkpt lat="45.06351" lon="4.74839">
        <ele>342.58999633789</ele>
        <time>2010-05-22T06:57:05Z</time>
      </trkpt>
      <trkpt lat="45.06344" lon="4.74794">
        <ele>344.05599975586</ele>
        <time>2010-05-22T06:57:11Z</time>
      </trkpt>
      <trkpt lat="45.06331" lon="4.74756">
        <ele>345.57501220703</ele>
        <time>2010-05-22T06:57:17Z</time>
      </trkpt>
      <trkpt lat="45.06317" lon="4.7473">
        <ele>346.85699462891</ele>
        <time>2010-05-22T06:57:23Z</time>
      </trkpt>
      <trkpt lat="45.06309" lon="4.74711">
        <ele>347.82299804688</ele>
        <time>2010-05-22T06:57:29Z</time>
      </trkpt>
      <trkpt lat="45.06306" lon="4.74702">
        <ele>348.32501220703</ele>
        <time>2010-05-22T06:57:34Z</time>
      </trkpt>
      <trkpt lat="45.06302" lon="4.74702">
        <ele>348.36599731445</ele>
        <time>2010-05-22T06:57:39Z</time>
      </trkpt>
      <trkpt lat="45.06303" lon="4.74695">
        <ele>348.77801513672</ele>
        <time>2010-05-22T06:59:26Z</time>
      </trkpt>
      <trkpt lat="45.06292" lon="4.74685">
        <ele>347.17300415039</ele>
        <time>2010-05-22T06:59:29Z</time>
      </trkpt>
      <trkpt lat="45.06285" lon="4.74684">
        <ele>346.89300537109</ele>
        <time>2010-05-22T06:59:30Z</time>
      </trkpt>
      <trkpt lat="45.06267" lon="4.74697">
        <ele>345.38299560547</ele>
        <time>2010-05-22T06:59:33Z</time>
      </trkpt>
      <trkpt lat="45.06262" lon="4.74705">
        <ele>345.05899047852</ele>
        <time>2010-05-22T06:59:34Z</time>
      </trkpt>
      <trkpt lat="45.06253" lon="4.74723">
        <ele>344.32299804688</ele>
        <time>2010-05-22T06:59:36Z</time>
      </trkpt>
      <trkpt lat="45.06223" lon="4.74756">
        <ele>342.2200012207</ele>
        <time>2010-05-22T06:59:40Z</time>
      </trkpt>
      <trkpt lat="45.06189" lon="4.74771">
        <ele>340.73498535156</ele>
        <time>2010-05-22T06:59:44Z</time>
      </trkpt>
      <trkpt lat="45.06181" lon="4.74772">
        <ele>340.10800170898</ele>
        <time>2010-05-22T06:59:45Z</time>
      </trkpt>
      <trkpt lat="45.06141" lon="4.74792">
        <ele>338.53500366211</ele>
        <time>2010-05-22T06:59:50Z</time>
      </trkpt>
      <trkpt lat="45.06133" lon="4.74798">
        <ele>338.01901245117</ele>
        <time>2010-05-22T06:59:51Z</time>
      </trkpt>
      <trkpt lat="45.06119" lon="4.74811">
        <ele>337.02899169922</ele>
        <time>2010-05-22T06:59:53Z</time>
      </trkpt>
      <trkpt lat="45.06085" lon="4.74825">
        <ele>335.78100585938</ele>
        <time>2010-05-22T06:59:57Z</time>
      </trkpt>
      <trkpt lat="45.06037" lon="4.74824">
        <ele>332.74301147461</ele>
        <time>2010-05-22T07:00:02Z</time>
      </trkpt>
      <trkpt lat="45.05987" lon="4.74839">
        <ele>329.82299804688</ele>
        <time>2010-05-22T07:00:07Z</time>
      </trkpt>
      <trkpt lat="45.05976" lon="4.74843">
        <ele>329.72698974609</ele>
        <time>2010-05-22T07:00:08Z</time>
      </trkpt>
      <trkpt lat="45.05934" lon="4.74846">
        <ele>327.91000366211</ele>
        <time>2010-05-22T07:00:12Z</time>
      </trkpt>
      <trkpt lat="45.05891" lon="4.74848">
        <ele>325.59201049805</ele>
        <time>2010-05-22T07:00:16Z</time>
      </trkpt>
      <trkpt lat="45.05859" lon="4.74832">
        <ele>324.50601196289</ele>
        <time>2010-05-22T07:00:20Z</time>
      </trkpt>
      <trkpt lat="45.05852" lon="4.74809">
        <ele>323.15798950195</ele>
        <time>2010-05-22T07:00:22Z</time>
      </trkpt>
      <trkpt lat="45.05856" lon="4.74783">
        <ele>322.0539855957</ele>
        <time>2010-05-22T07:00:24Z</time>
      </trkpt>
      <trkpt lat="45.05875" lon="4.74721">
        <ele>319.18399047852</ele>
        <time>2010-05-22T07:00:29Z</time>
      </trkpt>
      <trkpt lat="45.05877" lon="4.74696">
        <ele>318.23400878906</ele>
        <time>2010-05-22T07:00:31Z</time>
      </trkpt>
      <trkpt lat="45.0587" lon="4.74672">
        <ele>317.99700927734</ele>
        <time>2010-05-22T07:00:33Z</time>
      </trkpt>
      <trkpt lat="45.05851" lon="4.74612">
        <ele>315.29000854492</ele>
        <time>2010-05-22T07:00:38Z</time>
      </trkpt>
      <trkpt lat="45.05842" lon="4.7459">
        <ele>314.70001220703</ele>
        <time>2010-05-22T07:00:40Z</time>
      </trkpt>
      <trkpt lat="45.05829" lon="4.74534">
        <ele>312.69799804688</ele>
        <time>2010-05-22T07:00:45Z</time>
      </trkpt>
      <trkpt lat="45.05827" lon="4.74484">
        <ele>310.85699462891</ele>
        <time>2010-05-22T07:00:49Z</time>
      </trkpt>
      <trkpt lat="45.05818" lon="4.74445">
        <ele>309.25601196289</ele>
        <time>2010-05-22T07:00:52Z</time>
      </trkpt>
      <trkpt lat="45.05812" lon="4.74402">
        <ele>307.47698974609</ele>
        <time>2010-05-22T07:00:55Z</time>
      </trkpt>
      <trkpt lat="45.05813" lon="4.74326">
        <ele>304.1549987793</ele>
        <time>2010-05-22T07:01:00Z</time>
      </trkpt>
      <trkpt lat="45.05813" lon="4.74263">
        <ele>303.49099731445</ele>
        <time>2010-05-22T07:01:04Z</time>
      </trkpt>
      <trkpt lat="45.05801" lon="4.74204">
        <ele>301.71499633789</ele>
        <time>2010-05-22T07:01:08Z</time>
      </trkpt>
      <trkpt lat="45.05773" lon="4.74158">
        <ele>299.0119934082</ele>
        <time>2010-05-22T07:01:12Z</time>
      </trkpt>
      <trkpt lat="45.05764" lon="4.74149">
        <ele>298.5119934082</ele>
        <time>2010-05-22T07:01:13Z</time>
      </trkpt>
      <trkpt lat="45.0573" lon="4.7411">
        <ele>296.29501342773</ele>
        <time>2010-05-22T07:01:17Z</time>
      </trkpt>
      <trkpt lat="45.05689" lon="4.74058">
        <ele>294.28900146484</ele>
        <time>2010-05-22T07:01:22Z</time>
      </trkpt>
      <trkpt lat="45.05675" lon="4.74042">
        <ele>293.61099243164</ele>
        <time>2010-05-22T07:01:24Z</time>
      </trkpt>
      <trkpt lat="45.05666" lon="4.74017">
        <ele>292.79699707031</ele>
        <time>2010-05-22T07:01:27Z</time>
      </trkpt>
      <trkpt lat="45.0568" lon="4.74002">
        <ele>291.63101196289</ele>
        <time>2010-05-22T07:01:29Z</time>
      </trkpt>
      <trkpt lat="45.05697" lon="4.74">
        <ele>290.94000244141</ele>
        <time>2010-05-22T07:01:31Z</time>
      </trkpt>
      <trkpt lat="45.05705" lon="4.74002">
        <ele>290.6780090332</ele>
        <time>2010-05-22T07:01:32Z</time>
      </trkpt>
      <trkpt lat="45.05758" lon="4.74011">
        <ele>287.85598754883</ele>
        <time>2010-05-22T07:01:38Z</time>
      </trkpt>
      <trkpt lat="45.05787" lon="4.74013">
        <ele>286.52301025391</ele>
        <time>2010-05-22T07:01:41Z</time>
      </trkpt>
      <trkpt lat="45.05828" lon="4.74015">
        <ele>284.90798950195</ele>
        <time>2010-05-22T07:01:45Z</time>
      </trkpt>
      <trkpt lat="45.05854" lon="4.74">
        <ele>282.9169921875</ele>
        <time>2010-05-22T07:01:48Z</time>
      </trkpt>
      <trkpt lat="45.05864" lon="4.73972">
        <ele>282.1969909668</ele>
        <time>2010-05-22T07:01:50Z</time>
      </trkpt>
      <trkpt lat="45.05874" lon="4.73914">
        <ele>280.0419921875</ele>
        <time>2010-05-22T07:01:54Z</time>
      </trkpt>
      <trkpt lat="45.05899" lon="4.73802">
        <ele>276.05599975586</ele>
        <time>2010-05-22T07:02:02Z</time>
      </trkpt>
      <trkpt lat="45.05899" lon="4.73763">
        <ele>275.2200012207</ele>
        <time>2010-05-22T07:02:05Z</time>
      </trkpt>
      <trkpt lat="45.05889" lon="4.73739">
        <ele>274.31900024414</ele>
        <time>2010-05-22T07:02:07Z</time>
      </trkpt>
      <trkpt lat="45.05853" lon="4.73674">
        <ele>271.78201293945</ele>
        <time>2010-05-22T07:02:13Z</time>
      </trkpt>
      <trkpt lat="45.05823" lon="4.73615">
        <ele>269.59799194336</ele>
        <time>2010-05-22T07:02:18Z</time>
      </trkpt>
      <trkpt lat="45.05807" lon="4.73561">
        <ele>267.1780090332</ele>
        <time>2010-05-22T07:02:22Z</time>
      </trkpt>
      <trkpt lat="45.0581" lon="4.73518">
        <ele>266.51699829102</ele>
        <time>2010-05-22T07:02:25Z</time>
      </trkpt>
      <trkpt lat="45.05814" lon="4.73504">
        <ele>266.10299682617</ele>
        <time>2010-05-22T07:02:26Z</time>
      </trkpt>
      <trkpt lat="45.05827" lon="4.73417">
        <ele>262.60198974609</ele>
        <time>2010-05-22T07:02:32Z</time>
      </trkpt>
      <trkpt lat="45.05828" lon="4.73355">
        <ele>260.78298950195</ele>
        <time>2010-05-22T07:02:36Z</time>
      </trkpt>
      <trkpt lat="45.05825" lon="4.73328">
        <ele>260.43200683594</ele>
        <time>2010-05-22T07:02:38Z</time>
      </trkpt>
      <trkpt lat="45.05821" lon="4.73277">
        <ele>258.74200439453</ele>
        <time>2010-05-22T07:02:43Z</time>
      </trkpt>
      <trkpt lat="45.05833" lon="4.73264">
        <ele>258.03399658203</ele>
        <time>2010-05-22T07:02:45Z</time>
      </trkpt>
      <trkpt lat="45.05841" lon="4.73262">
        <ele>257.94198608398</ele>
        <time>2010-05-22T07:02:46Z</time>
      </trkpt>
      <trkpt lat="45.05856" lon="4.73257">
        <ele>257.84600830078</ele>
        <time>2010-05-22T07:02:48Z</time>
      </trkpt>
      <trkpt lat="45.05873" lon="4.73238">
        <ele>257.87298583984</ele>
        <time>2010-05-22T07:02:51Z</time>
      </trkpt>
      <trkpt lat="45.05878" lon="4.73208">
        <ele>258.92599487305</ele>
        <time>2010-05-22T07:02:54Z</time>
      </trkpt>
      <trkpt lat="45.05877" lon="4.7319">
        <ele>259.60598754883</ele>
        <time>2010-05-22T07:02:56Z</time>
      </trkpt>
      <trkpt lat="45.05876" lon="4.73156">
        <ele>260.96899414062</ele>
        <time>2010-05-22T07:03:00Z</time>
      </trkpt>
      <trkpt lat="45.05889" lon="4.73128">
        <ele>262.30099487305</ele>
        <time>2010-05-22T07:03:05Z</time>
      </trkpt>
      <trkpt lat="45.05926" lon="4.73097">
        <ele>264.1549987793</ele>
        <time>2010-05-22T07:03:14Z</time>
      </trkpt>
      <trkpt lat="45.05962" lon="4.73064">
        <ele>265.82400512695</ele>
        <time>2010-05-22T07:03:23Z</time>
      </trkpt>
      <trkpt lat="45.0599" lon="4.7303">
        <ele>267.50601196289</ele>
        <time>2010-05-22T07:03:31Z</time>
      </trkpt>
      <trkpt lat="45.06019" lon="4.72971">
        <ele>269.41299438477</ele>
        <time>2010-05-22T07:03:42Z</time>
      </trkpt>
      <trkpt lat="45.06037" lon="4.72952">
        <ele>270.41299438477</ele>
        <time>2010-05-22T07:03:47Z</time>
      </trkpt>
      <trkpt lat="45.06055" lon="4.72948">
        <ele>271.03100585938</ele>
        <time>2010-05-22T07:03:51Z</time>
      </trkpt>
      <trkpt lat="45.06072" lon="4.72951">
        <ele>272.06799316406</ele>
        <time>2010-05-22T07:03:55Z</time>
      </trkpt>
      <trkpt lat="45.06088" lon="4.72944">
        <ele>273.01599121094</ele>
        <time>2010-05-22T07:03:59Z</time>
      </trkpt>
      <trkpt lat="45.06093" lon="4.72927">
        <ele>273.35598754883</ele>
        <time>2010-05-22T07:04:02Z</time>
      </trkpt>
      <trkpt lat="45.06087" lon="4.72905">
        <ele>274.25</ele>
        <time>2010-05-22T07:04:06Z</time>
      </trkpt>
      <trkpt lat="45.06079" lon="4.72901">
        <ele>274.46099853516</ele>
        <time>2010-05-22T07:04:09Z</time>
      </trkpt>
      <trkpt lat="45.06068" lon="4.72901">
        <ele>273.79998779297</ele>
        <time>2010-05-22T07:04:12Z</time>
      </trkpt>
      <trkpt lat="45.06061" lon="4.7289">
        <ele>273.45001220703</ele>
        <time>2010-05-22T07:04:14Z</time>
      </trkpt>
      <trkpt lat="45.06045" lon="4.72837">
        <ele>271.44198608398</ele>
        <time>2010-05-22T07:04:20Z</time>
      </trkpt>
      <trkpt lat="45.06036" lon="4.72806">
        <ele>270.12100219727</ele>
        <time>2010-05-22T07:04:23Z</time>
      </trkpt>
      <trkpt lat="45.06024" lon="4.72771">
        <ele>268.50500488281</ele>
        <time>2010-05-22T07:04:26Z</time>
      </trkpt>
      <trkpt lat="45.05981" lon="4.7268">
        <ele>263.89999389648</ele>
        <time>2010-05-22T07:04:34Z</time>
      </trkpt>
      <trkpt lat="45.05973" lon="4.72632">
        <ele>262.34799194336</ele>
        <time>2010-05-22T07:04:38Z</time>
      </trkpt>
      <trkpt lat="45.05989" lon="4.72602">
        <ele>260.85900878906</ele>
        <time>2010-05-22T07:04:41Z</time>
      </trkpt>
      <trkpt lat="45.05999" lon="4.72584">
        <ele>259.99200439453</ele>
        <time>2010-05-22T07:04:43Z</time>
      </trkpt>
      <trkpt lat="45.05993" lon="4.72569">
        <ele>258.60400390625</ele>
        <time>2010-05-22T07:04:45Z</time>
      </trkpt>
      <trkpt lat="45.05978" lon="4.72569">
        <ele>257.88800048828</ele>
        <time>2010-05-22T07:04:47Z</time>
      </trkpt>
      <trkpt lat="45.05961" lon="4.72592">
        <ele>256.34298706055</ele>
        <time>2010-05-22T07:04:50Z</time>
      </trkpt>
      <trkpt lat="45.05947" lon="4.72606">
        <ele>255.51499938965</ele>
        <time>2010-05-22T07:04:52Z</time>
      </trkpt>
      <trkpt lat="45.05927" lon="4.72608">
        <ele>254.03700256348</ele>
        <time>2010-05-22T07:04:55Z</time>
      </trkpt>
      <trkpt lat="45.05918" lon="4.72584">
        <ele>253.20399475098</ele>
        <time>2010-05-22T07:04:58Z</time>
      </trkpt>
      <trkpt lat="45.05908" lon="4.72548">
        <ele>252.71800231934</ele>
        <time>2010-05-22T07:05:03Z</time>
      </trkpt>
      <trkpt lat="45.05902" lon="4.72526">
        <ele>252.39100646973</ele>
        <time>2010-05-22T07:05:06Z</time>
      </trkpt>
      <trkpt lat="45.05899" lon="4.72495">
        <ele>252.19500732422</ele>
        <time>2010-05-22T07:05:10Z</time>
      </trkpt>
      <trkpt lat="45.05899" lon="4.72478">
        <ele>251.77299499512</ele>
        <time>2010-05-22T07:05:12Z</time>
      </trkpt>
      <trkpt lat="45.05888" lon="4.72418">
        <ele>250.50199890137</ele>
        <time>2010-05-22T07:05:19Z</time>
      </trkpt>
      <trkpt lat="45.05873" lon="4.72365">
        <ele>250.63200378418</ele>
        <time>2010-05-22T07:05:25Z</time>
      </trkpt>
      <trkpt lat="45.05864" lon="4.72332">
        <ele>251.02200317383</ele>
        <time>2010-05-22T07:05:29Z</time>
      </trkpt>
      <trkpt lat="45.05841" lon="4.7228">
        <ele>251.4640045166</ele>
        <time>2010-05-22T07:05:36Z</time>
      </trkpt>
      <trkpt lat="45.05822" lon="4.72234">
        <ele>251.9880065918</ele>
        <time>2010-05-22T07:05:42Z</time>
      </trkpt>
      <trkpt lat="45.05806" lon="4.72207">
        <ele>251.79299926758</ele>
        <time>2010-05-22T07:05:46Z</time>
      </trkpt>
      <trkpt lat="45.05786" lon="4.7219">
        <ele>251.02699279785</ele>
        <time>2010-05-22T07:05:50Z</time>
      </trkpt>
      <trkpt lat="45.05771" lon="4.72191">
        <ele>249.74800109863</ele>
        <time>2010-05-22T07:05:52Z</time>
      </trkpt>
      <trkpt lat="45.05745" lon="4.72197">
        <ele>246.89500427246</ele>
        <time>2010-05-22T07:05:55Z</time>
      </trkpt>
      <trkpt lat="45.05713" lon="4.72184">
        <ele>246.33799743652</ele>
        <time>2010-05-22T07:05:59Z</time>
      </trkpt>
      <trkpt lat="45.05671" lon="4.72145">
        <ele>246.17700195312</ele>
        <time>2010-05-22T07:06:05Z</time>
      </trkpt>
      <trkpt lat="45.05634" lon="4.72106">
        <ele>246.4109954834</ele>
        <time>2010-05-22T07:06:11Z</time>
      </trkpt>
      <trkpt lat="45.05595" lon="4.72059">
        <ele>246.95399475098</ele>
        <time>2010-05-22T07:06:18Z</time>
      </trkpt>
      <trkpt lat="45.0556" lon="4.72013">
        <ele>246.77099609375</ele>
        <time>2010-05-22T07:06:25Z</time>
      </trkpt>
      <trkpt lat="45.05529" lon="4.71962">
        <ele>246.84599304199</ele>
        <time>2010-05-22T07:06:32Z</time>
      </trkpt>
      <trkpt lat="45.05502" lon="4.71911">
        <ele>247.12699890137</ele>
        <time>2010-05-22T07:06:39Z</time>
      </trkpt>
      <trkpt lat="45.05474" lon="4.71863">
        <ele>247.23899841309</ele>
        <time>2010-05-22T07:06:46Z</time>
      </trkpt>
      <trkpt lat="45.05445" lon="4.71811">
        <ele>246.85800170898</ele>
        <time>2010-05-22T07:06:53Z</time>
      </trkpt>
      <trkpt lat="45.0542" lon="4.71753">
        <ele>248.10499572754</ele>
        <time>2010-05-22T07:07:00Z</time>
      </trkpt>
      <trkpt lat="45.05405" lon="4.71722">
        <ele>249.51400756836</ele>
        <time>2010-05-22T07:07:05Z</time>
      </trkpt>
      <trkpt lat="45.05384" lon="4.71676">
        <ele>249.95599365234</ele>
        <time>2010-05-22T07:07:12Z</time>
      </trkpt>
      <trkpt lat="45.05351" lon="4.71604">
        <ele>250.3809967041</ele>
        <time>2010-05-22T07:07:22Z</time>
      </trkpt>
      <trkpt lat="45.05331" lon="4.71549">
        <ele>250.51300048828</ele>
        <time>2010-05-22T07:07:29Z</time>
      </trkpt>
      <trkpt lat="45.05316" lon="4.71499">
        <ele>250.3450012207</ele>
        <time>2010-05-22T07:07:35Z</time>
      </trkpt>
      <trkpt lat="45.05296" lon="4.71433">
        <ele>250.72099304199</ele>
        <time>2010-05-22T07:07:43Z</time>
      </trkpt>
      <trkpt lat="45.05276" lon="4.71398">
        <ele>249.85299682617</ele>
        <time>2010-05-22T07:07:48Z</time>
      </trkpt>
      <trkpt lat="45.05256" lon="4.71366">
        <ele>247.43899536133</ele>
        <time>2010-05-22T07:07:52Z</time>
      </trkpt>
      <trkpt lat="45.05233" lon="4.71327">
        <ele>247.82499694824</ele>
        <time>2010-05-22T07:07:57Z</time>
      </trkpt>
      <trkpt lat="45.05206" lon="4.71278">
        <ele>248.07400512695</ele>
        <time>2010-05-22T07:08:04Z</time>
      </trkpt>
      <trkpt lat="45.0518" lon="4.71241">
        <ele>248.61999511719</ele>
        <time>2010-05-22T07:08:10Z</time>
      </trkpt>
      <trkpt lat="45.05139" lon="4.71188">
        <ele>248.84700012207</ele>
        <time>2010-05-22T07:08:19Z</time>
      </trkpt>
      <trkpt lat="45.05104" lon="4.7114">
        <ele>249.17900085449</ele>
        <time>2010-05-22T07:08:27Z</time>
      </trkpt>
      <trkpt lat="45.05065" lon="4.71093">
        <ele>249.14300537109</ele>
        <time>2010-05-22T07:08:35Z</time>
      </trkpt>
      <trkpt lat="45.0504" lon="4.71061">
        <ele>249.7440032959</ele>
        <time>2010-05-22T07:08:41Z</time>
      </trkpt>
      <trkpt lat="45.05018" lon="4.71024">
        <ele>249.58999633789</ele>
        <time>2010-05-22T07:08:47Z</time>
      </trkpt>
      <trkpt lat="45.04991" lon="4.70968">
        <ele>249.67399597168</ele>
        <time>2010-05-22T07:08:55Z</time>
      </trkpt>
      <trkpt lat="45.04969" lon="4.7094">
        <ele>249.42599487305</ele>
        <time>2010-05-22T07:09:00Z</time>
      </trkpt>
      <trkpt lat="45.04942" lon="4.70921">
        <ele>248.70799255371</ele>
        <time>2010-05-22T07:09:05Z</time>
      </trkpt>
      <trkpt lat="45.0493" lon="4.70903">
        <ele>249.18600463867</ele>
        <time>2010-05-22T07:09:08Z</time>
      </trkpt>
      <trkpt lat="45.04926" lon="4.7089">
        <ele>250.20100402832</ele>
        <time>2010-05-22T07:09:10Z</time>
      </trkpt>
      <trkpt lat="45.049" lon="4.70841">
        <ele>251.02499389648</ele>
        <time>2010-05-22T07:09:19Z</time>
      </trkpt>
      <trkpt lat="45.04877" lon="4.70792">
        <ele>251.39500427246</ele>
        <time>2010-05-22T07:09:27Z</time>
      </trkpt>
      <trkpt lat="45.04848" lon="4.70747">
        <ele>251.76800537109</ele>
        <time>2010-05-22T07:09:35Z</time>
      </trkpt>
      <trkpt lat="45.04823" lon="4.70715">
        <ele>251.3690032959</ele>
        <time>2010-05-22T07:09:41Z</time>
      </trkpt>
      <trkpt lat="45.04794" lon="4.70672">
        <ele>251.19500732422</ele>
        <time>2010-05-22T07:09:48Z</time>
      </trkpt>
      <trkpt lat="45.04767" lon="4.70628">
        <ele>251.76699829102</ele>
        <time>2010-05-22T07:09:55Z</time>
      </trkpt>
      <trkpt lat="45.04727" lon="4.70541">
        <ele>251.60899353027</ele>
        <time>2010-05-22T07:10:07Z</time>
      </trkpt>
      <trkpt lat="45.047" lon="4.70481">
        <ele>251.41299438477</ele>
        <time>2010-05-22T07:10:15Z</time>
      </trkpt>
      <trkpt lat="45.04686" lon="4.70432">
        <ele>252.27000427246</ele>
        <time>2010-05-22T07:10:21Z</time>
      </trkpt>
      <trkpt lat="45.0468" lon="4.70387">
        <ele>254.44799804688</ele>
        <time>2010-05-22T07:10:27Z</time>
      </trkpt>
      <trkpt lat="45.04676" lon="4.70352">
        <ele>255.42799377441</ele>
        <time>2010-05-22T07:10:32Z</time>
      </trkpt>
      <trkpt lat="45.0467" lon="4.70331">
        <ele>256.03399658203</ele>
        <time>2010-05-22T07:10:35Z</time>
      </trkpt>
      <trkpt lat="45.04654" lon="4.70307">
        <ele>258.02801513672</ele>
        <time>2010-05-22T07:10:40Z</time>
      </trkpt>
      <trkpt lat="45.04639" lon="4.70284">
        <ele>258.64300537109</ele>
        <time>2010-05-22T07:10:45Z</time>
      </trkpt>
      <trkpt lat="45.04619" lon="4.70233">
        <ele>258.72698974609</ele>
        <time>2010-05-22T07:10:53Z</time>
      </trkpt>
      <trkpt lat="45.04595" lon="4.70185">
        <ele>259.20401000977</ele>
        <time>2010-05-22T07:11:00Z</time>
      </trkpt>
      <trkpt lat="45.04577" lon="4.70128">
        <ele>258.63598632812</ele>
        <time>2010-05-22T07:11:07Z</time>
      </trkpt>
      <trkpt lat="45.04556" lon="4.70073">
        <ele>259.13198852539</ele>
        <time>2010-05-22T07:11:14Z</time>
      </trkpt>
      <trkpt lat="45.04547" lon="4.70052">
        <ele>259.51098632812</ele>
        <time>2010-05-22T07:11:17Z</time>
      </trkpt>
      <trkpt lat="45.04542" lon="4.70013">
        <ele>259.42700195312</ele>
        <time>2010-05-22T07:11:22Z</time>
      </trkpt>
      <trkpt lat="45.04534" lon="4.69978">
        <ele>259.36599731445</ele>
        <time>2010-05-22T07:11:27Z</time>
      </trkpt>
      <trkpt lat="45.04513" lon="4.69939">
        <ele>259.69100952148</ele>
        <time>2010-05-22T07:11:33Z</time>
      </trkpt>
      <trkpt lat="45.04488" lon="4.69879">
        <ele>259.55599975586</ele>
        <time>2010-05-22T07:11:41Z</time>
      </trkpt>
      <trkpt lat="45.04485" lon="4.69872">
        <ele>259.74398803711</ele>
        <time>2010-05-22T07:11:42Z</time>
      </trkpt>
      <trkpt lat="45.04462" lon="4.6983">
        <ele>259.49099731445</ele>
        <time>2010-05-22T07:11:48Z</time>
      </trkpt>
      <trkpt lat="45.04433" lon="4.69782">
        <ele>259.02600097656</ele>
        <time>2010-05-22T07:11:55Z</time>
      </trkpt>
      <trkpt lat="45.04421" lon="4.69749">
        <ele>258.29400634766</ele>
        <time>2010-05-22T07:11:59Z</time>
      </trkpt>
      <trkpt lat="45.04407" lon="4.69702">
        <ele>259.74200439453</ele>
        <time>2010-05-22T07:12:05Z</time>
      </trkpt>
      <trkpt lat="45.04393" lon="4.6967">
        <ele>261.96600341797</ele>
        <time>2010-05-22T07:12:11Z</time>
      </trkpt>
      <trkpt lat="45.0439" lon="4.69665">
        <ele>262.24200439453</ele>
        <time>2010-05-22T07:12:12Z</time>
      </trkpt>
      <trkpt lat="45.04369" lon="4.69626">
        <ele>262.93099975586</ele>
        <time>2010-05-22T07:12:19Z</time>
      </trkpt>
      <trkpt lat="45.04358" lon="4.69604">
        <ele>262.91598510742</ele>
        <time>2010-05-22T07:12:23Z</time>
      </trkpt>
      <trkpt lat="45.04334" lon="4.69557">
        <ele>263.25</ele>
        <time>2010-05-22T07:12:31Z</time>
      </trkpt>
      <trkpt lat="45.04317" lon="4.69518">
        <ele>263.64300537109</ele>
        <time>2010-05-22T07:12:37Z</time>
      </trkpt>
      <trkpt lat="45.04301" lon="4.69468">
        <ele>263.74301147461</ele>
        <time>2010-05-22T07:12:44Z</time>
      </trkpt>
      <trkpt lat="45.04282" lon="4.69423">
        <ele>264.82299804688</ele>
        <time>2010-05-22T07:12:51Z</time>
      </trkpt>
      <trkpt lat="45.04262" lon="4.69381">
        <ele>265.37799072266</ele>
        <time>2010-05-22T07:12:58Z</time>
      </trkpt>
      <trkpt lat="45.04255" lon="4.6937">
        <ele>265.49398803711</ele>
        <time>2010-05-22T07:13:00Z</time>
      </trkpt>
      <trkpt lat="45.04232" lon="4.69347">
        <ele>265.55200195312</ele>
        <time>2010-05-22T07:13:05Z</time>
      </trkpt>
      <trkpt lat="45.04192" lon="4.69319">
        <ele>265.76098632812</ele>
        <time>2010-05-22T07:13:13Z</time>
      </trkpt>
      <trkpt lat="45.04177" lon="4.69312">
        <ele>265.64700317383</ele>
        <time>2010-05-22T07:13:16Z</time>
      </trkpt>
      <trkpt lat="45.0416" lon="4.69311">
        <ele>265.47198486328</ele>
        <time>2010-05-22T07:13:19Z</time>
      </trkpt>
      <trkpt lat="45.04128" lon="4.69307">
        <ele>263.88800048828</ele>
        <time>2010-05-22T07:13:24Z</time>
      </trkpt>
      <trkpt lat="45.04092" lon="4.69313">
        <ele>262.30499267578</ele>
        <time>2010-05-22T07:13:29Z</time>
      </trkpt>
      <trkpt lat="45.04081" lon="4.69318">
        <ele>262.97698974609</ele>
        <time>2010-05-22T07:13:31Z</time>
      </trkpt>
      <trkpt lat="45.04033" lon="4.69324">
        <ele>265.63000488281</ele>
        <time>2010-05-22T07:13:40Z</time>
      </trkpt>
      <trkpt lat="45.04028" lon="4.69325">
        <ele>265.98199462891</ele>
        <time>2010-05-22T07:13:41Z</time>
      </trkpt>
      <trkpt lat="45.04011" lon="4.6933">
        <ele>267.41198730469</ele>
        <time>2010-05-22T07:13:45Z</time>
      </trkpt>
      <trkpt lat="45.03988" lon="4.69345">
        <ele>269.63101196289</ele>
        <time>2010-05-22T07:13:51Z</time>
      </trkpt>
      <trkpt lat="45.0398" lon="4.69352">
        <ele>269.92098999023</ele>
        <time>2010-05-22T07:13:53Z</time>
      </trkpt>
      <trkpt lat="45.03971" lon="4.69359">
        <ele>270.19799804688</ele>
        <time>2010-05-22T07:13:55Z</time>
      </trkpt>
      <trkpt lat="45.03938" lon="4.69378">
        <ele>271.35198974609</ele>
        <time>2010-05-22T07:14:03Z</time>
      </trkpt>
      <trkpt lat="45.03929" lon="4.6938">
        <ele>271.33999633789</ele>
        <time>2010-05-22T07:14:05Z</time>
      </trkpt>
      <trkpt lat="45.0391" lon="4.69379">
        <ele>271.57000732422</ele>
        <time>2010-05-22T07:14:09Z</time>
      </trkpt>
      <trkpt lat="45.03891" lon="4.69371">
        <ele>271.45300292969</ele>
        <time>2010-05-22T07:14:13Z</time>
      </trkpt>
      <trkpt lat="45.03848" lon="4.69344">
        <ele>270.7919921875</ele>
        <time>2010-05-22T07:14:21Z</time>
      </trkpt>
      <trkpt lat="45.0381" lon="4.69321">
        <ele>270.64099121094</ele>
        <time>2010-05-22T07:14:28Z</time>
      </trkpt>
      <trkpt lat="45.03788" lon="4.69287">
        <ele>271.53399658203</ele>
        <time>2010-05-22T07:14:34Z</time>
      </trkpt>
      <trkpt lat="45.03784" lon="4.69274">
        <ele>272.22198486328</ele>
        <time>2010-05-22T07:14:36Z</time>
      </trkpt>
      <trkpt lat="45.03783" lon="4.69254">
        <ele>272.87298583984</ele>
        <time>2010-05-22T07:14:39Z</time>
      </trkpt>
      <trkpt lat="45.03793" lon="4.69201">
        <ele>273.81799316406</ele>
        <time>2010-05-22T07:14:47Z</time>
      </trkpt>
      <trkpt lat="45.03808" lon="4.69165">
        <ele>271.44799804688</ele>
        <time>2010-05-22T07:14:52Z</time>
      </trkpt>
      <trkpt lat="45.03821" lon="4.69118">
        <ele>267.0419921875</ele>
        <time>2010-05-22T07:14:56Z</time>
      </trkpt>
      <trkpt lat="45.03844" lon="4.69034">
        <ele>265.48300170898</ele>
        <time>2010-05-22T07:15:03Z</time>
      </trkpt>
      <trkpt lat="45.03861" lon="4.68985">
        <ele>265.41500854492</ele>
        <time>2010-05-22T07:15:08Z</time>
      </trkpt>
      <trkpt lat="45.03875" lon="4.68942">
        <ele>265.34298706055</ele>
        <time>2010-05-22T07:15:13Z</time>
      </trkpt>
      <trkpt lat="45.03896" lon="4.68884">
        <ele>265.92300415039</ele>
        <time>2010-05-22T07:15:20Z</time>
      </trkpt>
      <trkpt lat="45.03899" lon="4.68877">
        <ele>266</ele>
        <time>2010-05-22T07:15:21Z</time>
      </trkpt>
      <trkpt lat="45.03905" lon="4.68841">
        <ele>265.81799316406</ele>
        <time>2010-05-22T07:15:25Z</time>
      </trkpt>
      <trkpt lat="45.03922" lon="4.68781">
        <ele>266.22100830078</ele>
        <time>2010-05-22T07:15:32Z</time>
      </trkpt>
      <trkpt lat="45.03939" lon="4.68726">
        <ele>264.6780090332</ele>
        <time>2010-05-22T07:15:38Z</time>
      </trkpt>
      <trkpt lat="45.03957" lon="4.68666">
        <ele>265.62200927734</ele>
        <time>2010-05-22T07:15:45Z</time>
      </trkpt>
      <trkpt lat="45.03978" lon="4.686">
        <ele>265.93200683594</ele>
        <time>2010-05-22T07:15:53Z</time>
      </trkpt>
      <trkpt lat="45.03996" lon="4.68553">
        <ele>267.00201416016</ele>
        <time>2010-05-22T07:15:59Z</time>
      </trkpt>
      <trkpt lat="45.04012" lon="4.68508">
        <ele>267.83700561523</ele>
        <time>2010-05-22T07:16:05Z</time>
      </trkpt>
      <trkpt lat="45.04025" lon="4.6847">
        <ele>268.34201049805</ele>
        <time>2010-05-22T07:16:10Z</time>
      </trkpt>
      <trkpt lat="45.04036" lon="4.68437">
        <ele>269.74700927734</ele>
        <time>2010-05-22T07:16:15Z</time>
      </trkpt>
      <trkpt lat="45.04045" lon="4.684">
        <ele>270.20700073242</ele>
        <time>2010-05-22T07:16:21Z</time>
      </trkpt>
      <trkpt lat="45.04057" lon="4.68355">
        <ele>272.30099487305</ele>
        <time>2010-05-22T07:16:29Z</time>
      </trkpt>
      <trkpt lat="45.04063" lon="4.68337">
        <ele>272.81600952148</ele>
        <time>2010-05-22T07:16:32Z</time>
      </trkpt>
      <trkpt lat="45.04075" lon="4.68307">
        <ele>273.10400390625</ele>
        <time>2010-05-22T07:16:37Z</time>
      </trkpt>
      <trkpt lat="45.04086" lon="4.68279">
        <ele>273.66799926758</ele>
        <time>2010-05-22T07:16:42Z</time>
      </trkpt>
      <trkpt lat="45.0409" lon="4.68266">
        <ele>273.96200561523</ele>
        <time>2010-05-22T07:16:44Z</time>
      </trkpt>
      <trkpt lat="45.04097" lon="4.68214">
        <ele>274.16299438477</ele>
        <time>2010-05-22T07:16:51Z</time>
      </trkpt>
      <trkpt lat="45.04101" lon="4.68188">
        <ele>274.43600463867</ele>
        <time>2010-05-22T07:16:54Z</time>
      </trkpt>
      <trkpt lat="45.04109" lon="4.68138">
        <ele>275.1789855957</ele>
        <time>2010-05-22T07:17:00Z</time>
      </trkpt>
      <trkpt lat="45.04107" lon="4.6808">
        <ele>275.04699707031</ele>
        <time>2010-05-22T07:17:07Z</time>
      </trkpt>
      <trkpt lat="45.04102" lon="4.68004">
        <ele>275.25299072266</ele>
        <time>2010-05-22T07:17:16Z</time>
      </trkpt>
      <trkpt lat="45.04101" lon="4.67995">
        <ele>275.14300537109</ele>
        <time>2010-05-22T07:17:17Z</time>
      </trkpt>
      <trkpt lat="45.0409" lon="4.67954">
        <ele>275.27099609375</ele>
        <time>2010-05-22T07:17:22Z</time>
      </trkpt>
      <trkpt lat="45.04082" lon="4.67906">
        <ele>276.10000610352</ele>
        <time>2010-05-22T07:17:28Z</time>
      </trkpt>
      <trkpt lat="45.04078" lon="4.6789">
        <ele>275.9580078125</ele>
        <time>2010-05-22T07:17:30Z</time>
      </trkpt>
      <trkpt lat="45.04066" lon="4.67859">
        <ele>275.88400268555</ele>
        <time>2010-05-22T07:17:34Z</time>
      </trkpt>
      <trkpt lat="45.04041" lon="4.67829">
        <ele>274.98901367188</ele>
        <time>2010-05-22T07:17:39Z</time>
      </trkpt>
      <trkpt lat="45.04021" lon="4.67799">
        <ele>272.9169921875</ele>
        <time>2010-05-22T07:17:43Z</time>
      </trkpt>
      <trkpt lat="45.03994" lon="4.67751">
        <ele>273.71701049805</ele>
        <time>2010-05-22T07:17:49Z</time>
      </trkpt>
      <trkpt lat="45.03984" lon="4.67732">
        <ele>275.68099975586</ele>
        <time>2010-05-22T07:17:52Z</time>
      </trkpt>
      <trkpt lat="45.03977" lon="4.67722">
        <ele>276.56500244141</ele>
        <time>2010-05-22T07:17:54Z</time>
      </trkpt>
      <trkpt lat="45.03963" lon="4.67707">
        <ele>277.28399658203</ele>
        <time>2010-05-22T07:17:58Z</time>
      </trkpt>
      <trkpt lat="45.03933" lon="4.6768">
        <ele>278.42999267578</ele>
        <time>2010-05-22T07:18:05Z</time>
      </trkpt>
      <trkpt lat="45.03921" lon="4.67669">
        <ele>278.74499511719</ele>
        <time>2010-05-22T07:18:08Z</time>
      </trkpt>
      <trkpt lat="45.03896" lon="4.67652">
        <ele>280.56900024414</ele>
        <time>2010-05-22T07:18:14Z</time>
      </trkpt>
      <trkpt lat="45.03882" lon="4.67643">
        <ele>281.68399047852</ele>
        <time>2010-05-22T07:18:18Z</time>
      </trkpt>
      <trkpt lat="45.03862" lon="4.6763">
        <ele>281.17999267578</ele>
        <time>2010-05-22T07:18:23Z</time>
      </trkpt>
      <trkpt lat="45.03831" lon="4.67618">
        <ele>279.32998657227</ele>
        <time>2010-05-22T07:18:29Z</time>
      </trkpt>
      <trkpt lat="45.0379" lon="4.67611">
        <ele>278.43499755859</ele>
        <time>2010-05-22T07:18:36Z</time>
      </trkpt>
      <trkpt lat="45.03756" lon="4.67609">
        <ele>278.99600219727</ele>
        <time>2010-05-22T07:18:42Z</time>
      </trkpt>
      <trkpt lat="45.03745" lon="4.6761">
        <ele>279.29000854492</ele>
        <time>2010-05-22T07:18:44Z</time>
      </trkpt>
      <trkpt lat="45.03708" lon="4.67607">
        <ele>279.02899169922</ele>
        <time>2010-05-22T07:18:51Z</time>
      </trkpt>
      <trkpt lat="45.03702" lon="4.67607">
        <ele>278.6780090332</ele>
        <time>2010-05-22T07:18:52Z</time>
      </trkpt>
      <trkpt lat="45.0367" lon="4.67605">
        <ele>277.03100585938</ele>
        <time>2010-05-22T07:18:57Z</time>
      </trkpt>
      <trkpt lat="45.03663" lon="4.67604">
        <ele>276.81500244141</ele>
        <time>2010-05-22T07:18:58Z</time>
      </trkpt>
      <trkpt lat="45.03651" lon="4.67605">
        <ele>276.63198852539</ele>
        <time>2010-05-22T07:19:00Z</time>
      </trkpt>
      <trkpt lat="45.03634" lon="4.67595">
        <ele>276.28799438477</ele>
        <time>2010-05-22T07:19:04Z</time>
      </trkpt>
      <trkpt lat="45.03598" lon="4.67556">
        <ele>274.86801147461</ele>
        <time>2010-05-22T07:19:12Z</time>
      </trkpt>
      <trkpt lat="45.03584" lon="4.67543">
        <ele>274.39999389648</ele>
        <time>2010-05-22T07:19:15Z</time>
      </trkpt>
      <trkpt lat="45.03542" lon="4.67516">
        <ele>273.71600341797</ele>
        <time>2010-05-22T07:19:23Z</time>
      </trkpt>
      <trkpt lat="45.03488" lon="4.67492">
        <ele>272.87600708008</ele>
        <time>2010-05-22T07:19:33Z</time>
      </trkpt>
      <trkpt lat="45.03455" lon="4.67476">
        <ele>272.98199462891</ele>
        <time>2010-05-22T07:19:39Z</time>
      </trkpt>
      <trkpt lat="45.0343" lon="4.67465">
        <ele>273.2919921875</ele>
        <time>2010-05-22T07:19:44Z</time>
      </trkpt>
      <trkpt lat="45.03402" lon="4.67451">
        <ele>273.24798583984</ele>
        <time>2010-05-22T07:19:50Z</time>
      </trkpt>
      <trkpt lat="45.03361" lon="4.67429">
        <ele>273.35101318359</ele>
        <time>2010-05-22T07:19:58Z</time>
      </trkpt>
      <trkpt lat="45.03316" lon="4.67404">
        <ele>274.32901000977</ele>
        <time>2010-05-22T07:20:07Z</time>
      </trkpt>
      <trkpt lat="45.03288" lon="4.67385">
        <ele>274.72198486328</ele>
        <time>2010-05-22T07:20:13Z</time>
      </trkpt>
      <trkpt lat="45.03265" lon="4.67359">
        <ele>274.49301147461</ele>
        <time>2010-05-22T07:20:18Z</time>
      </trkpt>
      <trkpt lat="45.03248" lon="4.67323">
        <ele>274.48098754883</ele>
        <time>2010-05-22T07:20:23Z</time>
      </trkpt>
      <trkpt lat="45.03233" lon="4.67269">
        <ele>274.88900756836</ele>
        <time>2010-05-22T07:20:30Z</time>
      </trkpt>
      <trkpt lat="45.03222" lon="4.67198">
        <ele>275.3630065918</ele>
        <time>2010-05-22T07:20:39Z</time>
      </trkpt>
      <trkpt lat="45.0322" lon="4.67127">
        <ele>275.92001342773</ele>
        <time>2010-05-22T07:20:48Z</time>
      </trkpt>
      <trkpt lat="45.03223" lon="4.67074">
        <ele>276.72601318359</ele>
        <time>2010-05-22T07:20:55Z</time>
      </trkpt>
      <trkpt lat="45.0323" lon="4.6702">
        <ele>277.40899658203</ele>
        <time>2010-05-22T07:21:02Z</time>
      </trkpt>
      <trkpt lat="45.03241" lon="4.66975">
        <ele>277.94900512695</ele>
        <time>2010-05-22T07:21:08Z</time>
      </trkpt>
      <trkpt lat="45.03262" lon="4.66902">
        <ele>279.13198852539</ele>
        <time>2010-05-22T07:21:18Z</time>
      </trkpt>
      <trkpt lat="45.03283" lon="4.66832">
        <ele>280.25601196289</ele>
        <time>2010-05-22T07:21:28Z</time>
      </trkpt>
      <trkpt lat="45.03291" lon="4.66811">
        <ele>280.47399902344</ele>
        <time>2010-05-22T07:21:31Z</time>
      </trkpt>
      <trkpt lat="45.03306" lon="4.66794">
        <ele>281.14401245117</ele>
        <time>2010-05-22T07:21:35Z</time>
      </trkpt>
      <trkpt lat="45.03316" lon="4.66794">
        <ele>281.04501342773</ele>
        <time>2010-05-22T07:21:37Z</time>
      </trkpt>
      <trkpt lat="45.03357" lon="4.66794">
        <ele>281.35699462891</ele>
        <time>2010-05-22T07:21:45Z</time>
      </trkpt>
      <trkpt lat="45.03384" lon="4.66777">
        <ele>282.0530090332</ele>
        <time>2010-05-22T07:21:51Z</time>
      </trkpt>
      <trkpt lat="45.03399" lon="4.66743">
        <ele>282.72900390625</ele>
        <time>2010-05-22T07:21:57Z</time>
      </trkpt>
      <trkpt lat="45.03403" lon="4.66722">
        <ele>283.4460144043</ele>
        <time>2010-05-22T07:22:00Z</time>
      </trkpt>
      <trkpt lat="45.03413" lon="4.66662">
        <ele>284.56399536133</ele>
        <time>2010-05-22T07:22:09Z</time>
      </trkpt>
      <trkpt lat="45.0342" lon="4.66623">
        <ele>285.38101196289</ele>
        <time>2010-05-22T07:22:15Z</time>
      </trkpt>
      <trkpt lat="45.03433" lon="4.66599">
        <ele>286.61401367188</ele>
        <time>2010-05-22T07:22:20Z</time>
      </trkpt>
      <trkpt lat="45.0344" lon="4.66592">
        <ele>286.76998901367</ele>
        <time>2010-05-22T07:22:22Z</time>
      </trkpt>
      <trkpt lat="45.03455" lon="4.66571">
        <ele>287.10998535156</ele>
        <time>2010-05-22T07:22:27Z</time>
      </trkpt>
      <trkpt lat="45.03471" lon="4.66564">
        <ele>287.35598754883</ele>
        <time>2010-05-22T07:22:31Z</time>
      </trkpt>
      <trkpt lat="45.03492" lon="4.66574">
        <ele>288.99700927734</ele>
        <time>2010-05-22T07:22:37Z</time>
      </trkpt>
      <trkpt lat="45.03512" lon="4.6658">
        <ele>290.45001220703</ele>
        <time>2010-05-22T07:22:43Z</time>
      </trkpt>
      <trkpt lat="45.03532" lon="4.66576">
        <ele>291.13598632812</ele>
        <time>2010-05-22T07:22:48Z</time>
      </trkpt>
      <trkpt lat="45.03553" lon="4.66575">
        <ele>292.24200439453</ele>
        <time>2010-05-22T07:22:54Z</time>
      </trkpt>
      <trkpt lat="45.03574" lon="4.66584">
        <ele>293.79501342773</ele>
        <time>2010-05-22T07:23:00Z</time>
      </trkpt>
      <trkpt lat="45.03588" lon="4.66591">
        <ele>294.78698730469</ele>
        <time>2010-05-22T07:23:04Z</time>
      </trkpt>
      <trkpt lat="45.03606" lon="4.66591">
        <ele>295.57598876953</ele>
        <time>2010-05-22T07:23:08Z</time>
      </trkpt>
      <trkpt lat="45.03624" lon="4.6659">
        <ele>296.8210144043</ele>
        <time>2010-05-22T07:23:13Z</time>
      </trkpt>
      <trkpt lat="45.03643" lon="4.66576">
        <ele>298.51901245117</ele>
        <time>2010-05-22T07:23:19Z</time>
      </trkpt>
      <trkpt lat="45.03656" lon="4.6655">
        <ele>299.98498535156</ele>
        <time>2010-05-22T07:23:25Z</time>
      </trkpt>
      <trkpt lat="45.03659" lon="4.66526">
        <ele>301.37100219727</ele>
        <time>2010-05-22T07:23:30Z</time>
      </trkpt>
      <trkpt lat="45.03656" lon="4.66493">
        <ele>303.05700683594</ele>
        <time>2010-05-22T07:23:37Z</time>
      </trkpt>
      <trkpt lat="45.03655" lon="4.66468">
        <ele>304.35998535156</ele>
        <time>2010-05-22T07:23:43Z</time>
      </trkpt>
      <trkpt lat="45.03666" lon="4.66435">
        <ele>306.13299560547</ele>
        <time>2010-05-22T07:23:49Z</time>
      </trkpt>
      <trkpt lat="45.0368" lon="4.66415">
        <ele>307.18798828125</ele>
        <time>2010-05-22T07:23:54Z</time>
      </trkpt>
      <trkpt lat="45.03696" lon="4.66407">
        <ele>308.48199462891</ele>
        <time>2010-05-22T07:24:00Z</time>
      </trkpt>
      <trkpt lat="45.03711" lon="4.66403">
        <ele>309.60998535156</ele>
        <time>2010-05-22T07:24:05Z</time>
      </trkpt>
      <trkpt lat="45.03735" lon="4.66397">
        <ele>311.0830078125</ele>
        <time>2010-05-22T07:24:12Z</time>
      </trkpt>
      <trkpt lat="45.03753" lon="4.66391">
        <ele>312.44000244141</ele>
        <time>2010-05-22T07:24:17Z</time>
      </trkpt>
      <trkpt lat="45.03773" lon="4.66384">
        <ele>314.11599731445</ele>
        <time>2010-05-22T07:24:23Z</time>
      </trkpt>
      <trkpt lat="45.03796" lon="4.66375">
        <ele>315.68701171875</ele>
        <time>2010-05-22T07:24:30Z</time>
      </trkpt>
      <trkpt lat="45.03815" lon="4.66369">
        <ele>317.37701416016</ele>
        <time>2010-05-22T07:24:36Z</time>
      </trkpt>
      <trkpt lat="45.03838" lon="4.66362">
        <ele>319.11700439453</ele>
        <time>2010-05-22T07:24:43Z</time>
      </trkpt>
      <trkpt lat="45.03864" lon="4.66357">
        <ele>321.23199462891</ele>
        <time>2010-05-22T07:24:51Z</time>
      </trkpt>
      <trkpt lat="45.03891" lon="4.66356">
        <ele>323.24899291992</ele>
        <time>2010-05-22T07:24:59Z</time>
      </trkpt>
      <trkpt lat="45.03923" lon="4.66361">
        <ele>325.21600341797</ele>
        <time>2010-05-22T07:25:08Z</time>
      </trkpt>
      <trkpt lat="45.0394" lon="4.66355">
        <ele>326.4280090332</ele>
        <time>2010-05-22T07:25:13Z</time>
      </trkpt>
      <trkpt lat="45.03957" lon="4.66336">
        <ele>327.90899658203</ele>
        <time>2010-05-22T07:25:19Z</time>
      </trkpt>
      <trkpt lat="45.03964" lon="4.66313">
        <ele>329.46899414062</ele>
        <time>2010-05-22T07:25:24Z</time>
      </trkpt>
      <trkpt lat="45.03975" lon="4.6629">
        <ele>330.86898803711</ele>
        <time>2010-05-22T07:25:30Z</time>
      </trkpt>
      <trkpt lat="45.03991" lon="4.66273">
        <ele>332.57598876953</ele>
        <time>2010-05-22T07:25:36Z</time>
      </trkpt>
      <trkpt lat="45.04016" lon="4.66253">
        <ele>335.20300292969</ele>
        <time>2010-05-22T07:25:45Z</time>
      </trkpt>
      <trkpt lat="45.04034" lon="4.6624">
        <ele>336.87298583984</ele>
        <time>2010-05-22T07:25:51Z</time>
      </trkpt>
      <trkpt lat="45.04055" lon="4.66226">
        <ele>338.6789855957</ele>
        <time>2010-05-22T07:25:58Z</time>
      </trkpt>
      <trkpt lat="45.04064" lon="4.66213">
        <ele>339.88800048828</ele>
        <time>2010-05-22T07:26:02Z</time>
      </trkpt>
      <trkpt lat="45.04065" lon="4.66208">
        <ele>340.04299926758</ele>
        <time>2010-05-22T07:26:03Z</time>
      </trkpt>
      <trkpt lat="45.04056" lon="4.66198">
        <ele>340.99600219727</ele>
        <time>2010-05-22T07:26:07Z</time>
      </trkpt>
      <trkpt lat="45.0405" lon="4.66202">
        <ele>341.50500488281</ele>
        <time>2010-05-22T07:26:09Z</time>
      </trkpt>
      <trkpt lat="45.04024" lon="4.66219">
        <ele>344.14001464844</ele>
        <time>2010-05-22T07:26:18Z</time>
      </trkpt>
      <trkpt lat="45.04" lon="4.66226">
        <ele>346.10000610352</ele>
        <time>2010-05-22T07:26:25Z</time>
      </trkpt>
      <trkpt lat="45.03976" lon="4.66238">
        <ele>347.12701416016</ele>
        <time>2010-05-22T07:26:32Z</time>
      </trkpt>
      <trkpt lat="45.03953" lon="4.6625">
        <ele>349.39898681641</ele>
        <time>2010-05-22T07:26:39Z</time>
      </trkpt>
      <trkpt lat="45.03936" lon="4.66245">
        <ele>350.8219909668</ele>
        <time>2010-05-22T07:26:44Z</time>
      </trkpt>
      <trkpt lat="45.0392" lon="4.66251">
        <ele>352.49200439453</ele>
        <time>2010-05-22T07:26:49Z</time>
      </trkpt>
      <trkpt lat="45.03894" lon="4.66264">
        <ele>354.93399047852</ele>
        <time>2010-05-22T07:26:57Z</time>
      </trkpt>
      <trkpt lat="45.03874" lon="4.66261">
        <ele>356.56799316406</ele>
        <time>2010-05-22T07:27:03Z</time>
      </trkpt>
      <trkpt lat="45.0387" lon="4.66258">
        <ele>356.68499755859</ele>
        <time>2010-05-22T07:27:04Z</time>
      </trkpt>
      <trkpt lat="45.03871" lon="4.66243">
        <ele>357.89001464844</ele>
        <time>2010-05-22T07:27:08Z</time>
      </trkpt>
      <trkpt lat="45.03878" lon="4.66242">
        <ele>358.71798706055</ele>
        <time>2010-05-22T07:27:10Z</time>
      </trkpt>
      <trkpt lat="45.03898" lon="4.66237">
        <ele>360.94000244141</ele>
        <time>2010-05-22T07:27:16Z</time>
      </trkpt>
      <trkpt lat="45.039" lon="4.66233">
        <ele>361.10299682617</ele>
        <time>2010-05-22T07:27:17Z</time>
      </trkpt>
      <trkpt lat="45.03906" lon="4.66211">
        <ele>362.60900878906</ele>
        <time>2010-05-22T07:27:22Z</time>
      </trkpt>
      <trkpt lat="45.03912" lon="4.66198">
        <ele>363.17001342773</ele>
        <time>2010-05-22T07:27:25Z</time>
      </trkpt>
      <trkpt lat="45.03922" lon="4.66193">
        <ele>364.71200561523</ele>
        <time>2010-05-22T07:27:29Z</time>
      </trkpt>
      <trkpt lat="45.03937" lon="4.66194">
        <ele>366.10000610352</ele>
        <time>2010-05-22T07:27:35Z</time>
      </trkpt>
      <trkpt lat="45.03952" lon="4.66186">
        <ele>366.89999389648</ele>
        <time>2010-05-22T07:27:40Z</time>
      </trkpt>
      <trkpt lat="45.03969" lon="4.66164">
        <ele>368.43399047852</ele>
        <time>2010-05-22T07:27:46Z</time>
      </trkpt>
      <trkpt lat="45.03971" lon="4.6614">
        <ele>369.60800170898</ele>
        <time>2010-05-22T07:27:51Z</time>
      </trkpt>
      <trkpt lat="45.03965" lon="4.66118">
        <ele>371.23999023438</ele>
        <time>2010-05-22T07:27:56Z</time>
      </trkpt>
      <trkpt lat="45.03951" lon="4.66094">
        <ele>372.43600463867</ele>
        <time>2010-05-22T07:28:02Z</time>
      </trkpt>
      <trkpt lat="45.03949" lon="4.66073">
        <ele>373.19900512695</ele>
        <time>2010-05-22T07:28:06Z</time>
      </trkpt>
      <trkpt lat="45.0395" lon="4.66047">
        <ele>374.53799438477</ele>
        <time>2010-05-22T07:28:11Z</time>
      </trkpt>
      <trkpt lat="45.03944" lon="4.66023">
        <ele>375.51699829102</ele>
        <time>2010-05-22T07:28:16Z</time>
      </trkpt>
      <trkpt lat="45.0394" lon="4.65996">
        <ele>377.08200073242</ele>
        <time>2010-05-22T07:28:22Z</time>
      </trkpt>
      <trkpt lat="45.03946" lon="4.65972">
        <ele>378.04000854492</ele>
        <time>2010-05-22T07:28:27Z</time>
      </trkpt>
      <trkpt lat="45.0396" lon="4.65949">
        <ele>380.10501098633</ele>
        <time>2010-05-22T07:28:33Z</time>
      </trkpt>
      <trkpt lat="45.03978" lon="4.65933">
        <ele>381.30700683594</ele>
        <time>2010-05-22T07:28:39Z</time>
      </trkpt>
      <trkpt lat="45.03996" lon="4.65922">
        <ele>382.16500854492</ele>
        <time>2010-05-22T07:28:44Z</time>
      </trkpt>
      <trkpt lat="45.04006" lon="4.65905">
        <ele>383.25100708008</ele>
        <time>2010-05-22T07:28:48Z</time>
      </trkpt>
      <trkpt lat="45.0401" lon="4.65879">
        <ele>384.59899902344</ele>
        <time>2010-05-22T07:28:53Z</time>
      </trkpt>
      <trkpt lat="45.04007" lon="4.65847">
        <ele>385.79299926758</ele>
        <time>2010-05-22T07:28:59Z</time>
      </trkpt>
      <trkpt lat="45.04007" lon="4.65821">
        <ele>386.62701416016</ele>
        <time>2010-05-22T07:29:04Z</time>
      </trkpt>
      <trkpt lat="45.04016" lon="4.65805">
        <ele>387.88800048828</ele>
        <time>2010-05-22T07:29:08Z</time>
      </trkpt>
      <trkpt lat="45.04041" lon="4.65783">
        <ele>389.72900390625</ele>
        <time>2010-05-22T07:29:16Z</time>
      </trkpt>
      <trkpt lat="45.04057" lon="4.65772">
        <ele>391.09399414062</ele>
        <time>2010-05-22T07:29:21Z</time>
      </trkpt>
      <trkpt lat="45.04079" lon="4.65768">
        <ele>392.34100341797</ele>
        <time>2010-05-22T07:29:27Z</time>
      </trkpt>
      <trkpt lat="45.04092" lon="4.65759">
        <ele>393.53399658203</ele>
        <time>2010-05-22T07:29:31Z</time>
      </trkpt>
      <trkpt lat="45.04115" lon="4.65727">
        <ele>396.49099731445</ele>
        <time>2010-05-22T07:29:40Z</time>
      </trkpt>
      <trkpt lat="45.04116" lon="4.65708">
        <ele>397.83599853516</ele>
        <time>2010-05-22T07:29:44Z</time>
      </trkpt>
      <trkpt lat="45.04107" lon="4.65696">
        <ele>399.03500366211</ele>
        <time>2010-05-22T07:29:48Z</time>
      </trkpt>
      <trkpt lat="45.04094" lon="4.65699">
        <ele>400.08801269531</ele>
        <time>2010-05-22T07:29:52Z</time>
      </trkpt>
      <trkpt lat="45.04065" lon="4.65709">
        <ele>402.16799926758</ele>
        <time>2010-05-22T07:30:00Z</time>
      </trkpt>
      <trkpt lat="45.04034" lon="4.65718">
        <ele>403.99700927734</ele>
        <time>2010-05-22T07:30:08Z</time>
      </trkpt>
      <trkpt lat="45.04019" lon="4.65734">
        <ele>405.64199829102</ele>
        <time>2010-05-22T07:30:13Z</time>
      </trkpt>
      <trkpt lat="45.04004" lon="4.65745">
        <ele>407.07299804688</ele>
        <time>2010-05-22T07:30:18Z</time>
      </trkpt>
      <trkpt lat="45.03987" lon="4.65744">
        <ele>408.41400146484</ele>
        <time>2010-05-22T07:30:23Z</time>
      </trkpt>
      <trkpt lat="45.03957" lon="4.65734">
        <ele>410.62701416016</ele>
        <time>2010-05-22T07:30:31Z</time>
      </trkpt>
      <trkpt lat="45.03931" lon="4.65727">
        <ele>411.95999145508</ele>
        <time>2010-05-22T07:30:38Z</time>
      </trkpt>
      <trkpt lat="45.03907" lon="4.65721">
        <ele>413.96499633789</ele>
        <time>2010-05-22T07:30:45Z</time>
      </trkpt>
      <trkpt lat="45.03893" lon="4.65707">
        <ele>416</ele>
        <time>2010-05-22T07:30:50Z</time>
      </trkpt>
      <trkpt lat="45.0389" lon="4.65689">
        <ele>417.65600585938</ele>
        <time>2010-05-22T07:30:54Z</time>
      </trkpt>
      <trkpt lat="45.03896" lon="4.6566">
        <ele>419.21301269531</ele>
        <time>2010-05-22T07:31:00Z</time>
      </trkpt>
      <trkpt lat="45.03904" lon="4.65639">
        <ele>420.20401000977</ele>
        <time>2010-05-22T07:31:04Z</time>
      </trkpt>
      <trkpt lat="45.03919" lon="4.65614">
        <ele>421.10000610352</ele>
        <time>2010-05-22T07:31:08Z</time>
      </trkpt>
      <trkpt lat="45.0393" lon="4.65583">
        <ele>423.4289855957</ele>
        <time>2010-05-22T07:31:12Z</time>
      </trkpt>
      <trkpt lat="45.03925" lon="4.65549">
        <ele>425.81100463867</ele>
        <time>2010-05-22T07:31:16Z</time>
      </trkpt>
      <trkpt lat="45.03922" lon="4.65542">
        <ele>426.30499267578</ele>
        <time>2010-05-22T07:31:17Z</time>
      </trkpt>
      <trkpt lat="45.03905" lon="4.65503">
        <ele>428.80599975586</ele>
        <time>2010-05-22T07:31:23Z</time>
      </trkpt>
      <trkpt lat="45.03885" lon="4.65458">
        <ele>431.20498657227</ele>
        <time>2010-05-22T07:31:30Z</time>
      </trkpt>
      <trkpt lat="45.03873" lon="4.65434">
        <ele>432.9580078125</ele>
        <time>2010-05-22T07:31:35Z</time>
      </trkpt>
      <trkpt lat="45.03862" lon="4.65414">
        <ele>433.61401367188</ele>
        <time>2010-05-22T07:31:41Z</time>
      </trkpt>
      <trkpt lat="45.03858" lon="4.65399">
        <ele>433.75601196289</ele>
        <time>2010-05-22T07:31:46Z</time>
      </trkpt>
      <trkpt lat="45.03854" lon="4.65403">
        <ele>433.50799560547</ele>
        <time>2010-05-22T07:31:50Z</time>
      </trkpt>
      <trkpt lat="45.03864" lon="4.65409">
        <ele>433.49899291992</ele>
        <time>2010-05-22T07:31:54Z</time>
      </trkpt>
      <trkpt lat="45.03872" lon="4.65416">
        <ele>433.98001098633</ele>
        <time>2010-05-22T07:31:58Z</time>
      </trkpt>
      <trkpt lat="45.0388" lon="4.65425">
        <ele>434.07299804688</ele>
        <time>2010-05-22T07:32:04Z</time>
      </trkpt>
      <trkpt lat="45.03882" lon="4.65428">
        <ele>434.08401489258</ele>
        <time>2010-05-22T07:32:06Z</time>
      </trkpt>
      <trkpt lat="45.03881" lon="4.65431">
        <ele>434.07000732422</ele>
        <time>2010-05-22T07:32:09Z</time>
      </trkpt>
      <trkpt lat="45.0388" lon="4.65431">
        <ele>433.9580078125</ele>
        <time>2010-05-22T07:32:13Z</time>
      </trkpt>
      <trkpt lat="45.03876" lon="4.6543">
        <ele>433.88500976562</ele>
        <time>2010-05-22T07:33:30Z</time>
      </trkpt>
      <trkpt lat="45.03875" lon="4.65429">
        <ele>433.80700683594</ele>
        <time>2010-05-22T07:33:31Z</time>
      </trkpt>
      <trkpt lat="45.03868" lon="4.65425">
        <ele>433.67300415039</ele>
        <time>2010-05-22T07:33:34Z</time>
      </trkpt>
      <trkpt lat="45.03862" lon="4.65411">
        <ele>433.86199951172</ele>
        <time>2010-05-22T07:33:40Z</time>
      </trkpt>
      <trkpt lat="45.03859" lon="4.65401">
        <ele>433.55200195312</ele>
        <time>2010-05-22T07:33:43Z</time>
      </trkpt>
      <trkpt lat="45.03839" lon="4.65384">
        <ele>433.26599121094</ele>
        <time>2010-05-22T07:33:50Z</time>
      </trkpt>
      <trkpt lat="45.03821" lon="4.65373">
        <ele>432.6969909668</ele>
        <time>2010-05-22T07:33:55Z</time>
      </trkpt>
      <trkpt lat="45.03791" lon="4.6536">
        <ele>431.01998901367</ele>
        <time>2010-05-22T07:34:01Z</time>
      </trkpt>
      <trkpt lat="45.03747" lon="4.65348">
        <ele>429.57998657227</ele>
        <time>2010-05-22T07:34:08Z</time>
      </trkpt>
      <trkpt lat="45.03691" lon="4.65334">
        <ele>427.58599853516</ele>
        <time>2010-05-22T07:34:16Z</time>
      </trkpt>
      <trkpt lat="45.03656" lon="4.65315">
        <ele>425.98599243164</ele>
        <time>2010-05-22T07:34:21Z</time>
      </trkpt>
      <trkpt lat="45.03625" lon="4.65277">
        <ele>424.53399658203</ele>
        <time>2010-05-22T07:34:26Z</time>
      </trkpt>
      <trkpt lat="45.0362" lon="4.65267">
        <ele>424.18301391602</ele>
        <time>2010-05-22T07:34:27Z</time>
      </trkpt>
      <trkpt lat="45.0361" lon="4.65246">
        <ele>423.10800170898</ele>
        <time>2010-05-22T07:34:29Z</time>
      </trkpt>
      <trkpt lat="45.03596" lon="4.65183">
        <ele>420.76501464844</ele>
        <time>2010-05-22T07:34:34Z</time>
      </trkpt>
      <trkpt lat="45.03591" lon="4.65125">
        <ele>418.47500610352</ele>
        <time>2010-05-22T07:34:38Z</time>
      </trkpt>
      <trkpt lat="45.03595" lon="4.65055">
        <ele>418.1960144043</ele>
        <time>2010-05-22T07:34:43Z</time>
      </trkpt>
      <trkpt lat="45.03601" lon="4.64999">
        <ele>419.11499023438</ele>
        <time>2010-05-22T07:34:48Z</time>
      </trkpt>
      <trkpt lat="45.0361" lon="4.64909">
        <ele>420.19799804688</ele>
        <time>2010-05-22T07:34:57Z</time>
      </trkpt>
      <trkpt lat="45.03617" lon="4.64837">
        <ele>419.97500610352</ele>
        <time>2010-05-22T07:35:04Z</time>
      </trkpt>
      <trkpt lat="45.03617" lon="4.64826">
        <ele>419.77200317383</ele>
        <time>2010-05-22T07:35:05Z</time>
      </trkpt>
      <trkpt lat="45.0361" lon="4.64773">
        <ele>418.65399169922</ele>
        <time>2010-05-22T07:35:10Z</time>
      </trkpt>
      <trkpt lat="45.03595" lon="4.6475">
        <ele>418.62298583984</ele>
        <time>2010-05-22T07:35:13Z</time>
      </trkpt>
      <trkpt lat="45.03588" lon="4.64745">
        <ele>418.71701049805</ele>
        <time>2010-05-22T07:35:14Z</time>
      </trkpt>
      <trkpt lat="45.03542" lon="4.64694">
        <ele>417.82000732422</ele>
        <time>2010-05-22T07:35:22Z</time>
      </trkpt>
      <trkpt lat="45.035" lon="4.64639">
        <ele>415.78799438477</ele>
        <time>2010-05-22T07:35:29Z</time>
      </trkpt>
      <trkpt lat="45.03474" lon="4.64606">
        <ele>415.18701171875</ele>
        <time>2010-05-22T07:35:33Z</time>
      </trkpt>
      <trkpt lat="45.03448" lon="4.64547">
        <ele>414.23400878906</ele>
        <time>2010-05-22T07:35:39Z</time>
      </trkpt>
      <trkpt lat="45.03436" lon="4.64509">
        <ele>414.16299438477</ele>
        <time>2010-05-22T07:35:43Z</time>
      </trkpt>
      <trkpt lat="45.03425" lon="4.64473">
        <ele>413.76000976562</ele>
        <time>2010-05-22T07:35:47Z</time>
      </trkpt>
      <trkpt lat="45.03423" lon="4.6442">
        <ele>412.86499023438</ele>
        <time>2010-05-22T07:35:52Z</time>
      </trkpt>
      <trkpt lat="45.03432" lon="4.64369">
        <ele>412.36700439453</ele>
        <time>2010-05-22T07:35:57Z</time>
      </trkpt>
      <trkpt lat="45.0343" lon="4.64331">
        <ele>413.06100463867</ele>
        <time>2010-05-22T07:36:01Z</time>
      </trkpt>
      <trkpt lat="45.03414" lon="4.64316">
        <ele>413.70700073242</ele>
        <time>2010-05-22T07:36:04Z</time>
      </trkpt>
      <trkpt lat="45.03408" lon="4.64314">
        <ele>414.04998779297</ele>
        <time>2010-05-22T07:36:05Z</time>
      </trkpt>
      <trkpt lat="45.03374" lon="4.643">
        <ele>415.6780090332</ele>
        <time>2010-05-22T07:36:11Z</time>
      </trkpt>
      <trkpt lat="45.0337" lon="4.64298">
        <ele>415.9289855957</ele>
        <time>2010-05-22T07:36:12Z</time>
      </trkpt>
      <trkpt lat="45.03342" lon="4.64298">
        <ele>416.29901123047</ele>
        <time>2010-05-22T07:36:18Z</time>
      </trkpt>
      <trkpt lat="45.03337" lon="4.64299">
        <ele>416.47900390625</ele>
        <time>2010-05-22T07:36:19Z</time>
      </trkpt>
      <trkpt lat="45.03311" lon="4.64292">
        <ele>417.72399902344</ele>
        <time>2010-05-22T07:36:25Z</time>
      </trkpt>
      <trkpt lat="45.03285" lon="4.6427">
        <ele>418.5710144043</ele>
        <time>2010-05-22T07:36:31Z</time>
      </trkpt>
      <trkpt lat="45.0326" lon="4.64234">
        <ele>420.4169921875</ele>
        <time>2010-05-22T07:36:38Z</time>
      </trkpt>
      <trkpt lat="45.03247" lon="4.64206">
        <ele>421.39599609375</ele>
        <time>2010-05-22T07:36:43Z</time>
      </trkpt>
      <trkpt lat="45.03245" lon="4.64173">
        <ele>422.37298583984</ele>
        <time>2010-05-22T07:36:48Z</time>
      </trkpt>
      <trkpt lat="45.03254" lon="4.64149">
        <ele>422.77301025391</ele>
        <time>2010-05-22T07:36:52Z</time>
      </trkpt>
      <trkpt lat="45.03284" lon="4.64112">
        <ele>424.39001464844</ele>
        <time>2010-05-22T07:37:00Z</time>
      </trkpt>
      <trkpt lat="45.03311" lon="4.64075">
        <ele>425.57699584961</ele>
        <time>2010-05-22T07:37:08Z</time>
      </trkpt>
      <trkpt lat="45.03335" lon="4.64033">
        <ele>426.5299987793</ele>
        <time>2010-05-22T07:37:16Z</time>
      </trkpt>
      <trkpt lat="45.03348" lon="4.63988">
        <ele>427.55599975586</ele>
        <time>2010-05-22T07:37:23Z</time>
      </trkpt>
      <trkpt lat="45.0336" lon="4.63936">
        <ele>428.17999267578</ele>
        <time>2010-05-22T07:37:31Z</time>
      </trkpt>
      <trkpt lat="45.03357" lon="4.63904">
        <ele>428.46301269531</ele>
        <time>2010-05-22T07:37:36Z</time>
      </trkpt>
      <trkpt lat="45.03352" lon="4.63892">
        <ele>428.82299804688</ele>
        <time>2010-05-22T07:37:38Z</time>
      </trkpt>
      <trkpt lat="45.03326" lon="4.63833">
        <ele>430.53201293945</ele>
        <time>2010-05-22T07:37:48Z</time>
      </trkpt>
      <trkpt lat="45.03317" lon="4.63807">
        <ele>430.77499389648</ele>
        <time>2010-05-22T07:37:52Z</time>
      </trkpt>
      <trkpt lat="45.03312" lon="4.63752">
        <ele>431.60800170898</ele>
        <time>2010-05-22T07:38:00Z</time>
      </trkpt>
      <trkpt lat="45.03317" lon="4.63682">
        <ele>432.69000244141</ele>
        <time>2010-05-22T07:38:10Z</time>
      </trkpt>
      <trkpt lat="45.03338" lon="4.63622">
        <ele>432.9880065918</ele>
        <time>2010-05-22T07:38:19Z</time>
      </trkpt>
      <trkpt lat="45.0336" lon="4.63598">
        <ele>433.08499145508</ele>
        <time>2010-05-22T07:38:24Z</time>
      </trkpt>
      <trkpt lat="45.03371" lon="4.63594">
        <ele>433.01800537109</ele>
        <time>2010-05-22T07:38:26Z</time>
      </trkpt>
      <trkpt lat="45.03417" lon="4.63591">
        <ele>432.79998779297</ele>
        <time>2010-05-22T07:38:34Z</time>
      </trkpt>
      <trkpt lat="45.03439" lon="4.63599">
        <ele>432.49499511719</ele>
        <time>2010-05-22T07:38:38Z</time>
      </trkpt>
      <trkpt lat="45.03461" lon="4.63599">
        <ele>433.05200195312</ele>
        <time>2010-05-22T07:38:42Z</time>
      </trkpt>
      <trkpt lat="45.03475" lon="4.63583">
        <ele>432.79598999023</ele>
        <time>2010-05-22T07:38:45Z</time>
      </trkpt>
      <trkpt lat="45.03479" lon="4.63559">
        <ele>433.5950012207</ele>
        <time>2010-05-22T07:38:48Z</time>
      </trkpt>
      <trkpt lat="45.03476" lon="4.63545">
        <ele>433.90600585938</ele>
        <time>2010-05-22T07:38:50Z</time>
      </trkpt>
      <trkpt lat="45.03452" lon="4.63499">
        <ele>435.41101074219</ele>
        <time>2010-05-22T07:38:57Z</time>
      </trkpt>
      <trkpt lat="45.03444" lon="4.63488">
        <ele>435.67700195312</ele>
        <time>2010-05-22T07:38:59Z</time>
      </trkpt>
      <trkpt lat="45.03429" lon="4.63447">
        <ele>436.59799194336</ele>
        <time>2010-05-22T07:39:05Z</time>
      </trkpt>
      <trkpt lat="45.03423" lon="4.63401">
        <ele>437.02899169922</ele>
        <time>2010-05-22T07:39:11Z</time>
      </trkpt>
      <trkpt lat="45.0341" lon="4.63366">
        <ele>437.15301513672</ele>
        <time>2010-05-22T07:39:16Z</time>
      </trkpt>
      <trkpt lat="45.03397" lon="4.63351">
        <ele>437.3869934082</ele>
        <time>2010-05-22T07:39:19Z</time>
      </trkpt>
      <trkpt lat="45.03351" lon="4.6331">
        <ele>438.99301147461</ele>
        <time>2010-05-22T07:39:29Z</time>
      </trkpt>
      <trkpt lat="45.03346" lon="4.63307">
        <ele>439.06799316406</ele>
        <time>2010-05-22T07:39:30Z</time>
      </trkpt>
      <trkpt lat="45.03315" lon="4.633">
        <ele>439.23098754883</ele>
        <time>2010-05-22T07:39:36Z</time>
      </trkpt>
      <trkpt lat="45.03304" lon="4.63303">
        <ele>439.43600463867</ele>
        <time>2010-05-22T07:39:38Z</time>
      </trkpt>
      <trkpt lat="45.0327" lon="4.63321">
        <ele>440.64001464844</ele>
        <time>2010-05-22T07:39:45Z</time>
      </trkpt>
      <trkpt lat="45.03251" lon="4.6332">
        <ele>441.61801147461</ele>
        <time>2010-05-22T07:39:49Z</time>
      </trkpt>
      <trkpt lat="45.03221" lon="4.63299">
        <ele>442.30499267578</ele>
        <time>2010-05-22T07:39:56Z</time>
      </trkpt>
      <trkpt lat="45.03205" lon="4.63272">
        <ele>444.0119934082</ele>
        <time>2010-05-22T07:40:01Z</time>
      </trkpt>
      <trkpt lat="45.032" lon="4.63236">
        <ele>444.50799560547</ele>
        <time>2010-05-22T07:40:06Z</time>
      </trkpt>
      <trkpt lat="45.03202" lon="4.6322">
        <ele>444.4460144043</ele>
        <time>2010-05-22T07:40:08Z</time>
      </trkpt>
      <trkpt lat="45.03217" lon="4.63157">
        <ele>443.9460144043</ele>
        <time>2010-05-22T07:40:16Z</time>
      </trkpt>
      <trkpt lat="45.03234" lon="4.63101">
        <ele>443.53799438477</ele>
        <time>2010-05-22T07:40:23Z</time>
      </trkpt>
      <trkpt lat="45.03236" lon="4.63064">
        <ele>443.09899902344</ele>
        <time>2010-05-22T07:40:27Z</time>
      </trkpt>
      <trkpt lat="45.03235" lon="4.63014">
        <ele>442.30999755859</ele>
        <time>2010-05-22T07:40:32Z</time>
      </trkpt>
      <trkpt lat="45.03228" lon="4.62976">
        <ele>442.01000976562</ele>
        <time>2010-05-22T07:40:36Z</time>
      </trkpt>
      <trkpt lat="45.03199" lon="4.62888">
        <ele>440.42498779297</ele>
        <time>2010-05-22T07:40:45Z</time>
      </trkpt>
      <trkpt lat="45.03181" lon="4.62831">
        <ele>440.41598510742</ele>
        <time>2010-05-22T07:40:51Z</time>
      </trkpt>
      <trkpt lat="45.03183" lon="4.6279">
        <ele>440.18600463867</ele>
        <time>2010-05-22T07:40:55Z</time>
      </trkpt>
      <trkpt lat="45.03194" lon="4.62774">
        <ele>439.86199951172</ele>
        <time>2010-05-22T07:40:57Z</time>
      </trkpt>
      <trkpt lat="45.0323" lon="4.62732">
        <ele>439.16000366211</ele>
        <time>2010-05-22T07:41:03Z</time>
      </trkpt>
      <trkpt lat="45.03236" lon="4.62725">
        <ele>439.19299316406</ele>
        <time>2010-05-22T07:41:04Z</time>
      </trkpt>
      <trkpt lat="45.03265" lon="4.62714">
        <ele>438.01300048828</ele>
        <time>2010-05-22T07:41:08Z</time>
      </trkpt>
      <trkpt lat="45.03285" lon="4.62723">
        <ele>437.83898925781</ele>
        <time>2010-05-22T07:41:11Z</time>
      </trkpt>
      <trkpt lat="45.03297" lon="4.62718">
        <ele>438.08200073242</ele>
        <time>2010-05-22T07:41:13Z</time>
      </trkpt>
      <trkpt lat="45.03303" lon="4.62693">
        <ele>438.06600952148</ele>
        <time>2010-05-22T07:41:16Z</time>
      </trkpt>
      <trkpt lat="45.03302" lon="4.62684">
        <ele>437.74499511719</ele>
        <time>2010-05-22T07:41:17Z</time>
      </trkpt>
      <trkpt lat="45.03295" lon="4.62646">
        <ele>436.09899902344</ele>
        <time>2010-05-22T07:41:21Z</time>
      </trkpt>
      <trkpt lat="45.03287" lon="4.62596">
        <ele>435.28799438477</ele>
        <time>2010-05-22T07:41:26Z</time>
      </trkpt>
      <trkpt lat="45.03273" lon="4.62527">
        <ele>434.37298583984</ele>
        <time>2010-05-22T07:41:32Z</time>
      </trkpt>
      <trkpt lat="45.03262" lon="4.62444">
        <ele>432.65798950195</ele>
        <time>2010-05-22T07:41:39Z</time>
      </trkpt>
      <trkpt lat="45.0327" lon="4.62397">
        <ele>431.98199462891</ele>
        <time>2010-05-22T07:41:43Z</time>
      </trkpt>
      <trkpt lat="45.03291" lon="4.62328">
        <ele>430.0719909668</ele>
        <time>2010-05-22T07:41:49Z</time>
      </trkpt>
      <trkpt lat="45.03307" lon="4.62261">
        <ele>429.12100219727</ele>
        <time>2010-05-22T07:41:55Z</time>
      </trkpt>
      <trkpt lat="45.03305" lon="4.62221">
        <ele>428.86898803711</ele>
        <time>2010-05-22T07:41:59Z</time>
      </trkpt>
      <trkpt lat="45.03292" lon="4.62176">
        <ele>428.95098876953</ele>
        <time>2010-05-22T07:42:04Z</time>
      </trkpt>
      <trkpt lat="45.03286" lon="4.6216">
        <ele>428.64498901367</ele>
        <time>2010-05-22T07:42:06Z</time>
      </trkpt>
      <trkpt lat="45.03265" lon="4.62148">
        <ele>428.30599975586</ele>
        <time>2010-05-22T07:42:10Z</time>
      </trkpt>
      <trkpt lat="45.03249" lon="4.62159">
        <ele>427.73901367188</ele>
        <time>2010-05-22T07:42:13Z</time>
      </trkpt>
      <trkpt lat="45.03241" lon="4.62187">
        <ele>427.94100952148</ele>
        <time>2010-05-22T07:42:16Z</time>
      </trkpt>
      <trkpt lat="45.0324" lon="4.62207">
        <ele>427.8030090332</ele>
        <time>2010-05-22T07:42:18Z</time>
      </trkpt>
      <trkpt lat="45.03238" lon="4.62228">
        <ele>427.48901367188</ele>
        <time>2010-05-22T07:42:20Z</time>
      </trkpt>
      <trkpt lat="45.03218" lon="4.62276">
        <ele>426.90301513672</ele>
        <time>2010-05-22T07:42:25Z</time>
      </trkpt>
      <trkpt lat="45.03189" lon="4.62302">
        <ele>426.65701293945</ele>
        <time>2010-05-22T07:42:29Z</time>
      </trkpt>
      <trkpt lat="45.03167" lon="4.62318">
        <ele>426.65200805664</ele>
        <time>2010-05-22T07:42:32Z</time>
      </trkpt>
      <trkpt lat="45.03144" lon="4.62351">
        <ele>426.07699584961</ele>
        <time>2010-05-22T07:42:36Z</time>
      </trkpt>
      <trkpt lat="45.0312" lon="4.62418">
        <ele>426.14300537109</ele>
        <time>2010-05-22T07:42:43Z</time>
      </trkpt>
      <trkpt lat="45.031" lon="4.62454">
        <ele>425.96798706055</ele>
        <time>2010-05-22T07:42:47Z</time>
      </trkpt>
      <trkpt lat="45.03077" lon="4.62465">
        <ele>425.93499755859</ele>
        <time>2010-05-22T07:42:50Z</time>
      </trkpt>
      <trkpt lat="45.03045" lon="4.62463">
        <ele>425.79299926758</ele>
        <time>2010-05-22T07:42:54Z</time>
      </trkpt>
      <trkpt lat="45.0303" lon="4.62457">
        <ele>425.7200012207</ele>
        <time>2010-05-22T07:42:56Z</time>
      </trkpt>
      <trkpt lat="45.03016" lon="4.62449">
        <ele>425.51000976562</ele>
        <time>2010-05-22T07:42:58Z</time>
      </trkpt>
      <trkpt lat="45.02979" lon="4.62413">
        <ele>425.12399291992</ele>
        <time>2010-05-22T07:43:04Z</time>
      </trkpt>
      <trkpt lat="45.0295" lon="4.62385">
        <ele>424.69198608398</ele>
        <time>2010-05-22T07:43:09Z</time>
      </trkpt>
      <trkpt lat="45.02932" lon="4.62371">
        <ele>424.9280090332</ele>
        <time>2010-05-22T07:43:12Z</time>
      </trkpt>
      <trkpt lat="45.02886" lon="4.62355">
        <ele>424.47100830078</ele>
        <time>2010-05-22T07:43:19Z</time>
      </trkpt>
      <trkpt lat="45.02864" lon="4.6235">
        <ele>423.98400878906</ele>
        <time>2010-05-22T07:43:22Z</time>
      </trkpt>
      <trkpt lat="45.02831" lon="4.62327">
        <ele>423.43798828125</ele>
        <time>2010-05-22T07:43:27Z</time>
      </trkpt>
      <trkpt lat="45.02784" lon="4.62276">
        <ele>422.30499267578</ele>
        <time>2010-05-22T07:43:35Z</time>
      </trkpt>
      <trkpt lat="45.02731" lon="4.62222">
        <ele>421.25500488281</ele>
        <time>2010-05-22T07:43:44Z</time>
      </trkpt>
      <trkpt lat="45.02716" lon="4.62204">
        <ele>421.05599975586</ele>
        <time>2010-05-22T07:43:47Z</time>
      </trkpt>
      <trkpt lat="45.02702" lon="4.6217">
        <ele>420.77499389648</ele>
        <time>2010-05-22T07:43:51Z</time>
      </trkpt>
      <trkpt lat="45.02699" lon="4.62149">
        <ele>420.50100708008</ele>
        <time>2010-05-22T07:43:53Z</time>
      </trkpt>
      <trkpt lat="45.02698" lon="4.62095">
        <ele>419.84201049805</ele>
        <time>2010-05-22T07:43:58Z</time>
      </trkpt>
      <trkpt lat="45.02685" lon="4.62046">
        <ele>419.88800048828</ele>
        <time>2010-05-22T07:44:03Z</time>
      </trkpt>
      <trkpt lat="45.02669" lon="4.62003">
        <ele>419.65701293945</ele>
        <time>2010-05-22T07:44:08Z</time>
      </trkpt>
      <trkpt lat="45.02642" lon="4.61973">
        <ele>418.7080078125</ele>
        <time>2010-05-22T07:44:13Z</time>
      </trkpt>
      <trkpt lat="45.0262" lon="4.61975">
        <ele>418.47799682617</ele>
        <time>2010-05-22T07:44:16Z</time>
      </trkpt>
      <trkpt lat="45.02602" lon="4.61993">
        <ele>417.53399658203</ele>
        <time>2010-05-22T07:44:19Z</time>
      </trkpt>
      <trkpt lat="45.02571" lon="4.62023">
        <ele>417.12200927734</ele>
        <time>2010-05-22T07:44:24Z</time>
      </trkpt>
      <trkpt lat="45.02541" lon="4.62027">
        <ele>416.69299316406</ele>
        <time>2010-05-22T07:44:28Z</time>
      </trkpt>
      <trkpt lat="45.02526" lon="4.62021">
        <ele>416.6549987793</ele>
        <time>2010-05-22T07:44:30Z</time>
      </trkpt>
      <trkpt lat="45.02481" lon="4.61992">
        <ele>416.01501464844</ele>
        <time>2010-05-22T07:44:37Z</time>
      </trkpt>
      <trkpt lat="45.02451" lon="4.61964">
        <ele>415.83200073242</ele>
        <time>2010-05-22T07:44:42Z</time>
      </trkpt>
      <trkpt lat="45.0242" lon="4.61914">
        <ele>415.05499267578</ele>
        <time>2010-05-22T07:44:48Z</time>
      </trkpt>
      <trkpt lat="45.02384" lon="4.61853">
        <ele>413.96398925781</ele>
        <time>2010-05-22T07:44:55Z</time>
      </trkpt>
      <trkpt lat="45.02379" lon="4.61844">
        <ele>413.87100219727</ele>
        <time>2010-05-22T07:44:56Z</time>
      </trkpt>
      <trkpt lat="45.0237" lon="4.61825">
        <ele>413.17401123047</ele>
        <time>2010-05-22T07:44:58Z</time>
      </trkpt>
      <trkpt lat="45.02362" lon="4.61781">
        <ele>413.14001464844</ele>
        <time>2010-05-22T07:45:02Z</time>
      </trkpt>
      <trkpt lat="45.02363" lon="4.6177">
        <ele>413.01300048828</ele>
        <time>2010-05-22T07:45:03Z</time>
      </trkpt>
      <trkpt lat="45.02366" lon="4.61748">
        <ele>412.87799072266</ele>
        <time>2010-05-22T07:45:05Z</time>
      </trkpt>
      <trkpt lat="45.02362" lon="4.6171">
        <ele>411.91799926758</ele>
        <time>2010-05-22T07:45:09Z</time>
      </trkpt>
      <trkpt lat="45.02343" lon="4.61698">
        <ele>410.80899047852</ele>
        <time>2010-05-22T07:45:12Z</time>
      </trkpt>
      <trkpt lat="45.02322" lon="4.61709">
        <ele>410.80200195312</ele>
        <time>2010-05-22T07:45:15Z</time>
      </trkpt>
      <trkpt lat="45.0227" lon="4.61762">
        <ele>408.60699462891</ele>
        <time>2010-05-22T07:45:23Z</time>
      </trkpt>
      <trkpt lat="45.02264" lon="4.61769">
        <ele>408.38598632812</ele>
        <time>2010-05-22T07:45:24Z</time>
      </trkpt>
      <trkpt lat="45.02245" lon="4.61807">
        <ele>406.03399658203</ele>
        <time>2010-05-22T07:45:28Z</time>
      </trkpt>
      <trkpt lat="45.02218" lon="4.61851">
        <ele>405.27899169922</ele>
        <time>2010-05-22T07:45:33Z</time>
      </trkpt>
      <trkpt lat="45.02194" lon="4.61859">
        <ele>404.41000366211</ele>
        <time>2010-05-22T07:45:36Z</time>
      </trkpt>
      <trkpt lat="45.02177" lon="4.61858">
        <ele>404.13000488281</ele>
        <time>2010-05-22T07:45:38Z</time>
      </trkpt>
      <trkpt lat="45.02129" lon="4.61854">
        <ele>402.63198852539</ele>
        <time>2010-05-22T07:45:44Z</time>
      </trkpt>
      <trkpt lat="45.02102" lon="4.61875">
        <ele>400.99600219727</ele>
        <time>2010-05-22T07:45:48Z</time>
      </trkpt>
      <trkpt lat="45.021" lon="4.6191">
        <ele>400.11099243164</ele>
        <time>2010-05-22T07:45:51Z</time>
      </trkpt>
      <trkpt lat="45.02113" lon="4.6194">
        <ele>399.21301269531</ele>
        <time>2010-05-22T07:45:54Z</time>
      </trkpt>
      <trkpt lat="45.02124" lon="4.61973">
        <ele>398.55899047852</ele>
        <time>2010-05-22T07:45:57Z</time>
      </trkpt>
      <trkpt lat="45.02118" lon="4.62007">
        <ele>397.6969909668</ele>
        <time>2010-05-22T07:46:00Z</time>
      </trkpt>
      <trkpt lat="45.02105" lon="4.62022">
        <ele>397.18798828125</ele>
        <time>2010-05-22T07:46:02Z</time>
      </trkpt>
      <trkpt lat="45.02081" lon="4.62038">
        <ele>396.48599243164</ele>
        <time>2010-05-22T07:46:05Z</time>
      </trkpt>
      <trkpt lat="45.02057" lon="4.62075">
        <ele>393.08200073242</ele>
        <time>2010-05-22T07:46:09Z</time>
      </trkpt>
      <trkpt lat="45.02035" lon="4.62132">
        <ele>389.80700683594</ele>
        <time>2010-05-22T07:46:13Z</time>
      </trkpt>
      <trkpt lat="45.0201" lon="4.62172">
        <ele>388.03100585938</ele>
        <time>2010-05-22T07:46:16Z</time>
      </trkpt>
      <trkpt lat="45.01987" lon="4.6219">
        <ele>387.34298706055</ele>
        <time>2010-05-22T07:46:18Z</time>
      </trkpt>
      <trkpt lat="45.01961" lon="4.62199">
        <ele>387.01400756836</ele>
        <time>2010-05-22T07:46:20Z</time>
      </trkpt>
      <trkpt lat="45.01938" lon="4.6221">
        <ele>386.0299987793</ele>
        <time>2010-05-22T07:46:22Z</time>
      </trkpt>
      <trkpt lat="45.01897" lon="4.62261">
        <ele>383.96798706055</ele>
        <time>2010-05-22T07:46:27Z</time>
      </trkpt>
      <trkpt lat="45.01863" lon="4.62313">
        <ele>383.10400390625</ele>
        <time>2010-05-22T07:46:33Z</time>
      </trkpt>
      <trkpt lat="45.01821" lon="4.62361">
        <ele>380.06201171875</ele>
        <time>2010-05-22T07:46:39Z</time>
      </trkpt>
      <trkpt lat="45.01778" lon="4.62411">
        <ele>376.58099365234</ele>
        <time>2010-05-22T07:46:45Z</time>
      </trkpt>
      <trkpt lat="45.01746" lon="4.62432">
        <ele>374.72500610352</ele>
        <time>2010-05-22T07:46:49Z</time>
      </trkpt>
      <trkpt lat="45.01737" lon="4.62434">
        <ele>374.54299926758</ele>
        <time>2010-05-22T07:46:50Z</time>
      </trkpt>
      <trkpt lat="45.01711" lon="4.6244">
        <ele>373.47799682617</ele>
        <time>2010-05-22T07:46:53Z</time>
      </trkpt>
      <trkpt lat="45.01675" lon="4.62465">
        <ele>372.06399536133</ele>
        <time>2010-05-22T07:46:58Z</time>
      </trkpt>
      <trkpt lat="45.0166" lon="4.62474">
        <ele>371.61700439453</ele>
        <time>2010-05-22T07:47:00Z</time>
      </trkpt>
      <trkpt lat="45.01608" lon="4.62491">
        <ele>369.04501342773</ele>
        <time>2010-05-22T07:47:06Z</time>
      </trkpt>
      <trkpt lat="45.01546" lon="4.62516">
        <ele>366.45999145508</ele>
        <time>2010-05-22T07:47:13Z</time>
      </trkpt>
      <trkpt lat="45.01537" lon="4.62521">
        <ele>366.03298950195</ele>
        <time>2010-05-22T07:47:14Z</time>
      </trkpt>
      <trkpt lat="45.01511" lon="4.62522">
        <ele>365.42001342773</ele>
        <time>2010-05-22T07:47:17Z</time>
      </trkpt>
      <trkpt lat="45.01492" lon="4.62502">
        <ele>365.21301269531</ele>
        <time>2010-05-22T07:47:20Z</time>
      </trkpt>
      <trkpt lat="45.01479" lon="4.62473">
        <ele>364.02200317383</ele>
        <time>2010-05-22T07:47:23Z</time>
      </trkpt>
      <trkpt lat="45.01473" lon="4.62451">
        <ele>363.44000244141</ele>
        <time>2010-05-22T07:47:25Z</time>
      </trkpt>
      <trkpt lat="45.01451" lon="4.62357">
        <ele>360.76300048828</ele>
        <time>2010-05-22T07:47:33Z</time>
      </trkpt>
      <trkpt lat="45.01446" lon="4.62332">
        <ele>359.89599609375</ele>
        <time>2010-05-22T07:47:35Z</time>
      </trkpt>
      <trkpt lat="45.01445" lon="4.62279">
        <ele>357.84899902344</ele>
        <time>2010-05-22T07:47:39Z</time>
      </trkpt>
      <trkpt lat="45.01439" lon="4.62201">
        <ele>355.6549987793</ele>
        <time>2010-05-22T07:47:45Z</time>
      </trkpt>
      <trkpt lat="45.01426" lon="4.62154">
        <ele>354.69900512695</ele>
        <time>2010-05-22T07:47:49Z</time>
      </trkpt>
      <trkpt lat="45.01415" lon="4.62134">
        <ele>354.21798706055</ele>
        <time>2010-05-22T07:47:51Z</time>
      </trkpt>
      <trkpt lat="45.01406" lon="4.62083">
        <ele>352.75698852539</ele>
        <time>2010-05-22T07:47:55Z</time>
      </trkpt>
      <trkpt lat="45.01417" lon="4.62045">
        <ele>351.31600952148</ele>
        <time>2010-05-22T07:47:58Z</time>
      </trkpt>
      <trkpt lat="45.01431" lon="4.61996">
        <ele>349.90100097656</ele>
        <time>2010-05-22T07:48:02Z</time>
      </trkpt>
      <trkpt lat="45.01432" lon="4.61944">
        <ele>347.94299316406</ele>
        <time>2010-05-22T07:48:06Z</time>
      </trkpt>
      <trkpt lat="45.01416" lon="4.61915">
        <ele>348.24301147461</ele>
        <time>2010-05-22T07:48:09Z</time>
      </trkpt>
      <trkpt lat="45.01395" lon="4.61907">
        <ele>348.73498535156</ele>
        <time>2010-05-22T07:48:12Z</time>
      </trkpt>
      <trkpt lat="45.01378" lon="4.61928">
        <ele>349.78100585938</ele>
        <time>2010-05-22T07:48:15Z</time>
      </trkpt>
      <trkpt lat="45.01371" lon="4.61944">
        <ele>349.93399047852</ele>
        <time>2010-05-22T07:48:17Z</time>
      </trkpt>
      <trkpt lat="45.01353" lon="4.61967">
        <ele>350.31298828125</ele>
        <time>2010-05-22T07:48:21Z</time>
      </trkpt>
      <trkpt lat="45.01339" lon="4.61961">
        <ele>351.12100219727</ele>
        <time>2010-05-22T07:48:24Z</time>
      </trkpt>
      <trkpt lat="45.01316" lon="4.6195">
        <ele>351.3450012207</ele>
        <time>2010-05-22T07:48:28Z</time>
      </trkpt>
      <trkpt lat="45.0131" lon="4.61949">
        <ele>351.43499755859</ele>
        <time>2010-05-22T07:48:29Z</time>
      </trkpt>
      <trkpt lat="45.01268" lon="4.6196">
        <ele>351.93399047852</ele>
        <time>2010-05-22T07:48:36Z</time>
      </trkpt>
      <trkpt lat="45.01234" lon="4.6197">
        <ele>351.61801147461</ele>
        <time>2010-05-22T07:48:41Z</time>
      </trkpt>
      <trkpt lat="45.01207" lon="4.61962">
        <ele>351.52600097656</ele>
        <time>2010-05-22T07:48:45Z</time>
      </trkpt>
      <trkpt lat="45.01189" lon="4.61943">
        <ele>350.89199829102</ele>
        <time>2010-05-22T07:48:48Z</time>
      </trkpt>
      <trkpt lat="45.01155" lon="4.61897">
        <ele>350.41198730469</ele>
        <time>2010-05-22T07:48:54Z</time>
      </trkpt>
      <trkpt lat="45.01123" lon="4.6185">
        <ele>349.82299804688</ele>
        <time>2010-05-22T07:49:00Z</time>
      </trkpt>
      <trkpt lat="45.01085" lon="4.61797">
        <ele>349.13000488281</ele>
        <time>2010-05-22T07:49:07Z</time>
      </trkpt>
      <trkpt lat="45.0108" lon="4.6179">
        <ele>349.07501220703</ele>
        <time>2010-05-22T07:49:08Z</time>
      </trkpt>
      <trkpt lat="45.01049" lon="4.61731">
        <ele>347.98001098633</ele>
        <time>2010-05-22T07:49:15Z</time>
      </trkpt>
      <trkpt lat="45.01035" lon="4.61704">
        <ele>348.02200317383</ele>
        <time>2010-05-22T07:49:18Z</time>
      </trkpt>
      <trkpt lat="45.01009" lon="4.61681">
        <ele>347.63000488281</ele>
        <time>2010-05-22T07:49:22Z</time>
      </trkpt>
      <trkpt lat="45.00941" lon="4.61644">
        <ele>346.90301513672</ele>
        <time>2010-05-22T07:49:31Z</time>
      </trkpt>
      <trkpt lat="45.00888" lon="4.61626">
        <ele>346.84399414062</ele>
        <time>2010-05-22T07:49:38Z</time>
      </trkpt>
      <trkpt lat="45.00859" lon="4.61634">
        <ele>347.06500244141</ele>
        <time>2010-05-22T07:49:42Z</time>
      </trkpt>
      <trkpt lat="45.00852" lon="4.61652">
        <ele>347.2200012207</ele>
        <time>2010-05-22T07:49:44Z</time>
      </trkpt>
      <trkpt lat="45.0083" lon="4.61735">
        <ele>347.32299804688</ele>
        <time>2010-05-22T07:49:53Z</time>
      </trkpt>
      <trkpt lat="45.00825" lon="4.61753">
        <ele>347.20599365234</ele>
        <time>2010-05-22T07:49:55Z</time>
      </trkpt>
      <trkpt lat="45.00804" lon="4.61787">
        <ele>347.56201171875</ele>
        <time>2010-05-22T07:50:00Z</time>
      </trkpt>
      <trkpt lat="45.00792" lon="4.61793">
        <ele>347.96798706055</ele>
        <time>2010-05-22T07:50:02Z</time>
      </trkpt>
      <trkpt lat="45.00762" lon="4.61808">
        <ele>348.74700927734</ele>
        <time>2010-05-22T07:50:07Z</time>
      </trkpt>
      <trkpt lat="45.00745" lon="4.61821">
        <ele>349.54699707031</ele>
        <time>2010-05-22T07:50:10Z</time>
      </trkpt>
      <trkpt lat="45.00729" lon="4.61844">
        <ele>350.84600830078</ele>
        <time>2010-05-22T07:50:14Z</time>
      </trkpt>
      <trkpt lat="45.00718" lon="4.61864">
        <ele>351.38101196289</ele>
        <time>2010-05-22T07:50:17Z</time>
      </trkpt>
      <trkpt lat="45.00707" lon="4.61893">
        <ele>352.00500488281</ele>
        <time>2010-05-22T07:50:21Z</time>
      </trkpt>
      <trkpt lat="45.00697" lon="4.6194">
        <ele>352.83401489258</ele>
        <time>2010-05-22T07:50:27Z</time>
      </trkpt>
      <trkpt lat="45.00692" lon="4.61964">
        <ele>353.13500976562</ele>
        <time>2010-05-22T07:50:30Z</time>
      </trkpt>
      <trkpt lat="45.00675" lon="4.61995">
        <ele>353.74700927734</ele>
        <time>2010-05-22T07:50:35Z</time>
      </trkpt>
      <trkpt lat="45.00658" lon="4.61998">
        <ele>354.65200805664</ele>
        <time>2010-05-22T07:50:38Z</time>
      </trkpt>
      <trkpt lat="45.00644" lon="4.61984">
        <ele>355.22900390625</ele>
        <time>2010-05-22T07:50:41Z</time>
      </trkpt>
      <trkpt lat="45.0064" lon="4.61977">
        <ele>355.44000244141</ele>
        <time>2010-05-22T07:50:42Z</time>
      </trkpt>
      <trkpt lat="45.00629" lon="4.61953">
        <ele>356.64300537109</ele>
        <time>2010-05-22T07:50:46Z</time>
      </trkpt>
      <trkpt lat="45.0061" lon="4.61936">
        <ele>357.82699584961</ele>
        <time>2010-05-22T07:50:51Z</time>
      </trkpt>
      <trkpt lat="45.00593" lon="4.61943">
        <ele>358.67599487305</ele>
        <time>2010-05-22T07:50:55Z</time>
      </trkpt>
      <trkpt lat="45.00584" lon="4.61958">
        <ele>359.55599975586</ele>
        <time>2010-05-22T07:50:58Z</time>
      </trkpt>
      <trkpt lat="45.00578" lon="4.61969">
        <ele>359.71099853516</ele>
        <time>2010-05-22T07:51:00Z</time>
      </trkpt>
      <trkpt lat="45.0056" lon="4.61985">
        <ele>359.98599243164</ele>
        <time>2010-05-22T07:51:04Z</time>
      </trkpt>
      <trkpt lat="45.00545" lon="4.61985">
        <ele>360.71200561523</ele>
        <time>2010-05-22T07:51:07Z</time>
      </trkpt>
      <trkpt lat="45.00531" lon="4.61981">
        <ele>361.80899047852</ele>
        <time>2010-05-22T07:51:10Z</time>
      </trkpt>
      <trkpt lat="45.00475" lon="4.61952">
        <ele>363.75100708008</ele>
        <time>2010-05-22T07:51:22Z</time>
      </trkpt>
      <trkpt lat="45.00445" lon="4.61929">
        <ele>364.75698852539</ele>
        <time>2010-05-22T07:51:29Z</time>
      </trkpt>
      <trkpt lat="45.00415" lon="4.61895">
        <ele>365.42700195312</ele>
        <time>2010-05-22T07:51:36Z</time>
      </trkpt>
      <trkpt lat="45.0039" lon="4.61884">
        <ele>366.75799560547</ele>
        <time>2010-05-22T07:51:41Z</time>
      </trkpt>
      <trkpt lat="45.0038" lon="4.61885">
        <ele>367.42599487305</ele>
        <time>2010-05-22T07:51:43Z</time>
      </trkpt>
      <trkpt lat="45.00342" lon="4.61893">
        <ele>368.51000976562</ele>
        <time>2010-05-22T07:51:50Z</time>
      </trkpt>
      <trkpt lat="45.00313" lon="4.61885">
        <ele>369.41500854492</ele>
        <time>2010-05-22T07:51:55Z</time>
      </trkpt>
      <trkpt lat="45.00308" lon="4.61881">
        <ele>369.81698608398</ele>
        <time>2010-05-22T07:51:56Z</time>
      </trkpt>
      <trkpt lat="45.00266" lon="4.61838">
        <ele>372.03601074219</ele>
        <time>2010-05-22T07:52:05Z</time>
      </trkpt>
      <trkpt lat="45.00229" lon="4.61799">
        <ele>373.4049987793</ele>
        <time>2010-05-22T07:52:13Z</time>
      </trkpt>
      <trkpt lat="45.00213" lon="4.61782">
        <ele>373.94500732422</ele>
        <time>2010-05-22T07:52:17Z</time>
      </trkpt>
      <trkpt lat="45.00189" lon="4.61771">
        <ele>374.98300170898</ele>
        <time>2010-05-22T07:52:22Z</time>
      </trkpt>
      <trkpt lat="45.00183" lon="4.61771">
        <ele>375.16000366211</ele>
        <time>2010-05-22T07:52:23Z</time>
      </trkpt>
      <trkpt lat="45.00165" lon="4.61775">
        <ele>376.16101074219</ele>
        <time>2010-05-22T07:52:27Z</time>
      </trkpt>
      <trkpt lat="45.00143" lon="4.61764">
        <ele>376.81201171875</ele>
        <time>2010-05-22T07:52:32Z</time>
      </trkpt>
      <trkpt lat="45.00138" lon="4.61744">
        <ele>377.54098510742</ele>
        <time>2010-05-22T07:52:35Z</time>
      </trkpt>
      <trkpt lat="45.0014" lon="4.61732">
        <ele>378.25698852539</ele>
        <time>2010-05-22T07:52:37Z</time>
      </trkpt>
      <trkpt lat="45.00142" lon="4.61719">
        <ele>378.88500976562</ele>
        <time>2010-05-22T07:52:39Z</time>
      </trkpt>
      <trkpt lat="45.00137" lon="4.61676">
        <ele>380.07901000977</ele>
        <time>2010-05-22T07:52:45Z</time>
      </trkpt>
      <trkpt lat="45.00121" lon="4.61657">
        <ele>380.83700561523</ele>
        <time>2010-05-22T07:52:49Z</time>
      </trkpt>
      <trkpt lat="45.00116" lon="4.61655">
        <ele>380.88000488281</ele>
        <time>2010-05-22T07:52:50Z</time>
      </trkpt>
      <trkpt lat="45.0009" lon="4.61655">
        <ele>381.79699707031</ele>
        <time>2010-05-22T07:52:55Z</time>
      </trkpt>
      <trkpt lat="45.00068" lon="4.61663">
        <ele>382.88101196289</ele>
        <time>2010-05-22T07:53:00Z</time>
      </trkpt>
      <trkpt lat="45.00045" lon="4.61659">
        <ele>383.51901245117</ele>
        <time>2010-05-22T07:53:05Z</time>
      </trkpt>
      <trkpt lat="45.0004" lon="4.61656">
        <ele>383.73599243164</ele>
        <time>2010-05-22T07:53:06Z</time>
      </trkpt>
      <trkpt lat="45.00029" lon="4.61627">
        <ele>384.4169921875</ele>
        <time>2010-05-22T07:53:11Z</time>
      </trkpt>
      <trkpt lat="45.00032" lon="4.61599">
        <ele>385.28799438477</ele>
        <time>2010-05-22T07:53:15Z</time>
      </trkpt>
      <trkpt lat="45.00034" lon="4.61592">
        <ele>385.61099243164</ele>
        <time>2010-05-22T07:53:16Z</time>
      </trkpt>
      <trkpt lat="45.00045" lon="4.61558">
        <ele>386.64898681641</ele>
        <time>2010-05-22T07:53:21Z</time>
      </trkpt>
      <trkpt lat="45.0005" lon="4.61537">
        <ele>387.44198608398</ele>
        <time>2010-05-22T07:53:24Z</time>
      </trkpt>
      <trkpt lat="45.00051" lon="4.615">
        <ele>388.6789855957</ele>
        <time>2010-05-22T07:53:29Z</time>
      </trkpt>
      <trkpt lat="45.00035" lon="4.61452">
        <ele>389.64001464844</ele>
        <time>2010-05-22T07:53:36Z</time>
      </trkpt>
      <trkpt lat="45.00025" lon="4.61426">
        <ele>390.72900390625</ele>
        <time>2010-05-22T07:53:40Z</time>
      </trkpt>
      <trkpt lat="45.00021" lon="4.61413">
        <ele>391.46701049805</ele>
        <time>2010-05-22T07:53:42Z</time>
      </trkpt>
      <trkpt lat="45.00021" lon="4.61378">
        <ele>392.13598632812</ele>
        <time>2010-05-22T07:53:47Z</time>
      </trkpt>
      <trkpt lat="45.00033" lon="4.61357">
        <ele>393.37600708008</ele>
        <time>2010-05-22T07:53:51Z</time>
      </trkpt>
      <trkpt lat="45.00056" lon="4.61335">
        <ele>394.46798706055</ele>
        <time>2010-05-22T07:53:56Z</time>
      </trkpt>
      <trkpt lat="45.00067" lon="4.61307">
        <ele>394.95901489258</ele>
        <time>2010-05-22T07:54:00Z</time>
      </trkpt>
      <trkpt lat="45.00068" lon="4.61258">
        <ele>396.17700195312</ele>
        <time>2010-05-22T07:54:06Z</time>
      </trkpt>
      <trkpt lat="45.00069" lon="4.6121">
        <ele>397.12799072266</ele>
        <time>2010-05-22T07:54:12Z</time>
      </trkpt>
      <trkpt lat="45.00071" lon="4.61164">
        <ele>398.42700195312</ele>
        <time>2010-05-22T07:54:18Z</time>
      </trkpt>
      <trkpt lat="45.00077" lon="4.61135">
        <ele>399.34100341797</ele>
        <time>2010-05-22T07:54:22Z</time>
      </trkpt>
      <trkpt lat="45.00101" lon="4.61083">
        <ele>400.68798828125</ele>
        <time>2010-05-22T07:54:30Z</time>
      </trkpt>
      <trkpt lat="45.00129" lon="4.61031">
        <ele>402.07901000977</ele>
        <time>2010-05-22T07:54:38Z</time>
      </trkpt>
      <trkpt lat="45.00138" lon="4.61013">
        <ele>402.64199829102</ele>
        <time>2010-05-22T07:54:41Z</time>
      </trkpt>
      <trkpt lat="45.00145" lon="4.60969">
        <ele>403.74200439453</ele>
        <time>2010-05-22T07:54:47Z</time>
      </trkpt>
      <trkpt lat="45.00135" lon="4.6094">
        <ele>404.71798706055</ele>
        <time>2010-05-22T07:54:51Z</time>
      </trkpt>
      <trkpt lat="45.00117" lon="4.6092">
        <ele>405.27899169922</ele>
        <time>2010-05-22T07:54:55Z</time>
      </trkpt>
      <trkpt lat="45.00112" lon="4.60917">
        <ele>405.41400146484</ele>
        <time>2010-05-22T07:54:56Z</time>
      </trkpt>
      <trkpt lat="45.00077" lon="4.60902">
        <ele>406.15899658203</ele>
        <time>2010-05-22T07:55:03Z</time>
      </trkpt>
      <trkpt lat="45.00036" lon="4.60888">
        <ele>404.82699584961</ele>
        <time>2010-05-22T07:55:10Z</time>
      </trkpt>
      <trkpt lat="44.99995" lon="4.60872">
        <ele>403.49899291992</ele>
        <time>2010-05-22T07:55:16Z</time>
      </trkpt>
      <trkpt lat="44.99987" lon="4.60868">
        <ele>403.33099365234</ele>
        <time>2010-05-22T07:55:17Z</time>
      </trkpt>
      <trkpt lat="44.99965" lon="4.60846">
        <ele>403.99899291992</ele>
        <time>2010-05-22T07:55:21Z</time>
      </trkpt>
      <trkpt lat="44.99934" lon="4.60806">
        <ele>405.01599121094</ele>
        <time>2010-05-22T07:55:28Z</time>
      </trkpt>
      <trkpt lat="44.99901" lon="4.60775">
        <ele>406.28500366211</ele>
        <time>2010-05-22T07:55:35Z</time>
      </trkpt>
      <trkpt lat="44.99883" lon="4.60756">
        <ele>406.73901367188</ele>
        <time>2010-05-22T07:55:39Z</time>
      </trkpt>
      <trkpt lat="44.99869" lon="4.60731">
        <ele>407.61499023438</ele>
        <time>2010-05-22T07:55:43Z</time>
      </trkpt>
      <trkpt lat="44.9985" lon="4.60686">
        <ele>409.43200683594</ele>
        <time>2010-05-22T07:55:50Z</time>
      </trkpt>
      <trkpt lat="44.99824" lon="4.60656">
        <ele>410.3219909668</ele>
        <time>2010-05-22T07:55:56Z</time>
      </trkpt>
      <trkpt lat="44.99796" lon="4.60633">
        <ele>411.33200073242</ele>
        <time>2010-05-22T07:56:02Z</time>
      </trkpt>
      <trkpt lat="44.99752" lon="4.60599">
        <ele>413.3219909668</ele>
        <time>2010-05-22T07:56:11Z</time>
      </trkpt>
      <trkpt lat="44.99731" lon="4.60589">
        <ele>413.81799316406</ele>
        <time>2010-05-22T07:56:15Z</time>
      </trkpt>
      <trkpt lat="44.99693" lon="4.60566">
        <ele>415.35598754883</ele>
        <time>2010-05-22T07:56:23Z</time>
      </trkpt>
      <trkpt lat="44.99675" lon="4.60553">
        <ele>415.77700805664</ele>
        <time>2010-05-22T07:56:28Z</time>
      </trkpt>
      <trkpt lat="44.99661" lon="4.60529">
        <ele>415.625</ele>
        <time>2010-05-22T07:56:34Z</time>
      </trkpt>
      <trkpt lat="44.99649" lon="4.60486">
        <ele>414.60800170898</ele>
        <time>2010-05-22T07:56:41Z</time>
      </trkpt>
      <trkpt lat="44.99641" lon="4.60456">
        <ele>413.87100219727</ele>
        <time>2010-05-22T07:56:45Z</time>
      </trkpt>
      <trkpt lat="44.99628" lon="4.604">
        <ele>412.70098876953</ele>
        <time>2010-05-22T07:56:52Z</time>
      </trkpt>
      <trkpt lat="44.99622" lon="4.60375">
        <ele>412.07400512695</ele>
        <time>2010-05-22T07:56:55Z</time>
      </trkpt>
      <trkpt lat="44.99617" lon="4.60357">
        <ele>411.89099121094</ele>
        <time>2010-05-22T07:56:57Z</time>
      </trkpt>
      <trkpt lat="44.99591" lon="4.60302">
        <ele>410.31500244141</ele>
        <time>2010-05-22T07:57:04Z</time>
      </trkpt>
      <trkpt lat="44.99575" lon="4.60268">
        <ele>409.46899414062</ele>
        <time>2010-05-22T07:57:08Z</time>
      </trkpt>
      <trkpt lat="44.99554" lon="4.60222">
        <ele>408.29598999023</ele>
        <time>2010-05-22T07:57:13Z</time>
      </trkpt>
      <trkpt lat="44.99535" lon="4.60191">
        <ele>407.75299072266</ele>
        <time>2010-05-22T07:57:17Z</time>
      </trkpt>
      <trkpt lat="44.99495" lon="4.6016">
        <ele>406.25</ele>
        <time>2010-05-22T07:57:23Z</time>
      </trkpt>
      <trkpt lat="44.99467" lon="4.60125">
        <ele>405.16198730469</ele>
        <time>2010-05-22T07:57:28Z</time>
      </trkpt>
      <trkpt lat="44.99438" lon="4.60062">
        <ele>404.08599853516</ele>
        <time>2010-05-22T07:57:35Z</time>
      </trkpt>
      <trkpt lat="44.99413" lon="4.6001">
        <ele>402.37399291992</ele>
        <time>2010-05-22T07:57:41Z</time>
      </trkpt>
      <trkpt lat="44.99378" lon="4.59954">
        <ele>401.20498657227</ele>
        <time>2010-05-22T07:57:48Z</time>
      </trkpt>
      <trkpt lat="44.99352" lon="4.59911">
        <ele>399.56399536133</ele>
        <time>2010-05-22T07:57:53Z</time>
      </trkpt>
      <trkpt lat="44.99334" lon="4.59861">
        <ele>398.52200317383</ele>
        <time>2010-05-22T07:57:58Z</time>
      </trkpt>
      <trkpt lat="44.99309" lon="4.598">
        <ele>397.14300537109</ele>
        <time>2010-05-22T07:58:04Z</time>
      </trkpt>
      <trkpt lat="44.99285" lon="4.59743">
        <ele>396.43499755859</ele>
        <time>2010-05-22T07:58:10Z</time>
      </trkpt>
      <trkpt lat="44.99272" lon="4.59715">
        <ele>395.46899414062</ele>
        <time>2010-05-22T07:58:13Z</time>
      </trkpt>
      <trkpt lat="44.99239" lon="4.59676">
        <ele>393.99600219727</ele>
        <time>2010-05-22T07:58:18Z</time>
      </trkpt>
      <trkpt lat="44.99231" lon="4.5967">
        <ele>393.80599975586</ele>
        <time>2010-05-22T07:58:19Z</time>
      </trkpt>
      <trkpt lat="44.99178" lon="4.59631">
        <ele>392.39498901367</ele>
        <time>2010-05-22T07:58:26Z</time>
      </trkpt>
      <trkpt lat="44.99154" lon="4.59598">
        <ele>391.60699462891</ele>
        <time>2010-05-22T07:58:30Z</time>
      </trkpt>
      <trkpt lat="44.99134" lon="4.5956">
        <ele>389.99499511719</ele>
        <time>2010-05-22T07:58:34Z</time>
      </trkpt>
      <trkpt lat="44.99106" lon="4.59503">
        <ele>388.99899291992</ele>
        <time>2010-05-22T07:58:40Z</time>
      </trkpt>
      <trkpt lat="44.99083" lon="4.59433">
        <ele>387.91400146484</ele>
        <time>2010-05-22T07:58:47Z</time>
      </trkpt>
      <trkpt lat="44.99072" lon="4.59365">
        <ele>386.49600219727</ele>
        <time>2010-05-22T07:58:53Z</time>
      </trkpt>
      <trkpt lat="44.99067" lon="4.59331">
        <ele>385.5299987793</ele>
        <time>2010-05-22T07:58:56Z</time>
      </trkpt>
      <trkpt lat="44.99052" lon="4.5924">
        <ele>383.4700012207</ele>
        <time>2010-05-22T07:59:04Z</time>
      </trkpt>
      <trkpt lat="44.99045" lon="4.59148">
        <ele>382.00799560547</ele>
        <time>2010-05-22T07:59:12Z</time>
      </trkpt>
      <trkpt lat="44.99049" lon="4.59103">
        <ele>381.45599365234</ele>
        <time>2010-05-22T07:59:16Z</time>
      </trkpt>
      <trkpt lat="44.99045" lon="4.59057">
        <ele>380.95999145508</ele>
        <time>2010-05-22T07:59:20Z</time>
      </trkpt>
      <trkpt lat="44.99014" lon="4.58972">
        <ele>378.99798583984</ele>
        <time>2010-05-22T07:59:28Z</time>
      </trkpt>
      <trkpt lat="44.98983" lon="4.58903">
        <ele>378.02499389648</ele>
        <time>2010-05-22T07:59:35Z</time>
      </trkpt>
      <trkpt lat="44.98964" lon="4.58862">
        <ele>378.89599609375</ele>
        <time>2010-05-22T07:59:40Z</time>
      </trkpt>
      <trkpt lat="44.98954" lon="4.58838">
        <ele>379.19400024414</ele>
        <time>2010-05-22T07:59:43Z</time>
      </trkpt>
      <trkpt lat="44.98951" lon="4.58831">
        <ele>379.35900878906</ele>
        <time>2010-05-22T07:59:44Z</time>
      </trkpt>
      <trkpt lat="44.98921" lon="4.58765">
        <ele>380.24700927734</ele>
        <time>2010-05-22T07:59:53Z</time>
      </trkpt>
      <trkpt lat="44.98902" lon="4.58724">
        <ele>380.55200195312</ele>
        <time>2010-05-22T07:59:59Z</time>
      </trkpt>
      <trkpt lat="44.98883" lon="4.58685">
        <ele>381.05999755859</ele>
        <time>2010-05-22T08:00:05Z</time>
      </trkpt>
      <trkpt lat="44.9887" lon="4.58661">
        <ele>381.40899658203</ele>
        <time>2010-05-22T08:00:09Z</time>
      </trkpt>
      <trkpt lat="44.98837" lon="4.58622">
        <ele>381.34100341797</ele>
        <time>2010-05-22T08:00:17Z</time>
      </trkpt>
      <trkpt lat="44.98827" lon="4.58612">
        <ele>381.44400024414</ele>
        <time>2010-05-22T08:00:19Z</time>
      </trkpt>
      <trkpt lat="44.9881" lon="4.58591">
        <ele>381.52301025391</ele>
        <time>2010-05-22T08:00:23Z</time>
      </trkpt>
      <trkpt lat="44.98781" lon="4.58535">
        <ele>381.86499023438</ele>
        <time>2010-05-22T08:00:31Z</time>
      </trkpt>
      <trkpt lat="44.98763" lon="4.58496">
        <ele>382.41000366211</ele>
        <time>2010-05-22T08:00:37Z</time>
      </trkpt>
      <trkpt lat="44.98742" lon="4.58448">
        <ele>383.33898925781</ele>
        <time>2010-05-22T08:00:45Z</time>
      </trkpt>
      <trkpt lat="44.98728" lon="4.584">
        <ele>384.24398803711</ele>
        <time>2010-05-22T08:00:53Z</time>
      </trkpt>
      <trkpt lat="44.98718" lon="4.5836">
        <ele>384.94400024414</ele>
        <time>2010-05-22T08:01:00Z</time>
      </trkpt>
      <trkpt lat="44.9871" lon="4.58309">
        <ele>384.98599243164</ele>
        <time>2010-05-22T08:01:08Z</time>
      </trkpt>
      <trkpt lat="44.98697" lon="4.58292">
        <ele>384.93899536133</ele>
        <time>2010-05-22T08:01:12Z</time>
      </trkpt>
      <trkpt lat="44.98688" lon="4.58293">
        <ele>385.26501464844</ele>
        <time>2010-05-22T08:01:14Z</time>
      </trkpt>
      <trkpt lat="44.98681" lon="4.58293">
        <ele>385.73199462891</ele>
        <time>2010-05-22T08:01:16Z</time>
      </trkpt>
      <trkpt lat="44.98664" lon="4.58279">
        <ele>386.85501098633</ele>
        <time>2010-05-22T08:01:21Z</time>
      </trkpt>
      <trkpt lat="44.9866" lon="4.58268">
        <ele>386.8219909668</ele>
        <time>2010-05-22T08:01:23Z</time>
      </trkpt>
      <trkpt lat="44.98651" lon="4.58247">
        <ele>387.19100952148</ele>
        <time>2010-05-22T08:01:27Z</time>
      </trkpt>
      <trkpt lat="44.98634" lon="4.58227">
        <ele>387.66000366211</ele>
        <time>2010-05-22T08:01:32Z</time>
      </trkpt>
      <trkpt lat="44.98602" lon="4.58212">
        <ele>388.14898681641</ele>
        <time>2010-05-22T08:01:40Z</time>
      </trkpt>
      <trkpt lat="44.98588" lon="4.58208">
        <ele>387.90100097656</ele>
        <time>2010-05-22T08:01:43Z</time>
      </trkpt>
      <trkpt lat="44.98575" lon="4.58202">
        <ele>387.65200805664</ele>
        <time>2010-05-22T08:01:46Z</time>
      </trkpt>
      <trkpt lat="44.98565" lon="4.58199">
        <ele>387.4280090332</ele>
        <time>2010-05-22T08:01:48Z</time>
      </trkpt>
      <trkpt lat="44.98555" lon="4.58178">
        <ele>386.77700805664</ele>
        <time>2010-05-22T08:01:52Z</time>
      </trkpt>
      <trkpt lat="44.98545" lon="4.58146">
        <ele>385.54098510742</ele>
        <time>2010-05-22T08:01:56Z</time>
      </trkpt>
      <trkpt lat="44.98522" lon="4.58112">
        <ele>384.57000732422</ele>
        <time>2010-05-22T08:02:01Z</time>
      </trkpt>
      <trkpt lat="44.98517" lon="4.58104">
        <ele>384.53900146484</ele>
        <time>2010-05-22T08:02:02Z</time>
      </trkpt>
      <trkpt lat="44.98502" lon="4.5808">
        <ele>384.98001098633</ele>
        <time>2010-05-22T08:02:06Z</time>
      </trkpt>
      <trkpt lat="44.98495" lon="4.58061">
        <ele>386.3219909668</ele>
        <time>2010-05-22T08:02:10Z</time>
      </trkpt>
      <trkpt lat="44.98494" lon="4.58034">
        <ele>387.26300048828</ele>
        <time>2010-05-22T08:02:14Z</time>
      </trkpt>
      <trkpt lat="44.98489" lon="4.58018">
        <ele>387.4880065918</ele>
        <time>2010-05-22T08:02:17Z</time>
      </trkpt>
      <trkpt lat="44.98482" lon="4.57999">
        <ele>387.65100097656</ele>
        <time>2010-05-22T08:02:20Z</time>
      </trkpt>
      <trkpt lat="44.98463" lon="4.57973">
        <ele>388.53900146484</ele>
        <time>2010-05-22T08:02:25Z</time>
      </trkpt>
      <trkpt lat="44.98447" lon="4.57939">
        <ele>389.66598510742</ele>
        <time>2010-05-22T08:02:31Z</time>
      </trkpt>
      <trkpt lat="44.9842" lon="4.57897">
        <ele>390.99398803711</ele>
        <time>2010-05-22T08:02:39Z</time>
      </trkpt>
      <trkpt lat="44.98397" lon="4.57849">
        <ele>391.76800537109</ele>
        <time>2010-05-22T08:02:47Z</time>
      </trkpt>
      <trkpt lat="44.98393" lon="4.57843">
        <ele>391.89498901367</ele>
        <time>2010-05-22T08:02:48Z</time>
      </trkpt>
      <trkpt lat="44.98371" lon="4.57795">
        <ele>392.79299926758</ele>
        <time>2010-05-22T08:02:56Z</time>
      </trkpt>
      <trkpt lat="44.98368" lon="4.57789">
        <ele>392.98699951172</ele>
        <time>2010-05-22T08:02:57Z</time>
      </trkpt>
      <trkpt lat="44.98343" lon="4.5774">
        <ele>393.24499511719</ele>
        <time>2010-05-22T08:03:05Z</time>
      </trkpt>
      <trkpt lat="44.98325" lon="4.57693">
        <ele>393.79098510742</ele>
        <time>2010-05-22T08:03:12Z</time>
      </trkpt>
      <trkpt lat="44.98306" lon="4.57646">
        <ele>393.79800415039</ele>
        <time>2010-05-22T08:03:19Z</time>
      </trkpt>
      <trkpt lat="44.98295" lon="4.57617">
        <ele>393.92599487305</ele>
        <time>2010-05-22T08:03:23Z</time>
      </trkpt>
      <trkpt lat="44.98284" lon="4.57542">
        <ele>393.63800048828</ele>
        <time>2010-05-22T08:03:32Z</time>
      </trkpt>
      <trkpt lat="44.98279" lon="4.57483">
        <ele>393.36898803711</ele>
        <time>2010-05-22T08:03:39Z</time>
      </trkpt>
      <trkpt lat="44.98272" lon="4.57415">
        <ele>394.3039855957</ele>
        <time>2010-05-22T08:03:47Z</time>
      </trkpt>
      <trkpt lat="44.98264" lon="4.57336">
        <ele>396.06900024414</ele>
        <time>2010-05-22T08:03:57Z</time>
      </trkpt>
      <trkpt lat="44.98258" lon="4.57299">
        <ele>396.31600952148</ele>
        <time>2010-05-22T08:04:02Z</time>
      </trkpt>
      <trkpt lat="44.98259" lon="4.57283">
        <ele>396.41400146484</ele>
        <time>2010-05-22T08:04:04Z</time>
      </trkpt>
      <trkpt lat="44.98266" lon="4.57252">
        <ele>395.9289855957</ele>
        <time>2010-05-22T08:04:08Z</time>
      </trkpt>
      <trkpt lat="44.98279" lon="4.57216">
        <ele>395.42700195312</ele>
        <time>2010-05-22T08:04:13Z</time>
      </trkpt>
      <trkpt lat="44.98305" lon="4.57168">
        <ele>394.43499755859</ele>
        <time>2010-05-22T08:04:20Z</time>
      </trkpt>
      <trkpt lat="44.98334" lon="4.57114">
        <ele>394.60000610352</ele>
        <time>2010-05-22T08:04:28Z</time>
      </trkpt>
      <trkpt lat="44.98344" lon="4.57097">
        <ele>394.58898925781</ele>
        <time>2010-05-22T08:04:31Z</time>
      </trkpt>
      <trkpt lat="44.98358" lon="4.57071">
        <ele>394.45199584961</ele>
        <time>2010-05-22T08:04:35Z</time>
      </trkpt>
      <trkpt lat="44.98373" lon="4.57049">
        <ele>394.80801391602</ele>
        <time>2010-05-22T08:04:39Z</time>
      </trkpt>
      <trkpt lat="44.98412" lon="4.57021">
        <ele>395.61898803711</ele>
        <time>2010-05-22T08:04:47Z</time>
      </trkpt>
      <trkpt lat="44.98458" lon="4.56989">
        <ele>397.37399291992</ele>
        <time>2010-05-22T08:04:57Z</time>
      </trkpt>
      <trkpt lat="44.98479" lon="4.56973">
        <ele>398.14700317383</ele>
        <time>2010-05-22T08:05:02Z</time>
      </trkpt>
      <trkpt lat="44.98515" lon="4.56948">
        <ele>400.19900512695</ele>
        <time>2010-05-22T08:05:11Z</time>
      </trkpt>
      <trkpt lat="44.98527" lon="4.5694">
        <ele>400.76501464844</ele>
        <time>2010-05-22T08:05:14Z</time>
      </trkpt>
      <trkpt lat="44.98547" lon="4.56914">
        <ele>401.93701171875</ele>
        <time>2010-05-22T08:05:20Z</time>
      </trkpt>
      <trkpt lat="44.98549" lon="4.56908">
        <ele>402.26699829102</ele>
        <time>2010-05-22T08:05:21Z</time>
      </trkpt>
      <trkpt lat="44.98553" lon="4.56891">
        <ele>402.91101074219</ele>
        <time>2010-05-22T08:05:24Z</time>
      </trkpt>
      <trkpt lat="44.98556" lon="4.56856">
        <ele>404.8450012207</ele>
        <time>2010-05-22T08:05:30Z</time>
      </trkpt>
      <trkpt lat="44.98552" lon="4.56823">
        <ele>406.25698852539</ele>
        <time>2010-05-22T08:05:36Z</time>
      </trkpt>
      <trkpt lat="44.98542" lon="4.56802">
        <ele>407.29699707031</ele>
        <time>2010-05-22T08:05:40Z</time>
      </trkpt>
      <trkpt lat="44.98537" lon="4.56781">
        <ele>408.00500488281</ele>
        <time>2010-05-22T08:05:44Z</time>
      </trkpt>
      <trkpt lat="44.9854" lon="4.56758">
        <ele>408.85000610352</ele>
        <time>2010-05-22T08:05:49Z</time>
      </trkpt>
      <trkpt lat="44.98554" lon="4.56724">
        <ele>410.34698486328</ele>
        <time>2010-05-22T08:05:56Z</time>
      </trkpt>
      <trkpt lat="44.98564" lon="4.56697">
        <ele>411.69400024414</ele>
        <time>2010-05-22T08:06:02Z</time>
      </trkpt>
      <trkpt lat="44.98578" lon="4.56664">
        <ele>413.22399902344</ele>
        <time>2010-05-22T08:06:09Z</time>
      </trkpt>
      <trkpt lat="44.98592" lon="4.5663">
        <ele>414.61599731445</ele>
        <time>2010-05-22T08:06:16Z</time>
      </trkpt>
      <trkpt lat="44.98605" lon="4.56599">
        <ele>415.72601318359</ele>
        <time>2010-05-22T08:06:22Z</time>
      </trkpt>
      <trkpt lat="44.98617" lon="4.56578">
        <ele>416.48599243164</ele>
        <time>2010-05-22T08:06:26Z</time>
      </trkpt>
      <trkpt lat="44.98636" lon="4.5655">
        <ele>417.64898681641</ele>
        <time>2010-05-22T08:06:32Z</time>
      </trkpt>
      <trkpt lat="44.98651" lon="4.56528">
        <ele>419.01400756836</ele>
        <time>2010-05-22T08:06:38Z</time>
      </trkpt>
      <trkpt lat="44.98667" lon="4.56505">
        <ele>420.36099243164</ele>
        <time>2010-05-22T08:06:44Z</time>
      </trkpt>
      <trkpt lat="44.98684" lon="4.56484">
        <ele>421.64199829102</ele>
        <time>2010-05-22T08:06:50Z</time>
      </trkpt>
      <trkpt lat="44.987" lon="4.56465">
        <ele>422.99600219727</ele>
        <time>2010-05-22T08:06:56Z</time>
      </trkpt>
      <trkpt lat="44.98716" lon="4.56446">
        <ele>424.38800048828</ele>
        <time>2010-05-22T08:07:02Z</time>
      </trkpt>
      <trkpt lat="44.98732" lon="4.56429">
        <ele>425.76699829102</ele>
        <time>2010-05-22T08:07:08Z</time>
      </trkpt>
      <trkpt lat="44.98749" lon="4.56421">
        <ele>426.46701049805</ele>
        <time>2010-05-22T08:07:14Z</time>
      </trkpt>
      <trkpt lat="44.98772" lon="4.56416">
        <ele>427.71301269531</ele>
        <time>2010-05-22T08:07:21Z</time>
      </trkpt>
      <trkpt lat="44.98807" lon="4.56414">
        <ele>429.22299194336</ele>
        <time>2010-05-22T08:07:29Z</time>
      </trkpt>
      <trkpt lat="44.98824" lon="4.56403">
        <ele>430.19299316406</ele>
        <time>2010-05-22T08:07:34Z</time>
      </trkpt>
      <trkpt lat="44.98837" lon="4.56383">
        <ele>430.86801147461</ele>
        <time>2010-05-22T08:07:40Z</time>
      </trkpt>
      <trkpt lat="44.98842" lon="4.56356">
        <ele>431.4169921875</ele>
        <time>2010-05-22T08:07:46Z</time>
      </trkpt>
      <trkpt lat="44.98836" lon="4.56332">
        <ele>431.89401245117</ele>
        <time>2010-05-22T08:07:51Z</time>
      </trkpt>
      <trkpt lat="44.98831" lon="4.56322">
        <ele>432.10998535156</ele>
        <time>2010-05-22T08:07:53Z</time>
      </trkpt>
      <trkpt lat="44.988" lon="4.56297">
        <ele>432.88598632812</ele>
        <time>2010-05-22T08:08:01Z</time>
      </trkpt>
      <trkpt lat="44.9878" lon="4.56277">
        <ele>432.82998657227</ele>
        <time>2010-05-22T08:08:06Z</time>
      </trkpt>
      <trkpt lat="44.9875" lon="4.56243">
        <ele>432.7200012207</ele>
        <time>2010-05-22T08:08:13Z</time>
      </trkpt>
      <trkpt lat="44.98717" lon="4.5621">
        <ele>432.90100097656</ele>
        <time>2010-05-22T08:08:20Z</time>
      </trkpt>
      <trkpt lat="44.98689" lon="4.56197">
        <ele>433.01901245117</ele>
        <time>2010-05-22T08:08:25Z</time>
      </trkpt>
      <trkpt lat="44.98647" lon="4.56186">
        <ele>433.16598510742</ele>
        <time>2010-05-22T08:08:32Z</time>
      </trkpt>
      <trkpt lat="44.98606" lon="4.56172">
        <ele>433.5950012207</ele>
        <time>2010-05-22T08:08:39Z</time>
      </trkpt>
      <trkpt lat="44.98568" lon="4.56149">
        <ele>433.50698852539</ele>
        <time>2010-05-22T08:08:46Z</time>
      </trkpt>
      <trkpt lat="44.98524" lon="4.56116">
        <ele>433.71301269531</ele>
        <time>2010-05-22T08:08:54Z</time>
      </trkpt>
      <trkpt lat="44.98498" lon="4.56082">
        <ele>433.96200561523</ele>
        <time>2010-05-22T08:09:00Z</time>
      </trkpt>
      <trkpt lat="44.98478" lon="4.56053">
        <ele>433.9280090332</ele>
        <time>2010-05-22T08:09:05Z</time>
      </trkpt>
      <trkpt lat="44.98452" lon="4.5601">
        <ele>433.87799072266</ele>
        <time>2010-05-22T08:09:12Z</time>
      </trkpt>
      <trkpt lat="44.98438" lon="4.55982">
        <ele>433.73999023438</ele>
        <time>2010-05-22T08:09:16Z</time>
      </trkpt>
      <trkpt lat="44.9842" lon="4.5596">
        <ele>433.68701171875</ele>
        <time>2010-05-22T08:09:20Z</time>
      </trkpt>
      <trkpt lat="44.98399" lon="4.55943">
        <ele>434.26300048828</ele>
        <time>2010-05-22T08:09:24Z</time>
      </trkpt>
      <trkpt lat="44.98376" lon="4.55932">
        <ele>434.29501342773</ele>
        <time>2010-05-22T08:09:28Z</time>
      </trkpt>
      <trkpt lat="44.98344" lon="4.55904">
        <ele>434.35101318359</ele>
        <time>2010-05-22T08:09:34Z</time>
      </trkpt>
      <trkpt lat="44.98335" lon="4.55894">
        <ele>434.19900512695</ele>
        <time>2010-05-22T08:09:36Z</time>
      </trkpt>
      <trkpt lat="44.98312" lon="4.55844">
        <ele>434.22198486328</ele>
        <time>2010-05-22T08:09:43Z</time>
      </trkpt>
      <trkpt lat="44.98287" lon="4.55778">
        <ele>434.59799194336</ele>
        <time>2010-05-22T08:09:52Z</time>
      </trkpt>
      <trkpt lat="44.98266" lon="4.55718">
        <ele>434.61801147461</ele>
        <time>2010-05-22T08:10:00Z</time>
      </trkpt>
      <trkpt lat="44.98264" lon="4.55702">
        <ele>434.66101074219</ele>
        <time>2010-05-22T08:10:02Z</time>
      </trkpt>
      <trkpt lat="44.9827" lon="4.5566">
        <ele>434.44900512695</ele>
        <time>2010-05-22T08:10:07Z</time>
      </trkpt>
      <trkpt lat="44.9829" lon="4.55591">
        <ele>434.93899536133</ele>
        <time>2010-05-22T08:10:16Z</time>
      </trkpt>
      <trkpt lat="44.98308" lon="4.5554">
        <ele>435.11099243164</ele>
        <time>2010-05-22T08:10:23Z</time>
      </trkpt>
      <trkpt lat="44.98324" lon="4.55518">
        <ele>435.0830078125</ele>
        <time>2010-05-22T08:10:27Z</time>
      </trkpt>
      <trkpt lat="44.98381" lon="4.55475">
        <ele>435.35598754883</ele>
        <time>2010-05-22T08:10:38Z</time>
      </trkpt>
      <trkpt lat="44.98415" lon="4.5545">
        <ele>435.37298583984</ele>
        <time>2010-05-22T08:10:45Z</time>
      </trkpt>
      <trkpt lat="44.98429" lon="4.5544">
        <ele>435.50799560547</ele>
        <time>2010-05-22T08:10:48Z</time>
      </trkpt>
      <trkpt lat="44.98468" lon="4.55431">
        <ele>436.00799560547</ele>
        <time>2010-05-22T08:10:55Z</time>
      </trkpt>
      <trkpt lat="44.98512" lon="4.55428">
        <ele>435.70498657227</ele>
        <time>2010-05-22T08:11:03Z</time>
      </trkpt>
      <trkpt lat="44.98556" lon="4.55425">
        <ele>436.45999145508</ele>
        <time>2010-05-22T08:11:11Z</time>
      </trkpt>
      <trkpt lat="44.98606" lon="4.5542">
        <ele>437.0419921875</ele>
        <time>2010-05-22T08:11:20Z</time>
      </trkpt>
      <trkpt lat="44.98632" lon="4.55404">
        <ele>437.40200805664</ele>
        <time>2010-05-22T08:11:25Z</time>
      </trkpt>
      <trkpt lat="44.9864" lon="4.5538">
        <ele>437.65798950195</ele>
        <time>2010-05-22T08:11:28Z</time>
      </trkpt>
      <trkpt lat="44.98642" lon="4.55346">
        <ele>438.04299926758</ele>
        <time>2010-05-22T08:11:32Z</time>
      </trkpt>
      <trkpt lat="44.98634" lon="4.55246">
        <ele>437.89498901367</ele>
        <time>2010-05-22T08:11:44Z</time>
      </trkpt>
      <trkpt lat="44.98625" lon="4.55173">
        <ele>437.9280090332</ele>
        <time>2010-05-22T08:11:53Z</time>
      </trkpt>
      <trkpt lat="44.98621" lon="4.55106">
        <ele>437.94000244141</ele>
        <time>2010-05-22T08:12:01Z</time>
      </trkpt>
      <trkpt lat="44.98624" lon="4.55055">
        <ele>437.84201049805</ele>
        <time>2010-05-22T08:12:07Z</time>
      </trkpt>
      <trkpt lat="44.98634" lon="4.54999">
        <ele>438.47799682617</ele>
        <time>2010-05-22T08:12:14Z</time>
      </trkpt>
      <trkpt lat="44.98634" lon="4.54982">
        <ele>438.44299316406</ele>
        <time>2010-05-22T08:12:16Z</time>
      </trkpt>
      <trkpt lat="44.98624" lon="4.54943">
        <ele>438.60400390625</ele>
        <time>2010-05-22T08:12:21Z</time>
      </trkpt>
      <trkpt lat="44.98585" lon="4.54854">
        <ele>438.62100219727</ele>
        <time>2010-05-22T08:12:33Z</time>
      </trkpt>
      <trkpt lat="44.98567" lon="4.54792">
        <ele>438.73400878906</ele>
        <time>2010-05-22T08:12:41Z</time>
      </trkpt>
      <trkpt lat="44.98558" lon="4.54735">
        <ele>439.01901245117</ele>
        <time>2010-05-22T08:12:48Z</time>
      </trkpt>
      <trkpt lat="44.98553" lon="4.54652">
        <ele>438.93899536133</ele>
        <time>2010-05-22T08:12:58Z</time>
      </trkpt>
      <trkpt lat="44.98556" lon="4.54602">
        <ele>438.73300170898</ele>
        <time>2010-05-22T08:13:04Z</time>
      </trkpt>
      <trkpt lat="44.98569" lon="4.54556">
        <ele>439.33401489258</ele>
        <time>2010-05-22T08:13:10Z</time>
      </trkpt>
      <trkpt lat="44.98594" lon="4.54498">
        <ele>440.26000976562</ele>
        <time>2010-05-22T08:13:18Z</time>
      </trkpt>
      <trkpt lat="44.98625" lon="4.54436">
        <ele>440.74099731445</ele>
        <time>2010-05-22T08:13:27Z</time>
      </trkpt>
      <trkpt lat="44.98629" lon="4.54429">
        <ele>440.74700927734</ele>
        <time>2010-05-22T08:13:28Z</time>
      </trkpt>
      <trkpt lat="44.98664" lon="4.54395">
        <ele>440.82901000977</ele>
        <time>2010-05-22T08:13:35Z</time>
      </trkpt>
      <trkpt lat="44.98711" lon="4.54355">
        <ele>441.49798583984</ele>
        <time>2010-05-22T08:13:44Z</time>
      </trkpt>
      <trkpt lat="44.98737" lon="4.54323">
        <ele>441.76300048828</ele>
        <time>2010-05-22T08:13:50Z</time>
      </trkpt>
      <trkpt lat="44.98747" lon="4.54283">
        <ele>441.875</ele>
        <time>2010-05-22T08:13:55Z</time>
      </trkpt>
      <trkpt lat="44.98743" lon="4.54257">
        <ele>442.07000732422</ele>
        <time>2010-05-22T08:13:58Z</time>
      </trkpt>
      <trkpt lat="44.9872" lon="4.54197">
        <ele>442.40301513672</ele>
        <time>2010-05-22T08:14:06Z</time>
      </trkpt>
      <trkpt lat="44.98691" lon="4.54131">
        <ele>442.57598876953</ele>
        <time>2010-05-22T08:14:15Z</time>
      </trkpt>
      <trkpt lat="44.98681" lon="4.54111">
        <ele>442.76300048828</ele>
        <time>2010-05-22T08:14:18Z</time>
      </trkpt>
      <trkpt lat="44.98655" lon="4.54083">
        <ele>443.2619934082</ele>
        <time>2010-05-22T08:14:24Z</time>
      </trkpt>
      <trkpt lat="44.98642" lon="4.54068">
        <ele>443.25399780273</ele>
        <time>2010-05-22T08:14:27Z</time>
      </trkpt>
      <trkpt lat="44.98625" lon="4.54028">
        <ele>443.76098632812</ele>
        <time>2010-05-22T08:14:33Z</time>
      </trkpt>
      <trkpt lat="44.98618" lon="4.53964">
        <ele>443.81799316406</ele>
        <time>2010-05-22T08:14:41Z</time>
      </trkpt>
      <trkpt lat="44.98611" lon="4.53901">
        <ele>443.99301147461</ele>
        <time>2010-05-22T08:14:49Z</time>
      </trkpt>
      <trkpt lat="44.98608" lon="4.5383">
        <ele>444.2919921875</ele>
        <time>2010-05-22T08:14:58Z</time>
      </trkpt>
      <trkpt lat="44.98611" lon="4.53806">
        <ele>444.38299560547</ele>
        <time>2010-05-22T08:15:01Z</time>
      </trkpt>
      <trkpt lat="44.98623" lon="4.53732">
        <ele>444.66598510742</ele>
        <time>2010-05-22T08:15:10Z</time>
      </trkpt>
      <trkpt lat="44.98624" lon="4.53724">
        <ele>444.6780090332</ele>
        <time>2010-05-22T08:15:11Z</time>
      </trkpt>
      <trkpt lat="44.98625" lon="4.53701">
        <ele>445.00201416016</ele>
        <time>2010-05-22T08:15:14Z</time>
      </trkpt>
      <trkpt lat="44.98621" lon="4.53635">
        <ele>445.50900268555</ele>
        <time>2010-05-22T08:15:22Z</time>
      </trkpt>
      <trkpt lat="44.98624" lon="4.5361">
        <ele>445.58200073242</ele>
        <time>2010-05-22T08:15:25Z</time>
      </trkpt>
      <trkpt lat="44.98633" lon="4.53588">
        <ele>445.60598754883</ele>
        <time>2010-05-22T08:15:28Z</time>
      </trkpt>
      <trkpt lat="44.98649" lon="4.53554">
        <ele>446.14599609375</ele>
        <time>2010-05-22T08:15:33Z</time>
      </trkpt>
      <trkpt lat="44.98666" lon="4.53514">
        <ele>446.28201293945</ele>
        <time>2010-05-22T08:15:39Z</time>
      </trkpt>
      <trkpt lat="44.98682" lon="4.53463">
        <ele>446.46499633789</ele>
        <time>2010-05-22T08:15:46Z</time>
      </trkpt>
      <trkpt lat="44.98696" lon="4.534">
        <ele>446.73599243164</ele>
        <time>2010-05-22T08:15:54Z</time>
      </trkpt>
      <trkpt lat="44.98712" lon="4.53335">
        <ele>447.82299804688</ele>
        <time>2010-05-22T08:16:02Z</time>
      </trkpt>
      <trkpt lat="44.98727" lon="4.5329">
        <ele>448.61999511719</ele>
        <time>2010-05-22T08:16:08Z</time>
      </trkpt>
      <trkpt lat="44.98732" lon="4.53274">
        <ele>448.5950012207</ele>
        <time>2010-05-22T08:16:10Z</time>
      </trkpt>
      <trkpt lat="44.98753" lon="4.53193">
        <ele>449.46701049805</ele>
        <time>2010-05-22T08:16:20Z</time>
      </trkpt>
      <trkpt lat="44.98765" lon="4.53137">
        <ele>449.63101196289</ele>
        <time>2010-05-22T08:16:27Z</time>
      </trkpt>
      <trkpt lat="44.98785" lon="4.53068">
        <ele>450.26300048828</ele>
        <time>2010-05-22T08:16:36Z</time>
      </trkpt>
      <trkpt lat="44.98787" lon="4.53061">
        <ele>450.29901123047</ele>
        <time>2010-05-22T08:16:37Z</time>
      </trkpt>
      <trkpt lat="44.98815" lon="4.53021">
        <ele>451.12200927734</ele>
        <time>2010-05-22T08:16:44Z</time>
      </trkpt>
      <trkpt lat="44.98861" lon="4.52968">
        <ele>452.45498657227</ele>
        <time>2010-05-22T08:16:55Z</time>
      </trkpt>
      <trkpt lat="44.989" lon="4.52932">
        <ele>453.68200683594</ele>
        <time>2010-05-22T08:17:04Z</time>
      </trkpt>
      <trkpt lat="44.98943" lon="4.52912">
        <ele>454.34600830078</ele>
        <time>2010-05-22T08:17:12Z</time>
      </trkpt>
      <trkpt lat="44.98982" lon="4.52887">
        <ele>455.66799926758</ele>
        <time>2010-05-22T08:17:20Z</time>
      </trkpt>
      <trkpt lat="44.99016" lon="4.52864">
        <ele>456.38400268555</ele>
        <time>2010-05-22T08:17:27Z</time>
      </trkpt>
      <trkpt lat="44.99053" lon="4.52854">
        <ele>457.51000976562</ele>
        <time>2010-05-22T08:17:34Z</time>
      </trkpt>
      <trkpt lat="44.99086" lon="4.52847">
        <ele>458.26901245117</ele>
        <time>2010-05-22T08:17:40Z</time>
      </trkpt>
      <trkpt lat="44.99128" lon="4.5284">
        <ele>459.18798828125</ele>
        <time>2010-05-22T08:17:48Z</time>
      </trkpt>
      <trkpt lat="44.99171" lon="4.52832">
        <ele>460.5719909668</ele>
        <time>2010-05-22T08:17:56Z</time>
      </trkpt>
      <trkpt lat="44.99218" lon="4.52823">
        <ele>461.43499755859</ele>
        <time>2010-05-22T08:18:04Z</time>
      </trkpt>
      <trkpt lat="44.99253" lon="4.52815">
        <ele>462.3450012207</ele>
        <time>2010-05-22T08:18:10Z</time>
      </trkpt>
      <trkpt lat="44.9929" lon="4.52792">
        <ele>463.39498901367</ele>
        <time>2010-05-22T08:18:17Z</time>
      </trkpt>
      <trkpt lat="44.99313" lon="4.52771">
        <ele>463.87399291992</ele>
        <time>2010-05-22T08:18:22Z</time>
      </trkpt>
      <trkpt lat="44.99334" lon="4.52736">
        <ele>464.51300048828</ele>
        <time>2010-05-22T08:18:28Z</time>
      </trkpt>
      <trkpt lat="44.99339" lon="4.52705">
        <ele>465.03500366211</ele>
        <time>2010-05-22T08:18:32Z</time>
      </trkpt>
      <trkpt lat="44.99345" lon="4.52682">
        <ele>465.51501464844</ele>
        <time>2010-05-22T08:18:35Z</time>
      </trkpt>
      <trkpt lat="44.99363" lon="4.52648">
        <ele>466.32998657227</ele>
        <time>2010-05-22T08:18:40Z</time>
      </trkpt>
      <trkpt lat="44.9938" lon="4.52608">
        <ele>466.94198608398</ele>
        <time>2010-05-22T08:18:46Z</time>
      </trkpt>
      <trkpt lat="44.9939" lon="4.52577">
        <ele>467.55700683594</ele>
        <time>2010-05-22T08:18:50Z</time>
      </trkpt>
      <trkpt lat="44.99396" lon="4.52564">
        <ele>467.5539855957</ele>
        <time>2010-05-22T08:18:52Z</time>
      </trkpt>
      <trkpt lat="44.99412" lon="4.52543">
        <ele>468.02099609375</ele>
        <time>2010-05-22T08:18:56Z</time>
      </trkpt>
      <trkpt lat="44.99425" lon="4.52512">
        <ele>468.73001098633</ele>
        <time>2010-05-22T08:19:01Z</time>
      </trkpt>
      <trkpt lat="44.99425" lon="4.52483">
        <ele>469.21499633789</ele>
        <time>2010-05-22T08:19:05Z</time>
      </trkpt>
      <trkpt lat="44.99424" lon="4.52469">
        <ele>469.41000366211</ele>
        <time>2010-05-22T08:19:07Z</time>
      </trkpt>
      <trkpt lat="44.99436" lon="4.52416">
        <ele>469.61801147461</ele>
        <time>2010-05-22T08:19:14Z</time>
      </trkpt>
      <trkpt lat="44.99442" lon="4.52401">
        <ele>470.00601196289</ele>
        <time>2010-05-22T08:19:16Z</time>
      </trkpt>
      <trkpt lat="44.9946" lon="4.5234">
        <ele>470.25799560547</ele>
        <time>2010-05-22T08:19:24Z</time>
      </trkpt>
      <trkpt lat="44.99479" lon="4.52276">
        <ele>470.40200805664</ele>
        <time>2010-05-22T08:19:32Z</time>
      </trkpt>
      <trkpt lat="44.9948" lon="4.52267">
        <ele>470.35900878906</ele>
        <time>2010-05-22T08:19:33Z</time>
      </trkpt>
      <trkpt lat="44.99477" lon="4.52222">
        <ele>469.86401367188</ele>
        <time>2010-05-22T08:19:38Z</time>
      </trkpt>
      <trkpt lat="44.99474" lon="4.52214">
        <ele>469.74700927734</ele>
        <time>2010-05-22T08:19:39Z</time>
      </trkpt>
      <trkpt lat="44.99449" lon="4.52141">
        <ele>469.01000976562</ele>
        <time>2010-05-22T08:19:47Z</time>
      </trkpt>
      <trkpt lat="44.99424" lon="4.5208">
        <ele>468.11401367188</ele>
        <time>2010-05-22T08:19:54Z</time>
      </trkpt>
      <trkpt lat="44.99386" lon="4.52021">
        <ele>467.20498657227</ele>
        <time>2010-05-22T08:20:02Z</time>
      </trkpt>
      <trkpt lat="44.99361" lon="4.51987">
        <ele>466.6369934082</ele>
        <time>2010-05-22T08:20:07Z</time>
      </trkpt>
      <trkpt lat="44.99335" lon="4.51949">
        <ele>465.78399658203</ele>
        <time>2010-05-22T08:20:13Z</time>
      </trkpt>
      <trkpt lat="44.99327" lon="4.51934">
        <ele>465.12899780273</ele>
        <time>2010-05-22T08:20:15Z</time>
      </trkpt>
      <trkpt lat="44.99319" lon="4.51898">
        <ele>464.76400756836</ele>
        <time>2010-05-22T08:20:19Z</time>
      </trkpt>
      <trkpt lat="44.99319" lon="4.51889">
        <ele>464.77600097656</ele>
        <time>2010-05-22T08:20:20Z</time>
      </trkpt>
      <trkpt lat="44.99323" lon="4.51844">
        <ele>464.66598510742</ele>
        <time>2010-05-22T08:20:25Z</time>
      </trkpt>
      <trkpt lat="44.99335" lon="4.51814">
        <ele>464.35400390625</ele>
        <time>2010-05-22T08:20:29Z</time>
      </trkpt>
      <trkpt lat="44.99351" lon="4.518">
        <ele>464.52499389648</ele>
        <time>2010-05-22T08:20:32Z</time>
      </trkpt>
      <trkpt lat="44.99363" lon="4.51793">
        <ele>465.09399414062</ele>
        <time>2010-05-22T08:20:34Z</time>
      </trkpt>
      <trkpt lat="44.99379" lon="4.51785">
        <ele>465.79299926758</ele>
        <time>2010-05-22T08:20:37Z</time>
      </trkpt>
      <trkpt lat="44.99384" lon="4.51782">
        <ele>465.97900390625</ele>
        <time>2010-05-22T08:20:38Z</time>
      </trkpt>
      <trkpt lat="44.99389" lon="4.5178">
        <ele>466.10699462891</ele>
        <time>2010-05-22T08:20:39Z</time>
      </trkpt>
      <trkpt lat="44.99412" lon="4.51781">
        <ele>467.02499389648</ele>
        <time>2010-05-22T08:20:43Z</time>
      </trkpt>
      <trkpt lat="44.99419" lon="4.51783">
        <ele>467.19900512695</ele>
        <time>2010-05-22T08:20:44Z</time>
      </trkpt>
      <trkpt lat="44.99451" lon="4.51799">
        <ele>468.53298950195</ele>
        <time>2010-05-22T08:20:50Z</time>
      </trkpt>
      <trkpt lat="44.99481" lon="4.51813">
        <ele>469.71899414062</ele>
        <time>2010-05-22T08:20:56Z</time>
      </trkpt>
      <trkpt lat="44.99504" lon="4.51808">
        <ele>470.71701049805</ele>
        <time>2010-05-22T08:21:01Z</time>
      </trkpt>
      <trkpt lat="44.99516" lon="4.51797">
        <ele>471.57598876953</ele>
        <time>2010-05-22T08:21:04Z</time>
      </trkpt>
      <trkpt lat="44.99541" lon="4.51768">
        <ele>472.90301513672</ele>
        <time>2010-05-22T08:21:11Z</time>
      </trkpt>
      <trkpt lat="44.99566" lon="4.51743">
        <ele>474.88299560547</ele>
        <time>2010-05-22T08:21:18Z</time>
      </trkpt>
      <trkpt lat="44.99568" lon="4.51738">
        <ele>475.05801391602</ele>
        <time>2010-05-22T08:21:19Z</time>
      </trkpt>
      <trkpt lat="44.99572" lon="4.51727">
        <ele>475.8039855957</ele>
        <time>2010-05-22T08:21:21Z</time>
      </trkpt>
      <trkpt lat="44.99571" lon="4.51702">
        <ele>476.86801147461</ele>
        <time>2010-05-22T08:21:26Z</time>
      </trkpt>
      <trkpt lat="44.99565" lon="4.51699">
        <ele>477.26998901367</ele>
        <time>2010-05-22T08:21:30Z</time>
      </trkpt>
      <trkpt lat="44.99565" lon="4.51701">
        <ele>477.36199951172</ele>
        <time>2010-05-22T08:21:34Z</time>
      </trkpt>
      <trkpt lat="44.99562" lon="4.51714">
        <ele>477.36700439453</ele>
        <time>2010-05-22T08:21:40Z</time>
      </trkpt>
      <trkpt lat="44.9955" lon="4.51715">
        <ele>476.82901000977</ele>
        <time>2010-05-22T08:21:44Z</time>
      </trkpt>
      <trkpt lat="44.99534" lon="4.51709">
        <ele>476.57901000977</ele>
        <time>2010-05-22T08:21:48Z</time>
      </trkpt>
      <trkpt lat="44.99518" lon="4.51696">
        <ele>477.06698608398</ele>
        <time>2010-05-22T08:21:53Z</time>
      </trkpt>
      <trkpt lat="44.99503" lon="4.51688">
        <ele>476.89801025391</ele>
        <time>2010-05-22T08:21:59Z</time>
      </trkpt>
      <trkpt lat="44.99494" lon="4.51689">
        <ele>476.81600952148</ele>
        <time>2010-05-22T08:22:02Z</time>
      </trkpt>
      <trkpt lat="44.99492" lon="4.51689">
        <ele>476.54598999023</ele>
        <time>2010-05-22T08:22:04Z</time>
      </trkpt>
      <trkpt lat="44.99489" lon="4.51688">
        <ele>476.625</ele>
        <time>2010-05-22T08:22:08Z</time>
      </trkpt>
      <trkpt lat="44.99487" lon="4.51692">
        <ele>476.54699707031</ele>
        <time>2010-05-22T08:22:12Z</time>
      </trkpt>
      <trkpt lat="44.99487" lon="4.51692">
        <ele>476.59201049805</ele>
        <time>2010-05-22T08:22:13Z</time>
      </trkpt>
      <trkpt lat="44.99488" lon="4.5169">
        <ele>476.81399536133</ele>
        <time>2010-05-22T08:22:18Z</time>
      </trkpt>
      <trkpt lat="44.99493" lon="4.51697">
        <ele>480.08700561523</ele>
        <time>2010-05-22T08:29:22Z</time>
      </trkpt>
      <trkpt lat="44.99494" lon="4.51696">
        <ele>480.15600585938</ele>
        <time>2010-05-22T08:29:23Z</time>
      </trkpt>
      <trkpt lat="44.99492" lon="4.51698">
        <ele>480.08801269531</ele>
        <time>2010-05-22T08:29:30Z</time>
      </trkpt>
      <trkpt lat="44.99482" lon="4.51699">
        <ele>480.28100585938</ele>
        <time>2010-05-22T08:30:09Z</time>
      </trkpt>
      <trkpt lat="44.99482" lon="4.51699">
        <ele>480.29098510742</ele>
        <time>2010-05-22T08:30:10Z</time>
      </trkpt>
      <trkpt lat="44.99482" lon="4.51702">
        <ele>480.32901000977</ele>
        <time>2010-05-22T08:30:16Z</time>
      </trkpt>
      <trkpt lat="44.99482" lon="4.51702">
        <ele>480.34698486328</ele>
        <time>2010-05-22T08:30:17Z</time>
      </trkpt>
      <trkpt lat="44.99481" lon="4.51708">
        <ele>481.02499389648</ele>
        <time>2010-05-22T08:30:45Z</time>
      </trkpt>
      <trkpt lat="44.99481" lon="4.51708">
        <ele>481.1789855957</ele>
        <time>2010-05-22T08:30:46Z</time>
      </trkpt>
      <trkpt lat="44.99484" lon="4.51718">
        <ele>480.89199829102</ele>
        <time>2010-05-22T08:30:53Z</time>
      </trkpt>
      <trkpt lat="44.99481" lon="4.51711">
        <ele>480.68798828125</ele>
        <time>2010-05-22T08:30:56Z</time>
      </trkpt>
      <trkpt lat="44.99473" lon="4.51712">
        <ele>480.87399291992</ele>
        <time>2010-05-22T08:30:59Z</time>
      </trkpt>
      <trkpt lat="44.99471" lon="4.51714">
        <ele>481.23498535156</ele>
        <time>2010-05-22T08:31:00Z</time>
      </trkpt>
      <trkpt lat="44.99455" lon="4.51723">
        <ele>482.65301513672</ele>
        <time>2010-05-22T08:31:06Z</time>
      </trkpt>
      <trkpt lat="44.99441" lon="4.51722">
        <ele>484.0119934082</ele>
        <time>2010-05-22T08:31:11Z</time>
      </trkpt>
      <trkpt lat="44.99425" lon="4.51725">
        <ele>485.72698974609</ele>
        <time>2010-05-22T08:31:16Z</time>
      </trkpt>
      <trkpt lat="44.99415" lon="4.51726">
        <ele>486.42199707031</ele>
        <time>2010-05-22T08:31:19Z</time>
      </trkpt>
      <trkpt lat="44.99399" lon="4.51723">
        <ele>488.02398681641</ele>
        <time>2010-05-22T08:31:25Z</time>
      </trkpt>
      <trkpt lat="44.99394" lon="4.51706">
        <ele>488.5119934082</ele>
        <time>2010-05-22T08:31:29Z</time>
      </trkpt>
      <trkpt lat="44.994" lon="4.51697">
        <ele>488.66101074219</ele>
        <time>2010-05-22T08:31:31Z</time>
      </trkpt>
      <trkpt lat="44.99427" lon="4.51681">
        <ele>491.00500488281</ele>
        <time>2010-05-22T08:31:37Z</time>
      </trkpt>
      <trkpt lat="44.99434" lon="4.51677">
        <ele>491.6780090332</ele>
        <time>2010-05-22T08:31:39Z</time>
      </trkpt>
      <trkpt lat="44.99453" lon="4.51666">
        <ele>488.9169921875</ele>
        <time>2010-05-22T08:31:45Z</time>
      </trkpt>
      <trkpt lat="44.9947" lon="4.51654">
        <ele>484.44198608398</ele>
        <time>2010-05-22T08:31:50Z</time>
      </trkpt>
      <trkpt lat="44.99479" lon="4.51648">
        <ele>483.10299682617</ele>
        <time>2010-05-22T08:31:52Z</time>
      </trkpt>
      <trkpt lat="44.99496" lon="4.51656">
        <ele>484.1130065918</ele>
        <time>2010-05-22T08:31:56Z</time>
      </trkpt>
      <trkpt lat="44.99509" lon="4.51668">
        <ele>484.5539855957</ele>
        <time>2010-05-22T08:32:01Z</time>
      </trkpt>
      <trkpt lat="44.99519" lon="4.51675">
        <ele>484.0719909668</ele>
        <time>2010-05-22T08:32:04Z</time>
      </trkpt>
      <trkpt lat="44.99541" lon="4.51688">
        <ele>483.03500366211</ele>
        <time>2010-05-22T08:32:09Z</time>
      </trkpt>
      <trkpt lat="44.99553" lon="4.5168">
        <ele>482.52301025391</ele>
        <time>2010-05-22T08:32:12Z</time>
      </trkpt>
      <trkpt lat="44.99554" lon="4.51664">
        <ele>482.3869934082</ele>
        <time>2010-05-22T08:32:15Z</time>
      </trkpt>
      <trkpt lat="44.99553" lon="4.51659">
        <ele>482.39001464844</ele>
        <time>2010-05-22T08:32:16Z</time>
      </trkpt>
      <trkpt lat="44.99548" lon="4.51641">
        <ele>483.02301025391</ele>
        <time>2010-05-22T08:32:20Z</time>
      </trkpt>
      <trkpt lat="44.99544" lon="4.51614">
        <ele>483.90399169922</ele>
        <time>2010-05-22T08:32:25Z</time>
      </trkpt>
      <trkpt lat="44.99548" lon="4.51595">
        <ele>484.64099121094</ele>
        <time>2010-05-22T08:32:30Z</time>
      </trkpt>
      <trkpt lat="44.99561" lon="4.51585">
        <ele>484.71499633789</ele>
        <time>2010-05-22T08:32:35Z</time>
      </trkpt>
      <trkpt lat="44.99583" lon="4.51576">
        <ele>485.5119934082</ele>
        <time>2010-05-22T08:32:41Z</time>
      </trkpt>
      <trkpt lat="44.99605" lon="4.5157">
        <ele>486.75500488281</ele>
        <time>2010-05-22T08:32:47Z</time>
      </trkpt>
      <trkpt lat="44.9963" lon="4.51566">
        <ele>487.49798583984</ele>
        <time>2010-05-22T08:32:53Z</time>
      </trkpt>
      <trkpt lat="44.99664" lon="4.51576">
        <ele>488.40301513672</ele>
        <time>2010-05-22T08:33:01Z</time>
      </trkpt>
      <trkpt lat="44.99677" lon="4.51576">
        <ele>489.21099853516</ele>
        <time>2010-05-22T08:33:04Z</time>
      </trkpt>
      <trkpt lat="44.99702" lon="4.51558">
        <ele>490.40399169922</ele>
        <time>2010-05-22T08:33:10Z</time>
      </trkpt>
      <trkpt lat="44.99728" lon="4.51512">
        <ele>492.03900146484</ele>
        <time>2010-05-22T08:33:19Z</time>
      </trkpt>
      <trkpt lat="44.9973" lon="4.51506">
        <ele>492.19900512695</ele>
        <time>2010-05-22T08:33:20Z</time>
      </trkpt>
      <trkpt lat="44.99733" lon="4.51495">
        <ele>492.40399169922</ele>
        <time>2010-05-22T08:33:22Z</time>
      </trkpt>
      <trkpt lat="44.99734" lon="4.51455">
        <ele>493.81698608398</ele>
        <time>2010-05-22T08:33:29Z</time>
      </trkpt>
      <trkpt lat="44.99734" lon="4.51438">
        <ele>494.25900268555</ele>
        <time>2010-05-22T08:33:32Z</time>
      </trkpt>
      <trkpt lat="44.99734" lon="4.51391">
        <ele>495.90200805664</ele>
        <time>2010-05-22T08:33:40Z</time>
      </trkpt>
      <trkpt lat="44.99725" lon="4.51358">
        <ele>496.41598510742</ele>
        <time>2010-05-22T08:33:46Z</time>
      </trkpt>
      <trkpt lat="44.99722" lon="4.51354">
        <ele>496.57699584961</ele>
        <time>2010-05-22T08:33:47Z</time>
      </trkpt>
      <trkpt lat="44.99702" lon="4.51332">
        <ele>497.59799194336</ele>
        <time>2010-05-22T08:33:53Z</time>
      </trkpt>
      <trkpt lat="44.99698" lon="4.51328">
        <ele>497.59399414062</ele>
        <time>2010-05-22T08:33:54Z</time>
      </trkpt>
      <trkpt lat="44.99686" lon="4.51309">
        <ele>498.38400268555</ele>
        <time>2010-05-22T08:33:58Z</time>
      </trkpt>
      <trkpt lat="44.99678" lon="4.51288">
        <ele>499.39199829102</ele>
        <time>2010-05-22T08:34:01Z</time>
      </trkpt>
      <trkpt lat="44.99674" lon="4.51273">
        <ele>500.34698486328</ele>
        <time>2010-05-22T08:34:03Z</time>
      </trkpt>
      <trkpt lat="44.99675" lon="4.51239">
        <ele>501.11401367188</ele>
        <time>2010-05-22T08:34:07Z</time>
      </trkpt>
      <trkpt lat="44.9968" lon="4.51225">
        <ele>501.45098876953</ele>
        <time>2010-05-22T08:34:09Z</time>
      </trkpt>
      <trkpt lat="44.99697" lon="4.51187">
        <ele>503.69900512695</ele>
        <time>2010-05-22T08:34:16Z</time>
      </trkpt>
      <trkpt lat="44.99706" lon="4.51145">
        <ele>505.6669921875</ele>
        <time>2010-05-22T08:34:23Z</time>
      </trkpt>
      <trkpt lat="44.99716" lon="4.51119">
        <ele>506.78500366211</ele>
        <time>2010-05-22T08:34:28Z</time>
      </trkpt>
      <trkpt lat="44.99738" lon="4.51102">
        <ele>508.06900024414</ele>
        <time>2010-05-22T08:34:34Z</time>
      </trkpt>
      <trkpt lat="44.99768" lon="4.511">
        <ele>509.86700439453</ele>
        <time>2010-05-22T08:34:42Z</time>
      </trkpt>
      <trkpt lat="44.99786" lon="4.51096">
        <ele>510.5</ele>
        <time>2010-05-22T08:34:48Z</time>
      </trkpt>
      <trkpt lat="44.99806" lon="4.5109">
        <ele>510.49301147461</ele>
        <time>2010-05-22T08:34:56Z</time>
      </trkpt>
      <trkpt lat="44.99823" lon="4.51078">
        <ele>509.51699829102</ele>
        <time>2010-05-22T08:35:01Z</time>
      </trkpt>
      <trkpt lat="44.99846" lon="4.51056">
        <ele>507.82998657227</ele>
        <time>2010-05-22T08:35:06Z</time>
      </trkpt>
      <trkpt lat="44.9986" lon="4.51038">
        <ele>507.24700927734</ele>
        <time>2010-05-22T08:35:09Z</time>
      </trkpt>
      <trkpt lat="44.99881" lon="4.51002">
        <ele>506.51400756836</ele>
        <time>2010-05-22T08:35:14Z</time>
      </trkpt>
      <trkpt lat="44.99904" lon="4.50953">
        <ele>505.63500976562</ele>
        <time>2010-05-22T08:35:20Z</time>
      </trkpt>
      <trkpt lat="44.99931" lon="4.50895">
        <ele>504.38598632812</ele>
        <time>2010-05-22T08:35:27Z</time>
      </trkpt>
      <trkpt lat="44.99943" lon="4.50871">
        <ele>504.07901000977</ele>
        <time>2010-05-22T08:35:30Z</time>
      </trkpt>
      <trkpt lat="44.9995" lon="4.50855">
        <ele>504.09100341797</ele>
        <time>2010-05-22T08:35:32Z</time>
      </trkpt>
      <trkpt lat="44.99954" lon="4.50847">
        <ele>504.01599121094</ele>
        <time>2010-05-22T08:35:33Z</time>
      </trkpt>
      <trkpt lat="44.99968" lon="4.50791">
        <ele>503.20901489258</ele>
        <time>2010-05-22T08:35:39Z</time>
      </trkpt>
      <trkpt lat="44.99974" lon="4.50739">
        <ele>502.01998901367</ele>
        <time>2010-05-22T08:35:44Z</time>
      </trkpt>
      <trkpt lat="44.99991" lon="4.50715">
        <ele>501.33099365234</ele>
        <time>2010-05-22T08:35:47Z</time>
      </trkpt>
      <trkpt lat="44.99997" lon="4.50708">
        <ele>501.29400634766</ele>
        <time>2010-05-22T08:35:48Z</time>
      </trkpt>
      <trkpt lat="45.00011" lon="4.5067">
        <ele>500.86401367188</ele>
        <time>2010-05-22T08:35:52Z</time>
      </trkpt>
      <trkpt lat="45.00012" lon="4.50648">
        <ele>500.30599975586</ele>
        <time>2010-05-22T08:35:54Z</time>
      </trkpt>
      <trkpt lat="45.00008" lon="4.50594">
        <ele>498.94799804688</ele>
        <time>2010-05-22T08:35:59Z</time>
      </trkpt>
      <trkpt lat="45.00034" lon="4.50552">
        <ele>499.125</ele>
        <time>2010-05-22T08:36:04Z</time>
      </trkpt>
      <trkpt lat="45.00055" lon="4.50505">
        <ele>498.58200073242</ele>
        <time>2010-05-22T08:36:09Z</time>
      </trkpt>
      <trkpt lat="45.00073" lon="4.50458">
        <ele>498.25799560547</ele>
        <time>2010-05-22T08:36:14Z</time>
      </trkpt>
      <trkpt lat="45.00092" lon="4.5041">
        <ele>497.35998535156</ele>
        <time>2010-05-22T08:36:19Z</time>
      </trkpt>
      <trkpt lat="45.00112" lon="4.50378">
        <ele>496.39999389648</ele>
        <time>2010-05-22T08:36:23Z</time>
      </trkpt>
      <trkpt lat="45.00144" lon="4.50334">
        <ele>495.94000244141</ele>
        <time>2010-05-22T08:36:29Z</time>
      </trkpt>
      <trkpt lat="45.00168" lon="4.50277">
        <ele>494.9880065918</ele>
        <time>2010-05-22T08:36:35Z</time>
      </trkpt>
      <trkpt lat="45.00167" lon="4.50224">
        <ele>494.45001220703</ele>
        <time>2010-05-22T08:36:40Z</time>
      </trkpt>
      <trkpt lat="45.00166" lon="4.50213">
        <ele>494.38400268555</ele>
        <time>2010-05-22T08:36:41Z</time>
      </trkpt>
      <trkpt lat="45.00161" lon="4.50157">
        <ele>493.40798950195</ele>
        <time>2010-05-22T08:36:46Z</time>
      </trkpt>
      <trkpt lat="45.0017" lon="4.50117">
        <ele>492.30099487305</ele>
        <time>2010-05-22T08:36:50Z</time>
      </trkpt>
      <trkpt lat="45.00184" lon="4.50113">
        <ele>491.60800170898</ele>
        <time>2010-05-22T08:36:52Z</time>
      </trkpt>
      <trkpt lat="45.00198" lon="4.50118">
        <ele>491.43701171875</ele>
        <time>2010-05-22T08:36:54Z</time>
      </trkpt>
      <trkpt lat="45.00213" lon="4.50125">
        <ele>491.14599609375</ele>
        <time>2010-05-22T08:36:56Z</time>
      </trkpt>
      <trkpt lat="45.00235" lon="4.50127">
        <ele>490.68600463867</ele>
        <time>2010-05-22T08:36:59Z</time>
      </trkpt>
      <trkpt lat="45.00288" lon="4.50116">
        <ele>490.13400268555</ele>
        <time>2010-05-22T08:37:06Z</time>
      </trkpt>
      <trkpt lat="45.00296" lon="4.50113">
        <ele>490.07501220703</ele>
        <time>2010-05-22T08:37:07Z</time>
      </trkpt>
      <trkpt lat="45.00341" lon="4.50068">
        <ele>489.70401000977</ele>
        <time>2010-05-22T08:37:14Z</time>
      </trkpt>
      <trkpt lat="45.00368" lon="4.50031">
        <ele>488.93499755859</ele>
        <time>2010-05-22T08:37:19Z</time>
      </trkpt>
      <trkpt lat="45.00385" lon="4.5001">
        <ele>488.38500976562</ele>
        <time>2010-05-22T08:37:22Z</time>
      </trkpt>
      <trkpt lat="45.00401" lon="4.49966">
        <ele>487.97900390625</ele>
        <time>2010-05-22T08:37:27Z</time>
      </trkpt>
      <trkpt lat="45.00398" lon="4.49947">
        <ele>487.91299438477</ele>
        <time>2010-05-22T08:37:29Z</time>
      </trkpt>
      <trkpt lat="45.00384" lon="4.49878">
        <ele>487.63000488281</ele>
        <time>2010-05-22T08:37:36Z</time>
      </trkpt>
      <trkpt lat="45.00387" lon="4.4984">
        <ele>487.61801147461</ele>
        <time>2010-05-22T08:37:40Z</time>
      </trkpt>
      <trkpt lat="45.00402" lon="4.49823">
        <ele>487.81500244141</ele>
        <time>2010-05-22T08:37:43Z</time>
      </trkpt>
      <trkpt lat="45.0042" lon="4.49827">
        <ele>487.9469909668</ele>
        <time>2010-05-22T08:37:46Z</time>
      </trkpt>
      <trkpt lat="45.00424" lon="4.49832">
        <ele>488.20498657227</ele>
        <time>2010-05-22T08:37:47Z</time>
      </trkpt>
      <trkpt lat="45.00434" lon="4.49846">
        <ele>489.84600830078</ele>
        <time>2010-05-22T08:37:50Z</time>
      </trkpt>
      <trkpt lat="45.00441" lon="4.49854">
        <ele>490.52301025391</ele>
        <time>2010-05-22T08:37:52Z</time>
      </trkpt>
      <trkpt lat="45.00459" lon="4.49855">
        <ele>491.20098876953</ele>
        <time>2010-05-22T08:37:56Z</time>
      </trkpt>
      <trkpt lat="45.00467" lon="4.49846">
        <ele>491.43301391602</ele>
        <time>2010-05-22T08:37:58Z</time>
      </trkpt>
      <trkpt lat="45.0047" lon="4.4984">
        <ele>491.45599365234</ele>
        <time>2010-05-22T08:37:59Z</time>
      </trkpt>
      <trkpt lat="45.00492" lon="4.49803">
        <ele>491.65200805664</ele>
        <time>2010-05-22T08:38:05Z</time>
      </trkpt>
      <trkpt lat="45.00516" lon="4.49765">
        <ele>491.88400268555</ele>
        <time>2010-05-22T08:38:11Z</time>
      </trkpt>
      <trkpt lat="45.00543" lon="4.49732">
        <ele>492.12899780273</ele>
        <time>2010-05-22T08:38:18Z</time>
      </trkpt>
      <trkpt lat="45.00563" lon="4.49715">
        <ele>492.92498779297</ele>
        <time>2010-05-22T08:38:24Z</time>
      </trkpt>
      <trkpt lat="45.0058" lon="4.49695">
        <ele>493.0710144043</ele>
        <time>2010-05-22T08:38:31Z</time>
      </trkpt>
      <trkpt lat="45.00603" lon="4.49673">
        <ele>492.69299316406</ele>
        <time>2010-05-22T08:38:39Z</time>
      </trkpt>
      <trkpt lat="45.00613" lon="4.49664">
        <ele>492.75</ele>
        <time>2010-05-22T08:38:42Z</time>
      </trkpt>
      <trkpt lat="45.0062" lon="4.49659">
        <ele>492.72100830078</ele>
        <time>2010-05-22T08:38:44Z</time>
      </trkpt>
      <trkpt lat="45.00623" lon="4.49655">
        <ele>492.54098510742</ele>
        <time>2010-05-22T08:38:45Z</time>
      </trkpt>
      <trkpt lat="45.00646" lon="4.49635">
        <ele>492.48699951172</ele>
        <time>2010-05-22T08:38:50Z</time>
      </trkpt>
      <trkpt lat="45.0068" lon="4.49607">
        <ele>491.7080078125</ele>
        <time>2010-05-22T08:38:56Z</time>
      </trkpt>
      <trkpt lat="45.00714" lon="4.49578">
        <ele>491.67401123047</ele>
        <time>2010-05-22T08:39:02Z</time>
      </trkpt>
      <trkpt lat="45.00758" lon="4.4955">
        <ele>491.06399536133</ele>
        <time>2010-05-22T08:39:09Z</time>
      </trkpt>
      <trkpt lat="45.00814" lon="4.49519">
        <ele>490.34600830078</ele>
        <time>2010-05-22T08:39:17Z</time>
      </trkpt>
      <trkpt lat="45.00848" lon="4.49498">
        <ele>490.00500488281</ele>
        <time>2010-05-22T08:39:22Z</time>
      </trkpt>
      <trkpt lat="45.00885" lon="4.49479">
        <ele>489.22299194336</ele>
        <time>2010-05-22T08:39:27Z</time>
      </trkpt>
      <trkpt lat="45.00945" lon="4.49456">
        <ele>489.08999633789</ele>
        <time>2010-05-22T08:39:34Z</time>
      </trkpt>
      <trkpt lat="45.00993" lon="4.49437">
        <ele>488.98901367188</ele>
        <time>2010-05-22T08:39:40Z</time>
      </trkpt>
      <trkpt lat="45.01044" lon="4.4942">
        <ele>488.77398681641</ele>
        <time>2010-05-22T08:39:47Z</time>
      </trkpt>
      <trkpt lat="45.01089" lon="4.49423">
        <ele>487.58999633789</ele>
        <time>2010-05-22T08:39:53Z</time>
      </trkpt>
      <trkpt lat="45.01131" lon="4.49424">
        <ele>487.84600830078</ele>
        <time>2010-05-22T08:39:59Z</time>
      </trkpt>
      <trkpt lat="45.01168" lon="4.49405">
        <ele>488.40200805664</ele>
        <time>2010-05-22T08:40:04Z</time>
      </trkpt>
      <trkpt lat="45.01174" lon="4.49399">
        <ele>488.42999267578</ele>
        <time>2010-05-22T08:40:05Z</time>
      </trkpt>
      <trkpt lat="45.01205" lon="4.49364">
        <ele>489.32901000977</ele>
        <time>2010-05-22T08:40:11Z</time>
      </trkpt>
      <trkpt lat="45.01246" lon="4.49339">
        <ele>488.89001464844</ele>
        <time>2010-05-22T08:40:18Z</time>
      </trkpt>
      <trkpt lat="45.01275" lon="4.49329">
        <ele>489.85101318359</ele>
        <time>2010-05-22T08:40:23Z</time>
      </trkpt>
      <trkpt lat="45.0131" lon="4.49311">
        <ele>491.27600097656</ele>
        <time>2010-05-22T08:40:29Z</time>
      </trkpt>
      <trkpt lat="45.01346" lon="4.49298">
        <ele>492.54501342773</ele>
        <time>2010-05-22T08:40:35Z</time>
      </trkpt>
      <trkpt lat="45.01388" lon="4.49284">
        <ele>493.27700805664</ele>
        <time>2010-05-22T08:40:42Z</time>
      </trkpt>
      <trkpt lat="45.01427" lon="4.4926">
        <ele>494.52099609375</ele>
        <time>2010-05-22T08:40:49Z</time>
      </trkpt>
      <trkpt lat="45.01467" lon="4.49246">
        <ele>495.78601074219</ele>
        <time>2010-05-22T08:40:56Z</time>
      </trkpt>
      <trkpt lat="45.01507" lon="4.49232">
        <ele>496.50299072266</ele>
        <time>2010-05-22T08:41:03Z</time>
      </trkpt>
      <trkpt lat="45.01578" lon="4.49206">
        <ele>497.95599365234</ele>
        <time>2010-05-22T08:41:15Z</time>
      </trkpt>
      <trkpt lat="45.01615" lon="4.49178">
        <ele>498.73699951172</ele>
        <time>2010-05-22T08:41:22Z</time>
      </trkpt>
      <trkpt lat="45.01635" lon="4.4916">
        <ele>499.63299560547</ele>
        <time>2010-05-22T08:41:26Z</time>
      </trkpt>
      <trkpt lat="45.01659" lon="4.49125">
        <ele>500.94500732422</ele>
        <time>2010-05-22T08:41:32Z</time>
      </trkpt>
      <trkpt lat="45.01676" lon="4.49067">
        <ele>502.84399414062</ele>
        <time>2010-05-22T08:41:40Z</time>
      </trkpt>
      <trkpt lat="45.01694" lon="4.48997">
        <ele>504.4880065918</ele>
        <time>2010-05-22T08:41:50Z</time>
      </trkpt>
      <trkpt lat="45.01714" lon="4.4892">
        <ele>507.27801513672</ele>
        <time>2010-05-22T08:42:01Z</time>
      </trkpt>
      <trkpt lat="45.01733" lon="4.48855">
        <ele>509.22299194336</ele>
        <time>2010-05-22T08:42:10Z</time>
      </trkpt>
      <trkpt lat="45.01742" lon="4.48835">
        <ele>509.64801025391</ele>
        <time>2010-05-22T08:42:13Z</time>
      </trkpt>
      <trkpt lat="45.01759" lon="4.48816">
        <ele>509.97601318359</ele>
        <time>2010-05-22T08:42:17Z</time>
      </trkpt>
      <trkpt lat="45.0182" lon="4.4878">
        <ele>509.18200683594</ele>
        <time>2010-05-22T08:42:28Z</time>
      </trkpt>
      <trkpt lat="45.01841" lon="4.4877">
        <ele>509.36499023438</ele>
        <time>2010-05-22T08:42:32Z</time>
      </trkpt>
      <trkpt lat="45.01851" lon="4.48754">
        <ele>509.79901123047</ele>
        <time>2010-05-22T08:42:36Z</time>
      </trkpt>
      <trkpt lat="45.01847" lon="4.48746">
        <ele>510.0419921875</ele>
        <time>2010-05-22T08:42:38Z</time>
      </trkpt>
      <trkpt lat="45.01834" lon="4.48719">
        <ele>510.42001342773</ele>
        <time>2010-05-22T08:42:45Z</time>
      </trkpt>
      <trkpt lat="45.01822" lon="4.48695">
        <ele>510.96600341797</ele>
        <time>2010-05-22T08:42:50Z</time>
      </trkpt>
      <trkpt lat="45.01803" lon="4.48658">
        <ele>512.1259765625</ele>
        <time>2010-05-22T08:42:57Z</time>
      </trkpt>
      <trkpt lat="45.018" lon="4.48652">
        <ele>512.36297607422</ele>
        <time>2010-05-22T08:42:58Z</time>
      </trkpt>
      <trkpt lat="45.01785" lon="4.48628">
        <ele>514.05700683594</ele>
        <time>2010-05-22T08:43:04Z</time>
      </trkpt>
      <trkpt lat="45.01779" lon="4.48612">
        <ele>514.57299804688</ele>
        <time>2010-05-22T08:43:07Z</time>
      </trkpt>
      <trkpt lat="45.01768" lon="4.48576">
        <ele>515.68499755859</ele>
        <time>2010-05-22T08:43:13Z</time>
      </trkpt>
      <trkpt lat="45.01764" lon="4.4855">
        <ele>516.33599853516</ele>
        <time>2010-05-22T08:43:17Z</time>
      </trkpt>
      <trkpt lat="45.01757" lon="4.48523">
        <ele>517.40997314453</ele>
        <time>2010-05-22T08:43:21Z</time>
      </trkpt>
      <trkpt lat="45.01743" lon="4.48469">
        <ele>518.62200927734</ele>
        <time>2010-05-22T08:43:29Z</time>
      </trkpt>
      <trkpt lat="45.01745" lon="4.48419">
        <ele>520.00897216797</ele>
        <time>2010-05-22T08:43:36Z</time>
      </trkpt>
      <trkpt lat="45.01743" lon="4.48404">
        <ele>520.09399414062</ele>
        <time>2010-05-22T08:43:38Z</time>
      </trkpt>
      <trkpt lat="45.01738" lon="4.48359">
        <ele>520.78698730469</ele>
        <time>2010-05-22T08:43:44Z</time>
      </trkpt>
      <trkpt lat="45.01739" lon="4.48351">
        <ele>520.97998046875</ele>
        <time>2010-05-22T08:43:45Z</time>
      </trkpt>
      <trkpt lat="45.01754" lon="4.48308">
        <ele>522.27001953125</ele>
        <time>2010-05-22T08:43:51Z</time>
      </trkpt>
      <trkpt lat="45.01783" lon="4.48264">
        <ele>523.48699951172</ele>
        <time>2010-05-22T08:43:58Z</time>
      </trkpt>
      <trkpt lat="45.01788" lon="4.48233">
        <ele>523.85101318359</ele>
        <time>2010-05-22T08:44:02Z</time>
      </trkpt>
      <trkpt lat="45.01778" lon="4.48223">
        <ele>523.68902587891</ele>
        <time>2010-05-22T08:44:04Z</time>
      </trkpt>
      <trkpt lat="45.01767" lon="4.48224">
        <ele>523.81701660156</ele>
        <time>2010-05-22T08:44:06Z</time>
      </trkpt>
      <trkpt lat="45.01756" lon="4.48234">
        <ele>524.23699951172</ele>
        <time>2010-05-22T08:44:08Z</time>
      </trkpt>
      <trkpt lat="45.01734" lon="4.48266">
        <ele>524.98498535156</ele>
        <time>2010-05-22T08:44:13Z</time>
      </trkpt>
      <trkpt lat="45.01713" lon="4.48275">
        <ele>526.25201416016</ele>
        <time>2010-05-22T08:44:17Z</time>
      </trkpt>
      <trkpt lat="45.01702" lon="4.48259">
        <ele>527.26397705078</ele>
        <time>2010-05-22T08:44:20Z</time>
      </trkpt>
      <trkpt lat="45.0168" lon="4.48204">
        <ele>527.34301757812</ele>
        <time>2010-05-22T08:44:27Z</time>
      </trkpt>
      <trkpt lat="45.01664" lon="4.48184">
        <ele>527.06896972656</ele>
        <time>2010-05-22T08:44:30Z</time>
      </trkpt>
      <trkpt lat="45.01643" lon="4.48145">
        <ele>527.88702392578</ele>
        <time>2010-05-22T08:44:35Z</time>
      </trkpt>
      <trkpt lat="45.01619" lon="4.48103">
        <ele>529.66302490234</ele>
        <time>2010-05-22T08:44:41Z</time>
      </trkpt>
      <trkpt lat="45.01586" lon="4.48067">
        <ele>531.92700195312</ele>
        <time>2010-05-22T08:44:48Z</time>
      </trkpt>
      <trkpt lat="45.01566" lon="4.48051">
        <ele>533.51300048828</ele>
        <time>2010-05-22T08:44:52Z</time>
      </trkpt>
      <trkpt lat="45.01552" lon="4.48039">
        <ele>534.63201904297</ele>
        <time>2010-05-22T08:44:55Z</time>
      </trkpt>
      <trkpt lat="45.01529" lon="4.48004">
        <ele>536.11199951172</ele>
        <time>2010-05-22T08:45:01Z</time>
      </trkpt>
      <trkpt lat="45.01493" lon="4.47964">
        <ele>537.30999755859</ele>
        <time>2010-05-22T08:45:09Z</time>
      </trkpt>
      <trkpt lat="45.01488" lon="4.4796">
        <ele>537.46502685547</ele>
        <time>2010-05-22T08:45:10Z</time>
      </trkpt>
      <trkpt lat="45.01468" lon="4.4793">
        <ele>538.83599853516</ele>
        <time>2010-05-22T08:45:15Z</time>
      </trkpt>
      <trkpt lat="45.01456" lon="4.47915">
        <ele>539.45397949219</ele>
        <time>2010-05-22T08:45:18Z</time>
      </trkpt>
      <trkpt lat="45.01441" lon="4.47907">
        <ele>541.10400390625</ele>
        <time>2010-05-22T08:45:21Z</time>
      </trkpt>
      <trkpt lat="45.01422" lon="4.47881">
        <ele>542.41198730469</ele>
        <time>2010-05-22T08:45:26Z</time>
      </trkpt>
      <trkpt lat="45.01395" lon="4.47842">
        <ele>544.916015625</ele>
        <time>2010-05-22T08:45:33Z</time>
      </trkpt>
      <trkpt lat="45.01389" lon="4.4783">
        <ele>545.78997802734</ele>
        <time>2010-05-22T08:45:35Z</time>
      </trkpt>
      <trkpt lat="45.01374" lon="4.47799">
        <ele>547.916015625</ele>
        <time>2010-05-22T08:45:40Z</time>
      </trkpt>
      <trkpt lat="45.01345" lon="4.47755">
        <ele>550.29901123047</ele>
        <time>2010-05-22T08:45:48Z</time>
      </trkpt>
      <trkpt lat="45.01325" lon="4.47715">
        <ele>552.17602539062</ele>
        <time>2010-05-22T08:45:54Z</time>
      </trkpt>
      <trkpt lat="45.01322" lon="4.47709">
        <ele>552.50799560547</ele>
        <time>2010-05-22T08:45:55Z</time>
      </trkpt>
      <trkpt lat="45.01284" lon="4.47652">
        <ele>555.71197509766</ele>
        <time>2010-05-22T08:46:05Z</time>
      </trkpt>
      <trkpt lat="45.01265" lon="4.47627">
        <ele>557.43902587891</ele>
        <time>2010-05-22T08:46:10Z</time>
      </trkpt>
      <trkpt lat="45.01259" lon="4.47607">
        <ele>558.50500488281</ele>
        <time>2010-05-22T08:46:13Z</time>
      </trkpt>
      <trkpt lat="45.01255" lon="4.47584">
        <ele>559.30200195312</ele>
        <time>2010-05-22T08:46:16Z</time>
      </trkpt>
      <trkpt lat="45.01255" lon="4.47554">
        <ele>560.34698486328</ele>
        <time>2010-05-22T08:46:20Z</time>
      </trkpt>
      <trkpt lat="45.0125" lon="4.47502">
        <ele>561.83001708984</ele>
        <time>2010-05-22T08:46:27Z</time>
      </trkpt>
      <trkpt lat="45.01244" lon="4.47442">
        <ele>563.58697509766</ele>
        <time>2010-05-22T08:46:35Z</time>
      </trkpt>
      <trkpt lat="45.01237" lon="4.47387">
        <ele>565.82702636719</ele>
        <time>2010-05-22T08:46:43Z</time>
      </trkpt>
      <trkpt lat="45.01233" lon="4.47367">
        <ele>566.41497802734</ele>
        <time>2010-05-22T08:46:46Z</time>
      </trkpt>
      <trkpt lat="45.01225" lon="4.47356">
        <ele>566.64001464844</ele>
        <time>2010-05-22T08:46:50Z</time>
      </trkpt>
      <trkpt lat="45.01221" lon="4.4738">
        <ele>567.21997070312</ele>
        <time>2010-05-22T08:46:53Z</time>
      </trkpt>
      <trkpt lat="45.0122" lon="4.4739">
        <ele>567.48400878906</ele>
        <time>2010-05-22T08:46:54Z</time>
      </trkpt>
      <trkpt lat="45.01202" lon="4.4745">
        <ele>569.77398681641</ele>
        <time>2010-05-22T08:47:02Z</time>
      </trkpt>
      <trkpt lat="45.01183" lon="4.47497">
        <ele>571.40301513672</ele>
        <time>2010-05-22T08:47:09Z</time>
      </trkpt>
      <trkpt lat="45.01171" lon="4.47514">
        <ele>572.05200195312</ele>
        <time>2010-05-22T08:47:12Z</time>
      </trkpt>
      <trkpt lat="45.01153" lon="4.47523">
        <ele>573.08001708984</ele>
        <time>2010-05-22T08:47:16Z</time>
      </trkpt>
      <trkpt lat="45.01137" lon="4.47517">
        <ele>574.18200683594</ele>
        <time>2010-05-22T08:47:19Z</time>
      </trkpt>
      <trkpt lat="45.01107" lon="4.475">
        <ele>575.97601318359</ele>
        <time>2010-05-22T08:47:25Z</time>
      </trkpt>
      <trkpt lat="45.01075" lon="4.4747">
        <ele>577.84497070312</ele>
        <time>2010-05-22T08:47:33Z</time>
      </trkpt>
      <trkpt lat="45.01051" lon="4.47454">
        <ele>579.39202880859</ele>
        <time>2010-05-22T08:47:38Z</time>
      </trkpt>
      <trkpt lat="45.01004" lon="4.47434">
        <ele>581.97900390625</ele>
        <time>2010-05-22T08:47:47Z</time>
      </trkpt>
      <trkpt lat="45.00979" lon="4.47422">
        <ele>583.40802001953</ele>
        <time>2010-05-22T08:47:52Z</time>
      </trkpt>
      <trkpt lat="45.00954" lon="4.47398">
        <ele>585.166015625</ele>
        <time>2010-05-22T08:47:58Z</time>
      </trkpt>
      <trkpt lat="45.00946" lon="4.47372">
        <ele>586.25299072266</ele>
        <time>2010-05-22T08:48:02Z</time>
      </trkpt>
      <trkpt lat="45.00946" lon="4.4735">
        <ele>586.89599609375</ele>
        <time>2010-05-22T08:48:05Z</time>
      </trkpt>
      <trkpt lat="45.00946" lon="4.47307">
        <ele>588.93597412109</ele>
        <time>2010-05-22T08:48:11Z</time>
      </trkpt>
      <trkpt lat="45.00952" lon="4.47279">
        <ele>590.42901611328</ele>
        <time>2010-05-22T08:48:15Z</time>
      </trkpt>
      <trkpt lat="45.00969" lon="4.47227">
        <ele>592.47900390625</ele>
        <time>2010-05-22T08:48:23Z</time>
      </trkpt>
      <trkpt lat="45.00976" lon="4.47194">
        <ele>593.92797851562</ele>
        <time>2010-05-22T08:48:28Z</time>
      </trkpt>
      <trkpt lat="45.0097" lon="4.47153">
        <ele>595.46398925781</ele>
        <time>2010-05-22T08:48:34Z</time>
      </trkpt>
      <trkpt lat="45.00969" lon="4.47146">
        <ele>595.63000488281</ele>
        <time>2010-05-22T08:48:35Z</time>
      </trkpt>
      <trkpt lat="45.00967" lon="4.47131">
        <ele>596.13000488281</ele>
        <time>2010-05-22T08:48:37Z</time>
      </trkpt>
      <trkpt lat="45.00966" lon="4.47069">
        <ele>598.47900390625</ele>
        <time>2010-05-22T08:48:45Z</time>
      </trkpt>
      <trkpt lat="45.00964" lon="4.47029">
        <ele>600.09802246094</ele>
        <time>2010-05-22T08:48:51Z</time>
      </trkpt>
      <trkpt lat="45.00958" lon="4.47012">
        <ele>600.46099853516</ele>
        <time>2010-05-22T08:48:54Z</time>
      </trkpt>
      <trkpt lat="45.00949" lon="4.46998">
        <ele>601.05499267578</ele>
        <time>2010-05-22T08:48:57Z</time>
      </trkpt>
      <trkpt lat="45.00938" lon="4.46968">
        <ele>602.61401367188</ele>
        <time>2010-05-22T08:49:02Z</time>
      </trkpt>
      <trkpt lat="45.00936" lon="4.4694">
        <ele>603.53997802734</ele>
        <time>2010-05-22T08:49:06Z</time>
      </trkpt>
      <trkpt lat="45.00937" lon="4.46926">
        <ele>603.76300048828</ele>
        <time>2010-05-22T08:49:08Z</time>
      </trkpt>
      <trkpt lat="45.0094" lon="4.46912">
        <ele>604.37200927734</ele>
        <time>2010-05-22T08:49:10Z</time>
      </trkpt>
      <trkpt lat="45.00935" lon="4.46881">
        <ele>606.11700439453</ele>
        <time>2010-05-22T08:49:15Z</time>
      </trkpt>
      <trkpt lat="45.00928" lon="4.46872">
        <ele>606.71398925781</ele>
        <time>2010-05-22T08:49:17Z</time>
      </trkpt>
      <trkpt lat="45.00918" lon="4.46858">
        <ele>607.30700683594</ele>
        <time>2010-05-22T08:49:20Z</time>
      </trkpt>
      <trkpt lat="45.0089" lon="4.46834">
        <ele>608.75799560547</ele>
        <time>2010-05-22T08:49:27Z</time>
      </trkpt>
      <trkpt lat="45.00863" lon="4.46812">
        <ele>609.82897949219</ele>
        <time>2010-05-22T08:49:33Z</time>
      </trkpt>
      <trkpt lat="45.00848" lon="4.46786">
        <ele>611.01501464844</ele>
        <time>2010-05-22T08:49:38Z</time>
      </trkpt>
      <trkpt lat="45.00826" lon="4.46731">
        <ele>613.01098632812</ele>
        <time>2010-05-22T08:49:47Z</time>
      </trkpt>
      <trkpt lat="45.00822" lon="4.46718">
        <ele>613.49597167969</ele>
        <time>2010-05-22T08:49:49Z</time>
      </trkpt>
      <trkpt lat="45.00823" lon="4.46692">
        <ele>614.10601806641</ele>
        <time>2010-05-22T08:49:53Z</time>
      </trkpt>
      <trkpt lat="45.00839" lon="4.46675">
        <ele>614.97698974609</ele>
        <time>2010-05-22T08:49:57Z</time>
      </trkpt>
      <trkpt lat="45.00844" lon="4.46673">
        <ele>615.14501953125</ele>
        <time>2010-05-22T08:49:58Z</time>
      </trkpt>
      <trkpt lat="45.00889" lon="4.46657">
        <ele>617.45202636719</ele>
        <time>2010-05-22T08:50:07Z</time>
      </trkpt>
      <trkpt lat="45.00909" lon="4.46649">
        <ele>618.23999023438</ele>
        <time>2010-05-22T08:50:11Z</time>
      </trkpt>
      <trkpt lat="45.0094" lon="4.46625">
        <ele>619.87298583984</ele>
        <time>2010-05-22T08:50:18Z</time>
      </trkpt>
      <trkpt lat="45.00953" lon="4.46601">
        <ele>620.93701171875</ele>
        <time>2010-05-22T08:50:22Z</time>
      </trkpt>
      <trkpt lat="45.00977" lon="4.46528">
        <ele>623.17901611328</ele>
        <time>2010-05-22T08:50:32Z</time>
      </trkpt>
      <trkpt lat="45.00982" lon="4.46514">
        <ele>623.44000244141</ele>
        <time>2010-05-22T08:50:34Z</time>
      </trkpt>
      <trkpt lat="45.00984" lon="4.46474">
        <ele>624.42199707031</ele>
        <time>2010-05-22T08:50:39Z</time>
      </trkpt>
      <trkpt lat="45.00985" lon="4.46451">
        <ele>625.00201416016</ele>
        <time>2010-05-22T08:50:42Z</time>
      </trkpt>
      <trkpt lat="45.00984" lon="4.46416">
        <ele>626.14300537109</ele>
        <time>2010-05-22T08:50:47Z</time>
      </trkpt>
      <trkpt lat="45.0098" lon="4.4641">
        <ele>626.53900146484</ele>
        <time>2010-05-22T08:50:48Z</time>
      </trkpt>
      <trkpt lat="45.00965" lon="4.46374">
        <ele>628.60400390625</ele>
        <time>2010-05-22T08:50:54Z</time>
      </trkpt>
      <trkpt lat="45.00963" lon="4.46353">
        <ele>629.86999511719</ele>
        <time>2010-05-22T08:50:57Z</time>
      </trkpt>
      <trkpt lat="45.00959" lon="4.46327">
        <ele>630.59100341797</ele>
        <time>2010-05-22T08:51:01Z</time>
      </trkpt>
      <trkpt lat="45.00957" lon="4.46306">
        <ele>631.28601074219</ele>
        <time>2010-05-22T08:51:04Z</time>
      </trkpt>
      <trkpt lat="45.00959" lon="4.46256">
        <ele>633.30102539062</ele>
        <time>2010-05-22T08:51:11Z</time>
      </trkpt>
      <trkpt lat="45.00971" lon="4.46216">
        <ele>634.26800537109</ele>
        <time>2010-05-22T08:51:17Z</time>
      </trkpt>
      <trkpt lat="45.0098" lon="4.46198">
        <ele>634.98699951172</ele>
        <time>2010-05-22T08:51:20Z</time>
      </trkpt>
      <trkpt lat="45.00996" lon="4.46177">
        <ele>636.13098144531</ele>
        <time>2010-05-22T08:51:24Z</time>
      </trkpt>
      <trkpt lat="45.01039" lon="4.46144">
        <ele>638.03601074219</ele>
        <time>2010-05-22T08:51:33Z</time>
      </trkpt>
      <trkpt lat="45.01072" lon="4.46125">
        <ele>639.78497314453</ele>
        <time>2010-05-22T08:51:40Z</time>
      </trkpt>
      <trkpt lat="45.01107" lon="4.46104">
        <ele>641.63397216797</ele>
        <time>2010-05-22T08:51:48Z</time>
      </trkpt>
      <trkpt lat="45.01131" lon="4.46089">
        <ele>642.77502441406</ele>
        <time>2010-05-22T08:51:54Z</time>
      </trkpt>
      <trkpt lat="45.01141" lon="4.46086">
        <ele>643.11297607422</ele>
        <time>2010-05-22T08:51:56Z</time>
      </trkpt>
      <trkpt lat="45.01172" lon="4.46084">
        <ele>644.82598876953</ele>
        <time>2010-05-22T08:52:03Z</time>
      </trkpt>
      <trkpt lat="45.01181" lon="4.46083">
        <ele>645.25799560547</ele>
        <time>2010-05-22T08:52:05Z</time>
      </trkpt>
      <trkpt lat="45.01197" lon="4.46074">
        <ele>645.76098632812</ele>
        <time>2010-05-22T08:52:09Z</time>
      </trkpt>
      <trkpt lat="45.01211" lon="4.46046">
        <ele>647.31201171875</ele>
        <time>2010-05-22T08:52:15Z</time>
      </trkpt>
      <trkpt lat="45.01211" lon="4.46041">
        <ele>647.80499267578</ele>
        <time>2010-05-22T08:52:16Z</time>
      </trkpt>
      <trkpt lat="45.01207" lon="4.4601">
        <ele>649.18402099609</ele>
        <time>2010-05-22T08:52:22Z</time>
      </trkpt>
      <trkpt lat="45.01203" lon="4.45964">
        <ele>650.53497314453</ele>
        <time>2010-05-22T08:52:29Z</time>
      </trkpt>
      <trkpt lat="45.01204" lon="4.45926">
        <ele>652.07897949219</ele>
        <time>2010-05-22T08:52:34Z</time>
      </trkpt>
      <trkpt lat="45.01203" lon="4.45911">
        <ele>652.83099365234</ele>
        <time>2010-05-22T08:52:36Z</time>
      </trkpt>
      <trkpt lat="45.01202" lon="4.45904">
        <ele>653.15899658203</ele>
        <time>2010-05-22T08:52:37Z</time>
      </trkpt>
      <trkpt lat="45.01194" lon="4.45879">
        <ele>654.13500976562</ele>
        <time>2010-05-22T08:52:42Z</time>
      </trkpt>
      <trkpt lat="45.01191" lon="4.4589">
        <ele>654.82800292969</ele>
        <time>2010-05-22T08:52:45Z</time>
      </trkpt>
      <trkpt lat="45.01187" lon="4.45917">
        <ele>656.24700927734</ele>
        <time>2010-05-22T08:52:49Z</time>
      </trkpt>
      <trkpt lat="45.0118" lon="4.45959">
        <ele>657.84399414062</ele>
        <time>2010-05-22T08:52:55Z</time>
      </trkpt>
      <trkpt lat="45.01178" lon="4.45971">
        <ele>658.46398925781</ele>
        <time>2010-05-22T08:52:57Z</time>
      </trkpt>
      <trkpt lat="45.01167" lon="4.45989">
        <ele>659.33801269531</ele>
        <time>2010-05-22T08:53:01Z</time>
      </trkpt>
      <trkpt lat="45.01159" lon="4.45988">
        <ele>660.04400634766</ele>
        <time>2010-05-22T08:53:03Z</time>
      </trkpt>
      <trkpt lat="45.01137" lon="4.45982">
        <ele>661.24200439453</ele>
        <time>2010-05-22T08:53:08Z</time>
      </trkpt>
      <trkpt lat="45.01117" lon="4.45979">
        <ele>661.87799072266</ele>
        <time>2010-05-22T08:53:12Z</time>
      </trkpt>
      <trkpt lat="45.01107" lon="4.4598">
        <ele>662.23901367188</ele>
        <time>2010-05-22T08:53:14Z</time>
      </trkpt>
      <trkpt lat="45.01095" lon="4.4598">
        <ele>663.50799560547</ele>
        <time>2010-05-22T08:53:17Z</time>
      </trkpt>
      <trkpt lat="45.01069" lon="4.45984">
        <ele>665.09899902344</ele>
        <time>2010-05-22T08:53:23Z</time>
      </trkpt>
      <trkpt lat="45.01052" lon="4.45986">
        <ele>665.62298583984</ele>
        <time>2010-05-22T08:53:27Z</time>
      </trkpt>
      <trkpt lat="45.01027" lon="4.45991">
        <ele>667.43597412109</ele>
        <time>2010-05-22T08:53:33Z</time>
      </trkpt>
      <trkpt lat="45.01012" lon="4.45986">
        <ele>668.54797363281</ele>
        <time>2010-05-22T08:53:37Z</time>
      </trkpt>
      <trkpt lat="45.01002" lon="4.45978">
        <ele>669.61999511719</ele>
        <time>2010-05-22T08:53:40Z</time>
      </trkpt>
      <trkpt lat="45.00985" lon="4.45972">
        <ele>670.75201416016</ele>
        <time>2010-05-22T08:53:44Z</time>
      </trkpt>
      <trkpt lat="45.00972" lon="4.4597">
        <ele>671.10400390625</ele>
        <time>2010-05-22T08:53:47Z</time>
      </trkpt>
      <trkpt lat="45.00953" lon="4.45961">
        <ele>672.41198730469</ele>
        <time>2010-05-22T08:53:52Z</time>
      </trkpt>
      <trkpt lat="45.00948" lon="4.45951">
        <ele>673.09197998047</ele>
        <time>2010-05-22T08:53:54Z</time>
      </trkpt>
      <trkpt lat="45.00938" lon="4.45933">
        <ele>674.32098388672</ele>
        <time>2010-05-22T08:53:58Z</time>
      </trkpt>
      <trkpt lat="45.00926" lon="4.45912">
        <ele>675.67901611328</ele>
        <time>2010-05-22T08:54:03Z</time>
      </trkpt>
      <trkpt lat="45.00919" lon="4.45901">
        <ele>676.47601318359</ele>
        <time>2010-05-22T08:54:06Z</time>
      </trkpt>
      <trkpt lat="45.00914" lon="4.45914">
        <ele>677.19396972656</ele>
        <time>2010-05-22T08:54:10Z</time>
      </trkpt>
      <trkpt lat="45.00909" lon="4.45941">
        <ele>678.08001708984</ele>
        <time>2010-05-22T08:54:15Z</time>
      </trkpt>
      <trkpt lat="45.009" lon="4.45967">
        <ele>678.87298583984</ele>
        <time>2010-05-22T08:54:20Z</time>
      </trkpt>
      <trkpt lat="45.00885" lon="4.4599">
        <ele>679.61102294922</ele>
        <time>2010-05-22T08:54:25Z</time>
      </trkpt>
      <trkpt lat="45.00869" lon="4.46002">
        <ele>680.48400878906</ele>
        <time>2010-05-22T08:54:29Z</time>
      </trkpt>
      <trkpt lat="45.00849" lon="4.46021">
        <ele>681.74102783203</ele>
        <time>2010-05-22T08:54:35Z</time>
      </trkpt>
      <trkpt lat="45.00845" lon="4.46025">
        <ele>682.08898925781</ele>
        <time>2010-05-22T08:54:36Z</time>
      </trkpt>
      <trkpt lat="45.0083" lon="4.46043">
        <ele>682.93402099609</ele>
        <time>2010-05-22T08:54:40Z</time>
      </trkpt>
      <trkpt lat="45.00809" lon="4.46069">
        <ele>684.09100341797</ele>
        <time>2010-05-22T08:54:46Z</time>
      </trkpt>
      <trkpt lat="45.008" lon="4.46087">
        <ele>685.37902832031</ele>
        <time>2010-05-22T08:54:50Z</time>
      </trkpt>
      <trkpt lat="45.00785" lon="4.46113">
        <ele>686.40399169922</ele>
        <time>2010-05-22T08:54:55Z</time>
      </trkpt>
      <trkpt lat="45.00763" lon="4.46125">
        <ele>688.03802490234</ele>
        <time>2010-05-22T08:55:00Z</time>
      </trkpt>
      <trkpt lat="45.00757" lon="4.46124">
        <ele>688.26000976562</ele>
        <time>2010-05-22T08:55:01Z</time>
      </trkpt>
      <trkpt lat="45.00731" lon="4.46103">
        <ele>690.38702392578</ele>
        <time>2010-05-22T08:55:07Z</time>
      </trkpt>
      <trkpt lat="45.00711" lon="4.46069">
        <ele>691.94598388672</ele>
        <time>2010-05-22T08:55:13Z</time>
      </trkpt>
      <trkpt lat="45.00702" lon="4.46053">
        <ele>692.72601318359</ele>
        <time>2010-05-22T08:55:16Z</time>
      </trkpt>
      <trkpt lat="45.00683" lon="4.46024">
        <ele>694.43701171875</ele>
        <time>2010-05-22T08:55:22Z</time>
      </trkpt>
      <trkpt lat="45.00676" lon="4.46009">
        <ele>695.12799072266</ele>
        <time>2010-05-22T08:55:25Z</time>
      </trkpt>
      <trkpt lat="45.00669" lon="4.45972">
        <ele>696.80798339844</ele>
        <time>2010-05-22T08:55:31Z</time>
      </trkpt>
      <trkpt lat="45.0066" lon="4.45924">
        <ele>698.73602294922</ele>
        <time>2010-05-22T08:55:38Z</time>
      </trkpt>
      <trkpt lat="45.00656" lon="4.45904">
        <ele>699.64099121094</ele>
        <time>2010-05-22T08:55:41Z</time>
      </trkpt>
      <trkpt lat="45.00652" lon="4.45871">
        <ele>701.46099853516</ele>
        <time>2010-05-22T08:55:46Z</time>
      </trkpt>
      <trkpt lat="45.0065" lon="4.45821">
        <ele>703.74200439453</ele>
        <time>2010-05-22T08:55:54Z</time>
      </trkpt>
      <trkpt lat="45.0065" lon="4.45794">
        <ele>704.91400146484</ele>
        <time>2010-05-22T08:55:59Z</time>
      </trkpt>
      <trkpt lat="45.0065" lon="4.45768">
        <ele>705.78900146484</ele>
        <time>2010-05-22T08:56:03Z</time>
      </trkpt>
      <trkpt lat="45.00653" lon="4.4572">
        <ele>707.46801757812</ele>
        <time>2010-05-22T08:56:10Z</time>
      </trkpt>
      <trkpt lat="45.00647" lon="4.45675">
        <ele>709.16802978516</ele>
        <time>2010-05-22T08:56:18Z</time>
      </trkpt>
      <trkpt lat="45.00639" lon="4.45642">
        <ele>710.63500976562</ele>
        <time>2010-05-22T08:56:24Z</time>
      </trkpt>
      <trkpt lat="45.00631" lon="4.4562">
        <ele>711.35601806641</ele>
        <time>2010-05-22T08:56:28Z</time>
      </trkpt>
      <trkpt lat="45.00619" lon="4.45591">
        <ele>712.95098876953</ele>
        <time>2010-05-22T08:56:33Z</time>
      </trkpt>
      <trkpt lat="45.00598" lon="4.4555">
        <ele>715.52301025391</ele>
        <time>2010-05-22T08:56:41Z</time>
      </trkpt>
      <trkpt lat="45.00589" lon="4.45526">
        <ele>716.99597167969</ele>
        <time>2010-05-22T08:56:45Z</time>
      </trkpt>
      <trkpt lat="45.00582" lon="4.4549">
        <ele>718.61499023438</ele>
        <time>2010-05-22T08:56:51Z</time>
      </trkpt>
      <trkpt lat="45.00571" lon="4.45477">
        <ele>719.51202392578</ele>
        <time>2010-05-22T08:56:55Z</time>
      </trkpt>
      <trkpt lat="45.00568" lon="4.45476">
        <ele>719.95501708984</ele>
        <time>2010-05-22T08:56:56Z</time>
      </trkpt>
      <trkpt lat="45.00543" lon="4.4548">
        <ele>721.62200927734</ele>
        <time>2010-05-22T08:57:02Z</time>
      </trkpt>
      <trkpt lat="45.00525" lon="4.45494">
        <ele>722.82800292969</ele>
        <time>2010-05-22T08:57:07Z</time>
      </trkpt>
      <trkpt lat="45.0051" lon="4.45518">
        <ele>724.06402587891</ele>
        <time>2010-05-22T08:57:12Z</time>
      </trkpt>
      <trkpt lat="45.00483" lon="4.45561">
        <ele>727.02801513672</ele>
        <time>2010-05-22T08:57:21Z</time>
      </trkpt>
      <trkpt lat="45.00473" lon="4.45574">
        <ele>727.95501708984</ele>
        <time>2010-05-22T08:57:24Z</time>
      </trkpt>
      <trkpt lat="45.00459" lon="4.45579">
        <ele>729.48101806641</ele>
        <time>2010-05-22T08:57:28Z</time>
      </trkpt>
      <trkpt lat="45.00451" lon="4.45567">
        <ele>730.62298583984</ele>
        <time>2010-05-22T08:57:31Z</time>
      </trkpt>
      <trkpt lat="45.00444" lon="4.4551">
        <ele>733.19799804688</ele>
        <time>2010-05-22T08:57:40Z</time>
      </trkpt>
      <trkpt lat="45.00439" lon="4.45446">
        <ele>735.74700927734</ele>
        <time>2010-05-22T08:57:50Z</time>
      </trkpt>
      <trkpt lat="45.00438" lon="4.45439">
        <ele>736.29699707031</ele>
        <time>2010-05-22T08:57:51Z</time>
      </trkpt>
      <trkpt lat="45.00434" lon="4.45386">
        <ele>738.56298828125</ele>
        <time>2010-05-22T08:57:59Z</time>
      </trkpt>
      <trkpt lat="45.00432" lon="4.45361">
        <ele>739.66998291016</ele>
        <time>2010-05-22T08:58:03Z</time>
      </trkpt>
      <trkpt lat="45.00436" lon="4.45318">
        <ele>741.42199707031</ele>
        <time>2010-05-22T08:58:10Z</time>
      </trkpt>
      <trkpt lat="45.00441" lon="4.45267">
        <ele>744.40002441406</ele>
        <time>2010-05-22T08:58:18Z</time>
      </trkpt>
      <trkpt lat="45.00449" lon="4.45216">
        <ele>746.69897460938</ele>
        <time>2010-05-22T08:58:26Z</time>
      </trkpt>
      <trkpt lat="45.0046" lon="4.45176">
        <ele>748.59997558594</ele>
        <time>2010-05-22T08:58:33Z</time>
      </trkpt>
      <trkpt lat="45.00468" lon="4.45118">
        <ele>751.47900390625</ele>
        <time>2010-05-22T08:58:43Z</time>
      </trkpt>
      <trkpt lat="45.0047" lon="4.45106">
        <ele>752.11199951172</ele>
        <time>2010-05-22T08:58:45Z</time>
      </trkpt>
      <trkpt lat="45.00476" lon="4.45085">
        <ele>753.28002929688</ele>
        <time>2010-05-22T08:58:49Z</time>
      </trkpt>
      <trkpt lat="45.0048" lon="4.45076">
        <ele>753.78601074219</ele>
        <time>2010-05-22T08:58:51Z</time>
      </trkpt>
      <trkpt lat="45.00483" lon="4.4504">
        <ele>755.19897460938</ele>
        <time>2010-05-22T08:58:57Z</time>
      </trkpt>
      <trkpt lat="45.00481" lon="4.45029">
        <ele>756.04302978516</ele>
        <time>2010-05-22T08:58:59Z</time>
      </trkpt>
      <trkpt lat="45.0047" lon="4.44984">
        <ele>758.2509765625</ele>
        <time>2010-05-22T08:59:07Z</time>
      </trkpt>
      <trkpt lat="45.0047" lon="4.44955">
        <ele>759.583984375</ele>
        <time>2010-05-22T08:59:12Z</time>
      </trkpt>
      <trkpt lat="45.00474" lon="4.44924">
        <ele>761.21002197266</ele>
        <time>2010-05-22T08:59:18Z</time>
      </trkpt>
      <trkpt lat="45.00473" lon="4.44919">
        <ele>761.31201171875</ele>
        <time>2010-05-22T08:59:19Z</time>
      </trkpt>
      <trkpt lat="45.00456" lon="4.44903">
        <ele>762.63500976562</ele>
        <time>2010-05-22T08:59:24Z</time>
      </trkpt>
      <trkpt lat="45.00449" lon="4.44897">
        <ele>763.11798095703</ele>
        <time>2010-05-22T08:59:26Z</time>
      </trkpt>
      <trkpt lat="45.00427" lon="4.44862">
        <ele>765.48400878906</ele>
        <time>2010-05-22T08:59:34Z</time>
      </trkpt>
      <trkpt lat="45.0041" lon="4.44819">
        <ele>768.23999023438</ele>
        <time>2010-05-22T08:59:43Z</time>
      </trkpt>
      <trkpt lat="45.00402" lon="4.44794">
        <ele>769.73797607422</ele>
        <time>2010-05-22T08:59:48Z</time>
      </trkpt>
      <trkpt lat="45.00399" lon="4.44783">
        <ele>770.53497314453</ele>
        <time>2010-05-22T08:59:50Z</time>
      </trkpt>
      <trkpt lat="45.00388" lon="4.44739">
        <ele>772.94201660156</ele>
        <time>2010-05-22T08:59:58Z</time>
      </trkpt>
      <trkpt lat="45.00378" lon="4.44708">
        <ele>774.63702392578</ele>
        <time>2010-05-22T09:00:04Z</time>
      </trkpt>
      <trkpt lat="45.0037" lon="4.44682">
        <ele>776.30499267578</ele>
        <time>2010-05-22T09:00:09Z</time>
      </trkpt>
      <trkpt lat="45.00363" lon="4.44632">
        <ele>779.17999267578</ele>
        <time>2010-05-22T09:00:18Z</time>
      </trkpt>
      <trkpt lat="45.00359" lon="4.44585">
        <ele>781.36602783203</ele>
        <time>2010-05-22T09:00:26Z</time>
      </trkpt>
      <trkpt lat="45.0036" lon="4.44552">
        <ele>783.43499755859</ele>
        <time>2010-05-22T09:00:32Z</time>
      </trkpt>
      <trkpt lat="45.00361" lon="4.44545">
        <ele>783.70599365234</ele>
        <time>2010-05-22T09:00:33Z</time>
      </trkpt>
      <trkpt lat="45.00381" lon="4.4449">
        <ele>786.24798583984</ele>
        <time>2010-05-22T09:00:41Z</time>
      </trkpt>
      <trkpt lat="45.00393" lon="4.44471">
        <ele>787.26202392578</ele>
        <time>2010-05-22T09:00:45Z</time>
      </trkpt>
      <trkpt lat="45.00412" lon="4.44444">
        <ele>789.45098876953</ele>
        <time>2010-05-22T09:00:51Z</time>
      </trkpt>
      <trkpt lat="45.00431" lon="4.44432">
        <ele>791.166015625</ele>
        <time>2010-05-22T09:00:56Z</time>
      </trkpt>
      <trkpt lat="45.00461" lon="4.44431">
        <ele>793.03198242188</ele>
        <time>2010-05-22T09:01:03Z</time>
      </trkpt>
      <trkpt lat="45.00479" lon="4.44436">
        <ele>794.45501708984</ele>
        <time>2010-05-22T09:01:08Z</time>
      </trkpt>
      <trkpt lat="45.00482" lon="4.44438">
        <ele>794.82299804688</ele>
        <time>2010-05-22T09:01:10Z</time>
      </trkpt>
      <trkpt lat="45.00483" lon="4.44439">
        <ele>795.51898193359</ele>
        <time>2010-05-22T09:01:14Z</time>
      </trkpt>
      <trkpt lat="45.00473" lon="4.44422">
        <ele>796.65802001953</ele>
        <time>2010-05-22T09:01:18Z</time>
      </trkpt>
      <trkpt lat="45.00449" lon="4.44397">
        <ele>798.06201171875</ele>
        <time>2010-05-22T09:01:24Z</time>
      </trkpt>
      <trkpt lat="45.00445" lon="4.44394">
        <ele>798.34497070312</ele>
        <time>2010-05-22T09:01:25Z</time>
      </trkpt>
      <trkpt lat="45.00422" lon="4.44367">
        <ele>800.40399169922</ele>
        <time>2010-05-22T09:01:32Z</time>
      </trkpt>
      <trkpt lat="45.00402" lon="4.44341">
        <ele>802.40399169922</ele>
        <time>2010-05-22T09:01:39Z</time>
      </trkpt>
      <trkpt lat="45.00387" lon="4.44324">
        <ele>803.95501708984</ele>
        <time>2010-05-22T09:01:44Z</time>
      </trkpt>
      <trkpt lat="45.00382" lon="4.44299">
        <ele>805.5009765625</ele>
        <time>2010-05-22T09:01:48Z</time>
      </trkpt>
      <trkpt lat="45.00383" lon="4.44285">
        <ele>806.21502685547</ele>
        <time>2010-05-22T09:01:50Z</time>
      </trkpt>
      <trkpt lat="45.0038" lon="4.44234">
        <ele>808.37097167969</ele>
        <time>2010-05-22T09:01:58Z</time>
      </trkpt>
      <trkpt lat="45.00373" lon="4.44193">
        <ele>810.34100341797</ele>
        <time>2010-05-22T09:02:05Z</time>
      </trkpt>
      <trkpt lat="45.00364" lon="4.44143">
        <ele>813.02600097656</ele>
        <time>2010-05-22T09:02:14Z</time>
      </trkpt>
      <trkpt lat="45.0036" lon="4.44111">
        <ele>814.65802001953</ele>
        <time>2010-05-22T09:02:20Z</time>
      </trkpt>
      <trkpt lat="45.00358" lon="4.44073">
        <ele>817.26397705078</ele>
        <time>2010-05-22T09:02:27Z</time>
      </trkpt>
      <trkpt lat="45.00362" lon="4.44047">
        <ele>819.04699707031</ele>
        <time>2010-05-22T09:02:32Z</time>
      </trkpt>
      <trkpt lat="45.00376" lon="4.44028">
        <ele>820.5830078125</ele>
        <time>2010-05-22T09:02:37Z</time>
      </trkpt>
      <trkpt lat="45.00396" lon="4.44008">
        <ele>822.18902587891</ele>
        <time>2010-05-22T09:02:43Z</time>
      </trkpt>
      <trkpt lat="45.00413" lon="4.43997">
        <ele>823.38397216797</ele>
        <time>2010-05-22T09:02:48Z</time>
      </trkpt>
      <trkpt lat="45.00428" lon="4.43992">
        <ele>824.72998046875</ele>
        <time>2010-05-22T09:02:53Z</time>
      </trkpt>
      <trkpt lat="45.00442" lon="4.43989">
        <ele>825.76300048828</ele>
        <time>2010-05-22T09:02:58Z</time>
      </trkpt>
      <trkpt lat="45.00449" lon="4.43981">
        <ele>826.55499267578</ele>
        <time>2010-05-22T09:03:02Z</time>
      </trkpt>
      <trkpt lat="45.00452" lon="4.43966">
        <ele>827.38897705078</ele>
        <time>2010-05-22T09:03:06Z</time>
      </trkpt>
      <trkpt lat="45.00449" lon="4.4395">
        <ele>828.25701904297</ele>
        <time>2010-05-22T09:03:10Z</time>
      </trkpt>
      <trkpt lat="45.00447" lon="4.43928">
        <ele>829.27600097656</ele>
        <time>2010-05-22T09:03:15Z</time>
      </trkpt>
      <trkpt lat="45.00454" lon="4.43905">
        <ele>830.51300048828</ele>
        <time>2010-05-22T09:03:21Z</time>
      </trkpt>
      <trkpt lat="45.00467" lon="4.43874">
        <ele>832.03601074219</ele>
        <time>2010-05-22T09:03:29Z</time>
      </trkpt>
      <trkpt lat="45.00473" lon="4.43843">
        <ele>833.70397949219</ele>
        <time>2010-05-22T09:03:36Z</time>
      </trkpt>
      <trkpt lat="45.00477" lon="4.4381">
        <ele>835.33801269531</ele>
        <time>2010-05-22T09:03:43Z</time>
      </trkpt>
      <trkpt lat="45.00475" lon="4.43806">
        <ele>835.46899414062</ele>
        <time>2010-05-22T09:03:44Z</time>
      </trkpt>
      <trkpt lat="45.0046" lon="4.43798">
        <ele>835.98602294922</ele>
        <time>2010-05-22T09:03:49Z</time>
      </trkpt>
      <trkpt lat="45.00444" lon="4.43792">
        <ele>837.21301269531</ele>
        <time>2010-05-22T09:03:54Z</time>
      </trkpt>
      <trkpt lat="45.00428" lon="4.43777">
        <ele>838.58502197266</ele>
        <time>2010-05-22T09:04:00Z</time>
      </trkpt>
      <trkpt lat="45.00415" lon="4.4377">
        <ele>839.84002685547</ele>
        <time>2010-05-22T09:04:05Z</time>
      </trkpt>
      <trkpt lat="45.00402" lon="4.43752">
        <ele>841.06500244141</ele>
        <time>2010-05-22T09:04:11Z</time>
      </trkpt>
      <trkpt lat="45.00394" lon="4.43725">
        <ele>841.97198486328</ele>
        <time>2010-05-22T09:04:17Z</time>
      </trkpt>
      <trkpt lat="45.00389" lon="4.43684">
        <ele>843.06500244141</ele>
        <time>2010-05-22T09:04:24Z</time>
      </trkpt>
      <trkpt lat="45.00383" lon="4.43644">
        <ele>843.46899414062</ele>
        <time>2010-05-22T09:04:30Z</time>
      </trkpt>
      <trkpt lat="45.00381" lon="4.43616">
        <ele>843.85198974609</ele>
        <time>2010-05-22T09:04:34Z</time>
      </trkpt>
      <trkpt lat="45.00388" lon="4.43575">
        <ele>845.041015625</ele>
        <time>2010-05-22T09:04:40Z</time>
      </trkpt>
      <trkpt lat="45.00396" lon="4.43543">
        <ele>846.28698730469</ele>
        <time>2010-05-22T09:04:45Z</time>
      </trkpt>
      <trkpt lat="45.00394" lon="4.43505">
        <ele>847.68902587891</ele>
        <time>2010-05-22T09:04:51Z</time>
      </trkpt>
      <trkpt lat="45.00393" lon="4.43486">
        <ele>848.52301025391</ele>
        <time>2010-05-22T09:04:54Z</time>
      </trkpt>
      <trkpt lat="45.00399" lon="4.43459">
        <ele>849.77697753906</ele>
        <time>2010-05-22T09:04:59Z</time>
      </trkpt>
      <trkpt lat="45.00418" lon="4.43432">
        <ele>851.61602783203</ele>
        <time>2010-05-22T09:05:06Z</time>
      </trkpt>
      <trkpt lat="45.00431" lon="4.43409">
        <ele>852.93499755859</ele>
        <time>2010-05-22T09:05:12Z</time>
      </trkpt>
      <trkpt lat="45.00448" lon="4.43399">
        <ele>853.8740234375</ele>
        <time>2010-05-22T09:05:17Z</time>
      </trkpt>
      <trkpt lat="45.00485" lon="4.43384">
        <ele>856.22998046875</ele>
        <time>2010-05-22T09:05:27Z</time>
      </trkpt>
      <trkpt lat="45.00511" lon="4.43369">
        <ele>857.68902587891</ele>
        <time>2010-05-22T09:05:34Z</time>
      </trkpt>
      <trkpt lat="45.0054" lon="4.43346">
        <ele>859.78601074219</ele>
        <time>2010-05-22T09:05:42Z</time>
      </trkpt>
      <trkpt lat="45.00558" lon="4.43335">
        <ele>860.60601806641</ele>
        <time>2010-05-22T09:05:47Z</time>
      </trkpt>
      <trkpt lat="45.00571" lon="4.4332">
        <ele>861.82299804688</ele>
        <time>2010-05-22T09:05:52Z</time>
      </trkpt>
      <trkpt lat="45.00572" lon="4.4331">
        <ele>862.10498046875</ele>
        <time>2010-05-22T09:05:54Z</time>
      </trkpt>
      <trkpt lat="45.00563" lon="4.43277">
        <ele>864.49298095703</ele>
        <time>2010-05-22T09:06:02Z</time>
      </trkpt>
      <trkpt lat="45.00565" lon="4.43253">
        <ele>865.60498046875</ele>
        <time>2010-05-22T09:06:08Z</time>
      </trkpt>
      <trkpt lat="45.00564" lon="4.43233">
        <ele>866.70501708984</ele>
        <time>2010-05-22T09:06:13Z</time>
      </trkpt>
      <trkpt lat="45.00552" lon="4.43217">
        <ele>867.52502441406</ele>
        <time>2010-05-22T09:06:18Z</time>
      </trkpt>
      <trkpt lat="45.00536" lon="4.43216">
        <ele>868.52899169922</ele>
        <time>2010-05-22T09:06:22Z</time>
      </trkpt>
      <trkpt lat="45.00514" lon="4.43224">
        <ele>869.95202636719</ele>
        <time>2010-05-22T09:06:28Z</time>
      </trkpt>
      <trkpt lat="45.00494" lon="4.43218">
        <ele>871.24597167969</ele>
        <time>2010-05-22T09:06:33Z</time>
      </trkpt>
      <trkpt lat="45.00475" lon="4.43204">
        <ele>872.41802978516</ele>
        <time>2010-05-22T09:06:38Z</time>
      </trkpt>
      <trkpt lat="45.00459" lon="4.43195">
        <ele>873.14001464844</ele>
        <time>2010-05-22T09:06:42Z</time>
      </trkpt>
      <trkpt lat="45.00443" lon="4.43178">
        <ele>874.55499267578</ele>
        <time>2010-05-22T09:06:47Z</time>
      </trkpt>
      <trkpt lat="45.00418" lon="4.43151">
        <ele>876.56201171875</ele>
        <time>2010-05-22T09:06:55Z</time>
      </trkpt>
      <trkpt lat="45.00396" lon="4.4314">
        <ele>878.51397705078</ele>
        <time>2010-05-22T09:07:01Z</time>
      </trkpt>
      <trkpt lat="45.00371" lon="4.43129">
        <ele>880.03302001953</ele>
        <time>2010-05-22T09:07:08Z</time>
      </trkpt>
      <trkpt lat="45.00352" lon="4.43113">
        <ele>881.6240234375</ele>
        <time>2010-05-22T09:07:14Z</time>
      </trkpt>
      <trkpt lat="45.00341" lon="4.43097">
        <ele>882.45397949219</ele>
        <time>2010-05-22T09:07:18Z</time>
      </trkpt>
      <trkpt lat="45.00326" lon="4.43087">
        <ele>883.52600097656</ele>
        <time>2010-05-22T09:07:22Z</time>
      </trkpt>
      <trkpt lat="45.00314" lon="4.43081">
        <ele>884.52398681641</ele>
        <time>2010-05-22T09:07:25Z</time>
      </trkpt>
      <trkpt lat="45.00289" lon="4.43057">
        <ele>886.84899902344</ele>
        <time>2010-05-22T09:07:33Z</time>
      </trkpt>
      <trkpt lat="45.00272" lon="4.4304">
        <ele>888.32800292969</ele>
        <time>2010-05-22T09:07:39Z</time>
      </trkpt>
      <trkpt lat="45.00262" lon="4.43019">
        <ele>889.82202148438</ele>
        <time>2010-05-22T09:07:45Z</time>
      </trkpt>
      <trkpt lat="45.00258" lon="4.42994">
        <ele>891.57800292969</ele>
        <time>2010-05-22T09:07:51Z</time>
      </trkpt>
      <trkpt lat="45.00252" lon="4.42967">
        <ele>892.60101318359</ele>
        <time>2010-05-22T09:07:57Z</time>
      </trkpt>
      <trkpt lat="45.00246" lon="4.42936">
        <ele>894.51702880859</ele>
        <time>2010-05-22T09:08:03Z</time>
      </trkpt>
      <trkpt lat="45.00252" lon="4.42904">
        <ele>895.50299072266</ele>
        <time>2010-05-22T09:08:08Z</time>
      </trkpt>
      <trkpt lat="45.00258" lon="4.42859">
        <ele>897.67999267578</ele>
        <time>2010-05-22T09:08:15Z</time>
      </trkpt>
      <trkpt lat="45.00261" lon="4.42838">
        <ele>898.64501953125</ele>
        <time>2010-05-22T09:08:19Z</time>
      </trkpt>
      <trkpt lat="45.00262" lon="4.42819">
        <ele>899.77801513672</ele>
        <time>2010-05-22T09:08:23Z</time>
      </trkpt>
      <trkpt lat="45.00263" lon="4.4279">
        <ele>901.38702392578</ele>
        <time>2010-05-22T09:08:29Z</time>
      </trkpt>
      <trkpt lat="45.00259" lon="4.42755">
        <ele>902.60900878906</ele>
        <time>2010-05-22T09:08:35Z</time>
      </trkpt>
      <trkpt lat="45.00254" lon="4.42725">
        <ele>904.20397949219</ele>
        <time>2010-05-22T09:08:41Z</time>
      </trkpt>
      <trkpt lat="45.00257" lon="4.42699">
        <ele>905.32299804688</ele>
        <time>2010-05-22T09:08:46Z</time>
      </trkpt>
      <trkpt lat="45.00267" lon="4.42678">
        <ele>906.53002929688</ele>
        <time>2010-05-22T09:08:51Z</time>
      </trkpt>
      <trkpt lat="45.00274" lon="4.42666">
        <ele>907.24798583984</ele>
        <time>2010-05-22T09:08:55Z</time>
      </trkpt>
      <trkpt lat="45.00278" lon="4.42652">
        <ele>908.21801757812</ele>
        <time>2010-05-22T09:08:59Z</time>
      </trkpt>
      <trkpt lat="45.00272" lon="4.42636">
        <ele>909.16101074219</ele>
        <time>2010-05-22T09:09:03Z</time>
      </trkpt>
      <trkpt lat="45.00261" lon="4.42617">
        <ele>910.20202636719</ele>
        <time>2010-05-22T09:09:08Z</time>
      </trkpt>
      <trkpt lat="45.00243" lon="4.4259">
        <ele>912.19396972656</ele>
        <time>2010-05-22T09:09:16Z</time>
      </trkpt>
      <trkpt lat="45.00227" lon="4.42564">
        <ele>913.69799804688</ele>
        <time>2010-05-22T09:09:24Z</time>
      </trkpt>
      <trkpt lat="45.00211" lon="4.4254">
        <ele>915.06500244141</ele>
        <time>2010-05-22T09:09:31Z</time>
      </trkpt>
      <trkpt lat="45.00206" lon="4.42514">
        <ele>916.35601806641</ele>
        <time>2010-05-22T09:09:36Z</time>
      </trkpt>
      <trkpt lat="45.00205" lon="4.42497">
        <ele>916.98901367188</ele>
        <time>2010-05-22T09:09:39Z</time>
      </trkpt>
      <trkpt lat="45.00204" lon="4.42436">
        <ele>919.63000488281</ele>
        <time>2010-05-22T09:09:49Z</time>
      </trkpt>
      <trkpt lat="45.00201" lon="4.42401">
        <ele>921.15600585938</ele>
        <time>2010-05-22T09:09:55Z</time>
      </trkpt>
      <trkpt lat="45.00194" lon="4.42363">
        <ele>922.56402587891</ele>
        <time>2010-05-22T09:10:01Z</time>
      </trkpt>
      <trkpt lat="45.00187" lon="4.42319">
        <ele>924.95697021484</ele>
        <time>2010-05-22T09:10:08Z</time>
      </trkpt>
      <trkpt lat="45.00182" lon="4.42275">
        <ele>926.68701171875</ele>
        <time>2010-05-22T09:10:15Z</time>
      </trkpt>
      <trkpt lat="45.00175" lon="4.42234">
        <ele>928.60302734375</ele>
        <time>2010-05-22T09:10:22Z</time>
      </trkpt>
      <trkpt lat="45.0017" lon="4.42202">
        <ele>930.07098388672</ele>
        <time>2010-05-22T09:10:28Z</time>
      </trkpt>
      <trkpt lat="45.00164" lon="4.42169">
        <ele>931.56597900391</ele>
        <time>2010-05-22T09:10:34Z</time>
      </trkpt>
      <trkpt lat="45.00158" lon="4.42146">
        <ele>932.56500244141</ele>
        <time>2010-05-22T09:10:39Z</time>
      </trkpt>
      <trkpt lat="45.00142" lon="4.42126">
        <ele>933.71099853516</ele>
        <time>2010-05-22T09:10:45Z</time>
      </trkpt>
      <trkpt lat="45.00124" lon="4.42101">
        <ele>935.52001953125</ele>
        <time>2010-05-22T09:10:52Z</time>
      </trkpt>
      <trkpt lat="45.00115" lon="4.42065">
        <ele>937.10998535156</ele>
        <time>2010-05-22T09:10:59Z</time>
      </trkpt>
      <trkpt lat="45.00101" lon="4.42029">
        <ele>938.99102783203</ele>
        <time>2010-05-22T09:11:07Z</time>
      </trkpt>
      <trkpt lat="45.00092" lon="4.41991">
        <ele>941.12298583984</ele>
        <time>2010-05-22T09:11:15Z</time>
      </trkpt>
      <trkpt lat="45.00086" lon="4.41955">
        <ele>942.51000976562</ele>
        <time>2010-05-22T09:11:22Z</time>
      </trkpt>
      <trkpt lat="45.00084" lon="4.41915">
        <ele>944.38702392578</ele>
        <time>2010-05-22T09:11:29Z</time>
      </trkpt>
      <trkpt lat="45.00077" lon="4.41865">
        <ele>946.45599365234</ele>
        <time>2010-05-22T09:11:38Z</time>
      </trkpt>
      <trkpt lat="45.00071" lon="4.41829">
        <ele>948.27301025391</ele>
        <time>2010-05-22T09:11:45Z</time>
      </trkpt>
      <trkpt lat="45.00075" lon="4.41786">
        <ele>949.97302246094</ele>
        <time>2010-05-22T09:11:53Z</time>
      </trkpt>
      <trkpt lat="45.00083" lon="4.41755">
        <ele>951.36102294922</ele>
        <time>2010-05-22T09:11:59Z</time>
      </trkpt>
      <trkpt lat="45.001" lon="4.41729">
        <ele>952.66998291016</ele>
        <time>2010-05-22T09:12:05Z</time>
      </trkpt>
      <trkpt lat="45.00118" lon="4.41702">
        <ele>954.32702636719</ele>
        <time>2010-05-22T09:12:11Z</time>
      </trkpt>
      <trkpt lat="45.00137" lon="4.41689">
        <ele>955.66497802734</ele>
        <time>2010-05-22T09:12:16Z</time>
      </trkpt>
      <trkpt lat="45.00146" lon="4.41688">
        <ele>956.02502441406</ele>
        <time>2010-05-22T09:12:18Z</time>
      </trkpt>
      <trkpt lat="45.00173" lon="4.41699">
        <ele>958.20098876953</ele>
        <time>2010-05-22T09:12:25Z</time>
      </trkpt>
      <trkpt lat="45.0019" lon="4.41717">
        <ele>959.73797607422</ele>
        <time>2010-05-22T09:12:31Z</time>
      </trkpt>
      <trkpt lat="45.00208" lon="4.4173">
        <ele>960.96899414062</ele>
        <time>2010-05-22T09:12:36Z</time>
      </trkpt>
      <trkpt lat="45.00223" lon="4.41742">
        <ele>961.71697998047</ele>
        <time>2010-05-22T09:12:40Z</time>
      </trkpt>
      <trkpt lat="45.00238" lon="4.41753">
        <ele>962.49597167969</ele>
        <time>2010-05-22T09:12:44Z</time>
      </trkpt>
      <trkpt lat="45.00259" lon="4.41771">
        <ele>964.13000488281</ele>
        <time>2010-05-22T09:12:51Z</time>
      </trkpt>
      <trkpt lat="45.00267" lon="4.41778">
        <ele>965.02301025391</ele>
        <time>2010-05-22T09:12:55Z</time>
      </trkpt>
      <trkpt lat="45.00269" lon="4.41781">
        <ele>965.29400634766</ele>
        <time>2010-05-22T09:12:56Z</time>
      </trkpt>
      <trkpt lat="45.00282" lon="4.4178">
        <ele>965.85400390625</ele>
        <time>2010-05-22T09:13:00Z</time>
      </trkpt>
      <trkpt lat="45.00288" lon="4.41769">
        <ele>966.57598876953</ele>
        <time>2010-05-22T09:13:04Z</time>
      </trkpt>
      <trkpt lat="45.00291" lon="4.4175">
        <ele>967.49499511719</ele>
        <time>2010-05-22T09:13:09Z</time>
      </trkpt>
      <trkpt lat="45.00286" lon="4.41736">
        <ele>968.22302246094</ele>
        <time>2010-05-22T09:13:14Z</time>
      </trkpt>
      <trkpt lat="45.00273" lon="4.41705">
        <ele>969.80499267578</ele>
        <time>2010-05-22T09:13:22Z</time>
      </trkpt>
      <trkpt lat="45.00257" lon="4.41667">
        <ele>971.35699462891</ele>
        <time>2010-05-22T09:13:31Z</time>
      </trkpt>
      <trkpt lat="45.00243" lon="4.41632">
        <ele>973.0009765625</ele>
        <time>2010-05-22T09:13:39Z</time>
      </trkpt>
      <trkpt lat="45.00232" lon="4.41605">
        <ele>974.23602294922</ele>
        <time>2010-05-22T09:13:45Z</time>
      </trkpt>
      <trkpt lat="45.00214" lon="4.41565">
        <ele>976.46899414062</ele>
        <time>2010-05-22T09:13:54Z</time>
      </trkpt>
      <trkpt lat="45.00192" lon="4.41539">
        <ele>977.88397216797</ele>
        <time>2010-05-22T09:14:01Z</time>
      </trkpt>
      <trkpt lat="45.00172" lon="4.41524">
        <ele>979.46899414062</ele>
        <time>2010-05-22T09:14:07Z</time>
      </trkpt>
      <trkpt lat="45.00147" lon="4.41511">
        <ele>981.19000244141</ele>
        <time>2010-05-22T09:14:14Z</time>
      </trkpt>
      <trkpt lat="45.00139" lon="4.41508">
        <ele>981.59802246094</ele>
        <time>2010-05-22T09:14:16Z</time>
      </trkpt>
      <trkpt lat="45.00121" lon="4.41504">
        <ele>982.73602294922</ele>
        <time>2010-05-22T09:14:20Z</time>
      </trkpt>
      <trkpt lat="45.00105" lon="4.41497">
        <ele>984.15399169922</ele>
        <time>2010-05-22T09:14:24Z</time>
      </trkpt>
      <trkpt lat="45.00096" lon="4.41492">
        <ele>984.58898925781</ele>
        <time>2010-05-22T09:14:26Z</time>
      </trkpt>
      <trkpt lat="45.00081" lon="4.41469">
        <ele>985.62902832031</ele>
        <time>2010-05-22T09:14:31Z</time>
      </trkpt>
      <trkpt lat="45.00083" lon="4.41441">
        <ele>986.67999267578</ele>
        <time>2010-05-22T09:14:35Z</time>
      </trkpt>
      <trkpt lat="45.00085" lon="4.41435">
        <ele>987.14898681641</ele>
        <time>2010-05-22T09:14:36Z</time>
      </trkpt>
      <trkpt lat="45.00098" lon="4.41395">
        <ele>989.04602050781</ele>
        <time>2010-05-22T09:14:43Z</time>
      </trkpt>
      <trkpt lat="45.00109" lon="4.41357">
        <ele>990.80499267578</ele>
        <time>2010-05-22T09:14:50Z</time>
      </trkpt>
      <trkpt lat="45.00114" lon="4.41342">
        <ele>991.40301513672</ele>
        <time>2010-05-22T09:14:53Z</time>
      </trkpt>
      <trkpt lat="45.00125" lon="4.41307">
        <ele>993.56896972656</ele>
        <time>2010-05-22T09:15:00Z</time>
      </trkpt>
      <trkpt lat="45.00133" lon="4.41271">
        <ele>995.10998535156</ele>
        <time>2010-05-22T09:15:07Z</time>
      </trkpt>
      <trkpt lat="45.00146" lon="4.41243">
        <ele>996.86401367188</ele>
        <time>2010-05-22T09:15:13Z</time>
      </trkpt>
      <trkpt lat="45.00156" lon="4.41235">
        <ele>997.03399658203</ele>
        <time>2010-05-22T09:15:16Z</time>
      </trkpt>
      <trkpt lat="45.00171" lon="4.41214">
        <ele>998.15399169922</ele>
        <time>2010-05-22T09:15:21Z</time>
      </trkpt>
      <trkpt lat="45.00182" lon="4.41182">
        <ele>1000.0109863281</ele>
        <time>2010-05-22T09:15:27Z</time>
      </trkpt>
      <trkpt lat="45.00191" lon="4.41151">
        <ele>1001.7009887695</ele>
        <time>2010-05-22T09:15:33Z</time>
      </trkpt>
      <trkpt lat="45.00204" lon="4.41131">
        <ele>1003.1859741211</ele>
        <time>2010-05-22T09:15:38Z</time>
      </trkpt>
      <trkpt lat="45.0022" lon="4.41107">
        <ele>1004.708984375</ele>
        <time>2010-05-22T09:15:44Z</time>
      </trkpt>
      <trkpt lat="45.00231" lon="4.41081">
        <ele>1005.9920043945</ele>
        <time>2010-05-22T09:15:50Z</time>
      </trkpt>
      <trkpt lat="45.00241" lon="4.41049">
        <ele>1007.666015625</ele>
        <time>2010-05-22T09:15:57Z</time>
      </trkpt>
      <trkpt lat="45.00254" lon="4.41022">
        <ele>1008.9429931641</ele>
        <time>2010-05-22T09:16:03Z</time>
      </trkpt>
      <trkpt lat="45.00257" lon="4.41018">
        <ele>1009.2979736328</ele>
        <time>2010-05-22T09:16:04Z</time>
      </trkpt>
      <trkpt lat="45.00271" lon="4.41007">
        <ele>1009.950012207</ele>
        <time>2010-05-22T09:16:08Z</time>
      </trkpt>
      <trkpt lat="45.00296" lon="4.40999">
        <ele>1011.2039794922</ele>
        <time>2010-05-22T09:16:14Z</time>
      </trkpt>
      <trkpt lat="45.00303" lon="4.40993">
        <ele>1011.4869995117</ele>
        <time>2010-05-22T09:16:16Z</time>
      </trkpt>
      <trkpt lat="45.00316" lon="4.4097">
        <ele>1013.5670166016</ele>
        <time>2010-05-22T09:16:22Z</time>
      </trkpt>
      <trkpt lat="45.00315" lon="4.40966">
        <ele>1013.882019043</ele>
        <time>2010-05-22T09:16:23Z</time>
      </trkpt>
      <trkpt lat="45.00306" lon="4.40942">
        <ele>1014.7789916992</ele>
        <time>2010-05-22T09:16:29Z</time>
      </trkpt>
      <trkpt lat="45.00294" lon="4.40931">
        <ele>1016.2059936523</ele>
        <time>2010-05-22T09:16:33Z</time>
      </trkpt>
      <trkpt lat="45.00271" lon="4.4092">
        <ele>1017.3020019531</ele>
        <time>2010-05-22T09:16:39Z</time>
      </trkpt>
      <trkpt lat="45.00257" lon="4.40919">
        <ele>1017.867980957</ele>
        <time>2010-05-22T09:16:42Z</time>
      </trkpt>
      <trkpt lat="45.00229" lon="4.40926">
        <ele>1019.9669799805</ele>
        <time>2010-05-22T09:16:49Z</time>
      </trkpt>
      <trkpt lat="45.00219" lon="4.40927">
        <ele>1020.8460083008</ele>
        <time>2010-05-22T09:16:54Z</time>
      </trkpt>
      <trkpt lat="45.00215" lon="4.40927">
        <ele>1020.791015625</ele>
        <time>2010-05-22T09:16:56Z</time>
      </trkpt>
      <trkpt lat="45.00211" lon="4.40935">
        <ele>1020.4379882812</ele>
        <time>2010-05-22T09:17:00Z</time>
      </trkpt>
      <trkpt lat="45.00204" lon="4.40939">
        <ele>1019.8369750977</ele>
        <time>2010-05-22T09:17:03Z</time>
      </trkpt>
      <trkpt lat="45.00207" lon="4.40941">
        <ele>1020.0170288086</ele>
        <time>2010-05-22T09:17:06Z</time>
      </trkpt>
      <trkpt lat="45.00211" lon="4.40936">
        <ele>1020.5</ele>
        <time>2010-05-22T09:17:09Z</time>
      </trkpt>
      <trkpt lat="45.00219" lon="4.40933">
        <ele>1020.7369995117</ele>
        <time>2010-05-22T09:17:15Z</time>
      </trkpt>
      <trkpt lat="45.00219" lon="4.40933">
        <ele>1020.741027832</ele>
        <time>2010-05-22T09:17:16Z</time>
      </trkpt>
      <trkpt lat="45.0022" lon="4.40923">
        <ele>1018.2849731445</ele>
        <time>2010-05-22T09:28:08Z</time>
      </trkpt>
      <trkpt lat="45.00227" lon="4.40919">
        <ele>1018.507019043</ele>
        <time>2010-05-22T09:28:13Z</time>
      </trkpt>
      <trkpt lat="45.0024" lon="4.40914">
        <ele>1019.6710205078</ele>
        <time>2010-05-22T09:28:18Z</time>
      </trkpt>
      <trkpt lat="45.00243" lon="4.40914">
        <ele>1019.9130249023</ele>
        <time>2010-05-22T09:28:19Z</time>
      </trkpt>
      <trkpt lat="45.00253" lon="4.40914">
        <ele>1020.4169921875</ele>
        <time>2010-05-22T09:28:22Z</time>
      </trkpt>
      <trkpt lat="45.00281" lon="4.40917">
        <ele>1020.5800170898</ele>
        <time>2010-05-22T09:28:30Z</time>
      </trkpt>
      <trkpt lat="45.00299" lon="4.4092">
        <ele>1022.125</ele>
        <time>2010-05-22T09:28:35Z</time>
      </trkpt>
      <trkpt lat="45.00316" lon="4.40931">
        <ele>1023.5780029297</ele>
        <time>2010-05-22T09:28:40Z</time>
      </trkpt>
      <trkpt lat="45.00339" lon="4.40943">
        <ele>1024.623046875</ele>
        <time>2010-05-22T09:28:46Z</time>
      </trkpt>
      <trkpt lat="45.00357" lon="4.40942">
        <ele>1025.5789794922</ele>
        <time>2010-05-22T09:28:51Z</time>
      </trkpt>
      <trkpt lat="45.00372" lon="4.40927">
        <ele>1027.0699462891</ele>
        <time>2010-05-22T09:28:56Z</time>
      </trkpt>
      <trkpt lat="45.00385" lon="4.40902">
        <ele>1028.5209960938</ele>
        <time>2010-05-22T09:29:02Z</time>
      </trkpt>
      <trkpt lat="45.00398" lon="4.40869">
        <ele>1030.625</ele>
        <time>2010-05-22T09:29:10Z</time>
      </trkpt>
      <trkpt lat="45.0041" lon="4.40832">
        <ele>1031.9069824219</ele>
        <time>2010-05-22T09:29:18Z</time>
      </trkpt>
      <trkpt lat="45.00417" lon="4.40803">
        <ele>1033.1870117188</ele>
        <time>2010-05-22T09:29:24Z</time>
      </trkpt>
      <trkpt lat="45.00423" lon="4.4077">
        <ele>1034.1419677734</ele>
        <time>2010-05-22T09:29:31Z</time>
      </trkpt>
      <trkpt lat="45.0043" lon="4.40732">
        <ele>1035.5899658203</ele>
        <time>2010-05-22T09:29:39Z</time>
      </trkpt>
      <trkpt lat="45.00432" lon="4.40706">
        <ele>1036.5059814453</ele>
        <time>2010-05-22T09:29:45Z</time>
      </trkpt>
      <trkpt lat="45.00432" lon="4.40679">
        <ele>1037.3380126953</ele>
        <time>2010-05-22T09:29:51Z</time>
      </trkpt>
      <trkpt lat="45.00428" lon="4.40654">
        <ele>1038.3879394531</ele>
        <time>2010-05-22T09:29:57Z</time>
      </trkpt>
      <trkpt lat="45.00423" lon="4.4063">
        <ele>1039.1059570312</ele>
        <time>2010-05-22T09:30:02Z</time>
      </trkpt>
      <trkpt lat="45.00415" lon="4.40595">
        <ele>1039.8420410156</ele>
        <time>2010-05-22T09:30:09Z</time>
      </trkpt>
      <trkpt lat="45.0041" lon="4.4055">
        <ele>1040.373046875</ele>
        <time>2010-05-22T09:30:17Z</time>
      </trkpt>
      <trkpt lat="45.00416" lon="4.40522">
        <ele>1041.0629882812</ele>
        <time>2010-05-22T09:30:22Z</time>
      </trkpt>
      <trkpt lat="45.00432" lon="4.4049">
        <ele>1042.4510498047</ele>
        <time>2010-05-22T09:30:29Z</time>
      </trkpt>
      <trkpt lat="45.00466" lon="4.40451">
        <ele>1043.583984375</ele>
        <time>2010-05-22T09:30:39Z</time>
      </trkpt>
      <trkpt lat="45.00497" lon="4.40416">
        <ele>1044.2509765625</ele>
        <time>2010-05-22T09:30:48Z</time>
      </trkpt>
      <trkpt lat="45.00531" lon="4.40377">
        <ele>1045.5129394531</ele>
        <time>2010-05-22T09:30:58Z</time>
      </trkpt>
      <trkpt lat="45.00564" lon="4.4034">
        <ele>1046.1350097656</ele>
        <time>2010-05-22T09:31:08Z</time>
      </trkpt>
      <trkpt lat="45.00583" lon="4.40316">
        <ele>1047.041015625</ele>
        <time>2010-05-22T09:31:14Z</time>
      </trkpt>
      <trkpt lat="45.00603" lon="4.40282">
        <ele>1048.4210205078</ele>
        <time>2010-05-22T09:31:22Z</time>
      </trkpt>
      <trkpt lat="45.00617" lon="4.40269">
        <ele>1049.3620605469</ele>
        <time>2010-05-22T09:31:27Z</time>
      </trkpt>
      <trkpt lat="45.00632" lon="4.40256">
        <ele>1049.8659667969</ele>
        <time>2010-05-22T09:31:32Z</time>
      </trkpt>
      <trkpt lat="45.00641" lon="4.40235">
        <ele>1050.9749755859</ele>
        <time>2010-05-22T09:31:37Z</time>
      </trkpt>
      <trkpt lat="45.00659" lon="4.40222">
        <ele>1051.6140136719</ele>
        <time>2010-05-22T09:31:43Z</time>
      </trkpt>
      <trkpt lat="45.00677" lon="4.40208">
        <ele>1052.8149414062</ele>
        <time>2010-05-22T09:31:49Z</time>
      </trkpt>
      <trkpt lat="45.00705" lon="4.40176">
        <ele>1054.9730224609</ele>
        <time>2010-05-22T09:31:59Z</time>
      </trkpt>
      <trkpt lat="45.00734" lon="4.40142">
        <ele>1057.1330566406</ele>
        <time>2010-05-22T09:32:09Z</time>
      </trkpt>
      <trkpt lat="45.00754" lon="4.4012">
        <ele>1057.9000244141</ele>
        <time>2010-05-22T09:32:16Z</time>
      </trkpt>
      <trkpt lat="45.00773" lon="4.40099">
        <ele>1059.3189697266</ele>
        <time>2010-05-22T09:32:23Z</time>
      </trkpt>
      <trkpt lat="45.00801" lon="4.40064">
        <ele>1061.1979980469</ele>
        <time>2010-05-22T09:32:33Z</time>
      </trkpt>
      <trkpt lat="45.00818" lon="4.40035">
        <ele>1062.4639892578</ele>
        <time>2010-05-22T09:32:40Z</time>
      </trkpt>
      <trkpt lat="45.00833" lon="4.4001">
        <ele>1063.8640136719</ele>
        <time>2010-05-22T09:32:47Z</time>
      </trkpt>
      <trkpt lat="45.00849" lon="4.39983">
        <ele>1064.5500488281</ele>
        <time>2010-05-22T09:32:54Z</time>
      </trkpt>
      <trkpt lat="45.00867" lon="4.3995">
        <ele>1065.6240234375</ele>
        <time>2010-05-22T09:33:03Z</time>
      </trkpt>
      <trkpt lat="45.00887" lon="4.39915">
        <ele>1066.6429443359</ele>
        <time>2010-05-22T09:33:11Z</time>
      </trkpt>
      <trkpt lat="45.00901" lon="4.39892">
        <ele>1067.4090576172</ele>
        <time>2010-05-22T09:33:17Z</time>
      </trkpt>
      <trkpt lat="45.00915" lon="4.39875">
        <ele>1067.6319580078</ele>
        <time>2010-05-22T09:33:23Z</time>
      </trkpt>
      <trkpt lat="45.00929" lon="4.39888">
        <ele>1068.1209716797</ele>
        <time>2010-05-22T09:33:28Z</time>
      </trkpt>
      <trkpt lat="45.00955" lon="4.39912">
        <ele>1068.0930175781</ele>
        <time>2010-05-22T09:33:36Z</time>
      </trkpt>
      <trkpt lat="45.00976" lon="4.39928">
        <ele>1068.0479736328</ele>
        <time>2010-05-22T09:33:42Z</time>
      </trkpt>
      <trkpt lat="45.00991" lon="4.3994">
        <ele>1068.1810302734</ele>
        <time>2010-05-22T09:33:46Z</time>
      </trkpt>
      <trkpt lat="45.01007" lon="4.39954">
        <ele>1068.5880126953</ele>
        <time>2010-05-22T09:33:50Z</time>
      </trkpt>
      <trkpt lat="45.01022" lon="4.39969">
        <ele>1068.8909912109</ele>
        <time>2010-05-22T09:33:54Z</time>
      </trkpt>
      <trkpt lat="45.01033" lon="4.39991">
        <ele>1068.8409423828</ele>
        <time>2010-05-22T09:33:58Z</time>
      </trkpt>
      <trkpt lat="45.01038" lon="4.40032">
        <ele>1070.0479736328</ele>
        <time>2010-05-22T09:34:05Z</time>
      </trkpt>
      <trkpt lat="45.01038" lon="4.4005">
        <ele>1070.6949462891</ele>
        <time>2010-05-22T09:34:08Z</time>
      </trkpt>
      <trkpt lat="45.0104" lon="4.40067">
        <ele>1071.0260009766</ele>
        <time>2010-05-22T09:34:11Z</time>
      </trkpt>
      <trkpt lat="45.01049" lon="4.40092">
        <ele>1071.5419921875</ele>
        <time>2010-05-22T09:34:16Z</time>
      </trkpt>
      <trkpt lat="45.01077" lon="4.40129">
        <ele>1072.3740234375</ele>
        <time>2010-05-22T09:34:25Z</time>
      </trkpt>
      <trkpt lat="45.01095" lon="4.40145">
        <ele>1072.6369628906</ele>
        <time>2010-05-22T09:34:30Z</time>
      </trkpt>
      <trkpt lat="45.0112" lon="4.40146">
        <ele>1073.4239501953</ele>
        <time>2010-05-22T09:34:36Z</time>
      </trkpt>
      <trkpt lat="45.01129" lon="4.40142">
        <ele>1073.8459472656</ele>
        <time>2010-05-22T09:34:38Z</time>
      </trkpt>
      <trkpt lat="45.01163" lon="4.40118">
        <ele>1074.7860107422</ele>
        <time>2010-05-22T09:34:47Z</time>
      </trkpt>
      <trkpt lat="45.01175" lon="4.40113">
        <ele>1075.3160400391</ele>
        <time>2010-05-22T09:34:50Z</time>
      </trkpt>
      <trkpt lat="45.01199" lon="4.40119">
        <ele>1075.9320068359</ele>
        <time>2010-05-22T09:34:56Z</time>
      </trkpt>
      <trkpt lat="45.01211" lon="4.40137">
        <ele>1076.1359863281</ele>
        <time>2010-05-22T09:35:00Z</time>
      </trkpt>
      <trkpt lat="45.01214" lon="4.40162">
        <ele>1076.4749755859</ele>
        <time>2010-05-22T09:35:04Z</time>
      </trkpt>
      <trkpt lat="45.01208" lon="4.40223">
        <ele>1077.791015625</ele>
        <time>2010-05-22T09:35:14Z</time>
      </trkpt>
      <trkpt lat="45.01217" lon="4.4026">
        <ele>1077.8039550781</ele>
        <time>2010-05-22T09:35:20Z</time>
      </trkpt>
      <trkpt lat="45.0122" lon="4.40266">
        <ele>1077.7900390625</ele>
        <time>2010-05-22T09:35:21Z</time>
      </trkpt>
      <trkpt lat="45.01246" lon="4.4031">
        <ele>1077.9949951172</ele>
        <time>2010-05-22T09:35:29Z</time>
      </trkpt>
      <trkpt lat="45.01264" lon="4.40354">
        <ele>1078.0389404297</ele>
        <time>2010-05-22T09:35:36Z</time>
      </trkpt>
      <trkpt lat="45.01273" lon="4.4038">
        <ele>1078.3780517578</ele>
        <time>2010-05-22T09:35:40Z</time>
      </trkpt>
      <trkpt lat="45.01292" lon="4.40404">
        <ele>1078.2719726562</ele>
        <time>2010-05-22T09:35:45Z</time>
      </trkpt>
      <trkpt lat="45.01312" lon="4.4041">
        <ele>1078.1639404297</ele>
        <time>2010-05-22T09:35:49Z</time>
      </trkpt>
      <trkpt lat="45.01333" lon="4.40402">
        <ele>1078.2419433594</ele>
        <time>2010-05-22T09:35:53Z</time>
      </trkpt>
      <trkpt lat="45.01338" lon="4.40398">
        <ele>1078.4189453125</ele>
        <time>2010-05-22T09:35:54Z</time>
      </trkpt>
      <trkpt lat="45.01362" lon="4.40379">
        <ele>1078.4229736328</ele>
        <time>2010-05-22T09:35:59Z</time>
      </trkpt>
      <trkpt lat="45.01403" lon="4.40347">
        <ele>1079.0009765625</ele>
        <time>2010-05-22T09:36:08Z</time>
      </trkpt>
      <trkpt lat="45.01435" lon="4.40326">
        <ele>1078.7010498047</ele>
        <time>2010-05-22T09:36:15Z</time>
      </trkpt>
      <trkpt lat="45.01462" lon="4.40304">
        <ele>1078.8819580078</ele>
        <time>2010-05-22T09:36:21Z</time>
      </trkpt>
      <trkpt lat="45.01494" lon="4.40278">
        <ele>1078.7669677734</ele>
        <time>2010-05-22T09:36:28Z</time>
      </trkpt>
      <trkpt lat="45.01533" lon="4.40264">
        <ele>1078.4110107422</ele>
        <time>2010-05-22T09:36:36Z</time>
      </trkpt>
      <trkpt lat="45.01569" lon="4.4026">
        <ele>1078.3659667969</ele>
        <time>2010-05-22T09:36:43Z</time>
      </trkpt>
      <trkpt lat="45.01607" lon="4.40268">
        <ele>1079.0489501953</ele>
        <time>2010-05-22T09:36:50Z</time>
      </trkpt>
      <trkpt lat="45.01643" lon="4.40277">
        <ele>1080.4730224609</ele>
        <time>2010-05-22T09:36:57Z</time>
      </trkpt>
      <trkpt lat="45.01693" lon="4.4029">
        <ele>1082.0810546875</ele>
        <time>2010-05-22T09:37:07Z</time>
      </trkpt>
      <trkpt lat="45.01697" lon="4.40292">
        <ele>1082.2650146484</ele>
        <time>2010-05-22T09:37:08Z</time>
      </trkpt>
      <trkpt lat="45.01713" lon="4.40305">
        <ele>1082.8990478516</ele>
        <time>2010-05-22T09:37:12Z</time>
      </trkpt>
      <trkpt lat="45.01729" lon="4.4033">
        <ele>1084.1569824219</ele>
        <time>2010-05-22T09:37:17Z</time>
      </trkpt>
      <trkpt lat="45.01745" lon="4.40387">
        <ele>1086.3850097656</ele>
        <time>2010-05-22T09:37:26Z</time>
      </trkpt>
      <trkpt lat="45.01754" lon="4.40424">
        <ele>1087.6340332031</ele>
        <time>2010-05-22T09:37:32Z</time>
      </trkpt>
      <trkpt lat="45.01766" lon="4.40465">
        <ele>1088.8000488281</ele>
        <time>2010-05-22T09:37:39Z</time>
      </trkpt>
      <trkpt lat="45.01785" lon="4.40523">
        <ele>1090.3740234375</ele>
        <time>2010-05-22T09:37:49Z</time>
      </trkpt>
      <trkpt lat="45.01807" lon="4.40587">
        <ele>1091.9499511719</ele>
        <time>2010-05-22T09:38:00Z</time>
      </trkpt>
      <trkpt lat="45.01828" lon="4.40643">
        <ele>1093.4449462891</ele>
        <time>2010-05-22T09:38:10Z</time>
      </trkpt>
      <trkpt lat="45.01844" lon="4.40676">
        <ele>1094.8179931641</ele>
        <time>2010-05-22T09:38:16Z</time>
      </trkpt>
      <trkpt lat="45.01869" lon="4.40706">
        <ele>1096.1209716797</ele>
        <time>2010-05-22T09:38:24Z</time>
      </trkpt>
      <trkpt lat="45.01888" lon="4.40721">
        <ele>1096.3189697266</ele>
        <time>2010-05-22T09:38:30Z</time>
      </trkpt>
      <trkpt lat="45.01889" lon="4.40721">
        <ele>1096.3000488281</ele>
        <time>2010-05-22T09:38:32Z</time>
      </trkpt>
      <trkpt lat="45.01898" lon="4.40715">
        <ele>1095.4110107422</ele>
        <time>2010-05-22T09:39:01Z</time>
      </trkpt>
      <trkpt lat="45.0192" lon="4.40717">
        <ele>1094.2790527344</ele>
        <time>2010-05-22T09:39:05Z</time>
      </trkpt>
      <trkpt lat="45.0195" lon="4.40717">
        <ele>1093.8020019531</ele>
        <time>2010-05-22T09:39:10Z</time>
      </trkpt>
      <trkpt lat="45.01957" lon="4.40716">
        <ele>1093.5629882812</ele>
        <time>2010-05-22T09:39:11Z</time>
      </trkpt>
      <trkpt lat="45.02015" lon="4.407">
        <ele>1092.0179443359</ele>
        <time>2010-05-22T09:39:19Z</time>
      </trkpt>
      <trkpt lat="45.02046" lon="4.40691">
        <ele>1091.0880126953</ele>
        <time>2010-05-22T09:39:23Z</time>
      </trkpt>
      <trkpt lat="45.02079" lon="4.40698">
        <ele>1089.9300537109</ele>
        <time>2010-05-22T09:39:27Z</time>
      </trkpt>
      <trkpt lat="45.02096" lon="4.40725">
        <ele>1089.6149902344</ele>
        <time>2010-05-22T09:39:30Z</time>
      </trkpt>
      <trkpt lat="45.0211" lon="4.40772">
        <ele>1088.2409667969</ele>
        <time>2010-05-22T09:39:34Z</time>
      </trkpt>
      <trkpt lat="45.02132" lon="4.40793">
        <ele>1087.6550292969</ele>
        <time>2010-05-22T09:39:37Z</time>
      </trkpt>
      <trkpt lat="45.02141" lon="4.40796">
        <ele>1087.5129394531</ele>
        <time>2010-05-22T09:39:38Z</time>
      </trkpt>
      <trkpt lat="45.02188" lon="4.40786">
        <ele>1086.6369628906</ele>
        <time>2010-05-22T09:39:43Z</time>
      </trkpt>
      <trkpt lat="45.02197" lon="4.40781">
        <ele>1086.3039550781</ele>
        <time>2010-05-22T09:39:44Z</time>
      </trkpt>
      <trkpt lat="45.02251" lon="4.40753">
        <ele>1085.0269775391</ele>
        <time>2010-05-22T09:39:50Z</time>
      </trkpt>
      <trkpt lat="45.02287" lon="4.40741">
        <ele>1083.9620361328</ele>
        <time>2010-05-22T09:39:54Z</time>
      </trkpt>
      <trkpt lat="45.02317" lon="4.40751">
        <ele>1083.2590332031</ele>
        <time>2010-05-22T09:39:57Z</time>
      </trkpt>
      <trkpt lat="45.02326" lon="4.40756">
        <ele>1083.1009521484</ele>
        <time>2010-05-22T09:39:58Z</time>
      </trkpt>
      <trkpt lat="45.02367" lon="4.40754">
        <ele>1081.3499755859</ele>
        <time>2010-05-22T09:40:02Z</time>
      </trkpt>
      <trkpt lat="45.02406" lon="4.4073">
        <ele>1080.791015625</ele>
        <time>2010-05-22T09:40:06Z</time>
      </trkpt>
      <trkpt lat="45.02472" lon="4.40709">
        <ele>1080.0209960938</ele>
        <time>2010-05-22T09:40:13Z</time>
      </trkpt>
      <trkpt lat="45.02481" lon="4.40707">
        <ele>1079.8630371094</ele>
        <time>2010-05-22T09:40:14Z</time>
      </trkpt>
      <trkpt lat="45.0254" lon="4.40704">
        <ele>1078.2039794922</ele>
        <time>2010-05-22T09:40:21Z</time>
      </trkpt>
      <trkpt lat="45.02549" lon="4.40704">
        <ele>1078.0620117188</ele>
        <time>2010-05-22T09:40:22Z</time>
      </trkpt>
      <trkpt lat="45.02593" lon="4.40711">
        <ele>1077.16796875</ele>
        <time>2010-05-22T09:40:27Z</time>
      </trkpt>
      <trkpt lat="45.02643" lon="4.40728">
        <ele>1076.04296875</ele>
        <time>2010-05-22T09:40:33Z</time>
      </trkpt>
      <trkpt lat="45.02682" lon="4.40757">
        <ele>1074.2440185547</ele>
        <time>2010-05-22T09:40:38Z</time>
      </trkpt>
      <trkpt lat="45.02689" lon="4.40765">
        <ele>1073.6600341797</ele>
        <time>2010-05-22T09:40:39Z</time>
      </trkpt>
      <trkpt lat="45.02702" lon="4.40783">
        <ele>1072.8929443359</ele>
        <time>2010-05-22T09:40:41Z</time>
      </trkpt>
      <trkpt lat="45.02721" lon="4.4081">
        <ele>1072.2719726562</ele>
        <time>2010-05-22T09:40:44Z</time>
      </trkpt>
      <trkpt lat="45.02736" lon="4.40826">
        <ele>1071.5799560547</ele>
        <time>2010-05-22T09:40:46Z</time>
      </trkpt>
      <trkpt lat="45.02774" lon="4.40848">
        <ele>1070.4460449219</ele>
        <time>2010-05-22T09:40:51Z</time>
      </trkpt>
      <trkpt lat="45.02798" lon="4.4086">
        <ele>1069.7249755859</ele>
        <time>2010-05-22T09:40:54Z</time>
      </trkpt>
      <trkpt lat="45.02826" lon="4.40886">
        <ele>1069.8740234375</ele>
        <time>2010-05-22T09:40:58Z</time>
      </trkpt>
      <trkpt lat="45.02855" lon="4.40934">
        <ele>1070.2380371094</ele>
        <time>2010-05-22T09:41:04Z</time>
      </trkpt>
      <trkpt lat="45.02862" lon="4.4095">
        <ele>1070.5190429688</ele>
        <time>2010-05-22T09:41:06Z</time>
      </trkpt>
      <trkpt lat="45.02873" lon="4.40973">
        <ele>1071.1219482422</ele>
        <time>2010-05-22T09:41:09Z</time>
      </trkpt>
      <trkpt lat="45.02877" lon="4.4098">
        <ele>1071.2919921875</ele>
        <time>2010-05-22T09:41:10Z</time>
      </trkpt>
      <trkpt lat="45.029" lon="4.41009">
        <ele>1071.9229736328</ele>
        <time>2010-05-22T09:41:15Z</time>
      </trkpt>
      <trkpt lat="45.02922" lon="4.41018">
        <ele>1072.7359619141</ele>
        <time>2010-05-22T09:41:19Z</time>
      </trkpt>
      <trkpt lat="45.02967" lon="4.41019">
        <ele>1073.8229980469</ele>
        <time>2010-05-22T09:41:26Z</time>
      </trkpt>
      <trkpt lat="45.03001" lon="4.4102">
        <ele>1074.3220214844</ele>
        <time>2010-05-22T09:41:31Z</time>
      </trkpt>
      <trkpt lat="45.03056" lon="4.41017">
        <ele>1075.8570556641</ele>
        <time>2010-05-22T09:41:40Z</time>
      </trkpt>
      <trkpt lat="45.03101" lon="4.41005">
        <ele>1076.3570556641</ele>
        <time>2010-05-22T09:41:48Z</time>
      </trkpt>
      <trkpt lat="45.03144" lon="4.40993">
        <ele>1075.8409423828</ele>
        <time>2010-05-22T09:41:55Z</time>
      </trkpt>
      <trkpt lat="45.0319" lon="4.40978">
        <ele>1076.5269775391</ele>
        <time>2010-05-22T09:42:03Z</time>
      </trkpt>
      <trkpt lat="45.03235" lon="4.40964">
        <ele>1077.7509765625</ele>
        <time>2010-05-22T09:42:11Z</time>
      </trkpt>
      <trkpt lat="45.03275" lon="4.40953">
        <ele>1079.2449951172</ele>
        <time>2010-05-22T09:42:19Z</time>
      </trkpt>
      <trkpt lat="45.03311" lon="4.40943">
        <ele>1081.8990478516</ele>
        <time>2010-05-22T09:42:27Z</time>
      </trkpt>
      <trkpt lat="45.03315" lon="4.40942">
        <ele>1081.9880371094</ele>
        <time>2010-05-22T09:42:28Z</time>
      </trkpt>
      <trkpt lat="45.03338" lon="4.40943">
        <ele>1083.3520507812</ele>
        <time>2010-05-22T09:42:33Z</time>
      </trkpt>
      <trkpt lat="45.03371" lon="4.40962">
        <ele>1085.5679931641</ele>
        <time>2010-05-22T09:42:41Z</time>
      </trkpt>
      <trkpt lat="45.03378" lon="4.40967">
        <ele>1086.0069580078</ele>
        <time>2010-05-22T09:42:43Z</time>
      </trkpt>
      <trkpt lat="45.03409" lon="4.40987">
        <ele>1087.4969482422</ele>
        <time>2010-05-22T09:42:51Z</time>
      </trkpt>
      <trkpt lat="45.03429" lon="4.41001">
        <ele>1088.5579833984</ele>
        <time>2010-05-22T09:42:56Z</time>
      </trkpt>
      <trkpt lat="45.03468" lon="4.41028">
        <ele>1089.8129882812</ele>
        <time>2010-05-22T09:43:05Z</time>
      </trkpt>
      <trkpt lat="45.03512" lon="4.41057">
        <ele>1091.5030517578</ele>
        <time>2010-05-22T09:43:15Z</time>
      </trkpt>
      <trkpt lat="45.03521" lon="4.41063">
        <ele>1092.2039794922</ele>
        <time>2010-05-22T09:43:17Z</time>
      </trkpt>
      <trkpt lat="45.03563" lon="4.41091">
        <ele>1094.2239990234</ele>
        <time>2010-05-22T09:43:27Z</time>
      </trkpt>
      <trkpt lat="45.03599" lon="4.41116">
        <ele>1095.7659912109</ele>
        <time>2010-05-22T09:43:36Z</time>
      </trkpt>
      <trkpt lat="45.03616" lon="4.41128">
        <ele>1096.4460449219</ele>
        <time>2010-05-22T09:43:40Z</time>
      </trkpt>
      <trkpt lat="45.03624" lon="4.41134">
        <ele>1096.7030029297</ele>
        <time>2010-05-22T09:43:42Z</time>
      </trkpt>
      <trkpt lat="45.03657" lon="4.41157">
        <ele>1098.4449462891</ele>
        <time>2010-05-22T09:43:50Z</time>
      </trkpt>
      <trkpt lat="45.0368" lon="4.41171">
        <ele>1099.5529785156</ele>
        <time>2010-05-22T09:43:56Z</time>
      </trkpt>
      <trkpt lat="45.03704" lon="4.4118">
        <ele>1100.3919677734</ele>
        <time>2010-05-22T09:44:03Z</time>
      </trkpt>
      <trkpt lat="45.03731" lon="4.41187">
        <ele>1100.7659912109</ele>
        <time>2010-05-22T09:44:11Z</time>
      </trkpt>
      <trkpt lat="45.03757" lon="4.41192">
        <ele>1101.1120605469</ele>
        <time>2010-05-22T09:44:17Z</time>
      </trkpt>
      <trkpt lat="45.03804" lon="4.41201">
        <ele>1102.3780517578</ele>
        <time>2010-05-22T09:44:27Z</time>
      </trkpt>
      <trkpt lat="45.03824" lon="4.41201">
        <ele>1102.6040039062</ele>
        <time>2010-05-22T09:44:31Z</time>
      </trkpt>
      <trkpt lat="45.03844" lon="4.41196">
        <ele>1102.9809570312</ele>
        <time>2010-05-22T09:44:35Z</time>
      </trkpt>
      <trkpt lat="45.03859" lon="4.41189">
        <ele>1103.2840576172</ele>
        <time>2010-05-22T09:44:38Z</time>
      </trkpt>
      <trkpt lat="45.03899" lon="4.41157">
        <ele>1104.0949707031</ele>
        <time>2010-05-22T09:44:46Z</time>
      </trkpt>
      <trkpt lat="45.0394" lon="4.41117">
        <ele>1104.6030273438</ele>
        <time>2010-05-22T09:44:55Z</time>
      </trkpt>
      <trkpt lat="45.03968" lon="4.41091">
        <ele>1105.7149658203</ele>
        <time>2010-05-22T09:45:01Z</time>
      </trkpt>
      <trkpt lat="45.04012" lon="4.41049">
        <ele>1105.6359863281</ele>
        <time>2010-05-22T09:45:10Z</time>
      </trkpt>
      <trkpt lat="45.04056" lon="4.41006">
        <ele>1105.8330078125</ele>
        <time>2010-05-22T09:45:18Z</time>
      </trkpt>
      <trkpt lat="45.04105" lon="4.40957">
        <ele>1105.501953125</ele>
        <time>2010-05-22T09:45:27Z</time>
      </trkpt>
      <trkpt lat="45.04157" lon="4.40909">
        <ele>1105.3869628906</ele>
        <time>2010-05-22T09:45:36Z</time>
      </trkpt>
      <trkpt lat="45.04224" lon="4.40844">
        <ele>1104.9079589844</ele>
        <time>2010-05-22T09:45:47Z</time>
      </trkpt>
      <trkpt lat="45.04298" lon="4.40773">
        <ele>1104.6560058594</ele>
        <time>2010-05-22T09:45:59Z</time>
      </trkpt>
      <trkpt lat="45.04368" lon="4.40703">
        <ele>1105.6760253906</ele>
        <time>2010-05-22T09:46:11Z</time>
      </trkpt>
      <trkpt lat="45.04427" lon="4.40645">
        <ele>1106.8299560547</ele>
        <time>2010-05-22T09:46:21Z</time>
      </trkpt>
      <trkpt lat="45.04467" lon="4.40618">
        <ele>1106.5909423828</ele>
        <time>2010-05-22T09:46:27Z</time>
      </trkpt>
      <trkpt lat="45.0451" lon="4.40609">
        <ele>1106.7580566406</ele>
        <time>2010-05-22T09:46:33Z</time>
      </trkpt>
      <trkpt lat="45.0456" lon="4.40601">
        <ele>1107.0880126953</ele>
        <time>2010-05-22T09:46:40Z</time>
      </trkpt>
      <trkpt lat="45.0461" lon="4.4058">
        <ele>1107.0620117188</ele>
        <time>2010-05-22T09:46:47Z</time>
      </trkpt>
      <trkpt lat="45.04682" lon="4.40548">
        <ele>1107.6020507812</ele>
        <time>2010-05-22T09:46:57Z</time>
      </trkpt>
      <trkpt lat="45.04768" lon="4.40514">
        <ele>1108.0989990234</ele>
        <time>2010-05-22T09:47:09Z</time>
      </trkpt>
      <trkpt lat="45.04814" lon="4.40499">
        <ele>1110.5570068359</ele>
        <time>2010-05-22T09:47:16Z</time>
      </trkpt>
      <trkpt lat="45.0486" lon="4.40485">
        <ele>1113.9840087891</ele>
        <time>2010-05-22T09:47:24Z</time>
      </trkpt>
      <trkpt lat="45.04865" lon="4.40483">
        <ele>1114.2550048828</ele>
        <time>2010-05-22T09:47:25Z</time>
      </trkpt>
      <trkpt lat="45.04923" lon="4.40464">
        <ele>1118.4530029297</ele>
        <time>2010-05-22T09:47:36Z</time>
      </trkpt>
      <trkpt lat="45.04938" lon="4.4046">
        <ele>1119.7359619141</ele>
        <time>2010-05-22T09:47:39Z</time>
      </trkpt>
      <trkpt lat="45.04998" lon="4.4044">
        <ele>1123.4389648438</ele>
        <time>2010-05-22T09:47:51Z</time>
      </trkpt>
      <trkpt lat="45.05002" lon="4.40438">
        <ele>1123.6350097656</ele>
        <time>2010-05-22T09:47:52Z</time>
      </trkpt>
      <trkpt lat="45.05045" lon="4.40424">
        <ele>1124.4060058594</ele>
        <time>2010-05-22T09:48:01Z</time>
      </trkpt>
      <trkpt lat="45.0509" lon="4.40409">
        <ele>1122.6419677734</ele>
        <time>2010-05-22T09:48:10Z</time>
      </trkpt>
      <trkpt lat="45.05101" lon="4.40406">
        <ele>1121.8680419922</ele>
        <time>2010-05-22T09:48:12Z</time>
      </trkpt>
      <trkpt lat="45.05154" lon="4.40389">
        <ele>1119.0639648438</ele>
        <time>2010-05-22T09:48:21Z</time>
      </trkpt>
      <trkpt lat="45.0518" lon="4.4038">
        <ele>1117.5849609375</ele>
        <time>2010-05-22T09:48:25Z</time>
      </trkpt>
      <trkpt lat="45.05227" lon="4.40366">
        <ele>1115.251953125</ele>
        <time>2010-05-22T09:48:31Z</time>
      </trkpt>
      <trkpt lat="45.05277" lon="4.40346">
        <ele>1111.3649902344</ele>
        <time>2010-05-22T09:48:37Z</time>
      </trkpt>
      <trkpt lat="45.05286" lon="4.40342">
        <ele>1111.1070556641</ele>
        <time>2010-05-22T09:48:38Z</time>
      </trkpt>
      <trkpt lat="45.0532" lon="4.40318">
        <ele>1109.1829833984</ele>
        <time>2010-05-22T09:48:42Z</time>
      </trkpt>
      <trkpt lat="45.05367" lon="4.40263">
        <ele>1106.6600341797</ele>
        <time>2010-05-22T09:48:48Z</time>
      </trkpt>
      <trkpt lat="45.05425" lon="4.40173">
        <ele>1102.0739746094</ele>
        <time>2010-05-22T09:48:56Z</time>
      </trkpt>
      <trkpt lat="45.05438" lon="4.40152">
        <ele>1101.1560058594</ele>
        <time>2010-05-22T09:48:58Z</time>
      </trkpt>
      <trkpt lat="45.05457" lon="4.40122">
        <ele>1101.5319824219</ele>
        <time>2010-05-22T09:49:01Z</time>
      </trkpt>
      <trkpt lat="45.05469" lon="4.40103">
        <ele>1102.1290283203</ele>
        <time>2010-05-22T09:49:03Z</time>
      </trkpt>
      <trkpt lat="45.05492" lon="4.40058">
        <ele>1102.4219970703</ele>
        <time>2010-05-22T09:49:08Z</time>
      </trkpt>
      <trkpt lat="45.05514" lon="4.39995">
        <ele>1104.6529541016</ele>
        <time>2010-05-22T09:49:15Z</time>
      </trkpt>
      <trkpt lat="45.0553" lon="4.39943">
        <ele>1106.0310058594</ele>
        <time>2010-05-22T09:49:21Z</time>
      </trkpt>
      <trkpt lat="45.05543" lon="4.39901">
        <ele>1107.4229736328</ele>
        <time>2010-05-22T09:49:26Z</time>
      </trkpt>
      <trkpt lat="45.05577" lon="4.39822">
        <ele>1109.4599609375</ele>
        <time>2010-05-22T09:49:36Z</time>
      </trkpt>
      <trkpt lat="45.05601" lon="4.39778">
        <ele>1110.4210205078</ele>
        <time>2010-05-22T09:49:42Z</time>
      </trkpt>
      <trkpt lat="45.05637" lon="4.39724">
        <ele>1111.4890136719</ele>
        <time>2010-05-22T09:49:50Z</time>
      </trkpt>
      <trkpt lat="45.05677" lon="4.39679">
        <ele>1113.7700195312</ele>
        <time>2010-05-22T09:49:59Z</time>
      </trkpt>
      <trkpt lat="45.05722" lon="4.39635">
        <ele>1115.7580566406</ele>
        <time>2010-05-22T09:50:09Z</time>
      </trkpt>
      <trkpt lat="45.05772" lon="4.39583">
        <ele>1117.7380371094</ele>
        <time>2010-05-22T09:50:20Z</time>
      </trkpt>
      <trkpt lat="45.05801" lon="4.39539">
        <ele>1118.3239746094</ele>
        <time>2010-05-22T09:50:27Z</time>
      </trkpt>
      <trkpt lat="45.05826" lon="4.39476">
        <ele>1119.001953125</ele>
        <time>2010-05-22T09:50:35Z</time>
      </trkpt>
      <trkpt lat="45.05854" lon="4.39407">
        <ele>1118.9010009766</ele>
        <time>2010-05-22T09:50:44Z</time>
      </trkpt>
      <trkpt lat="45.05883" lon="4.39361">
        <ele>1121.0579833984</ele>
        <time>2010-05-22T09:50:51Z</time>
      </trkpt>
      <trkpt lat="45.05925" lon="4.3932">
        <ele>1121.8449707031</ele>
        <time>2010-05-22T09:50:59Z</time>
      </trkpt>
      <trkpt lat="45.05979" lon="4.39275">
        <ele>1122.3000488281</ele>
        <time>2010-05-22T09:51:09Z</time>
      </trkpt>
      <trkpt lat="45.06012" lon="4.3925">
        <ele>1123.5050048828</ele>
        <time>2010-05-22T09:51:15Z</time>
      </trkpt>
      <trkpt lat="45.06056" lon="4.39236">
        <ele>1124.3759765625</ele>
        <time>2010-05-22T09:51:22Z</time>
      </trkpt>
      <trkpt lat="45.06089" lon="4.3924">
        <ele>1124.9460449219</ele>
        <time>2010-05-22T09:51:27Z</time>
      </trkpt>
      <trkpt lat="45.0612" lon="4.39257">
        <ele>1125.3310546875</ele>
        <time>2010-05-22T09:51:32Z</time>
      </trkpt>
      <trkpt lat="45.06144" lon="4.39289">
        <ele>1125.6970214844</ele>
        <time>2010-05-22T09:51:37Z</time>
      </trkpt>
      <trkpt lat="45.06162" lon="4.39329">
        <ele>1126.3489990234</ele>
        <time>2010-05-22T09:51:42Z</time>
      </trkpt>
      <trkpt lat="45.06194" lon="4.39364">
        <ele>1125.9909667969</ele>
        <time>2010-05-22T09:51:48Z</time>
      </trkpt>
      <trkpt lat="45.0624" lon="4.39394">
        <ele>1127.7149658203</ele>
        <time>2010-05-22T09:51:56Z</time>
      </trkpt>
      <trkpt lat="45.06276" lon="4.39398">
        <ele>1128.9000244141</ele>
        <time>2010-05-22T09:52:02Z</time>
      </trkpt>
      <trkpt lat="45.06332" lon="4.39386">
        <ele>1131.4289550781</ele>
        <time>2010-05-22T09:52:11Z</time>
      </trkpt>
      <trkpt lat="45.06358" lon="4.39362">
        <ele>1132.1540527344</ele>
        <time>2010-05-22T09:52:16Z</time>
      </trkpt>
      <trkpt lat="45.06367" lon="4.3933">
        <ele>1132.916015625</ele>
        <time>2010-05-22T09:52:20Z</time>
      </trkpt>
      <trkpt lat="45.06368" lon="4.39322">
        <ele>1133.2280273438</ele>
        <time>2010-05-22T09:52:21Z</time>
      </trkpt>
      <trkpt lat="45.0637" lon="4.39287">
        <ele>1133.7760009766</ele>
        <time>2010-05-22T09:52:25Z</time>
      </trkpt>
      <trkpt lat="45.06378" lon="4.39245">
        <ele>1134.5050048828</ele>
        <time>2010-05-22T09:52:30Z</time>
      </trkpt>
      <trkpt lat="45.06404" lon="4.39197">
        <ele>1135.958984375</ele>
        <time>2010-05-22T09:52:37Z</time>
      </trkpt>
      <trkpt lat="45.06438" lon="4.39158">
        <ele>1137.3780517578</ele>
        <time>2010-05-22T09:52:44Z</time>
      </trkpt>
      <trkpt lat="45.06474" lon="4.3911">
        <ele>1138.7130126953</ele>
        <time>2010-05-22T09:52:52Z</time>
      </trkpt>
      <trkpt lat="45.06491" lon="4.39063">
        <ele>1140.1290283203</ele>
        <time>2010-05-22T09:52:58Z</time>
      </trkpt>
      <trkpt lat="45.06514" lon="4.39001">
        <ele>1141.0050048828</ele>
        <time>2010-05-22T09:53:06Z</time>
      </trkpt>
      <trkpt lat="45.06544" lon="4.38957">
        <ele>1142.9000244141</ele>
        <time>2010-05-22T09:53:13Z</time>
      </trkpt>
      <trkpt lat="45.06595" lon="4.38907">
        <ele>1144.7540283203</ele>
        <time>2010-05-22T09:53:23Z</time>
      </trkpt>
      <trkpt lat="45.06621" lon="4.38884">
        <ele>1144.8919677734</ele>
        <time>2010-05-22T09:53:28Z</time>
      </trkpt>
      <trkpt lat="45.0666" lon="4.38866">
        <ele>1146.6519775391</ele>
        <time>2010-05-22T09:53:35Z</time>
      </trkpt>
      <trkpt lat="45.06682" lon="4.38851">
        <ele>1148.0539550781</ele>
        <time>2010-05-22T09:53:39Z</time>
      </trkpt>
      <trkpt lat="45.06713" lon="4.38826">
        <ele>1148.3950195312</ele>
        <time>2010-05-22T09:53:45Z</time>
      </trkpt>
      <trkpt lat="45.06731" lon="4.3882">
        <ele>1149.2559814453</ele>
        <time>2010-05-22T09:53:48Z</time>
      </trkpt>
      <trkpt lat="45.06743" lon="4.38817">
        <ele>1149.998046875</ele>
        <time>2010-05-22T09:53:50Z</time>
      </trkpt>
      <trkpt lat="45.06784" lon="4.38803">
        <ele>1151.1429443359</ele>
        <time>2010-05-22T09:53:57Z</time>
      </trkpt>
      <trkpt lat="45.06836" lon="4.38783">
        <ele>1153.1529541016</ele>
        <time>2010-05-22T09:54:06Z</time>
      </trkpt>
      <trkpt lat="45.06879" lon="4.38777">
        <ele>1154.2290039062</ele>
        <time>2010-05-22T09:54:13Z</time>
      </trkpt>
      <trkpt lat="45.06885" lon="4.38775">
        <ele>1154.7340087891</ele>
        <time>2010-05-22T09:54:14Z</time>
      </trkpt>
      <trkpt lat="45.06917" lon="4.38752">
        <ele>1155.0710449219</ele>
        <time>2010-05-22T09:54:20Z</time>
      </trkpt>
      <trkpt lat="45.06926" lon="4.3874">
        <ele>1155.5760498047</ele>
        <time>2010-05-22T09:54:22Z</time>
      </trkpt>
      <trkpt lat="45.06936" lon="4.38704">
        <ele>1157.2919921875</ele>
        <time>2010-05-22T09:54:27Z</time>
      </trkpt>
      <trkpt lat="45.06936" lon="4.38682">
        <ele>1157.8100585938</ele>
        <time>2010-05-22T09:54:30Z</time>
      </trkpt>
      <trkpt lat="45.06932" lon="4.38648">
        <ele>1158.5939941406</ele>
        <time>2010-05-22T09:54:35Z</time>
      </trkpt>
      <trkpt lat="45.06929" lon="4.38602">
        <ele>1159.4470214844</ele>
        <time>2010-05-22T09:54:42Z</time>
      </trkpt>
      <trkpt lat="45.06927" lon="4.38581">
        <ele>1160.3239746094</ele>
        <time>2010-05-22T09:54:47Z</time>
      </trkpt>
      <trkpt lat="45.0692" lon="4.38555">
        <ele>1159.7669677734</ele>
        <time>2010-05-22T09:54:53Z</time>
      </trkpt>
      <trkpt lat="45.06913" lon="4.38529">
        <ele>1159.25</ele>
        <time>2010-05-22T09:54:58Z</time>
      </trkpt>
      <trkpt lat="45.06909" lon="4.38501">
        <ele>1159.8950195312</ele>
        <time>2010-05-22T09:55:04Z</time>
      </trkpt>
      <trkpt lat="45.06915" lon="4.38483">
        <ele>1160.3590087891</ele>
        <time>2010-05-22T09:55:09Z</time>
      </trkpt>
      <trkpt lat="45.06927" lon="4.38455">
        <ele>1162.2600097656</ele>
        <time>2010-05-22T09:55:16Z</time>
      </trkpt>
      <trkpt lat="45.06937" lon="4.38436">
        <ele>1163.6469726562</ele>
        <time>2010-05-22T09:55:22Z</time>
      </trkpt>
      <trkpt lat="45.0694" lon="4.38423">
        <ele>1164.0500488281</ele>
        <time>2010-05-22T09:55:27Z</time>
      </trkpt>
      <trkpt lat="45.06951" lon="4.38403">
        <ele>1164.376953125</ele>
        <time>2010-05-22T09:55:33Z</time>
      </trkpt>
      <trkpt lat="45.06962" lon="4.3838">
        <ele>1165.0389404297</ele>
        <time>2010-05-22T09:55:38Z</time>
      </trkpt>
      <trkpt lat="45.06972" lon="4.38366">
        <ele>1165.4210205078</ele>
        <time>2010-05-22T09:55:41Z</time>
      </trkpt>
      <trkpt lat="45.06984" lon="4.38355">
        <ele>1166.1159667969</ele>
        <time>2010-05-22T09:55:44Z</time>
      </trkpt>
      <trkpt lat="45.07016" lon="4.38341">
        <ele>1167.6400146484</ele>
        <time>2010-05-22T09:55:51Z</time>
      </trkpt>
      <trkpt lat="45.07049" lon="4.38331">
        <ele>1168.8270263672</ele>
        <time>2010-05-22T09:55:58Z</time>
      </trkpt>
      <trkpt lat="45.07064" lon="4.38331">
        <ele>1169.3110351562</ele>
        <time>2010-05-22T09:56:01Z</time>
      </trkpt>
      <trkpt lat="45.07114" lon="4.38353">
        <ele>1171.3160400391</ele>
        <time>2010-05-22T09:56:12Z</time>
      </trkpt>
      <trkpt lat="45.07151" lon="4.38378">
        <ele>1172.1020507812</ele>
        <time>2010-05-22T09:56:20Z</time>
      </trkpt>
      <trkpt lat="45.07184" lon="4.38412">
        <ele>1173.2590332031</ele>
        <time>2010-05-22T09:56:28Z</time>
      </trkpt>
      <trkpt lat="45.07192" lon="4.38421">
        <ele>1173.6090087891</ele>
        <time>2010-05-22T09:56:30Z</time>
      </trkpt>
      <trkpt lat="45.0722" lon="4.38475">
        <ele>1174.7509765625</ele>
        <time>2010-05-22T09:56:39Z</time>
      </trkpt>
      <trkpt lat="45.07244" lon="4.38547">
        <ele>1176.5209960938</ele>
        <time>2010-05-22T09:56:49Z</time>
      </trkpt>
      <trkpt lat="45.0726" lon="4.38631">
        <ele>1178.8459472656</ele>
        <time>2010-05-22T09:57:00Z</time>
      </trkpt>
      <trkpt lat="45.07263" lon="4.38646">
        <ele>1179.1729736328</ele>
        <time>2010-05-22T09:57:02Z</time>
      </trkpt>
      <trkpt lat="45.0727" lon="4.38686">
        <ele>1180.0629882812</ele>
        <time>2010-05-22T09:57:07Z</time>
      </trkpt>
      <trkpt lat="45.07291" lon="4.38724">
        <ele>1181.1199951172</ele>
        <time>2010-05-22T09:57:13Z</time>
      </trkpt>
      <trkpt lat="45.07307" lon="4.38734">
        <ele>1181.4069824219</ele>
        <time>2010-05-22T09:57:16Z</time>
      </trkpt>
      <trkpt lat="45.07341" lon="4.38734">
        <ele>1182.1639404297</ele>
        <time>2010-05-22T09:57:22Z</time>
      </trkpt>
      <trkpt lat="45.07352" lon="4.38728">
        <ele>1182.5739746094</ele>
        <time>2010-05-22T09:57:24Z</time>
      </trkpt>
      <trkpt lat="45.07402" lon="4.38688">
        <ele>1184</ele>
        <time>2010-05-22T09:57:34Z</time>
      </trkpt>
      <trkpt lat="45.07439" lon="4.38671">
        <ele>1184.7860107422</ele>
        <time>2010-05-22T09:57:41Z</time>
      </trkpt>
      <trkpt lat="45.07482" lon="4.38667">
        <ele>1185.5720214844</ele>
        <time>2010-05-22T09:57:49Z</time>
      </trkpt>
      <trkpt lat="45.07513" lon="4.38673">
        <ele>1186.666015625</ele>
        <time>2010-05-22T09:57:55Z</time>
      </trkpt>
      <trkpt lat="45.07566" lon="4.38687">
        <ele>1188.1719970703</ele>
        <time>2010-05-22T09:58:05Z</time>
      </trkpt>
      <trkpt lat="45.07626" lon="4.38703">
        <ele>1189.9379882812</ele>
        <time>2010-05-22T09:58:16Z</time>
      </trkpt>
      <trkpt lat="45.07691" lon="4.38719">
        <ele>1191.7030029297</ele>
        <time>2010-05-22T09:58:28Z</time>
      </trkpt>
      <trkpt lat="45.07735" lon="4.38722">
        <ele>1192.6569824219</ele>
        <time>2010-05-22T09:58:36Z</time>
      </trkpt>
      <trkpt lat="45.07769" lon="4.38711">
        <ele>1193.3520507812</ele>
        <time>2010-05-22T09:58:42Z</time>
      </trkpt>
      <trkpt lat="45.07804" lon="4.38693">
        <ele>1193.5040283203</ele>
        <time>2010-05-22T09:58:48Z</time>
      </trkpt>
      <trkpt lat="45.07852" lon="4.38662">
        <ele>1194.2030029297</ele>
        <time>2010-05-22T09:58:56Z</time>
      </trkpt>
      <trkpt lat="45.07922" lon="4.38607">
        <ele>1195.0589599609</ele>
        <time>2010-05-22T09:59:08Z</time>
      </trkpt>
      <trkpt lat="45.07957" lon="4.38578">
        <ele>1195.5699462891</ele>
        <time>2010-05-22T09:59:15Z</time>
      </trkpt>
      <trkpt lat="45.08002" lon="4.38541">
        <ele>1196.6140136719</ele>
        <time>2010-05-22T09:59:24Z</time>
      </trkpt>
      <trkpt lat="45.08041" lon="4.3852">
        <ele>1196.708984375</ele>
        <time>2010-05-22T09:59:31Z</time>
      </trkpt>
      <trkpt lat="45.08084" lon="4.3851">
        <ele>1196.0980224609</ele>
        <time>2010-05-22T09:59:38Z</time>
      </trkpt>
      <trkpt lat="45.08116" lon="4.38515">
        <ele>1195.7039794922</ele>
        <time>2010-05-22T09:59:43Z</time>
      </trkpt>
      <trkpt lat="45.08162" lon="4.38533">
        <ele>1194.3409423828</ele>
        <time>2010-05-22T09:59:50Z</time>
      </trkpt>
      <trkpt lat="45.0821" lon="4.3857">
        <ele>1192.7729492188</ele>
        <time>2010-05-22T09:59:57Z</time>
      </trkpt>
      <trkpt lat="45.08271" lon="4.3862">
        <ele>1189.3800048828</ele>
        <time>2010-05-22T10:00:05Z</time>
      </trkpt>
      <trkpt lat="45.08279" lon="4.38626">
        <ele>1189.1760253906</ele>
        <time>2010-05-22T10:00:06Z</time>
      </trkpt>
      <trkpt lat="45.08344" lon="4.38678">
        <ele>1186.4520263672</ele>
        <time>2010-05-22T10:00:14Z</time>
      </trkpt>
      <trkpt lat="45.08393" lon="4.38719">
        <ele>1183.8020019531</ele>
        <time>2010-05-22T10:00:20Z</time>
      </trkpt>
      <trkpt lat="45.08442" lon="4.38771">
        <ele>1182.1319580078</ele>
        <time>2010-05-22T10:00:26Z</time>
      </trkpt>
      <trkpt lat="45.08482" lon="4.38836">
        <ele>1180.5780029297</ele>
        <time>2010-05-22T10:00:32Z</time>
      </trkpt>
      <trkpt lat="45.08526" lon="4.38918">
        <ele>1181.2060546875</ele>
        <time>2010-05-22T10:00:40Z</time>
      </trkpt>
      <trkpt lat="45.08552" lon="4.38965">
        <ele>1182.9899902344</ele>
        <time>2010-05-22T10:00:45Z</time>
      </trkpt>
      <trkpt lat="45.08573" lon="4.39004">
        <ele>1184.3580322266</ele>
        <time>2010-05-22T10:00:50Z</time>
      </trkpt>
      <trkpt lat="45.086" lon="4.39054">
        <ele>1186.0119628906</ele>
        <time>2010-05-22T10:00:57Z</time>
      </trkpt>
      <trkpt lat="45.0862" lon="4.3909">
        <ele>1187.0810546875</ele>
        <time>2010-05-22T10:01:02Z</time>
      </trkpt>
      <trkpt lat="45.08641" lon="4.39126">
        <ele>1188.2600097656</ele>
        <time>2010-05-22T10:01:07Z</time>
      </trkpt>
      <trkpt lat="45.08664" lon="4.39162">
        <ele>1189.1190185547</ele>
        <time>2010-05-22T10:01:12Z</time>
      </trkpt>
      <trkpt lat="45.08705" lon="4.39212">
        <ele>1189.7340087891</ele>
        <time>2010-05-22T10:01:20Z</time>
      </trkpt>
      <trkpt lat="45.08741" lon="4.39242">
        <ele>1189.1650390625</ele>
        <time>2010-05-22T10:01:26Z</time>
      </trkpt>
      <trkpt lat="45.08781" lon="4.39267">
        <ele>1188.3680419922</ele>
        <time>2010-05-22T10:01:32Z</time>
      </trkpt>
      <trkpt lat="45.08837" lon="4.39291">
        <ele>1189.0589599609</ele>
        <time>2010-05-22T10:01:40Z</time>
      </trkpt>
      <trkpt lat="45.0885" lon="4.39297">
        <ele>1189.0229492188</ele>
        <time>2010-05-22T10:01:42Z</time>
      </trkpt>
      <trkpt lat="45.08889" lon="4.39326">
        <ele>1189.2490234375</ele>
        <time>2010-05-22T10:01:48Z</time>
      </trkpt>
      <trkpt lat="45.08915" lon="4.39363">
        <ele>1189.5649414062</ele>
        <time>2010-05-22T10:01:53Z</time>
      </trkpt>
      <trkpt lat="45.08919" lon="4.39372">
        <ele>1189.6040039062</ele>
        <time>2010-05-22T10:01:54Z</time>
      </trkpt>
      <trkpt lat="45.08945" lon="4.39432">
        <ele>1190.1870117188</ele>
        <time>2010-05-22T10:02:01Z</time>
      </trkpt>
      <trkpt lat="45.08966" lon="4.39458">
        <ele>1190.7259521484</ele>
        <time>2010-05-22T10:02:05Z</time>
      </trkpt>
      <trkpt lat="45.09011" lon="4.39483">
        <ele>1190.8389892578</ele>
        <time>2010-05-22T10:02:12Z</time>
      </trkpt>
      <trkpt lat="45.09055" lon="4.39506">
        <ele>1190.0560302734</ele>
        <time>2010-05-22T10:02:18Z</time>
      </trkpt>
      <trkpt lat="45.09109" lon="4.39545">
        <ele>1188.2309570312</ele>
        <time>2010-05-22T10:02:26Z</time>
      </trkpt>
      <trkpt lat="45.09143" lon="4.39556">
        <ele>1186.6779785156</ele>
        <time>2010-05-22T10:02:30Z</time>
      </trkpt>
      <trkpt lat="45.09198" lon="4.39561">
        <ele>1184.4780273438</ele>
        <time>2010-05-22T10:02:36Z</time>
      </trkpt>
      <trkpt lat="45.09226" lon="4.39568">
        <ele>1183.6009521484</ele>
        <time>2010-05-22T10:02:39Z</time>
      </trkpt>
      <trkpt lat="45.09269" lon="4.39591">
        <ele>1181.9050292969</ele>
        <time>2010-05-22T10:02:44Z</time>
      </trkpt>
      <trkpt lat="45.09318" lon="4.39633">
        <ele>1180.5179443359</ele>
        <time>2010-05-22T10:02:50Z</time>
      </trkpt>
      <trkpt lat="45.09363" lon="4.39685">
        <ele>1177.7629394531</ele>
        <time>2010-05-22T10:02:56Z</time>
      </trkpt>
      <trkpt lat="45.09415" lon="4.39741">
        <ele>1177.0279541016</ele>
        <time>2010-05-22T10:03:03Z</time>
      </trkpt>
      <trkpt lat="45.0947" lon="4.39793">
        <ele>1176.0300292969</ele>
        <time>2010-05-22T10:03:10Z</time>
      </trkpt>
      <trkpt lat="45.09516" lon="4.39868">
        <ele>1173.3540039062</ele>
        <time>2010-05-22T10:03:17Z</time>
      </trkpt>
      <trkpt lat="45.09569" lon="4.39961">
        <ele>1170.1829833984</ele>
        <time>2010-05-22T10:03:25Z</time>
      </trkpt>
      <trkpt lat="45.09626" lon="4.4006">
        <ele>1167.9630126953</ele>
        <time>2010-05-22T10:03:33Z</time>
      </trkpt>
      <trkpt lat="45.09665" lon="4.4012">
        <ele>1166.7850341797</ele>
        <time>2010-05-22T10:03:38Z</time>
      </trkpt>
      <trkpt lat="45.09712" lon="4.4017">
        <ele>1164.626953125</ele>
        <time>2010-05-22T10:03:43Z</time>
      </trkpt>
      <trkpt lat="45.09722" lon="4.40179">
        <ele>1164.3919677734</ele>
        <time>2010-05-22T10:03:44Z</time>
      </trkpt>
      <trkpt lat="45.09765" lon="4.40205">
        <ele>1163.1529541016</ele>
        <time>2010-05-22T10:03:48Z</time>
      </trkpt>
      <trkpt lat="45.09812" lon="4.40204">
        <ele>1162.3580322266</ele>
        <time>2010-05-22T10:03:52Z</time>
      </trkpt>
      <trkpt lat="45.09835" lon="4.40191">
        <ele>1161.5989990234</ele>
        <time>2010-05-22T10:03:54Z</time>
      </trkpt>
      <trkpt lat="45.09846" lon="4.40182">
        <ele>1161.1070556641</ele>
        <time>2010-05-22T10:03:55Z</time>
      </trkpt>
      <trkpt lat="45.0993" lon="4.40109">
        <ele>1159.1300048828</ele>
        <time>2010-05-22T10:04:03Z</time>
      </trkpt>
      <trkpt lat="45.0994" lon="4.40102">
        <ele>1158.5860595703</ele>
        <time>2010-05-22T10:04:04Z</time>
      </trkpt>
      <trkpt lat="45.10006" lon="4.40079">
        <ele>1156.0169677734</ele>
        <time>2010-05-22T10:04:10Z</time>
      </trkpt>
      <trkpt lat="45.10027" lon="4.40077">
        <ele>1155.3690185547</ele>
        <time>2010-05-22T10:04:12Z</time>
      </trkpt>
      <trkpt lat="45.10061" lon="4.40087">
        <ele>1154.1979980469</ele>
        <time>2010-05-22T10:04:16Z</time>
      </trkpt>
      <trkpt lat="45.1007" lon="4.40098">
        <ele>1154.0269775391</ele>
        <time>2010-05-22T10:04:18Z</time>
      </trkpt>
      <trkpt lat="45.10077" lon="4.40108">
        <ele>1154.5350341797</ele>
        <time>2010-05-22T10:04:21Z</time>
      </trkpt>
      <trkpt lat="45.10094" lon="4.40122">
        <ele>1153.54296875</ele>
        <time>2010-05-22T10:04:26Z</time>
      </trkpt>
      <trkpt lat="45.1012" lon="4.4016">
        <ele>1152.0269775391</ele>
        <time>2010-05-22T10:04:31Z</time>
      </trkpt>
      <trkpt lat="45.10126" lon="4.40169">
        <ele>1151.5229492188</ele>
        <time>2010-05-22T10:04:32Z</time>
      </trkpt>
      <trkpt lat="45.10143" lon="4.40183">
        <ele>1150.6490478516</ele>
        <time>2010-05-22T10:04:34Z</time>
      </trkpt>
      <trkpt lat="45.10162" lon="4.40188">
        <ele>1150.2709960938</ele>
        <time>2010-05-22T10:04:36Z</time>
      </trkpt>
      <trkpt lat="45.10216" lon="4.40182">
        <ele>1146.7629394531</ele>
        <time>2010-05-22T10:04:41Z</time>
      </trkpt>
      <trkpt lat="45.10272" lon="4.40163">
        <ele>1144.8070068359</ele>
        <time>2010-05-22T10:04:46Z</time>
      </trkpt>
      <trkpt lat="45.10316" lon="4.40132">
        <ele>1142.3449707031</ele>
        <time>2010-05-22T10:04:50Z</time>
      </trkpt>
      <trkpt lat="45.10398" lon="4.40057">
        <ele>1139.70703125</ele>
        <time>2010-05-22T10:04:58Z</time>
      </trkpt>
      <trkpt lat="45.10421" lon="4.40045">
        <ele>1139.0880126953</ele>
        <time>2010-05-22T10:05:00Z</time>
      </trkpt>
      <trkpt lat="45.10458" lon="4.40035">
        <ele>1137.6440429688</ele>
        <time>2010-05-22T10:05:03Z</time>
      </trkpt>
      <trkpt lat="45.10521" lon="4.40036">
        <ele>1136.7249755859</ele>
        <time>2010-05-22T10:05:08Z</time>
      </trkpt>
      <trkpt lat="45.10595" lon="4.40051">
        <ele>1134.9549560547</ele>
        <time>2010-05-22T10:05:14Z</time>
      </trkpt>
      <trkpt lat="45.10636" lon="4.40086">
        <ele>1133.373046875</ele>
        <time>2010-05-22T10:05:18Z</time>
      </trkpt>
      <trkpt lat="45.10658" lon="4.40135">
        <ele>1131.4649658203</ele>
        <time>2010-05-22T10:05:21Z</time>
      </trkpt>
      <trkpt lat="45.10666" lon="4.4019">
        <ele>1130.2130126953</ele>
        <time>2010-05-22T10:05:24Z</time>
      </trkpt>
      <trkpt lat="45.10678" lon="4.40315">
        <ele>1127.0529785156</ele>
        <time>2010-05-22T10:05:31Z</time>
      </trkpt>
      <trkpt lat="45.10694" lon="4.40405">
        <ele>1125.4639892578</ele>
        <time>2010-05-22T10:05:36Z</time>
      </trkpt>
      <trkpt lat="45.10713" lon="4.40454">
        <ele>1123.8719482422</ele>
        <time>2010-05-22T10:05:39Z</time>
      </trkpt>
      <trkpt lat="45.10751" lon="4.40497">
        <ele>1122.7220458984</ele>
        <time>2010-05-22T10:05:43Z</time>
      </trkpt>
      <trkpt lat="45.10763" lon="4.40503">
        <ele>1122.5340576172</ele>
        <time>2010-05-22T10:05:44Z</time>
      </trkpt>
      <trkpt lat="45.10787" lon="4.40511">
        <ele>1122.1319580078</ele>
        <time>2010-05-22T10:05:46Z</time>
      </trkpt>
      <trkpt lat="45.10833" lon="4.40533">
        <ele>1120.1109619141</ele>
        <time>2010-05-22T10:05:50Z</time>
      </trkpt>
      <trkpt lat="45.1089" lon="4.40572">
        <ele>1118.375</ele>
        <time>2010-05-22T10:05:55Z</time>
      </trkpt>
      <trkpt lat="45.10923" lon="4.40596">
        <ele>1117.2430419922</ele>
        <time>2010-05-22T10:05:58Z</time>
      </trkpt>
      <trkpt lat="45.10988" lon="4.40611">
        <ele>1114.9079589844</ele>
        <time>2010-05-22T10:06:03Z</time>
      </trkpt>
      <trkpt lat="45.11" lon="4.40609">
        <ele>1114.6109619141</ele>
        <time>2010-05-22T10:06:04Z</time>
      </trkpt>
      <trkpt lat="45.11024" lon="4.406">
        <ele>1114.4200439453</ele>
        <time>2010-05-22T10:06:06Z</time>
      </trkpt>
      <trkpt lat="45.1109" lon="4.4057">
        <ele>1113.3480224609</ele>
        <time>2010-05-22T10:06:12Z</time>
      </trkpt>
      <trkpt lat="45.11101" lon="4.40568">
        <ele>1113.2199707031</ele>
        <time>2010-05-22T10:06:13Z</time>
      </trkpt>
      <trkpt lat="45.11142" lon="4.40571">
        <ele>1113.9139404297</ele>
        <time>2010-05-22T10:06:17Z</time>
      </trkpt>
      <trkpt lat="45.11222" lon="4.40603">
        <ele>1112.5360107422</ele>
        <time>2010-05-22T10:06:25Z</time>
      </trkpt>
      <trkpt lat="45.11272" lon="4.40623">
        <ele>1110.9739990234</ele>
        <time>2010-05-22T10:06:30Z</time>
      </trkpt>
      <trkpt lat="45.11343" lon="4.4065">
        <ele>1109.08203125</ele>
        <time>2010-05-22T10:06:37Z</time>
      </trkpt>
      <trkpt lat="45.11382" lon="4.40663">
        <ele>1107.0760498047</ele>
        <time>2010-05-22T10:06:41Z</time>
      </trkpt>
      <trkpt lat="45.11422" lon="4.40659">
        <ele>1105.4399414062</ele>
        <time>2010-05-22T10:06:45Z</time>
      </trkpt>
      <trkpt lat="45.11432" lon="4.40654">
        <ele>1105.3969726562</ele>
        <time>2010-05-22T10:06:46Z</time>
      </trkpt>
      <trkpt lat="45.11493" lon="4.40618">
        <ele>1104.9260253906</ele>
        <time>2010-05-22T10:06:52Z</time>
      </trkpt>
      <trkpt lat="45.11503" lon="4.4061">
        <ele>1104.5369873047</ele>
        <time>2010-05-22T10:06:53Z</time>
      </trkpt>
      <trkpt lat="45.11547" lon="4.40563">
        <ele>1102.5369873047</ele>
        <time>2010-05-22T10:06:58Z</time>
      </trkpt>
      <trkpt lat="45.11586" lon="4.40541">
        <ele>1101.1619873047</ele>
        <time>2010-05-22T10:07:02Z</time>
      </trkpt>
      <trkpt lat="45.11607" lon="4.40549">
        <ele>1101.7049560547</ele>
        <time>2010-05-22T10:07:04Z</time>
      </trkpt>
      <trkpt lat="45.1162" lon="4.4057">
        <ele>1101.6440429688</ele>
        <time>2010-05-22T10:07:06Z</time>
      </trkpt>
      <trkpt lat="45.11625" lon="4.40583">
        <ele>1101.8039550781</ele>
        <time>2010-05-22T10:07:07Z</time>
      </trkpt>
      <trkpt lat="45.11649" lon="4.40662">
        <ele>1102.8690185547</ele>
        <time>2010-05-22T10:07:13Z</time>
      </trkpt>
      <trkpt lat="45.11684" lon="4.40764">
        <ele>1102.5780029297</ele>
        <time>2010-05-22T10:07:21Z</time>
      </trkpt>
      <trkpt lat="45.11715" lon="4.40836">
        <ele>1103.0439453125</ele>
        <time>2010-05-22T10:07:27Z</time>
      </trkpt>
      <trkpt lat="45.11738" lon="4.40884">
        <ele>1100.5550537109</ele>
        <time>2010-05-22T10:07:31Z</time>
      </trkpt>
      <trkpt lat="45.1177" lon="4.40916">
        <ele>1100.6970214844</ele>
        <time>2010-05-22T10:07:35Z</time>
      </trkpt>
      <trkpt lat="45.1179" lon="4.40921">
        <ele>1100.8220214844</ele>
        <time>2010-05-22T10:07:37Z</time>
      </trkpt>
      <trkpt lat="45.11851" lon="4.40924">
        <ele>1098.583984375</ele>
        <time>2010-05-22T10:07:43Z</time>
      </trkpt>
      <trkpt lat="45.11927" lon="4.4093">
        <ele>1095.3879394531</ele>
        <time>2010-05-22T10:07:50Z</time>
      </trkpt>
      <trkpt lat="45.11938" lon="4.4093">
        <ele>1095.2320556641</ele>
        <time>2010-05-22T10:07:51Z</time>
      </trkpt>
      <trkpt lat="45.11978" lon="4.40933">
        <ele>1097.3580322266</ele>
        <time>2010-05-22T10:07:55Z</time>
      </trkpt>
      <trkpt lat="45.12041" lon="4.40936">
        <ele>1097.3609619141</ele>
        <time>2010-05-22T10:08:02Z</time>
      </trkpt>
      <trkpt lat="45.12093" lon="4.4094">
        <ele>1097.4040527344</ele>
        <time>2010-05-22T10:08:08Z</time>
      </trkpt>
      <trkpt lat="45.12119" lon="4.4096">
        <ele>1098.3830566406</ele>
        <time>2010-05-22T10:08:12Z</time>
      </trkpt>
      <trkpt lat="45.12125" lon="4.40994">
        <ele>1098.626953125</ele>
        <time>2010-05-22T10:08:15Z</time>
      </trkpt>
      <trkpt lat="45.12122" lon="4.41037">
        <ele>1099.8649902344</ele>
        <time>2010-05-22T10:08:19Z</time>
      </trkpt>
      <trkpt lat="45.12116" lon="4.41055">
        <ele>1101.2440185547</ele>
        <time>2010-05-22T10:08:21Z</time>
      </trkpt>
      <trkpt lat="45.12109" lon="4.41073">
        <ele>1101.9689941406</ele>
        <time>2010-05-22T10:08:23Z</time>
      </trkpt>
      <trkpt lat="45.12074" lon="4.41161">
        <ele>1106.9060058594</ele>
        <time>2010-05-22T10:08:33Z</time>
      </trkpt>
      <trkpt lat="45.1207" lon="4.41169">
        <ele>1107.3360595703</ele>
        <time>2010-05-22T10:08:34Z</time>
      </trkpt>
      <trkpt lat="45.12062" lon="4.41194">
        <ele>1108.5720214844</ele>
        <time>2010-05-22T10:08:37Z</time>
      </trkpt>
      <trkpt lat="45.12061" lon="4.4122">
        <ele>1110.3959960938</ele>
        <time>2010-05-22T10:08:40Z</time>
      </trkpt>
      <trkpt lat="45.12062" lon="4.41236">
        <ele>1111.3890380859</ele>
        <time>2010-05-22T10:08:42Z</time>
      </trkpt>
      <trkpt lat="45.12072" lon="4.41277">
        <ele>1113.2299804688</ele>
        <time>2010-05-22T10:08:48Z</time>
      </trkpt>
      <trkpt lat="45.12075" lon="4.41289">
        <ele>1114.0930175781</ele>
        <time>2010-05-22T10:08:50Z</time>
      </trkpt>
      <trkpt lat="45.12086" lon="4.41315">
        <ele>1115.3549804688</ele>
        <time>2010-05-22T10:08:55Z</time>
      </trkpt>
      <trkpt lat="45.1209" lon="4.41319">
        <ele>1115.5169677734</ele>
        <time>2010-05-22T10:08:56Z</time>
      </trkpt>
      <trkpt lat="45.12118" lon="4.41345">
        <ele>1117.4090576172</ele>
        <time>2010-05-22T10:09:04Z</time>
      </trkpt>
      <trkpt lat="45.12139" lon="4.41361">
        <ele>1118.3790283203</ele>
        <time>2010-05-22T10:09:10Z</time>
      </trkpt>
      <trkpt lat="45.12163" lon="4.41381">
        <ele>1119.4389648438</ele>
        <time>2010-05-22T10:09:17Z</time>
      </trkpt>
      <trkpt lat="45.12195" lon="4.4141">
        <ele>1121.5129394531</ele>
        <time>2010-05-22T10:09:27Z</time>
      </trkpt>
      <trkpt lat="45.12206" lon="4.41428">
        <ele>1122.7459716797</ele>
        <time>2010-05-22T10:09:33Z</time>
      </trkpt>
      <trkpt lat="45.12215" lon="4.41449">
        <ele>1123.9360351562</ele>
        <time>2010-05-22T10:09:39Z</time>
      </trkpt>
      <trkpt lat="45.12222" lon="4.41477">
        <ele>1124.9530029297</ele>
        <time>2010-05-22T10:09:45Z</time>
      </trkpt>
      <trkpt lat="45.12231" lon="4.4152">
        <ele>1126.1560058594</ele>
        <time>2010-05-22T10:09:53Z</time>
      </trkpt>
      <trkpt lat="45.12244" lon="4.41574">
        <ele>1128.7729492188</ele>
        <time>2010-05-22T10:10:03Z</time>
      </trkpt>
      <trkpt lat="45.12252" lon="4.41608">
        <ele>1130.5539550781</ele>
        <time>2010-05-22T10:10:10Z</time>
      </trkpt>
      <trkpt lat="45.12268" lon="4.41648">
        <ele>1132.3299560547</ele>
        <time>2010-05-22T10:10:19Z</time>
      </trkpt>
      <trkpt lat="45.12271" lon="4.41652">
        <ele>1132.6169433594</ele>
        <time>2010-05-22T10:10:20Z</time>
      </trkpt>
      <trkpt lat="45.12297" lon="4.41677">
        <ele>1133.9520263672</ele>
        <time>2010-05-22T10:10:27Z</time>
      </trkpt>
      <trkpt lat="45.1233" lon="4.41694">
        <ele>1134.5550537109</ele>
        <time>2010-05-22T10:10:34Z</time>
      </trkpt>
      <trkpt lat="45.12363" lon="4.41698">
        <ele>1134.7819824219</ele>
        <time>2010-05-22T10:10:40Z</time>
      </trkpt>
      <trkpt lat="45.12403" lon="4.41697">
        <ele>1136.33203125</ele>
        <time>2010-05-22T10:10:48Z</time>
      </trkpt>
      <trkpt lat="45.12423" lon="4.41695">
        <ele>1137.1219482422</ele>
        <time>2010-05-22T10:10:52Z</time>
      </trkpt>
      <trkpt lat="45.12458" lon="4.4168">
        <ele>1138.1600341797</ele>
        <time>2010-05-22T10:10:59Z</time>
      </trkpt>
      <trkpt lat="45.12483" lon="4.4166">
        <ele>1137.7840576172</ele>
        <time>2010-05-22T10:11:04Z</time>
      </trkpt>
      <trkpt lat="45.12522" lon="4.41611">
        <ele>1137.0319824219</ele>
        <time>2010-05-22T10:11:12Z</time>
      </trkpt>
      <trkpt lat="45.12553" lon="4.41595">
        <ele>1137.5109863281</ele>
        <time>2010-05-22T10:11:17Z</time>
      </trkpt>
      <trkpt lat="45.12573" lon="4.41606">
        <ele>1137.5100097656</ele>
        <time>2010-05-22T10:11:20Z</time>
      </trkpt>
      <trkpt lat="45.12579" lon="4.41612">
        <ele>1137.626953125</ele>
        <time>2010-05-22T10:11:21Z</time>
      </trkpt>
      <trkpt lat="45.12606" lon="4.41642">
        <ele>1138.4150390625</ele>
        <time>2010-05-22T10:11:26Z</time>
      </trkpt>
      <trkpt lat="45.12637" lon="4.41675">
        <ele>1139.4239501953</ele>
        <time>2010-05-22T10:11:32Z</time>
      </trkpt>
      <trkpt lat="45.12652" lon="4.41689">
        <ele>1140.0040283203</ele>
        <time>2010-05-22T10:11:35Z</time>
      </trkpt>
      <trkpt lat="45.12664" lon="4.41698">
        <ele>1139.9229736328</ele>
        <time>2010-05-22T10:11:37Z</time>
      </trkpt>
      <trkpt lat="45.1269" lon="4.41707">
        <ele>1139.751953125</ele>
        <time>2010-05-22T10:11:41Z</time>
      </trkpt>
      <trkpt lat="45.12734" lon="4.4171">
        <ele>1139.0350341797</ele>
        <time>2010-05-22T10:11:47Z</time>
      </trkpt>
      <trkpt lat="45.12771" lon="4.41711">
        <ele>1139.3179931641</ele>
        <time>2010-05-22T10:11:52Z</time>
      </trkpt>
      <trkpt lat="45.12793" lon="4.41707">
        <ele>1139.6290283203</ele>
        <time>2010-05-22T10:11:55Z</time>
      </trkpt>
      <trkpt lat="45.12849" lon="4.41682">
        <ele>1139.8330078125</ele>
        <time>2010-05-22T10:12:03Z</time>
      </trkpt>
      <trkpt lat="45.12888" lon="4.41666">
        <ele>1139.9790039062</ele>
        <time>2010-05-22T10:12:09Z</time>
      </trkpt>
      <trkpt lat="45.12908" lon="4.41657">
        <ele>1140.0689697266</ele>
        <time>2010-05-22T10:12:12Z</time>
      </trkpt>
      <trkpt lat="45.12958" lon="4.41636">
        <ele>1140.375</ele>
        <time>2010-05-22T10:12:19Z</time>
      </trkpt>
      <trkpt lat="45.13007" lon="4.4162">
        <ele>1139.4090576172</ele>
        <time>2010-05-22T10:12:25Z</time>
      </trkpt>
      <trkpt lat="45.13057" lon="4.41603">
        <ele>1138.0579833984</ele>
        <time>2010-05-22T10:12:31Z</time>
      </trkpt>
      <trkpt lat="45.13096" lon="4.41575">
        <ele>1136.8380126953</ele>
        <time>2010-05-22T10:12:36Z</time>
      </trkpt>
      <trkpt lat="45.13111" lon="4.41559">
        <ele>1136.3680419922</ele>
        <time>2010-05-22T10:12:38Z</time>
      </trkpt>
      <trkpt lat="45.1314" lon="4.41553">
        <ele>1135.3540039062</ele>
        <time>2010-05-22T10:12:41Z</time>
      </trkpt>
      <trkpt lat="45.13154" lon="4.41573">
        <ele>1134.9720458984</ele>
        <time>2010-05-22T10:12:43Z</time>
      </trkpt>
      <trkpt lat="45.13158" lon="4.41611">
        <ele>1135.623046875</ele>
        <time>2010-05-22T10:12:46Z</time>
      </trkpt>
      <trkpt lat="45.13161" lon="4.41658">
        <ele>1136.6839599609</ele>
        <time>2010-05-22T10:12:50Z</time>
      </trkpt>
      <trkpt lat="45.13153" lon="4.41702">
        <ele>1136.9549560547</ele>
        <time>2010-05-22T10:12:54Z</time>
      </trkpt>
      <trkpt lat="45.13134" lon="4.41721">
        <ele>1137.7829589844</ele>
        <time>2010-05-22T10:12:57Z</time>
      </trkpt>
      <trkpt lat="45.13096" lon="4.41751">
        <ele>1138.6319580078</ele>
        <time>2010-05-22T10:13:03Z</time>
      </trkpt>
      <trkpt lat="45.13061" lon="4.41785">
        <ele>1139.7750244141</ele>
        <time>2010-05-22T10:13:09Z</time>
      </trkpt>
      <trkpt lat="45.13031" lon="4.41827">
        <ele>1140.2189941406</ele>
        <time>2010-05-22T10:13:15Z</time>
      </trkpt>
      <trkpt lat="45.13" lon="4.41881">
        <ele>1141.7259521484</ele>
        <time>2010-05-22T10:13:22Z</time>
      </trkpt>
      <trkpt lat="45.12975" lon="4.41928">
        <ele>1142.6820068359</ele>
        <time>2010-05-22T10:13:28Z</time>
      </trkpt>
      <trkpt lat="45.12962" lon="4.41974">
        <ele>1144.0200195312</ele>
        <time>2010-05-22T10:13:33Z</time>
      </trkpt>
      <trkpt lat="45.12957" lon="4.4203">
        <ele>1144.7719726562</ele>
        <time>2010-05-22T10:13:39Z</time>
      </trkpt>
      <trkpt lat="45.12959" lon="4.42059">
        <ele>1145.2469482422</ele>
        <time>2010-05-22T10:13:42Z</time>
      </trkpt>
      <trkpt lat="45.12974" lon="4.4211">
        <ele>1145.7540283203</ele>
        <time>2010-05-22T10:13:48Z</time>
      </trkpt>
      <trkpt lat="45.12995" lon="4.42131">
        <ele>1146.2459716797</ele>
        <time>2010-05-22T10:13:52Z</time>
      </trkpt>
      <trkpt lat="45.13014" lon="4.42139">
        <ele>1147.1839599609</ele>
        <time>2010-05-22T10:13:55Z</time>
      </trkpt>
      <trkpt lat="45.13063" lon="4.42149">
        <ele>1146.9040527344</ele>
        <time>2010-05-22T10:14:02Z</time>
      </trkpt>
      <trkpt lat="45.13099" lon="4.42164">
        <ele>1147.126953125</ele>
        <time>2010-05-22T10:14:07Z</time>
      </trkpt>
      <trkpt lat="45.13123" lon="4.42191">
        <ele>1147.2430419922</ele>
        <time>2010-05-22T10:14:11Z</time>
      </trkpt>
      <trkpt lat="45.13131" lon="4.4222">
        <ele>1147.0689697266</ele>
        <time>2010-05-22T10:14:14Z</time>
      </trkpt>
      <trkpt lat="45.13148" lon="4.423">
        <ele>1146.8640136719</ele>
        <time>2010-05-22T10:14:22Z</time>
      </trkpt>
      <trkpt lat="45.13178" lon="4.42372">
        <ele>1146.2729492188</ele>
        <time>2010-05-22T10:14:30Z</time>
      </trkpt>
      <trkpt lat="45.13203" lon="4.4241">
        <ele>1146.54296875</ele>
        <time>2010-05-22T10:14:35Z</time>
      </trkpt>
      <trkpt lat="45.13248" lon="4.42451">
        <ele>1146.4050292969</ele>
        <time>2010-05-22T10:14:42Z</time>
      </trkpt>
      <trkpt lat="45.1329" lon="4.42473">
        <ele>1146.4549560547</ele>
        <time>2010-05-22T10:14:48Z</time>
      </trkpt>
      <trkpt lat="45.13377" lon="4.42499">
        <ele>1146.2690429688</ele>
        <time>2010-05-22T10:14:59Z</time>
      </trkpt>
      <trkpt lat="45.13431" lon="4.42519">
        <ele>1145.9339599609</ele>
        <time>2010-05-22T10:15:06Z</time>
      </trkpt>
      <trkpt lat="45.13459" lon="4.42543">
        <ele>1145.0069580078</ele>
        <time>2010-05-22T10:15:10Z</time>
      </trkpt>
      <trkpt lat="45.13521" lon="4.42631">
        <ele>1145.2690429688</ele>
        <time>2010-05-22T10:15:21Z</time>
      </trkpt>
      <trkpt lat="45.13577" lon="4.42709">
        <ele>1146.166015625</ele>
        <time>2010-05-22T10:15:30Z</time>
      </trkpt>
      <trkpt lat="45.13638" lon="4.42793">
        <ele>1145.2690429688</ele>
        <time>2010-05-22T10:15:39Z</time>
      </trkpt>
      <trkpt lat="45.13697" lon="4.42873">
        <ele>1144.5469970703</ele>
        <time>2010-05-22T10:15:47Z</time>
      </trkpt>
      <trkpt lat="45.13741" lon="4.4293">
        <ele>1141.2779541016</ele>
        <time>2010-05-22T10:15:53Z</time>
      </trkpt>
      <trkpt lat="45.1379" lon="4.4299">
        <ele>1135.9310302734</ele>
        <time>2010-05-22T10:15:59Z</time>
      </trkpt>
      <trkpt lat="45.13815" lon="4.43019">
        <ele>1133.8559570312</ele>
        <time>2010-05-22T10:16:02Z</time>
      </trkpt>
      <trkpt lat="45.13864" lon="4.43074">
        <ele>1132.3509521484</ele>
        <time>2010-05-22T10:16:08Z</time>
      </trkpt>
      <trkpt lat="45.13915" lon="4.43128">
        <ele>1131.2559814453</ele>
        <time>2010-05-22T10:16:14Z</time>
      </trkpt>
      <trkpt lat="45.13969" lon="4.43178">
        <ele>1129.4260253906</ele>
        <time>2010-05-22T10:16:20Z</time>
      </trkpt>
      <trkpt lat="45.14018" lon="4.4322">
        <ele>1129.7939453125</ele>
        <time>2010-05-22T10:16:26Z</time>
      </trkpt>
      <trkpt lat="45.14066" lon="4.43248">
        <ele>1130.1120605469</ele>
        <time>2010-05-22T10:16:32Z</time>
      </trkpt>
      <trkpt lat="45.14074" lon="4.43252">
        <ele>1129.95703125</ele>
        <time>2010-05-22T10:16:33Z</time>
      </trkpt>
      <trkpt lat="45.14095" lon="4.43267">
        <ele>1129.6700439453</ele>
        <time>2010-05-22T10:16:36Z</time>
      </trkpt>
      <trkpt lat="45.14107" lon="4.4328">
        <ele>1129.125</ele>
        <time>2010-05-22T10:16:38Z</time>
      </trkpt>
      <trkpt lat="45.14133" lon="4.43323">
        <ele>1127.1219482422</ele>
        <time>2010-05-22T10:16:43Z</time>
      </trkpt>
      <trkpt lat="45.14159" lon="4.43371">
        <ele>1124.7469482422</ele>
        <time>2010-05-22T10:16:48Z</time>
      </trkpt>
      <trkpt lat="45.14173" lon="4.43406">
        <ele>1122.7629394531</ele>
        <time>2010-05-22T10:16:51Z</time>
      </trkpt>
      <trkpt lat="45.14191" lon="4.43478">
        <ele>1122.0040283203</ele>
        <time>2010-05-22T10:16:57Z</time>
      </trkpt>
      <trkpt lat="45.14204" lon="4.43522">
        <ele>1121.8280029297</ele>
        <time>2010-05-22T10:17:01Z</time>
      </trkpt>
      <trkpt lat="45.14215" lon="4.43553">
        <ele>1120.9730224609</ele>
        <time>2010-05-22T10:17:04Z</time>
      </trkpt>
      <trkpt lat="45.1424" lon="4.43601">
        <ele>1119.7819824219</ele>
        <time>2010-05-22T10:17:09Z</time>
      </trkpt>
      <trkpt lat="45.14259" lon="4.43621">
        <ele>1119.9399414062</ele>
        <time>2010-05-22T10:17:12Z</time>
      </trkpt>
      <trkpt lat="45.14276" lon="4.43659">
        <ele>1118.3070068359</ele>
        <time>2010-05-22T10:17:16Z</time>
      </trkpt>
      <trkpt lat="45.14294" lon="4.43713">
        <ele>1116.2919921875</ele>
        <time>2010-05-22T10:17:21Z</time>
      </trkpt>
      <trkpt lat="45.14302" lon="4.43735">
        <ele>1115.3530273438</ele>
        <time>2010-05-22T10:17:23Z</time>
      </trkpt>
      <trkpt lat="45.1431" lon="4.43779">
        <ele>1113.4689941406</ele>
        <time>2010-05-22T10:17:27Z</time>
      </trkpt>
      <trkpt lat="45.14311" lon="4.43788">
        <ele>1113.5770263672</ele>
        <time>2010-05-22T10:17:28Z</time>
      </trkpt>
      <trkpt lat="45.14318" lon="4.43834">
        <ele>1112.6510009766</ele>
        <time>2010-05-22T10:17:34Z</time>
      </trkpt>
      <trkpt lat="45.1432" lon="4.43855">
        <ele>1112.4399414062</ele>
        <time>2010-05-22T10:17:39Z</time>
      </trkpt>
      <trkpt lat="45.1432" lon="4.43865">
        <ele>1112.1850585938</ele>
        <time>2010-05-22T10:17:43Z</time>
      </trkpt>
      <trkpt lat="45.14322" lon="4.43882">
        <ele>1111.5699462891</ele>
        <time>2010-05-22T10:17:49Z</time>
      </trkpt>
      <trkpt lat="45.14325" lon="4.43912">
        <ele>1110.4620361328</ele>
        <time>2010-05-22T10:17:54Z</time>
      </trkpt>
      <trkpt lat="45.14325" lon="4.43927">
        <ele>1109.5870361328</ele>
        <time>2010-05-22T10:17:56Z</time>
      </trkpt>
      <trkpt lat="45.14319" lon="4.43977">
        <ele>1108.0389404297</ele>
        <time>2010-05-22T10:18:02Z</time>
      </trkpt>
      <trkpt lat="45.14307" lon="4.44048">
        <ele>1105.6490478516</ele>
        <time>2010-05-22T10:18:09Z</time>
      </trkpt>
      <trkpt lat="45.14302" lon="4.44109">
        <ele>1102.8669433594</ele>
        <time>2010-05-22T10:18:14Z</time>
      </trkpt>
      <trkpt lat="45.14293" lon="4.44173">
        <ele>1100.3120117188</ele>
        <time>2010-05-22T10:18:19Z</time>
      </trkpt>
      <trkpt lat="45.1429" lon="4.44185">
        <ele>1100.1600341797</ele>
        <time>2010-05-22T10:18:20Z</time>
      </trkpt>
      <trkpt lat="45.14277" lon="4.44217">
        <ele>1099.7149658203</ele>
        <time>2010-05-22T10:18:23Z</time>
      </trkpt>
      <trkpt lat="45.14245" lon="4.4426">
        <ele>1097.0980224609</ele>
        <time>2010-05-22T10:18:28Z</time>
      </trkpt>
      <trkpt lat="45.14218" lon="4.44269">
        <ele>1096.8869628906</ele>
        <time>2010-05-22T10:18:31Z</time>
      </trkpt>
      <trkpt lat="45.14189" lon="4.44257">
        <ele>1095.8790283203</ele>
        <time>2010-05-22T10:18:34Z</time>
      </trkpt>
      <trkpt lat="45.1416" lon="4.44241">
        <ele>1094.9279785156</ele>
        <time>2010-05-22T10:18:37Z</time>
      </trkpt>
      <trkpt lat="45.14105" lon="4.44227">
        <ele>1091.708984375</ele>
        <time>2010-05-22T10:18:42Z</time>
      </trkpt>
      <trkpt lat="45.14072" lon="4.4424">
        <ele>1089.4050292969</ele>
        <time>2010-05-22T10:18:45Z</time>
      </trkpt>
      <trkpt lat="45.14063" lon="4.44266">
        <ele>1086.9019775391</ele>
        <time>2010-05-22T10:18:47Z</time>
      </trkpt>
      <trkpt lat="45.14059" lon="4.44313">
        <ele>1085.4969482422</ele>
        <time>2010-05-22T10:18:50Z</time>
      </trkpt>
      <trkpt lat="45.14073" lon="4.44354">
        <ele>1085.0340576172</ele>
        <time>2010-05-22T10:18:53Z</time>
      </trkpt>
      <trkpt lat="45.14108" lon="4.44414">
        <ele>1082.8239746094</ele>
        <time>2010-05-22T10:18:58Z</time>
      </trkpt>
      <trkpt lat="45.14141" lon="4.44474">
        <ele>1080.5529785156</ele>
        <time>2010-05-22T10:19:03Z</time>
      </trkpt>
      <trkpt lat="45.14156" lon="4.44517">
        <ele>1079.8289794922</ele>
        <time>2010-05-22T10:19:07Z</time>
      </trkpt>
      <trkpt lat="45.14157" lon="4.44524">
        <ele>1080.4310302734</ele>
        <time>2010-05-22T10:19:10Z</time>
      </trkpt>
      <trkpt lat="45.14157" lon="4.44524">
        <ele>1080.6500244141</ele>
        <time>2010-05-22T10:19:11Z</time>
      </trkpt>
      <trkpt lat="45.14158" lon="4.44528">
        <ele>1080.5109863281</ele>
        <time>2010-05-22T10:19:17Z</time>
      </trkpt>
      <trkpt lat="45.14163" lon="4.44536">
        <ele>1080.0340576172</ele>
        <time>2010-05-22T10:19:43Z</time>
      </trkpt>
      <trkpt lat="45.14164" lon="4.4454">
        <ele>1079.7280273438</ele>
        <time>2010-05-22T10:19:44Z</time>
      </trkpt>
      <trkpt lat="45.14166" lon="4.44567">
        <ele>1078.7359619141</ele>
        <time>2010-05-22T10:19:48Z</time>
      </trkpt>
      <trkpt lat="45.14158" lon="4.44605">
        <ele>1077.0830078125</ele>
        <time>2010-05-22T10:19:52Z</time>
      </trkpt>
      <trkpt lat="45.14133" lon="4.44626">
        <ele>1076.4279785156</ele>
        <time>2010-05-22T10:19:55Z</time>
      </trkpt>
      <trkpt lat="45.14124" lon="4.44631">
        <ele>1076.6700439453</ele>
        <time>2010-05-22T10:19:56Z</time>
      </trkpt>
      <trkpt lat="45.14069" lon="4.44654">
        <ele>1078.5699462891</ele>
        <time>2010-05-22T10:20:02Z</time>
      </trkpt>
      <trkpt lat="45.14025" lon="4.44682">
        <ele>1078.3959960938</ele>
        <time>2010-05-22T10:20:07Z</time>
      </trkpt>
      <trkpt lat="45.13995" lon="4.4472">
        <ele>1077.3439941406</ele>
        <time>2010-05-22T10:20:11Z</time>
      </trkpt>
      <trkpt lat="45.13985" lon="4.44761">
        <ele>1077.1669921875</ele>
        <time>2010-05-22T10:20:14Z</time>
      </trkpt>
      <trkpt lat="45.13985" lon="4.44776">
        <ele>1076.9969482422</ele>
        <time>2010-05-22T10:20:15Z</time>
      </trkpt>
      <trkpt lat="45.13996" lon="4.44851">
        <ele>1076.4320068359</ele>
        <time>2010-05-22T10:20:20Z</time>
      </trkpt>
      <trkpt lat="45.14018" lon="4.44938">
        <ele>1075.6540527344</ele>
        <time>2010-05-22T10:20:26Z</time>
      </trkpt>
      <trkpt lat="45.14042" lon="4.45039">
        <ele>1073.8869628906</ele>
        <time>2010-05-22T10:20:33Z</time>
      </trkpt>
      <trkpt lat="45.14064" lon="4.45151">
        <ele>1071.7409667969</ele>
        <time>2010-05-22T10:20:41Z</time>
      </trkpt>
      <trkpt lat="45.14084" lon="4.45222">
        <ele>1072.6440429688</ele>
        <time>2010-05-22T10:20:47Z</time>
      </trkpt>
      <trkpt lat="45.14098" lon="4.45259">
        <ele>1074.2399902344</ele>
        <time>2010-05-22T10:20:51Z</time>
      </trkpt>
      <trkpt lat="45.14105" lon="4.45277">
        <ele>1074.9489746094</ele>
        <time>2010-05-22T10:20:53Z</time>
      </trkpt>
      <trkpt lat="45.14124" lon="4.45318">
        <ele>1076.0109863281</ele>
        <time>2010-05-22T10:20:58Z</time>
      </trkpt>
      <trkpt lat="45.14144" lon="4.45353">
        <ele>1077.2409667969</ele>
        <time>2010-05-22T10:21:03Z</time>
      </trkpt>
      <trkpt lat="45.14162" lon="4.45388">
        <ele>1078.3570556641</ele>
        <time>2010-05-22T10:21:08Z</time>
      </trkpt>
      <trkpt lat="45.14183" lon="4.45458">
        <ele>1080.1939697266</ele>
        <time>2010-05-22T10:21:17Z</time>
      </trkpt>
      <trkpt lat="45.14196" lon="4.45513">
        <ele>1081.5989990234</ele>
        <time>2010-05-22T10:21:24Z</time>
      </trkpt>
      <trkpt lat="45.14202" lon="4.45543">
        <ele>1082.3120117188</ele>
        <time>2010-05-22T10:21:28Z</time>
      </trkpt>
      <trkpt lat="45.14209" lon="4.45587">
        <ele>1083.4449462891</ele>
        <time>2010-05-22T10:21:34Z</time>
      </trkpt>
      <trkpt lat="45.14209" lon="4.45639">
        <ele>1084.6159667969</ele>
        <time>2010-05-22T10:21:41Z</time>
      </trkpt>
      <trkpt lat="45.1421" lon="4.45661">
        <ele>1085.2099609375</ele>
        <time>2010-05-22T10:21:44Z</time>
      </trkpt>
      <trkpt lat="45.14213" lon="4.4572">
        <ele>1086.3699951172</ele>
        <time>2010-05-22T10:21:52Z</time>
      </trkpt>
      <trkpt lat="45.1422" lon="4.45774">
        <ele>1087.2829589844</ele>
        <time>2010-05-22T10:21:59Z</time>
      </trkpt>
      <trkpt lat="45.14237" lon="4.45833">
        <ele>1088.5300292969</ele>
        <time>2010-05-22T10:22:07Z</time>
      </trkpt>
      <trkpt lat="45.14264" lon="4.45888">
        <ele>1089.4360351562</ele>
        <time>2010-05-22T10:22:15Z</time>
      </trkpt>
      <trkpt lat="45.14294" lon="4.45941">
        <ele>1091.5150146484</ele>
        <time>2010-05-22T10:22:23Z</time>
      </trkpt>
      <trkpt lat="45.14309" lon="4.45968">
        <ele>1092.0550537109</ele>
        <time>2010-05-22T10:22:27Z</time>
      </trkpt>
      <trkpt lat="45.14332" lon="4.46021">
        <ele>1092.8110351562</ele>
        <time>2010-05-22T10:22:34Z</time>
      </trkpt>
      <trkpt lat="45.14346" lon="4.46068">
        <ele>1093.6629638672</ele>
        <time>2010-05-22T10:22:40Z</time>
      </trkpt>
      <trkpt lat="45.14362" lon="4.4612">
        <ele>1095.8979492188</ele>
        <time>2010-05-22T10:22:47Z</time>
      </trkpt>
      <trkpt lat="45.14375" lon="4.4618">
        <ele>1097.4289550781</ele>
        <time>2010-05-22T10:22:54Z</time>
      </trkpt>
      <trkpt lat="45.14381" lon="4.46254">
        <ele>1098.2669677734</ele>
        <time>2010-05-22T10:23:02Z</time>
      </trkpt>
      <trkpt lat="45.14384" lon="4.46299">
        <ele>1098.4239501953</ele>
        <time>2010-05-22T10:23:07Z</time>
      </trkpt>
      <trkpt lat="45.14383" lon="4.46342">
        <ele>1099.291015625</ele>
        <time>2010-05-22T10:23:12Z</time>
      </trkpt>
      <trkpt lat="45.14379" lon="4.46366">
        <ele>1099.916015625</ele>
        <time>2010-05-22T10:23:15Z</time>
      </trkpt>
      <trkpt lat="45.14378" lon="4.46382">
        <ele>1100.125</ele>
        <time>2010-05-22T10:23:17Z</time>
      </trkpt>
      <trkpt lat="45.1437" lon="4.46449">
        <ele>1100.7979736328</ele>
        <time>2010-05-22T10:23:25Z</time>
      </trkpt>
      <trkpt lat="45.14359" lon="4.46532">
        <ele>1101.7270507812</ele>
        <time>2010-05-22T10:23:35Z</time>
      </trkpt>
      <trkpt lat="45.14348" lon="4.46596">
        <ele>1103.3420410156</ele>
        <time>2010-05-22T10:23:43Z</time>
      </trkpt>
      <trkpt lat="45.14337" lon="4.46669">
        <ele>1101.9219970703</ele>
        <time>2010-05-22T10:23:51Z</time>
      </trkpt>
      <trkpt lat="45.14329" lon="4.46727">
        <ele>1102.4739990234</ele>
        <time>2010-05-22T10:23:57Z</time>
      </trkpt>
      <trkpt lat="45.14319" lon="4.46779">
        <ele>1104.0980224609</ele>
        <time>2010-05-22T10:24:03Z</time>
      </trkpt>
      <trkpt lat="45.14311" lon="4.468">
        <ele>1104.5190429688</ele>
        <time>2010-05-22T10:24:06Z</time>
      </trkpt>
      <trkpt lat="45.14297" lon="4.46829">
        <ele>1104.0760498047</ele>
        <time>2010-05-22T10:24:10Z</time>
      </trkpt>
      <trkpt lat="45.14283" lon="4.46865">
        <ele>1103.0510253906</ele>
        <time>2010-05-22T10:24:14Z</time>
      </trkpt>
      <trkpt lat="45.14278" lon="4.46921">
        <ele>1101.8520507812</ele>
        <time>2010-05-22T10:24:19Z</time>
      </trkpt>
      <trkpt lat="45.14286" lon="4.46955">
        <ele>1100.7130126953</ele>
        <time>2010-05-22T10:24:22Z</time>
      </trkpt>
      <trkpt lat="45.14291" lon="4.46966">
        <ele>1100.1040039062</ele>
        <time>2010-05-22T10:24:23Z</time>
      </trkpt>
      <trkpt lat="45.14308" lon="4.46998">
        <ele>1098.6920166016</ele>
        <time>2010-05-22T10:24:26Z</time>
      </trkpt>
      <trkpt lat="45.14319" lon="4.47051">
        <ele>1096.6979980469</ele>
        <time>2010-05-22T10:24:30Z</time>
      </trkpt>
      <trkpt lat="45.14315" lon="4.47093">
        <ele>1095.5179443359</ele>
        <time>2010-05-22T10:24:33Z</time>
      </trkpt>
      <trkpt lat="45.14297" lon="4.47157">
        <ele>1094.1650390625</ele>
        <time>2010-05-22T10:24:38Z</time>
      </trkpt>
      <trkpt lat="45.14267" lon="4.47206">
        <ele>1093.1409912109</ele>
        <time>2010-05-22T10:24:43Z</time>
      </trkpt>
      <trkpt lat="45.14216" lon="4.47255">
        <ele>1092.8050537109</ele>
        <time>2010-05-22T10:24:50Z</time>
      </trkpt>
      <trkpt lat="45.14175" lon="4.47291">
        <ele>1094.5100097656</ele>
        <time>2010-05-22T10:24:56Z</time>
      </trkpt>
      <trkpt lat="45.14157" lon="4.4731">
        <ele>1095.2790527344</ele>
        <time>2010-05-22T10:24:59Z</time>
      </trkpt>
      <trkpt lat="45.14143" lon="4.47345">
        <ele>1096.1989746094</ele>
        <time>2010-05-22T10:25:03Z</time>
      </trkpt>
      <trkpt lat="45.14129" lon="4.47438">
        <ele>1094.8289794922</ele>
        <time>2010-05-22T10:25:11Z</time>
      </trkpt>
      <trkpt lat="45.14114" lon="4.47492">
        <ele>1095.2490234375</ele>
        <time>2010-05-22T10:25:16Z</time>
      </trkpt>
      <trkpt lat="45.14095" lon="4.47545">
        <ele>1096.6030273438</ele>
        <time>2010-05-22T10:25:22Z</time>
      </trkpt>
      <trkpt lat="45.14087" lon="4.47586">
        <ele>1098.6540527344</ele>
        <time>2010-05-22T10:25:27Z</time>
      </trkpt>
      <trkpt lat="45.14068" lon="4.4764">
        <ele>1099.1700439453</ele>
        <time>2010-05-22T10:25:34Z</time>
      </trkpt>
      <trkpt lat="45.1404" lon="4.4771">
        <ele>1098.5209960938</ele>
        <time>2010-05-22T10:25:42Z</time>
      </trkpt>
      <trkpt lat="45.14022" lon="4.47759">
        <ele>1099.9680175781</ele>
        <time>2010-05-22T10:25:48Z</time>
      </trkpt>
      <trkpt lat="45.14014" lon="4.47807">
        <ele>1100.3170166016</ele>
        <time>2010-05-22T10:25:53Z</time>
      </trkpt>
      <trkpt lat="45.13994" lon="4.47852">
        <ele>1099.4279785156</ele>
        <time>2010-05-22T10:25:58Z</time>
      </trkpt>
      <trkpt lat="45.13983" lon="4.47866">
        <ele>1098.7080078125</ele>
        <time>2010-05-22T10:26:00Z</time>
      </trkpt>
      <trkpt lat="45.13959" lon="4.47876">
        <ele>1096.6479492188</ele>
        <time>2010-05-22T10:26:03Z</time>
      </trkpt>
      <trkpt lat="45.13934" lon="4.47861">
        <ele>1094.4040527344</ele>
        <time>2010-05-22T10:26:06Z</time>
      </trkpt>
      <trkpt lat="45.13918" lon="4.47846">
        <ele>1092.3990478516</ele>
        <time>2010-05-22T10:26:08Z</time>
      </trkpt>
      <trkpt lat="45.13875" lon="4.47785">
        <ele>1088.0400390625</ele>
        <time>2010-05-22T10:26:14Z</time>
      </trkpt>
      <trkpt lat="45.13838" lon="4.47733">
        <ele>1085.4909667969</ele>
        <time>2010-05-22T10:26:19Z</time>
      </trkpt>
      <trkpt lat="45.13805" lon="4.4769">
        <ele>1081.9809570312</ele>
        <time>2010-05-22T10:26:23Z</time>
      </trkpt>
      <trkpt lat="45.1378" lon="4.47654">
        <ele>1079.7550048828</ele>
        <time>2010-05-22T10:26:26Z</time>
      </trkpt>
      <trkpt lat="45.13747" lon="4.47633">
        <ele>1077.4410400391</ele>
        <time>2010-05-22T10:26:29Z</time>
      </trkpt>
      <trkpt lat="45.13722" lon="4.47633">
        <ele>1075.2249755859</ele>
        <time>2010-05-22T10:26:31Z</time>
      </trkpt>
      <trkpt lat="45.13646" lon="4.47649">
        <ele>1070.2039794922</ele>
        <time>2010-05-22T10:26:37Z</time>
      </trkpt>
      <trkpt lat="45.13633" lon="4.47651">
        <ele>1069.8430175781</ele>
        <time>2010-05-22T10:26:38Z</time>
      </trkpt>
      <trkpt lat="45.13583" lon="4.47636">
        <ele>1067.4770507812</ele>
        <time>2010-05-22T10:26:42Z</time>
      </trkpt>
      <trkpt lat="45.13563" lon="4.47611">
        <ele>1064.6870117188</ele>
        <time>2010-05-22T10:26:44Z</time>
      </trkpt>
      <trkpt lat="45.13506" lon="4.47537">
        <ele>1060.2020263672</ele>
        <time>2010-05-22T10:26:50Z</time>
      </trkpt>
      <trkpt lat="45.13479" lon="4.47494">
        <ele>1057.9219970703</ele>
        <time>2010-05-22T10:26:53Z</time>
      </trkpt>
      <trkpt lat="45.13472" lon="4.47442">
        <ele>1056.3000488281</ele>
        <time>2010-05-22T10:26:56Z</time>
      </trkpt>
      <trkpt lat="45.13474" lon="4.47426">
        <ele>1055.4139404297</ele>
        <time>2010-05-22T10:26:57Z</time>
      </trkpt>
      <trkpt lat="45.13463" lon="4.47378">
        <ele>1052.7060546875</ele>
        <time>2010-05-22T10:27:00Z</time>
      </trkpt>
      <trkpt lat="45.13441" lon="4.47361">
        <ele>1051.0129394531</ele>
        <time>2010-05-22T10:27:02Z</time>
      </trkpt>
      <trkpt lat="45.13415" lon="4.47356">
        <ele>1050.2030029297</ele>
        <time>2010-05-22T10:27:04Z</time>
      </trkpt>
      <trkpt lat="45.13378" lon="4.47343">
        <ele>1047.3940429688</ele>
        <time>2010-05-22T10:27:07Z</time>
      </trkpt>
      <trkpt lat="45.13337" lon="4.47299">
        <ele>1043.6369628906</ele>
        <time>2010-05-22T10:27:11Z</time>
      </trkpt>
      <trkpt lat="45.13326" lon="4.47266">
        <ele>1042.7760009766</ele>
        <time>2010-05-22T10:27:13Z</time>
      </trkpt>
      <trkpt lat="45.13322" lon="4.47231">
        <ele>1041.5810546875</ele>
        <time>2010-05-22T10:27:15Z</time>
      </trkpt>
      <trkpt lat="45.13314" lon="4.47165">
        <ele>1039.3029785156</ele>
        <time>2010-05-22T10:27:19Z</time>
      </trkpt>
      <trkpt lat="45.13292" lon="4.47113">
        <ele>1040.9680175781</ele>
        <time>2010-05-22T10:27:23Z</time>
      </trkpt>
      <trkpt lat="45.13255" lon="4.47057">
        <ele>1039.6929931641</ele>
        <time>2010-05-22T10:27:28Z</time>
      </trkpt>
      <trkpt lat="45.13224" lon="4.47013">
        <ele>1038.3659667969</ele>
        <time>2010-05-22T10:27:32Z</time>
      </trkpt>
      <trkpt lat="45.13202" lon="4.46977">
        <ele>1036.6009521484</ele>
        <time>2010-05-22T10:27:35Z</time>
      </trkpt>
      <trkpt lat="45.13158" lon="4.46918">
        <ele>1031.9990234375</ele>
        <time>2010-05-22T10:27:40Z</time>
      </trkpt>
      <trkpt lat="45.13148" lon="4.46907">
        <ele>1031.7490234375</ele>
        <time>2010-05-22T10:27:41Z</time>
      </trkpt>
      <trkpt lat="45.13111" lon="4.46857">
        <ele>1029.6519775391</ele>
        <time>2010-05-22T10:27:45Z</time>
      </trkpt>
      <trkpt lat="45.13083" lon="4.46798">
        <ele>1027.1479492188</ele>
        <time>2010-05-22T10:27:49Z</time>
      </trkpt>
      <trkpt lat="45.13047" lon="4.46699">
        <ele>1022.0059814453</ele>
        <time>2010-05-22T10:27:55Z</time>
      </trkpt>
      <trkpt lat="45.13004" lon="4.46586">
        <ele>1017.4340209961</ele>
        <time>2010-05-22T10:28:02Z</time>
      </trkpt>
      <trkpt lat="45.12991" lon="4.46554">
        <ele>1016.758972168</ele>
        <time>2010-05-22T10:28:04Z</time>
      </trkpt>
      <trkpt lat="45.12951" lon="4.46506">
        <ele>1013.2869873047</ele>
        <time>2010-05-22T10:28:08Z</time>
      </trkpt>
      <trkpt lat="45.12873" lon="4.46467">
        <ele>1009.6220092773</ele>
        <time>2010-05-22T10:28:14Z</time>
      </trkpt>
      <trkpt lat="45.12817" lon="4.46466">
        <ele>1006.7930297852</ele>
        <time>2010-05-22T10:28:18Z</time>
      </trkpt>
      <trkpt lat="45.12803" lon="4.46471">
        <ele>1005.4119873047</ele>
        <time>2010-05-22T10:28:19Z</time>
      </trkpt>
      <trkpt lat="45.12716" lon="4.46511">
        <ele>998.26800537109</ele>
        <time>2010-05-22T10:28:25Z</time>
      </trkpt>
      <trkpt lat="45.1264" lon="4.46544">
        <ele>989.66998291016</ele>
        <time>2010-05-22T10:28:30Z</time>
      </trkpt>
      <trkpt lat="45.12609" lon="4.46555">
        <ele>986.76599121094</ele>
        <time>2010-05-22T10:28:32Z</time>
      </trkpt>
      <trkpt lat="45.12564" lon="4.46555">
        <ele>985.24200439453</ele>
        <time>2010-05-22T10:28:35Z</time>
      </trkpt>
      <trkpt lat="45.1255" lon="4.46549">
        <ele>984.98199462891</ele>
        <time>2010-05-22T10:28:36Z</time>
      </trkpt>
      <trkpt lat="45.12525" lon="4.4653">
        <ele>984.82299804688</ele>
        <time>2010-05-22T10:28:38Z</time>
      </trkpt>
      <trkpt lat="45.12503" lon="4.4651">
        <ele>984.72601318359</ele>
        <time>2010-05-22T10:28:40Z</time>
      </trkpt>
      <trkpt lat="45.12457" lon="4.46486">
        <ele>983.16998291016</ele>
        <time>2010-05-22T10:28:44Z</time>
      </trkpt>
      <trkpt lat="45.12444" lon="4.46485">
        <ele>982.36602783203</ele>
        <time>2010-05-22T10:28:45Z</time>
      </trkpt>
      <trkpt lat="45.12394" lon="4.46486">
        <ele>980.89300537109</ele>
        <time>2010-05-22T10:28:49Z</time>
      </trkpt>
      <trkpt lat="45.1237" lon="4.46479">
        <ele>980.10400390625</ele>
        <time>2010-05-22T10:28:51Z</time>
      </trkpt>
      <trkpt lat="45.12349" lon="4.46461">
        <ele>978.94799804688</ele>
        <time>2010-05-22T10:28:53Z</time>
      </trkpt>
      <trkpt lat="45.1233" lon="4.46438">
        <ele>977.11700439453</ele>
        <time>2010-05-22T10:28:55Z</time>
      </trkpt>
      <trkpt lat="45.12304" lon="4.46379">
        <ele>974.958984375</ele>
        <time>2010-05-22T10:28:59Z</time>
      </trkpt>
      <trkpt lat="45.12281" lon="4.46332">
        <ele>972.65002441406</ele>
        <time>2010-05-22T10:29:02Z</time>
      </trkpt>
      <trkpt lat="45.12251" lon="4.46304">
        <ele>970.79699707031</ele>
        <time>2010-05-22T10:29:05Z</time>
      </trkpt>
      <trkpt lat="45.12228" lon="4.46312">
        <ele>968.55200195312</ele>
        <time>2010-05-22T10:29:07Z</time>
      </trkpt>
      <trkpt lat="45.12217" lon="4.46319">
        <ele>967.01202392578</ele>
        <time>2010-05-22T10:29:08Z</time>
      </trkpt>
      <trkpt lat="45.12153" lon="4.4638">
        <ele>961.39501953125</ele>
        <time>2010-05-22T10:29:14Z</time>
      </trkpt>
      <trkpt lat="45.12099" lon="4.46428">
        <ele>957.21697998047</ele>
        <time>2010-05-22T10:29:19Z</time>
      </trkpt>
      <trkpt lat="45.12058" lon="4.46453">
        <ele>954.59399414062</ele>
        <time>2010-05-22T10:29:23Z</time>
      </trkpt>
      <trkpt lat="45.12049" lon="4.46457">
        <ele>954.38598632812</ele>
        <time>2010-05-22T10:29:24Z</time>
      </trkpt>
      <trkpt lat="45.12037" lon="4.4648">
        <ele>954.47497558594</ele>
        <time>2010-05-22T10:29:27Z</time>
      </trkpt>
      <trkpt lat="45.12037" lon="4.46491">
        <ele>954.30999755859</ele>
        <time>2010-05-22T10:29:28Z</time>
      </trkpt>
      <trkpt lat="45.12019" lon="4.46533">
        <ele>953.02099609375</ele>
        <time>2010-05-22T10:29:32Z</time>
      </trkpt>
      <trkpt lat="45.11997" lon="4.46559">
        <ele>950.63800048828</ele>
        <time>2010-05-22T10:29:35Z</time>
      </trkpt>
      <trkpt lat="45.11964" lon="4.46597">
        <ele>948.13702392578</ele>
        <time>2010-05-22T10:29:39Z</time>
      </trkpt>
      <trkpt lat="45.11917" lon="4.46599">
        <ele>944.74499511719</ele>
        <time>2010-05-22T10:29:43Z</time>
      </trkpt>
      <trkpt lat="45.11907" lon="4.46594">
        <ele>944.74499511719</ele>
        <time>2010-05-22T10:29:44Z</time>
      </trkpt>
      <trkpt lat="45.11891" lon="4.46589">
        <ele>943.14898681641</ele>
        <time>2010-05-22T10:29:46Z</time>
      </trkpt>
      <trkpt lat="45.11885" lon="4.46603">
        <ele>941.34899902344</ele>
        <time>2010-05-22T10:29:48Z</time>
      </trkpt>
      <trkpt lat="45.11888" lon="4.46611">
        <ele>941.05999755859</ele>
        <time>2010-05-22T10:29:49Z</time>
      </trkpt>
      <trkpt lat="45.119" lon="4.4662">
        <ele>940.66497802734</ele>
        <time>2010-05-22T10:29:51Z</time>
      </trkpt>
      <trkpt lat="45.11957" lon="4.46647">
        <ele>936.06500244141</ele>
        <time>2010-05-22T10:29:57Z</time>
      </trkpt>
      <trkpt lat="45.11989" lon="4.46644">
        <ele>934.14898681641</ele>
        <time>2010-05-22T10:30:00Z</time>
      </trkpt>
      <trkpt lat="45.12007" lon="4.46626">
        <ele>933.19799804688</ele>
        <time>2010-05-22T10:30:02Z</time>
      </trkpt>
      <trkpt lat="45.12054" lon="4.46584">
        <ele>929.77301025391</ele>
        <time>2010-05-22T10:30:07Z</time>
      </trkpt>
      <trkpt lat="45.12076" lon="4.46585">
        <ele>928.53802490234</ele>
        <time>2010-05-22T10:30:09Z</time>
      </trkpt>
      <trkpt lat="45.12098" lon="4.46606">
        <ele>927.20599365234</ele>
        <time>2010-05-22T10:30:11Z</time>
      </trkpt>
      <trkpt lat="45.12111" lon="4.46633">
        <ele>926.21099853516</ele>
        <time>2010-05-22T10:30:13Z</time>
      </trkpt>
      <trkpt lat="45.12134" lon="4.46692">
        <ele>924.11901855469</ele>
        <time>2010-05-22T10:30:17Z</time>
      </trkpt>
      <trkpt lat="45.12142" lon="4.46724">
        <ele>922.75500488281</ele>
        <time>2010-05-22T10:30:19Z</time>
      </trkpt>
      <trkpt lat="45.12159" lon="4.4682">
        <ele>919.40197753906</ele>
        <time>2010-05-22T10:30:25Z</time>
      </trkpt>
      <trkpt lat="45.12166" lon="4.46851">
        <ele>918.24597167969</ele>
        <time>2010-05-22T10:30:27Z</time>
      </trkpt>
      <trkpt lat="45.12186" lon="4.46884">
        <ele>916.96899414062</ele>
        <time>2010-05-22T10:30:30Z</time>
      </trkpt>
      <trkpt lat="45.1221" lon="4.46889">
        <ele>916.22900390625</ele>
        <time>2010-05-22T10:30:32Z</time>
      </trkpt>
      <trkpt lat="45.12246" lon="4.4689">
        <ele>913.58898925781</ele>
        <time>2010-05-22T10:30:35Z</time>
      </trkpt>
      <trkpt lat="45.12291" lon="4.46872">
        <ele>910.64599609375</ele>
        <time>2010-05-22T10:30:39Z</time>
      </trkpt>
      <trkpt lat="45.123" lon="4.46861">
        <ele>910.05200195312</ele>
        <time>2010-05-22T10:30:40Z</time>
      </trkpt>
      <trkpt lat="45.12317" lon="4.46837">
        <ele>909.21502685547</ele>
        <time>2010-05-22T10:30:42Z</time>
      </trkpt>
      <trkpt lat="45.12346" lon="4.46822">
        <ele>907.31298828125</ele>
        <time>2010-05-22T10:30:45Z</time>
      </trkpt>
      <trkpt lat="45.12362" lon="4.46841">
        <ele>905.48199462891</ele>
        <time>2010-05-22T10:30:47Z</time>
      </trkpt>
      <trkpt lat="45.12405" lon="4.46898">
        <ele>902.46600341797</ele>
        <time>2010-05-22T10:30:52Z</time>
      </trkpt>
      <trkpt lat="45.12448" lon="4.46926">
        <ele>900.166015625</ele>
        <time>2010-05-22T10:30:56Z</time>
      </trkpt>
      <trkpt lat="45.12508" lon="4.46945">
        <ele>896.66101074219</ele>
        <time>2010-05-22T10:31:01Z</time>
      </trkpt>
      <trkpt lat="45.12566" lon="4.46973">
        <ele>893.34802246094</ele>
        <time>2010-05-22T10:31:06Z</time>
      </trkpt>
      <trkpt lat="45.12587" lon="4.4699">
        <ele>891.64898681641</ele>
        <time>2010-05-22T10:31:08Z</time>
      </trkpt>
      <trkpt lat="45.12624" lon="4.47">
        <ele>889.34301757812</ele>
        <time>2010-05-22T10:31:11Z</time>
      </trkpt>
      <trkpt lat="45.12637" lon="4.46997">
        <ele>888.96997070312</ele>
        <time>2010-05-22T10:31:12Z</time>
      </trkpt>
      <trkpt lat="45.12685" lon="4.47011">
        <ele>885.94097900391</ele>
        <time>2010-05-22T10:31:16Z</time>
      </trkpt>
      <trkpt lat="45.12712" lon="4.47044">
        <ele>883.36700439453</ele>
        <time>2010-05-22T10:31:19Z</time>
      </trkpt>
      <trkpt lat="45.12724" lon="4.47092">
        <ele>881.75299072266</ele>
        <time>2010-05-22T10:31:22Z</time>
      </trkpt>
      <trkpt lat="45.12727" lon="4.47126">
        <ele>880.73400878906</ele>
        <time>2010-05-22T10:31:24Z</time>
      </trkpt>
      <trkpt lat="45.12734" lon="4.47193">
        <ele>877.94598388672</ele>
        <time>2010-05-22T10:31:28Z</time>
      </trkpt>
      <trkpt lat="45.12736" lon="4.47209">
        <ele>877.23699951172</ele>
        <time>2010-05-22T10:31:29Z</time>
      </trkpt>
      <trkpt lat="45.12755" lon="4.47265">
        <ele>874.47302246094</ele>
        <time>2010-05-22T10:31:33Z</time>
      </trkpt>
      <trkpt lat="45.12756" lon="4.47307">
        <ele>874.19897460938</ele>
        <time>2010-05-22T10:31:36Z</time>
      </trkpt>
      <trkpt lat="45.12757" lon="4.47334">
        <ele>874.42297363281</ele>
        <time>2010-05-22T10:31:38Z</time>
      </trkpt>
      <trkpt lat="45.12762" lon="4.47359">
        <ele>874.71099853516</ele>
        <time>2010-05-22T10:31:40Z</time>
      </trkpt>
      <trkpt lat="45.12759" lon="4.47396">
        <ele>874.06799316406</ele>
        <time>2010-05-22T10:31:43Z</time>
      </trkpt>
      <trkpt lat="45.12746" lon="4.4741">
        <ele>874.12701416016</ele>
        <time>2010-05-22T10:31:45Z</time>
      </trkpt>
      <trkpt lat="45.1272" lon="4.47414">
        <ele>874.6669921875</ele>
        <time>2010-05-22T10:31:48Z</time>
      </trkpt>
      <trkpt lat="45.12711" lon="4.47394">
        <ele>874.86901855469</ele>
        <time>2010-05-22T10:31:50Z</time>
      </trkpt>
      <trkpt lat="45.12671" lon="4.47292">
        <ele>874.17797851562</ele>
        <time>2010-05-22T10:31:59Z</time>
      </trkpt>
      <trkpt lat="45.12647" lon="4.47231">
        <ele>871.94702148438</ele>
        <time>2010-05-22T10:32:04Z</time>
      </trkpt>
      <trkpt lat="45.12643" lon="4.47218">
        <ele>871.47302246094</ele>
        <time>2010-05-22T10:32:05Z</time>
      </trkpt>
      <trkpt lat="45.1264" lon="4.4719">
        <ele>870.64801025391</ele>
        <time>2010-05-22T10:32:07Z</time>
      </trkpt>
      <trkpt lat="45.12632" lon="4.47166">
        <ele>869.84100341797</ele>
        <time>2010-05-22T10:32:09Z</time>
      </trkpt>
      <trkpt lat="45.12614" lon="4.47159">
        <ele>869.45098876953</ele>
        <time>2010-05-22T10:32:11Z</time>
      </trkpt>
      <trkpt lat="45.12604" lon="4.4716">
        <ele>868.92498779297</ele>
        <time>2010-05-22T10:32:12Z</time>
      </trkpt>
      <trkpt lat="45.12573" lon="4.47162">
        <ele>867.31597900391</ele>
        <time>2010-05-22T10:32:15Z</time>
      </trkpt>
      <trkpt lat="45.12519" lon="4.4715">
        <ele>863.85400390625</ele>
        <time>2010-05-22T10:32:20Z</time>
      </trkpt>
      <trkpt lat="45.12478" lon="4.47162">
        <ele>862.30700683594</ele>
        <time>2010-05-22T10:32:24Z</time>
      </trkpt>
      <trkpt lat="45.12402" lon="4.47196">
        <ele>858.00598144531</ele>
        <time>2010-05-22T10:32:31Z</time>
      </trkpt>
      <trkpt lat="45.12336" lon="4.4723">
        <ele>853.70098876953</ele>
        <time>2010-05-22T10:32:37Z</time>
      </trkpt>
      <trkpt lat="45.12291" lon="4.47253">
        <ele>851.52502441406</ele>
        <time>2010-05-22T10:32:41Z</time>
      </trkpt>
      <trkpt lat="45.12259" lon="4.47266">
        <ele>850.15502929688</ele>
        <time>2010-05-22T10:32:44Z</time>
      </trkpt>
      <trkpt lat="45.12246" lon="4.47302">
        <ele>849.04998779297</ele>
        <time>2010-05-22T10:32:47Z</time>
      </trkpt>
      <trkpt lat="45.12254" lon="4.47325">
        <ele>849.05603027344</ele>
        <time>2010-05-22T10:32:49Z</time>
      </trkpt>
      <trkpt lat="45.12251" lon="4.47346">
        <ele>847.98400878906</ele>
        <time>2010-05-22T10:32:51Z</time>
      </trkpt>
      <trkpt lat="45.12233" lon="4.47349">
        <ele>846.92401123047</ele>
        <time>2010-05-22T10:32:53Z</time>
      </trkpt>
      <trkpt lat="45.12206" lon="4.47333">
        <ele>844.80798339844</ele>
        <time>2010-05-22T10:32:56Z</time>
      </trkpt>
      <trkpt lat="45.12175" lon="4.4733">
        <ele>842.81298828125</ele>
        <time>2010-05-22T10:32:59Z</time>
      </trkpt>
      <trkpt lat="45.12157" lon="4.47349">
        <ele>842.01898193359</ele>
        <time>2010-05-22T10:33:01Z</time>
      </trkpt>
      <trkpt lat="45.12152" lon="4.47379">
        <ele>841.34002685547</ele>
        <time>2010-05-22T10:33:03Z</time>
      </trkpt>
      <trkpt lat="45.12142" lon="4.47433">
        <ele>840.52301025391</ele>
        <time>2010-05-22T10:33:07Z</time>
      </trkpt>
      <trkpt lat="45.12125" lon="4.4744">
        <ele>839.72100830078</ele>
        <time>2010-05-22T10:33:09Z</time>
      </trkpt>
      <trkpt lat="45.1211" lon="4.47421">
        <ele>838.79797363281</ele>
        <time>2010-05-22T10:33:11Z</time>
      </trkpt>
      <trkpt lat="45.12106" lon="4.47409">
        <ele>838.11700439453</ele>
        <time>2010-05-22T10:33:12Z</time>
      </trkpt>
      <trkpt lat="45.12092" lon="4.47373">
        <ele>836.62799072266</ele>
        <time>2010-05-22T10:33:15Z</time>
      </trkpt>
      <trkpt lat="45.12086" lon="4.4736">
        <ele>835.75500488281</ele>
        <time>2010-05-22T10:33:16Z</time>
      </trkpt>
      <trkpt lat="45.12055" lon="4.47326">
        <ele>833.48901367188</ele>
        <time>2010-05-22T10:33:20Z</time>
      </trkpt>
      <trkpt lat="45.12035" lon="4.47323">
        <ele>832.90997314453</ele>
        <time>2010-05-22T10:33:22Z</time>
      </trkpt>
      <trkpt lat="45.1197" lon="4.47316">
        <ele>829.13897705078</ele>
        <time>2010-05-22T10:33:28Z</time>
      </trkpt>
      <trkpt lat="45.11913" lon="4.4731">
        <ele>826.88702392578</ele>
        <time>2010-05-22T10:33:33Z</time>
      </trkpt>
      <trkpt lat="45.11901" lon="4.47306">
        <ele>826.60797119141</ele>
        <time>2010-05-22T10:33:34Z</time>
      </trkpt>
      <trkpt lat="45.11847" lon="4.47284">
        <ele>824.02398681641</ele>
        <time>2010-05-22T10:33:39Z</time>
      </trkpt>
      <trkpt lat="45.11827" lon="4.47271">
        <ele>822.83801269531</ele>
        <time>2010-05-22T10:33:41Z</time>
      </trkpt>
      <trkpt lat="45.11806" lon="4.4726">
        <ele>821.93200683594</ele>
        <time>2010-05-22T10:33:43Z</time>
      </trkpt>
      <trkpt lat="45.11741" lon="4.47242">
        <ele>819.73199462891</ele>
        <time>2010-05-22T10:33:49Z</time>
      </trkpt>
      <trkpt lat="45.1172" lon="4.47237">
        <ele>818.5009765625</ele>
        <time>2010-05-22T10:33:51Z</time>
      </trkpt>
      <trkpt lat="45.1168" lon="4.47257">
        <ele>817.17700195312</ele>
        <time>2010-05-22T10:33:55Z</time>
      </trkpt>
      <trkpt lat="45.11637" lon="4.47304">
        <ele>814.85198974609</ele>
        <time>2010-05-22T10:34:00Z</time>
      </trkpt>
      <trkpt lat="45.11619" lon="4.47324">
        <ele>814.60998535156</ele>
        <time>2010-05-22T10:34:02Z</time>
      </trkpt>
      <trkpt lat="45.11604" lon="4.47363">
        <ele>813.42999267578</ele>
        <time>2010-05-22T10:34:05Z</time>
      </trkpt>
      <trkpt lat="45.11603" lon="4.47378">
        <ele>813.31201171875</ele>
        <time>2010-05-22T10:34:06Z</time>
      </trkpt>
      <trkpt lat="45.11589" lon="4.4742">
        <ele>811.97601318359</ele>
        <time>2010-05-22T10:34:10Z</time>
      </trkpt>
      <trkpt lat="45.11573" lon="4.47409">
        <ele>811.79901123047</ele>
        <time>2010-05-22T10:34:12Z</time>
      </trkpt>
      <trkpt lat="45.11547" lon="4.47402">
        <ele>811.03601074219</ele>
        <time>2010-05-22T10:34:15Z</time>
      </trkpt>
      <trkpt lat="45.11539" lon="4.47408">
        <ele>810.46502685547</ele>
        <time>2010-05-22T10:34:16Z</time>
      </trkpt>
      <trkpt lat="45.11513" lon="4.47428">
        <ele>808.56799316406</ele>
        <time>2010-05-22T10:34:19Z</time>
      </trkpt>
      <trkpt lat="45.11493" lon="4.47456">
        <ele>807.51202392578</ele>
        <time>2010-05-22T10:34:22Z</time>
      </trkpt>
      <trkpt lat="45.1148" lon="4.47469">
        <ele>807.05401611328</ele>
        <time>2010-05-22T10:34:24Z</time>
      </trkpt>
      <trkpt lat="45.11464" lon="4.47457">
        <ele>806.10101318359</ele>
        <time>2010-05-22T10:34:26Z</time>
      </trkpt>
      <trkpt lat="45.11417" lon="4.47428">
        <ele>803.11700439453</ele>
        <time>2010-05-22T10:34:31Z</time>
      </trkpt>
      <trkpt lat="45.11388" lon="4.47405">
        <ele>801.28399658203</ele>
        <time>2010-05-22T10:34:34Z</time>
      </trkpt>
      <trkpt lat="45.11368" lon="4.47389">
        <ele>799.92199707031</ele>
        <time>2010-05-22T10:34:36Z</time>
      </trkpt>
      <trkpt lat="45.11348" lon="4.47372">
        <ele>799.11499023438</ele>
        <time>2010-05-22T10:34:38Z</time>
      </trkpt>
      <trkpt lat="45.11327" lon="4.47361">
        <ele>798.22198486328</ele>
        <time>2010-05-22T10:34:40Z</time>
      </trkpt>
      <trkpt lat="45.1129" lon="4.47356">
        <ele>796.65802001953</ele>
        <time>2010-05-22T10:34:43Z</time>
      </trkpt>
      <trkpt lat="45.11218" lon="4.47328">
        <ele>792.56402587891</ele>
        <time>2010-05-22T10:34:49Z</time>
      </trkpt>
      <trkpt lat="45.11187" lon="4.47299">
        <ele>791.67797851562</ele>
        <time>2010-05-22T10:34:52Z</time>
      </trkpt>
      <trkpt lat="45.11167" lon="4.47283">
        <ele>790.90899658203</ele>
        <time>2010-05-22T10:34:54Z</time>
      </trkpt>
      <trkpt lat="45.11145" lon="4.47246">
        <ele>789.90802001953</ele>
        <time>2010-05-22T10:34:57Z</time>
      </trkpt>
      <trkpt lat="45.11127" lon="4.47184">
        <ele>787.833984375</ele>
        <time>2010-05-22T10:35:01Z</time>
      </trkpt>
      <trkpt lat="45.1112" lon="4.47135">
        <ele>786.76501464844</ele>
        <time>2010-05-22T10:35:04Z</time>
      </trkpt>
      <trkpt lat="45.11111" lon="4.47072">
        <ele>784.91998291016</ele>
        <time>2010-05-22T10:35:08Z</time>
      </trkpt>
      <trkpt lat="45.11106" lon="4.47025">
        <ele>782.84301757812</ele>
        <time>2010-05-22T10:35:11Z</time>
      </trkpt>
      <trkpt lat="45.11099" lon="4.46962">
        <ele>780.85302734375</ele>
        <time>2010-05-22T10:35:15Z</time>
      </trkpt>
      <trkpt lat="45.11094" lon="4.46947">
        <ele>780.02398681641</ele>
        <time>2010-05-22T10:35:16Z</time>
      </trkpt>
      <trkpt lat="45.11076" lon="4.46906">
        <ele>778.39099121094</ele>
        <time>2010-05-22T10:35:19Z</time>
      </trkpt>
      <trkpt lat="45.11061" lon="4.46881">
        <ele>777.79602050781</ele>
        <time>2010-05-22T10:35:21Z</time>
      </trkpt>
      <trkpt lat="45.11036" lon="4.46848">
        <ele>776.10797119141</ele>
        <time>2010-05-22T10:35:24Z</time>
      </trkpt>
      <trkpt lat="45.11006" lon="4.4683">
        <ele>774.56799316406</ele>
        <time>2010-05-22T10:35:27Z</time>
      </trkpt>
      <trkpt lat="45.10984" lon="4.46834">
        <ele>773.98999023438</ele>
        <time>2010-05-22T10:35:29Z</time>
      </trkpt>
      <trkpt lat="45.10929" lon="4.46844">
        <ele>771.71801757812</ele>
        <time>2010-05-22T10:35:34Z</time>
      </trkpt>
      <trkpt lat="45.10886" lon="4.46862">
        <ele>771.02697753906</ele>
        <time>2010-05-22T10:35:38Z</time>
      </trkpt>
      <trkpt lat="45.10864" lon="4.46874">
        <ele>769.49499511719</ele>
        <time>2010-05-22T10:35:40Z</time>
      </trkpt>
      <trkpt lat="45.10833" lon="4.46883">
        <ele>768.32000732422</ele>
        <time>2010-05-22T10:35:43Z</time>
      </trkpt>
      <trkpt lat="45.10802" lon="4.46872">
        <ele>767.36401367188</ele>
        <time>2010-05-22T10:35:46Z</time>
      </trkpt>
      <trkpt lat="45.10786" lon="4.4685">
        <ele>766.57501220703</ele>
        <time>2010-05-22T10:35:48Z</time>
      </trkpt>
      <trkpt lat="45.10776" lon="4.46804">
        <ele>765.11602783203</ele>
        <time>2010-05-22T10:35:51Z</time>
      </trkpt>
      <trkpt lat="45.10774" lon="4.4679">
        <ele>764.8330078125</ele>
        <time>2010-05-22T10:35:52Z</time>
      </trkpt>
      <trkpt lat="45.10775" lon="4.46742">
        <ele>763.38500976562</ele>
        <time>2010-05-22T10:35:55Z</time>
      </trkpt>
      <trkpt lat="45.10778" lon="4.46711">
        <ele>762.54901123047</ele>
        <time>2010-05-22T10:35:57Z</time>
      </trkpt>
      <trkpt lat="45.10776" lon="4.4668">
        <ele>761.79998779297</ele>
        <time>2010-05-22T10:35:59Z</time>
      </trkpt>
      <trkpt lat="45.10758" lon="4.46621">
        <ele>760.28198242188</ele>
        <time>2010-05-22T10:36:03Z</time>
      </trkpt>
      <trkpt lat="45.10747" lon="4.46591">
        <ele>759.03198242188</ele>
        <time>2010-05-22T10:36:05Z</time>
      </trkpt>
      <trkpt lat="45.10732" lon="4.46533">
        <ele>756.71697998047</ele>
        <time>2010-05-22T10:36:09Z</time>
      </trkpt>
      <trkpt lat="45.10732" lon="4.46467">
        <ele>754.58801269531</ele>
        <time>2010-05-22T10:36:13Z</time>
      </trkpt>
      <trkpt lat="45.1073" lon="4.46419">
        <ele>753.22802734375</ele>
        <time>2010-05-22T10:36:16Z</time>
      </trkpt>
      <trkpt lat="45.10729" lon="4.46353">
        <ele>751.03302001953</ele>
        <time>2010-05-22T10:36:20Z</time>
      </trkpt>
      <trkpt lat="45.10738" lon="4.46269">
        <ele>748.80200195312</ele>
        <time>2010-05-22T10:36:25Z</time>
      </trkpt>
      <trkpt lat="45.10743" lon="4.46221">
        <ele>747.50500488281</ele>
        <time>2010-05-22T10:36:28Z</time>
      </trkpt>
      <trkpt lat="45.10741" lon="4.46136">
        <ele>745.66998291016</ele>
        <time>2010-05-22T10:36:33Z</time>
      </trkpt>
      <trkpt lat="45.10738" lon="4.46057">
        <ele>743.18902587891</ele>
        <time>2010-05-22T10:36:38Z</time>
      </trkpt>
      <trkpt lat="45.10717" lon="4.46005">
        <ele>740.51202392578</ele>
        <time>2010-05-22T10:36:42Z</time>
      </trkpt>
      <trkpt lat="45.10698" lon="4.45996">
        <ele>739.58697509766</ele>
        <time>2010-05-22T10:36:44Z</time>
      </trkpt>
      <trkpt lat="45.10677" lon="4.46007">
        <ele>738.2509765625</ele>
        <time>2010-05-22T10:36:46Z</time>
      </trkpt>
      <trkpt lat="45.10668" lon="4.46014">
        <ele>737.63299560547</ele>
        <time>2010-05-22T10:36:47Z</time>
      </trkpt>
      <trkpt lat="45.1062" lon="4.46068">
        <ele>733.38500976562</ele>
        <time>2010-05-22T10:36:52Z</time>
      </trkpt>
      <trkpt lat="45.10612" lon="4.4608">
        <ele>733.1669921875</ele>
        <time>2010-05-22T10:36:53Z</time>
      </trkpt>
      <trkpt lat="45.10569" lon="4.46117">
        <ele>730.03698730469</ele>
        <time>2010-05-22T10:36:57Z</time>
      </trkpt>
      <trkpt lat="45.10546" lon="4.46133">
        <ele>728.23699951172</ele>
        <time>2010-05-22T10:36:59Z</time>
      </trkpt>
      <trkpt lat="45.10463" lon="4.46179">
        <ele>722.95300292969</ele>
        <time>2010-05-22T10:37:06Z</time>
      </trkpt>
      <trkpt lat="45.104" lon="4.46211">
        <ele>719.55999755859</ele>
        <time>2010-05-22T10:37:11Z</time>
      </trkpt>
      <trkpt lat="45.1034" lon="4.46235">
        <ele>715.93298339844</ele>
        <time>2010-05-22T10:37:16Z</time>
      </trkpt>
      <trkpt lat="45.10306" lon="4.46254">
        <ele>712.88201904297</ele>
        <time>2010-05-22T10:37:19Z</time>
      </trkpt>
      <trkpt lat="45.10284" lon="4.46265">
        <ele>711.71697998047</ele>
        <time>2010-05-22T10:37:21Z</time>
      </trkpt>
      <trkpt lat="45.10254" lon="4.46288">
        <ele>711.90899658203</ele>
        <time>2010-05-22T10:37:24Z</time>
      </trkpt>
      <trkpt lat="45.10226" lon="4.46315">
        <ele>710.36102294922</ele>
        <time>2010-05-22T10:37:27Z</time>
      </trkpt>
      <trkpt lat="45.10186" lon="4.46348">
        <ele>707.99700927734</ele>
        <time>2010-05-22T10:37:31Z</time>
      </trkpt>
      <trkpt lat="45.10152" lon="4.46345">
        <ele>704.58898925781</ele>
        <time>2010-05-22T10:37:34Z</time>
      </trkpt>
      <trkpt lat="45.10122" lon="4.46342">
        <ele>703.166015625</ele>
        <time>2010-05-22T10:37:37Z</time>
      </trkpt>
      <trkpt lat="45.10113" lon="4.46357">
        <ele>702.95599365234</ele>
        <time>2010-05-22T10:37:39Z</time>
      </trkpt>
      <trkpt lat="45.10117" lon="4.46378">
        <ele>702.15399169922</ele>
        <time>2010-05-22T10:37:41Z</time>
      </trkpt>
      <trkpt lat="45.10124" lon="4.464">
        <ele>701.59399414062</ele>
        <time>2010-05-22T10:37:43Z</time>
      </trkpt>
      <trkpt lat="45.10134" lon="4.46422">
        <ele>701.06799316406</ele>
        <time>2010-05-22T10:37:45Z</time>
      </trkpt>
      <trkpt lat="45.10151" lon="4.46507">
        <ele>698.92602539062</ele>
        <time>2010-05-22T10:37:51Z</time>
      </trkpt>
      <trkpt lat="45.10153" lon="4.46521">
        <ele>698.72998046875</ele>
        <time>2010-05-22T10:37:52Z</time>
      </trkpt>
      <trkpt lat="45.10148" lon="4.46578">
        <ele>696.54998779297</ele>
        <time>2010-05-22T10:37:56Z</time>
      </trkpt>
      <trkpt lat="45.10129" lon="4.46646">
        <ele>694.42901611328</ele>
        <time>2010-05-22T10:38:01Z</time>
      </trkpt>
      <trkpt lat="45.10125" lon="4.4666">
        <ele>694.26300048828</ele>
        <time>2010-05-22T10:38:02Z</time>
      </trkpt>
      <trkpt lat="45.10123" lon="4.46717">
        <ele>693.72900390625</ele>
        <time>2010-05-22T10:38:06Z</time>
      </trkpt>
      <trkpt lat="45.10117" lon="4.46745">
        <ele>693.57098388672</ele>
        <time>2010-05-22T10:38:08Z</time>
      </trkpt>
      <trkpt lat="45.1011" lon="4.46754">
        <ele>693.24401855469</ele>
        <time>2010-05-22T10:38:09Z</time>
      </trkpt>
      <trkpt lat="45.10089" lon="4.46787">
        <ele>691.88299560547</ele>
        <time>2010-05-22T10:38:12Z</time>
      </trkpt>
      <trkpt lat="45.10062" lon="4.46854">
        <ele>690.16497802734</ele>
        <time>2010-05-22T10:38:17Z</time>
      </trkpt>
      <trkpt lat="45.10049" lon="4.46912">
        <ele>688.07000732422</ele>
        <time>2010-05-22T10:38:21Z</time>
      </trkpt>
      <trkpt lat="45.10034" lon="4.46997">
        <ele>686.79998779297</ele>
        <time>2010-05-22T10:38:27Z</time>
      </trkpt>
      <trkpt lat="45.1001" lon="4.47078">
        <ele>685.74401855469</ele>
        <time>2010-05-22T10:38:33Z</time>
      </trkpt>
      <trkpt lat="45.10004" lon="4.47091">
        <ele>685.23901367188</ele>
        <time>2010-05-22T10:38:34Z</time>
      </trkpt>
      <trkpt lat="45.09967" lon="4.47142">
        <ele>684.22802734375</ele>
        <time>2010-05-22T10:38:39Z</time>
      </trkpt>
      <trkpt lat="45.09942" lon="4.47168">
        <ele>682.84698486328</ele>
        <time>2010-05-22T10:38:42Z</time>
      </trkpt>
      <trkpt lat="45.09906" lon="4.47218">
        <ele>681.32397460938</ele>
        <time>2010-05-22T10:38:47Z</time>
      </trkpt>
      <trkpt lat="45.09893" lon="4.47239">
        <ele>680.42602539062</ele>
        <time>2010-05-22T10:38:49Z</time>
      </trkpt>
      <trkpt lat="45.09873" lon="4.47284">
        <ele>680.02301025391</ele>
        <time>2010-05-22T10:38:53Z</time>
      </trkpt>
      <trkpt lat="45.09858" lon="4.47346">
        <ele>679.21801757812</ele>
        <time>2010-05-22T10:38:58Z</time>
      </trkpt>
      <trkpt lat="45.09845" lon="4.47426">
        <ele>678.41400146484</ele>
        <time>2010-05-22T10:39:04Z</time>
      </trkpt>
      <trkpt lat="45.09836" lon="4.47465">
        <ele>677.57202148438</ele>
        <time>2010-05-22T10:39:07Z</time>
      </trkpt>
      <trkpt lat="45.09813" lon="4.47509">
        <ele>676.79901123047</ele>
        <time>2010-05-22T10:39:11Z</time>
      </trkpt>
      <trkpt lat="45.09749" lon="4.47576">
        <ele>674.51800537109</ele>
        <time>2010-05-22T10:39:19Z</time>
      </trkpt>
      <trkpt lat="45.09713" lon="4.47601">
        <ele>673.56097412109</ele>
        <time>2010-05-22T10:39:23Z</time>
      </trkpt>
      <trkpt lat="45.09638" lon="4.47648">
        <ele>670.40197753906</ele>
        <time>2010-05-22T10:39:31Z</time>
      </trkpt>
      <trkpt lat="45.09573" lon="4.47684">
        <ele>667.99499511719</ele>
        <time>2010-05-22T10:39:38Z</time>
      </trkpt>
      <trkpt lat="45.09531" lon="4.47698">
        <ele>667.94000244141</ele>
        <time>2010-05-22T10:39:43Z</time>
      </trkpt>
      <trkpt lat="45.09515" lon="4.47703">
        <ele>668.73297119141</ele>
        <time>2010-05-22T10:39:46Z</time>
      </trkpt>
      <trkpt lat="45.09497" lon="4.47692">
        <ele>667.85797119141</ele>
        <time>2010-05-22T10:39:50Z</time>
      </trkpt>
      <trkpt lat="45.09488" lon="4.47664">
        <ele>667.79901123047</ele>
        <time>2010-05-22T10:39:53Z</time>
      </trkpt>
      <trkpt lat="45.09469" lon="4.47631">
        <ele>667.59899902344</ele>
        <time>2010-05-22T10:39:57Z</time>
      </trkpt>
      <trkpt lat="45.09462" lon="4.47632">
        <ele>667.39300537109</ele>
        <time>2010-05-22T10:39:58Z</time>
      </trkpt>
      <trkpt lat="45.09451" lon="4.47636">
        <ele>666.76501464844</ele>
        <time>2010-05-22T10:40:00Z</time>
      </trkpt>
      <trkpt lat="45.09439" lon="4.47648">
        <ele>668.28698730469</ele>
        <time>2010-05-22T10:40:04Z</time>
      </trkpt>
      <trkpt lat="45.09438" lon="4.4765">
        <ele>668.78100585938</ele>
        <time>2010-05-22T10:40:07Z</time>
      </trkpt>
      <trkpt lat="45.09436" lon="4.47652">
        <ele>668.38800048828</ele>
        <time>2010-05-22T10:41:24Z</time>
      </trkpt>
      <trkpt lat="45.09436" lon="4.47653">
        <ele>668.42102050781</ele>
        <time>2010-05-22T10:41:25Z</time>
      </trkpt>
      <trkpt lat="45.09436" lon="4.47656">
        <ele>668.32897949219</ele>
        <time>2010-05-22T10:41:27Z</time>
      </trkpt>
      <trkpt lat="45.09437" lon="4.47652">
        <ele>667.13897705078</ele>
        <time>2010-05-22T10:48:45Z</time>
      </trkpt>
      <trkpt lat="45.09437" lon="4.47649">
        <ele>667.03698730469</ele>
        <time>2010-05-22T10:48:49Z</time>
      </trkpt>
      <trkpt lat="45.09436" lon="4.47651">
        <ele>666.71697998047</ele>
        <time>2010-05-22T10:48:59Z</time>
      </trkpt>
      <trkpt lat="45.09435" lon="4.47651">
        <ele>666.67401123047</ele>
        <time>2010-05-22T10:49:00Z</time>
      </trkpt>
      <trkpt lat="45.09434" lon="4.47652">
        <ele>666.66998291016</ele>
        <time>2010-05-22T10:49:04Z</time>
      </trkpt>
      <trkpt lat="45.09433" lon="4.47657">
        <ele>666.96697998047</ele>
        <time>2010-05-22T10:49:23Z</time>
      </trkpt>
      <trkpt lat="45.09428" lon="4.47652">
        <ele>667.15002441406</ele>
        <time>2010-05-22T10:49:37Z</time>
      </trkpt>
      <trkpt lat="45.0943" lon="4.47647">
        <ele>666.7919921875</ele>
        <time>2010-05-22T10:50:19Z</time>
      </trkpt>
      <trkpt lat="45.0943" lon="4.47647">
        <ele>666.77801513672</ele>
        <time>2010-05-22T10:50:20Z</time>
      </trkpt>
      <trkpt lat="45.09422" lon="4.47664">
        <ele>666.29901123047</ele>
        <time>2010-05-22T10:51:01Z</time>
      </trkpt>
      <trkpt lat="45.09425" lon="4.4766">
        <ele>666.82000732422</ele>
        <time>2010-05-22T10:51:05Z</time>
      </trkpt>
      <trkpt lat="45.09425" lon="4.47659">
        <ele>666.82000732422</ele>
        <time>2010-05-22T10:51:06Z</time>
      </trkpt>
      <trkpt lat="45.09428" lon="4.47648">
        <ele>666.24597167969</ele>
        <time>2010-05-22T10:51:34Z</time>
      </trkpt>
      <trkpt lat="45.09426" lon="4.4765">
        <ele>666.0419921875</ele>
        <time>2010-05-22T10:51:37Z</time>
      </trkpt>
      <trkpt lat="45.09423" lon="4.47652">
        <ele>665.66802978516</ele>
        <time>2010-05-22T10:51:42Z</time>
      </trkpt>
      <trkpt lat="45.09421" lon="4.47653">
        <ele>665.64398193359</ele>
        <time>2010-05-22T10:51:48Z</time>
      </trkpt>
      <trkpt lat="45.09409" lon="4.47654">
        <ele>665.16400146484</ele>
        <time>2010-05-22T10:51:54Z</time>
      </trkpt>
      <trkpt lat="45.09394" lon="4.47655">
        <ele>664.57501220703</ele>
        <time>2010-05-22T10:51:58Z</time>
      </trkpt>
      <trkpt lat="45.09373" lon="4.47653">
        <ele>664.375</ele>
        <time>2010-05-22T10:52:03Z</time>
      </trkpt>
      <trkpt lat="45.09351" lon="4.47642">
        <ele>663.63397216797</ele>
        <time>2010-05-22T10:52:08Z</time>
      </trkpt>
      <trkpt lat="45.09325" lon="4.476">
        <ele>662.54797363281</ele>
        <time>2010-05-22T10:52:16Z</time>
      </trkpt>
      <trkpt lat="45.09296" lon="4.47552">
        <ele>661.3330078125</ele>
        <time>2010-05-22T10:52:24Z</time>
      </trkpt>
      <trkpt lat="45.09282" lon="4.47528">
        <ele>660.41400146484</ele>
        <time>2010-05-22T10:52:28Z</time>
      </trkpt>
      <trkpt lat="45.0927" lon="4.47508">
        <ele>660.24597167969</ele>
        <time>2010-05-22T10:52:32Z</time>
      </trkpt>
      <trkpt lat="45.09267" lon="4.47503">
        <ele>660.28698730469</ele>
        <time>2010-05-22T10:52:33Z</time>
      </trkpt>
      <trkpt lat="45.09252" lon="4.47483">
        <ele>660.39398193359</ele>
        <time>2010-05-22T10:52:37Z</time>
      </trkpt>
      <trkpt lat="45.09226" lon="4.47472">
        <ele>659.94702148438</ele>
        <time>2010-05-22T10:52:42Z</time>
      </trkpt>
      <trkpt lat="45.09188" lon="4.47462">
        <ele>659.19097900391</ele>
        <time>2010-05-22T10:52:49Z</time>
      </trkpt>
      <trkpt lat="45.09163" lon="4.47462">
        <ele>659.08697509766</ele>
        <time>2010-05-22T10:52:54Z</time>
      </trkpt>
      <trkpt lat="45.09121" lon="4.47464">
        <ele>659.61297607422</ele>
        <time>2010-05-22T10:53:02Z</time>
      </trkpt>
      <trkpt lat="45.09081" lon="4.47475">
        <ele>659.95098876953</ele>
        <time>2010-05-22T10:53:09Z</time>
      </trkpt>
      <trkpt lat="45.09058" lon="4.47485">
        <ele>659.88397216797</ele>
        <time>2010-05-22T10:53:13Z</time>
      </trkpt>
      <trkpt lat="45.09047" lon="4.47489">
        <ele>659.75402832031</ele>
        <time>2010-05-22T10:53:15Z</time>
      </trkpt>
      <trkpt lat="45.09039" lon="4.47494">
        <ele>659.57800292969</ele>
        <time>2010-05-22T10:53:16Z</time>
      </trkpt>
      <trkpt lat="45.09013" lon="4.47482">
        <ele>659.35797119141</ele>
        <time>2010-05-22T10:53:20Z</time>
      </trkpt>
      <trkpt lat="45.09003" lon="4.4747">
        <ele>659.30902099609</ele>
        <time>2010-05-22T10:53:22Z</time>
      </trkpt>
      <trkpt lat="45.08961" lon="4.47423">
        <ele>658.09399414062</ele>
        <time>2010-05-22T10:53:30Z</time>
      </trkpt>
      <trkpt lat="45.0895" lon="4.47413">
        <ele>657.93298339844</ele>
        <time>2010-05-22T10:53:32Z</time>
      </trkpt>
      <trkpt lat="45.08917" lon="4.47401">
        <ele>657.36602783203</ele>
        <time>2010-05-22T10:53:37Z</time>
      </trkpt>
      <trkpt lat="45.08883" lon="4.47396">
        <ele>656.45001220703</ele>
        <time>2010-05-22T10:53:42Z</time>
      </trkpt>
      <trkpt lat="45.08841" lon="4.47407">
        <ele>655.54498291016</ele>
        <time>2010-05-22T10:53:48Z</time>
      </trkpt>
      <trkpt lat="45.08815" lon="4.47415">
        <ele>655.45098876953</ele>
        <time>2010-05-22T10:53:52Z</time>
      </trkpt>
      <trkpt lat="45.08792" lon="4.47438">
        <ele>655.30102539062</ele>
        <time>2010-05-22T10:53:56Z</time>
      </trkpt>
      <trkpt lat="45.08788" lon="4.47459">
        <ele>655.02301025391</ele>
        <time>2010-05-22T10:53:58Z</time>
      </trkpt>
      <trkpt lat="45.08773" lon="4.47521">
        <ele>653.21002197266</ele>
        <time>2010-05-22T10:54:04Z</time>
      </trkpt>
      <trkpt lat="45.08741" lon="4.47597">
        <ele>651.10601806641</ele>
        <time>2010-05-22T10:54:12Z</time>
      </trkpt>
      <trkpt lat="45.08715" lon="4.47633">
        <ele>650.82202148438</ele>
        <time>2010-05-22T10:54:17Z</time>
      </trkpt>
      <trkpt lat="45.08688" lon="4.4767">
        <ele>649.72198486328</ele>
        <time>2010-05-22T10:54:22Z</time>
      </trkpt>
      <trkpt lat="45.08653" lon="4.47715">
        <ele>649.05700683594</ele>
        <time>2010-05-22T10:54:28Z</time>
      </trkpt>
      <trkpt lat="45.08623" lon="4.47766">
        <ele>648.22802734375</ele>
        <time>2010-05-22T10:54:34Z</time>
      </trkpt>
      <trkpt lat="45.0861" lon="4.47796">
        <ele>647.83197021484</ele>
        <time>2010-05-22T10:54:37Z</time>
      </trkpt>
      <trkpt lat="45.08578" lon="4.4785">
        <ele>645.916015625</ele>
        <time>2010-05-22T10:54:43Z</time>
      </trkpt>
      <trkpt lat="45.08545" lon="4.47889">
        <ele>643.25201416016</ele>
        <time>2010-05-22T10:54:48Z</time>
      </trkpt>
      <trkpt lat="45.0851" lon="4.47922">
        <ele>642.46899414062</ele>
        <time>2010-05-22T10:54:53Z</time>
      </trkpt>
      <trkpt lat="45.08476" lon="4.47933">
        <ele>642.15399169922</ele>
        <time>2010-05-22T10:54:57Z</time>
      </trkpt>
      <trkpt lat="45.08441" lon="4.47925">
        <ele>641.69299316406</ele>
        <time>2010-05-22T10:55:01Z</time>
      </trkpt>
      <trkpt lat="45.08421" lon="4.47898">
        <ele>640.97601318359</ele>
        <time>2010-05-22T10:55:04Z</time>
      </trkpt>
      <trkpt lat="45.08405" lon="4.47886">
        <ele>640.02899169922</ele>
        <time>2010-05-22T10:55:06Z</time>
      </trkpt>
      <trkpt lat="45.08395" lon="4.47884">
        <ele>639.73297119141</ele>
        <time>2010-05-22T10:55:07Z</time>
      </trkpt>
      <trkpt lat="45.0837" lon="4.47896">
        <ele>639.458984375</ele>
        <time>2010-05-22T10:55:10Z</time>
      </trkpt>
      <trkpt lat="45.08355" lon="4.47926">
        <ele>638.78399658203</ele>
        <time>2010-05-22T10:55:13Z</time>
      </trkpt>
      <trkpt lat="45.08353" lon="4.47937">
        <ele>638.65399169922</ele>
        <time>2010-05-22T10:55:14Z</time>
      </trkpt>
      <trkpt lat="45.08348" lon="4.4797">
        <ele>638.42199707031</ele>
        <time>2010-05-22T10:55:17Z</time>
      </trkpt>
      <trkpt lat="45.08336" lon="4.48007">
        <ele>638.84100341797</ele>
        <time>2010-05-22T10:55:21Z</time>
      </trkpt>
      <trkpt lat="45.083" lon="4.48083">
        <ele>638.72302246094</ele>
        <time>2010-05-22T10:55:30Z</time>
      </trkpt>
      <trkpt lat="45.08264" lon="4.48153">
        <ele>636.71801757812</ele>
        <time>2010-05-22T10:55:38Z</time>
      </trkpt>
      <trkpt lat="45.08241" lon="4.48214">
        <ele>636.65502929688</ele>
        <time>2010-05-22T10:55:44Z</time>
      </trkpt>
      <trkpt lat="45.08213" lon="4.483">
        <ele>634.76702880859</ele>
        <time>2010-05-22T10:55:52Z</time>
      </trkpt>
      <trkpt lat="45.08191" lon="4.48377">
        <ele>632.50598144531</ele>
        <time>2010-05-22T10:55:59Z</time>
      </trkpt>
      <trkpt lat="45.08175" lon="4.48443">
        <ele>632.03698730469</ele>
        <time>2010-05-22T10:56:05Z</time>
      </trkpt>
      <trkpt lat="45.08162" lon="4.48523">
        <ele>630.96997070312</ele>
        <time>2010-05-22T10:56:12Z</time>
      </trkpt>
      <trkpt lat="45.08148" lon="4.48606">
        <ele>630.23199462891</ele>
        <time>2010-05-22T10:56:19Z</time>
      </trkpt>
      <trkpt lat="45.08132" lon="4.48688">
        <ele>629.07598876953</ele>
        <time>2010-05-22T10:56:26Z</time>
      </trkpt>
      <trkpt lat="45.0813" lon="4.487">
        <ele>628.96099853516</ele>
        <time>2010-05-22T10:56:27Z</time>
      </trkpt>
      <trkpt lat="45.08126" lon="4.48784">
        <ele>627.36199951172</ele>
        <time>2010-05-22T10:56:34Z</time>
      </trkpt>
      <trkpt lat="45.08126" lon="4.48808">
        <ele>627.07702636719</ele>
        <time>2010-05-22T10:56:36Z</time>
      </trkpt>
      <trkpt lat="45.08117" lon="4.48865">
        <ele>626.86901855469</ele>
        <time>2010-05-22T10:56:41Z</time>
      </trkpt>
      <trkpt lat="45.08113" lon="4.48876">
        <ele>626.72601318359</ele>
        <time>2010-05-22T10:56:42Z</time>
      </trkpt>
      <trkpt lat="45.08088" lon="4.48949">
        <ele>625.47601318359</ele>
        <time>2010-05-22T10:56:49Z</time>
      </trkpt>
      <trkpt lat="45.0806" lon="4.48993">
        <ele>625.24102783203</ele>
        <time>2010-05-22T10:56:54Z</time>
      </trkpt>
      <trkpt lat="45.08035" lon="4.49029">
        <ele>624.50897216797</ele>
        <time>2010-05-22T10:56:58Z</time>
      </trkpt>
      <trkpt lat="45.08004" lon="4.49048">
        <ele>623.15899658203</ele>
        <time>2010-05-22T10:57:02Z</time>
      </trkpt>
      <trkpt lat="45.07987" lon="4.49041">
        <ele>622.52899169922</ele>
        <time>2010-05-22T10:57:04Z</time>
      </trkpt>
      <trkpt lat="45.07919" lon="4.49003">
        <ele>621.34997558594</ele>
        <time>2010-05-22T10:57:13Z</time>
      </trkpt>
      <trkpt lat="45.07877" lon="4.48995">
        <ele>620.76599121094</ele>
        <time>2010-05-22T10:57:18Z</time>
      </trkpt>
      <trkpt lat="45.07848" lon="4.49011">
        <ele>619.87097167969</ele>
        <time>2010-05-22T10:57:22Z</time>
      </trkpt>
      <trkpt lat="45.07834" lon="4.49039">
        <ele>619.64801025391</ele>
        <time>2010-05-22T10:57:25Z</time>
      </trkpt>
      <trkpt lat="45.07809" lon="4.49108">
        <ele>618.5009765625</ele>
        <time>2010-05-22T10:57:31Z</time>
      </trkpt>
      <trkpt lat="45.07784" lon="4.49134">
        <ele>617.14697265625</ele>
        <time>2010-05-22T10:57:35Z</time>
      </trkpt>
      <trkpt lat="45.07767" lon="4.49127">
        <ele>617.41802978516</ele>
        <time>2010-05-22T10:57:37Z</time>
      </trkpt>
      <trkpt lat="45.07725" lon="4.49086">
        <ele>616.61102294922</ele>
        <time>2010-05-22T10:57:43Z</time>
      </trkpt>
      <trkpt lat="45.07711" lon="4.49072">
        <ele>615.86199951172</ele>
        <time>2010-05-22T10:57:45Z</time>
      </trkpt>
      <trkpt lat="45.07693" lon="4.49044">
        <ele>615.11401367188</ele>
        <time>2010-05-22T10:57:48Z</time>
      </trkpt>
      <trkpt lat="45.07658" lon="4.49008">
        <ele>615.18200683594</ele>
        <time>2010-05-22T10:57:53Z</time>
      </trkpt>
      <trkpt lat="45.07625" lon="4.48999">
        <ele>614.40399169922</ele>
        <time>2010-05-22T10:57:57Z</time>
      </trkpt>
      <trkpt lat="45.076" lon="4.49007">
        <ele>614.125</ele>
        <time>2010-05-22T10:58:00Z</time>
      </trkpt>
      <trkpt lat="45.07567" lon="4.49027">
        <ele>613.65899658203</ele>
        <time>2010-05-22T10:58:04Z</time>
      </trkpt>
      <trkpt lat="45.07546" lon="4.49052">
        <ele>613.35302734375</ele>
        <time>2010-05-22T10:58:07Z</time>
      </trkpt>
      <trkpt lat="45.07533" lon="4.49087">
        <ele>612.49798583984</ele>
        <time>2010-05-22T10:58:10Z</time>
      </trkpt>
      <trkpt lat="45.07521" lon="4.49105">
        <ele>612.20397949219</ele>
        <time>2010-05-22T10:58:12Z</time>
      </trkpt>
      <trkpt lat="45.07483" lon="4.4913">
        <ele>611.76501464844</ele>
        <time>2010-05-22T10:58:17Z</time>
      </trkpt>
      <trkpt lat="45.07462" lon="4.49153">
        <ele>611.3740234375</ele>
        <time>2010-05-22T10:58:20Z</time>
      </trkpt>
      <trkpt lat="45.07456" lon="4.49162">
        <ele>611.22802734375</ele>
        <time>2010-05-22T10:58:21Z</time>
      </trkpt>
      <trkpt lat="45.07427" lon="4.49195">
        <ele>610.15399169922</ele>
        <time>2010-05-22T10:58:25Z</time>
      </trkpt>
      <trkpt lat="45.07406" lon="4.4923">
        <ele>609.73199462891</ele>
        <time>2010-05-22T10:58:29Z</time>
      </trkpt>
      <trkpt lat="45.07375" lon="4.4927">
        <ele>608.95300292969</ele>
        <time>2010-05-22T10:58:34Z</time>
      </trkpt>
      <trkpt lat="45.07342" lon="4.49299">
        <ele>608.75701904297</ele>
        <time>2010-05-22T10:58:39Z</time>
      </trkpt>
      <trkpt lat="45.07301" lon="4.49335">
        <ele>607.65502929688</ele>
        <time>2010-05-22T10:58:45Z</time>
      </trkpt>
      <trkpt lat="45.07277" lon="4.49342">
        <ele>606.666015625</ele>
        <time>2010-05-22T10:58:48Z</time>
      </trkpt>
      <trkpt lat="45.07262" lon="4.49328">
        <ele>606.27099609375</ele>
        <time>2010-05-22T10:58:50Z</time>
      </trkpt>
      <trkpt lat="45.07251" lon="4.49296">
        <ele>606.00402832031</ele>
        <time>2010-05-22T10:58:53Z</time>
      </trkpt>
      <trkpt lat="45.07248" lon="4.49284">
        <ele>605.91198730469</ele>
        <time>2010-05-22T10:58:54Z</time>
      </trkpt>
      <trkpt lat="45.07244" lon="4.49261">
        <ele>605.31799316406</ele>
        <time>2010-05-22T10:58:56Z</time>
      </trkpt>
      <trkpt lat="45.0724" lon="4.49175">
        <ele>605.02301025391</ele>
        <time>2010-05-22T10:59:03Z</time>
      </trkpt>
      <trkpt lat="45.07241" lon="4.49097">
        <ele>604.18597412109</ele>
        <time>2010-05-22T10:59:09Z</time>
      </trkpt>
      <trkpt lat="45.07241" lon="4.49083">
        <ele>603.87799072266</ele>
        <time>2010-05-22T10:59:10Z</time>
      </trkpt>
      <trkpt lat="45.07228" lon="4.49032">
        <ele>602.65197753906</ele>
        <time>2010-05-22T10:59:14Z</time>
      </trkpt>
      <trkpt lat="45.07223" lon="4.49021">
        <ele>602.43200683594</ele>
        <time>2010-05-22T10:59:15Z</time>
      </trkpt>
      <trkpt lat="45.0721" lon="4.48973">
        <ele>602.16900634766</ele>
        <time>2010-05-22T10:59:19Z</time>
      </trkpt>
      <trkpt lat="45.07181" lon="4.48909">
        <ele>600.74798583984</ele>
        <time>2010-05-22T10:59:25Z</time>
      </trkpt>
      <trkpt lat="45.07157" lon="4.48871">
        <ele>600.15997314453</ele>
        <time>2010-05-22T10:59:29Z</time>
      </trkpt>
      <trkpt lat="45.07128" lon="4.48845">
        <ele>599.89001464844</ele>
        <time>2010-05-22T10:59:33Z</time>
      </trkpt>
      <trkpt lat="45.07084" lon="4.48829">
        <ele>598.46502685547</ele>
        <time>2010-05-22T10:59:38Z</time>
      </trkpt>
      <trkpt lat="45.0703" lon="4.4883">
        <ele>597.81500244141</ele>
        <time>2010-05-22T10:59:44Z</time>
      </trkpt>
      <trkpt lat="45.07005" lon="4.48831">
        <ele>597.583984375</ele>
        <time>2010-05-22T10:59:47Z</time>
      </trkpt>
      <trkpt lat="45.06979" lon="4.4885">
        <ele>597.18798828125</ele>
        <time>2010-05-22T10:59:50Z</time>
      </trkpt>
      <trkpt lat="45.06974" lon="4.4886">
        <ele>596.94702148438</ele>
        <time>2010-05-22T10:59:51Z</time>
      </trkpt>
      <trkpt lat="45.06939" lon="4.48898">
        <ele>595.68298339844</ele>
        <time>2010-05-22T10:59:56Z</time>
      </trkpt>
      <trkpt lat="45.06888" lon="4.48927">
        <ele>594.14202880859</ele>
        <time>2010-05-22T11:00:02Z</time>
      </trkpt>
      <trkpt lat="45.06872" lon="4.48938">
        <ele>593.10998535156</ele>
        <time>2010-05-22T11:00:04Z</time>
      </trkpt>
      <trkpt lat="45.06811" lon="4.48988">
        <ele>592.91900634766</ele>
        <time>2010-05-22T11:00:12Z</time>
      </trkpt>
      <trkpt lat="45.06796" lon="4.49001">
        <ele>592.71899414062</ele>
        <time>2010-05-22T11:00:14Z</time>
      </trkpt>
      <trkpt lat="45.06766" lon="4.49025">
        <ele>592.18103027344</ele>
        <time>2010-05-22T11:00:18Z</time>
      </trkpt>
      <trkpt lat="45.0675" lon="4.49057">
        <ele>591.00201416016</ele>
        <time>2010-05-22T11:00:21Z</time>
      </trkpt>
      <trkpt lat="45.06723" lon="4.49081">
        <ele>590.01397705078</ele>
        <time>2010-05-22T11:00:25Z</time>
      </trkpt>
      <trkpt lat="45.06677" lon="4.49107">
        <ele>587.95397949219</ele>
        <time>2010-05-22T11:00:31Z</time>
      </trkpt>
      <trkpt lat="45.06638" lon="4.49132">
        <ele>588.32501220703</ele>
        <time>2010-05-22T11:00:36Z</time>
      </trkpt>
      <trkpt lat="45.06603" lon="4.49168">
        <ele>587.89599609375</ele>
        <time>2010-05-22T11:00:41Z</time>
      </trkpt>
      <trkpt lat="45.06551" lon="4.49217">
        <ele>587.03900146484</ele>
        <time>2010-05-22T11:00:48Z</time>
      </trkpt>
      <trkpt lat="45.06512" lon="4.49269">
        <ele>586.26397705078</ele>
        <time>2010-05-22T11:00:54Z</time>
      </trkpt>
      <trkpt lat="45.06483" lon="4.49318">
        <ele>585.00299072266</ele>
        <time>2010-05-22T11:00:59Z</time>
      </trkpt>
      <trkpt lat="45.06457" lon="4.4937">
        <ele>583.958984375</ele>
        <time>2010-05-22T11:01:04Z</time>
      </trkpt>
      <trkpt lat="45.06438" lon="4.49413">
        <ele>583.875</ele>
        <time>2010-05-22T11:01:08Z</time>
      </trkpt>
      <trkpt lat="45.0641" lon="4.49441">
        <ele>582.52398681641</ele>
        <time>2010-05-22T11:01:12Z</time>
      </trkpt>
      <trkpt lat="45.06381" lon="4.49442">
        <ele>582.06201171875</ele>
        <time>2010-05-22T11:01:15Z</time>
      </trkpt>
      <trkpt lat="45.06371" lon="4.4944">
        <ele>581.99102783203</ele>
        <time>2010-05-22T11:01:16Z</time>
      </trkpt>
      <trkpt lat="45.06299" lon="4.49428">
        <ele>578.76000976562</ele>
        <time>2010-05-22T11:01:24Z</time>
      </trkpt>
      <trkpt lat="45.0629" lon="4.49429">
        <ele>578.76300048828</ele>
        <time>2010-05-22T11:01:25Z</time>
      </trkpt>
      <trkpt lat="45.0622" lon="4.49429">
        <ele>578.48901367188</ele>
        <time>2010-05-22T11:01:33Z</time>
      </trkpt>
      <trkpt lat="45.06161" lon="4.49415">
        <ele>577.32098388672</ele>
        <time>2010-05-22T11:01:40Z</time>
      </trkpt>
      <trkpt lat="45.06129" lon="4.49397">
        <ele>576.43701171875</ele>
        <time>2010-05-22T11:01:44Z</time>
      </trkpt>
      <trkpt lat="45.06094" lon="4.49392">
        <ele>574.77600097656</ele>
        <time>2010-05-22T11:01:48Z</time>
      </trkpt>
      <trkpt lat="45.06078" lon="4.49403">
        <ele>575.06500244141</ele>
        <time>2010-05-22T11:01:50Z</time>
      </trkpt>
      <trkpt lat="45.06036" lon="4.4943">
        <ele>572.84100341797</ele>
        <time>2010-05-22T11:01:55Z</time>
      </trkpt>
      <trkpt lat="45.05996" lon="4.49439">
        <ele>570.49798583984</ele>
        <time>2010-05-22T11:01:59Z</time>
      </trkpt>
      <trkpt lat="45.05945" lon="4.4945">
        <ele>567.15502929688</ele>
        <time>2010-05-22T11:02:04Z</time>
      </trkpt>
      <trkpt lat="45.059" lon="4.49461">
        <ele>567.90802001953</ele>
        <time>2010-05-22T11:02:09Z</time>
      </trkpt>
      <trkpt lat="45.05874" lon="4.49485">
        <ele>568.26202392578</ele>
        <time>2010-05-22T11:02:13Z</time>
      </trkpt>
      <trkpt lat="45.05849" lon="4.49515">
        <ele>569.11102294922</ele>
        <time>2010-05-22T11:02:18Z</time>
      </trkpt>
      <trkpt lat="45.0582" lon="4.49539">
        <ele>570.50201416016</ele>
        <time>2010-05-22T11:02:24Z</time>
      </trkpt>
      <trkpt lat="45.05806" lon="4.4955">
        <ele>571.375</ele>
        <time>2010-05-22T11:02:27Z</time>
      </trkpt>
      <trkpt lat="45.05793" lon="4.49562">
        <ele>571.93798828125</ele>
        <time>2010-05-22T11:02:30Z</time>
      </trkpt>
      <trkpt lat="45.05764" lon="4.49586">
        <ele>571.79302978516</ele>
        <time>2010-05-22T11:02:36Z</time>
      </trkpt>
      <trkpt lat="45.0574" lon="4.49615">
        <ele>572.13397216797</ele>
        <time>2010-05-22T11:02:42Z</time>
      </trkpt>
      <trkpt lat="45.05717" lon="4.49647">
        <ele>573.14202880859</ele>
        <time>2010-05-22T11:02:48Z</time>
      </trkpt>
      <trkpt lat="45.05714" lon="4.49652">
        <ele>573.03997802734</ele>
        <time>2010-05-22T11:02:49Z</time>
      </trkpt>
      <trkpt lat="45.05702" lon="4.4967">
        <ele>572.86700439453</ele>
        <time>2010-05-22T11:02:53Z</time>
      </trkpt>
      <trkpt lat="45.05693" lon="4.49689">
        <ele>574.02801513672</ele>
        <time>2010-05-22T11:02:57Z</time>
      </trkpt>
      <trkpt lat="45.05696" lon="4.49695">
        <ele>574.34698486328</ele>
        <time>2010-05-22T11:03:00Z</time>
      </trkpt>
      <trkpt lat="45.05702" lon="4.49686">
        <ele>572.96502685547</ele>
        <time>2010-05-22T11:03:02Z</time>
      </trkpt>
      <trkpt lat="45.05729" lon="4.49658">
        <ele>568.39202880859</ele>
        <time>2010-05-22T11:03:06Z</time>
      </trkpt>
      <trkpt lat="45.05764" lon="4.49625">
        <ele>562.90899658203</ele>
        <time>2010-05-22T11:03:10Z</time>
      </trkpt>
      <trkpt lat="45.05781" lon="4.49611">
        <ele>560.52398681641</ele>
        <time>2010-05-22T11:03:12Z</time>
      </trkpt>
      <trkpt lat="45.05811" lon="4.49606">
        <ele>559.11700439453</ele>
        <time>2010-05-22T11:03:16Z</time>
      </trkpt>
      <trkpt lat="45.05818" lon="4.49621">
        <ele>559.88201904297</ele>
        <time>2010-05-22T11:03:18Z</time>
      </trkpt>
      <trkpt lat="45.05833" lon="4.49666">
        <ele>560.22399902344</ele>
        <time>2010-05-22T11:03:24Z</time>
      </trkpt>
      <trkpt lat="45.05828" lon="4.49694">
        <ele>559.90802001953</ele>
        <time>2010-05-22T11:03:28Z</time>
      </trkpt>
      <trkpt lat="45.05817" lon="4.49719">
        <ele>560.40899658203</ele>
        <time>2010-05-22T11:03:32Z</time>
      </trkpt>
      <trkpt lat="45.0581" lon="4.49743">
        <ele>561.64599609375</ele>
        <time>2010-05-22T11:03:36Z</time>
      </trkpt>
      <trkpt lat="45.05807" lon="4.49755">
        <ele>561.84899902344</ele>
        <time>2010-05-22T11:03:38Z</time>
      </trkpt>
      <trkpt lat="45.05801" lon="4.49788">
        <ele>564.13702392578</ele>
        <time>2010-05-22T11:03:44Z</time>
      </trkpt>
      <trkpt lat="45.058" lon="4.49792">
        <ele>564.36297607422</ele>
        <time>2010-05-22T11:03:45Z</time>
      </trkpt>
      <trkpt lat="45.05799" lon="4.49814">
        <ele>565.88397216797</ele>
        <time>2010-05-22T11:03:50Z</time>
      </trkpt>
      <trkpt lat="45.05798" lon="4.49833">
        <ele>567.33898925781</ele>
        <time>2010-05-22T11:03:55Z</time>
      </trkpt>
      <trkpt lat="45.05792" lon="4.49853">
        <ele>567.88000488281</ele>
        <time>2010-05-22T11:04:00Z</time>
      </trkpt>
      <trkpt lat="45.05787" lon="4.49869">
        <ele>568.82598876953</ele>
        <time>2010-05-22T11:04:05Z</time>
      </trkpt>
      <trkpt lat="45.05785" lon="4.49888">
        <ele>569.25500488281</ele>
        <time>2010-05-22T11:04:11Z</time>
      </trkpt>
      <trkpt lat="45.05785" lon="4.49912">
        <ele>571.08099365234</ele>
        <time>2010-05-22T11:04:18Z</time>
      </trkpt>
      <trkpt lat="45.05788" lon="4.49935">
        <ele>572.51501464844</ele>
        <time>2010-05-22T11:04:25Z</time>
      </trkpt>
      <trkpt lat="45.05788" lon="4.49958">
        <ele>574.21600341797</ele>
        <time>2010-05-22T11:04:32Z</time>
      </trkpt>
      <trkpt lat="45.05788" lon="4.49979">
        <ele>576.11602783203</ele>
        <time>2010-05-22T11:04:39Z</time>
      </trkpt>
      <trkpt lat="45.0579" lon="4.50003">
        <ele>578.30700683594</ele>
        <time>2010-05-22T11:04:47Z</time>
      </trkpt>
      <trkpt lat="45.05794" lon="4.50024">
        <ele>580.39001464844</ele>
        <time>2010-05-22T11:04:54Z</time>
      </trkpt>
      <trkpt lat="45.05802" lon="4.50046">
        <ele>583.39599609375</ele>
        <time>2010-05-22T11:05:02Z</time>
      </trkpt>
      <trkpt lat="45.0581" lon="4.50062">
        <ele>585.40899658203</ele>
        <time>2010-05-22T11:05:08Z</time>
      </trkpt>
      <trkpt lat="45.05819" lon="4.50081">
        <ele>587.97601318359</ele>
        <time>2010-05-22T11:05:15Z</time>
      </trkpt>
      <trkpt lat="45.05825" lon="4.50094">
        <ele>589.14898681641</ele>
        <time>2010-05-22T11:05:18Z</time>
      </trkpt>
      <trkpt lat="45.05835" lon="4.50109">
        <ele>591.43402099609</ele>
        <time>2010-05-22T11:05:22Z</time>
      </trkpt>
      <trkpt lat="45.05841" lon="4.50118">
        <ele>593.00799560547</ele>
        <time>2010-05-22T11:05:26Z</time>
      </trkpt>
      <trkpt lat="45.05849" lon="4.50129">
        <ele>594.83099365234</ele>
        <time>2010-05-22T11:05:32Z</time>
      </trkpt>
      <trkpt lat="45.05857" lon="4.50138">
        <ele>595.81201171875</ele>
        <time>2010-05-22T11:05:38Z</time>
      </trkpt>
      <trkpt lat="45.05864" lon="4.50155">
        <ele>597.10101318359</ele>
        <time>2010-05-22T11:05:44Z</time>
      </trkpt>
      <trkpt lat="45.05861" lon="4.50168">
        <ele>597.9580078125</ele>
        <time>2010-05-22T11:05:50Z</time>
      </trkpt>
      <trkpt lat="45.0585" lon="4.50178">
        <ele>599.62701416016</ele>
        <time>2010-05-22T11:05:57Z</time>
      </trkpt>
      <trkpt lat="45.05838" lon="4.50192">
        <ele>601.77001953125</ele>
        <time>2010-05-22T11:06:05Z</time>
      </trkpt>
      <trkpt lat="45.05829" lon="4.50207">
        <ele>603.51501464844</ele>
        <time>2010-05-22T11:06:12Z</time>
      </trkpt>
      <trkpt lat="45.05823" lon="4.50222">
        <ele>604.87902832031</ele>
        <time>2010-05-22T11:06:17Z</time>
      </trkpt>
      <trkpt lat="45.05818" lon="4.50243">
        <ele>606.22497558594</ele>
        <time>2010-05-22T11:06:24Z</time>
      </trkpt>
      <trkpt lat="45.05809" lon="4.50271">
        <ele>608.40997314453</ele>
        <time>2010-05-22T11:06:33Z</time>
      </trkpt>
      <trkpt lat="45.05801" lon="4.50289">
        <ele>609.76000976562</ele>
        <time>2010-05-22T11:06:39Z</time>
      </trkpt>
      <trkpt lat="45.05788" lon="4.503">
        <ele>610.92797851562</ele>
        <time>2010-05-22T11:06:45Z</time>
      </trkpt>
      <trkpt lat="45.05785" lon="4.50314">
        <ele>612.00299072266</ele>
        <time>2010-05-22T11:06:49Z</time>
      </trkpt>
      <trkpt lat="45.05792" lon="4.50318">
        <ele>612.47601318359</ele>
        <time>2010-05-22T11:06:52Z</time>
      </trkpt>
      <trkpt lat="45.05798" lon="4.50315">
        <ele>612.86700439453</ele>
        <time>2010-05-22T11:06:54Z</time>
      </trkpt>
      <trkpt lat="45.0582" lon="4.50294">
        <ele>614.14099121094</ele>
        <time>2010-05-22T11:07:01Z</time>
      </trkpt>
      <trkpt lat="45.05841" lon="4.50267">
        <ele>616.60302734375</ele>
        <time>2010-05-22T11:07:09Z</time>
      </trkpt>
      <trkpt lat="45.0586" lon="4.50245">
        <ele>618.70202636719</ele>
        <time>2010-05-22T11:07:16Z</time>
      </trkpt>
      <trkpt lat="45.05881" lon="4.50237">
        <ele>620.08197021484</ele>
        <time>2010-05-22T11:07:22Z</time>
      </trkpt>
      <trkpt lat="45.05909" lon="4.50235">
        <ele>622.34899902344</ele>
        <time>2010-05-22T11:07:30Z</time>
      </trkpt>
      <trkpt lat="45.05934" lon="4.50225">
        <ele>624.47399902344</ele>
        <time>2010-05-22T11:07:38Z</time>
      </trkpt>
      <trkpt lat="45.05958" lon="4.50211">
        <ele>626.48199462891</ele>
        <time>2010-05-22T11:07:46Z</time>
      </trkpt>
      <trkpt lat="45.05969" lon="4.50206">
        <ele>627.61901855469</ele>
        <time>2010-05-22T11:07:50Z</time>
      </trkpt>
      <trkpt lat="45.05975" lon="4.50215">
        <ele>629.10900878906</ele>
        <time>2010-05-22T11:07:54Z</time>
      </trkpt>
      <trkpt lat="45.05973" lon="4.5022">
        <ele>630.09600830078</ele>
        <time>2010-05-22T11:07:56Z</time>
      </trkpt>
      <trkpt lat="45.05954" lon="4.50239">
        <ele>632.375</ele>
        <time>2010-05-22T11:08:04Z</time>
      </trkpt>
      <trkpt lat="45.05932" lon="4.50264">
        <ele>634.82800292969</ele>
        <time>2010-05-22T11:08:13Z</time>
      </trkpt>
      <trkpt lat="45.05912" lon="4.50279">
        <ele>637.51702880859</ele>
        <time>2010-05-22T11:08:20Z</time>
      </trkpt>
      <trkpt lat="45.05887" lon="4.503">
        <ele>640.74298095703</ele>
        <time>2010-05-22T11:08:29Z</time>
      </trkpt>
      <trkpt lat="45.05866" lon="4.50327">
        <ele>643.09497070312</ele>
        <time>2010-05-22T11:08:38Z</time>
      </trkpt>
      <trkpt lat="45.05853" lon="4.50353">
        <ele>644.81201171875</ele>
        <time>2010-05-22T11:08:45Z</time>
      </trkpt>
      <trkpt lat="45.0584" lon="4.50379">
        <ele>647.54797363281</ele>
        <time>2010-05-22T11:08:53Z</time>
      </trkpt>
      <trkpt lat="45.05825" lon="4.50404">
        <ele>649.53997802734</ele>
        <time>2010-05-22T11:09:01Z</time>
      </trkpt>
      <trkpt lat="45.05818" lon="4.50422">
        <ele>650.58502197266</ele>
        <time>2010-05-22T11:09:05Z</time>
      </trkpt>
      <trkpt lat="45.05816" lon="4.50448">
        <ele>651.57897949219</ele>
        <time>2010-05-22T11:09:10Z</time>
      </trkpt>
      <trkpt lat="45.05806" lon="4.50475">
        <ele>651.11297607422</ele>
        <time>2010-05-22T11:09:15Z</time>
      </trkpt>
      <trkpt lat="45.05798" lon="4.50483">
        <ele>651.34301757812</ele>
        <time>2010-05-22T11:09:17Z</time>
      </trkpt>
      <trkpt lat="45.05775" lon="4.5051">
        <ele>652.32800292969</ele>
        <time>2010-05-22T11:09:23Z</time>
      </trkpt>
      <trkpt lat="45.05771" lon="4.50515">
        <ele>652.49200439453</ele>
        <time>2010-05-22T11:09:24Z</time>
      </trkpt>
      <trkpt lat="45.05745" lon="4.50553">
        <ele>652.71997070312</ele>
        <time>2010-05-22T11:09:31Z</time>
      </trkpt>
      <trkpt lat="45.05724" lon="4.50575">
        <ele>652.92901611328</ele>
        <time>2010-05-22T11:09:36Z</time>
      </trkpt>
      <trkpt lat="45.05695" lon="4.50592">
        <ele>653.44201660156</ele>
        <time>2010-05-22T11:09:42Z</time>
      </trkpt>
      <trkpt lat="45.05669" lon="4.50597">
        <ele>653.96801757812</ele>
        <time>2010-05-22T11:09:47Z</time>
      </trkpt>
      <trkpt lat="45.05645" lon="4.50611">
        <ele>653.93103027344</ele>
        <time>2010-05-22T11:09:52Z</time>
      </trkpt>
      <trkpt lat="45.05642" lon="4.50624">
        <ele>654.55902099609</ele>
        <time>2010-05-22T11:09:54Z</time>
      </trkpt>
      <trkpt lat="45.05649" lon="4.50643">
        <ele>655.21099853516</ele>
        <time>2010-05-22T11:09:57Z</time>
      </trkpt>
      <trkpt lat="45.0566" lon="4.5066">
        <ele>655.27899169922</ele>
        <time>2010-05-22T11:10:00Z</time>
      </trkpt>
      <trkpt lat="45.05685" lon="4.50678">
        <ele>655.20001220703</ele>
        <time>2010-05-22T11:10:05Z</time>
      </trkpt>
      <trkpt lat="45.05706" lon="4.50669">
        <ele>653.44000244141</ele>
        <time>2010-05-22T11:10:08Z</time>
      </trkpt>
      <trkpt lat="45.05732" lon="4.50658">
        <ele>649.36602783203</ele>
        <time>2010-05-22T11:10:11Z</time>
      </trkpt>
      <trkpt lat="45.05769" lon="4.50673">
        <ele>645.95599365234</ele>
        <time>2010-05-22T11:10:15Z</time>
      </trkpt>
      <trkpt lat="45.05799" lon="4.50689">
        <ele>645.5</ele>
        <time>2010-05-22T11:10:19Z</time>
      </trkpt>
      <trkpt lat="45.05833" lon="4.50701">
        <ele>641.77899169922</ele>
        <time>2010-05-22T11:10:23Z</time>
      </trkpt>
      <trkpt lat="45.05842" lon="4.50705">
        <ele>640.73400878906</ele>
        <time>2010-05-22T11:10:24Z</time>
      </trkpt>
      <trkpt lat="45.05859" lon="4.50716">
        <ele>639.33801269531</ele>
        <time>2010-05-22T11:10:26Z</time>
      </trkpt>
      <trkpt lat="45.05871" lon="4.50741">
        <ele>636.95098876953</ele>
        <time>2010-05-22T11:10:29Z</time>
      </trkpt>
      <trkpt lat="45.05861" lon="4.50755">
        <ele>637.24700927734</ele>
        <time>2010-05-22T11:10:31Z</time>
      </trkpt>
      <trkpt lat="45.05844" lon="4.50762">
        <ele>638.88201904297</ele>
        <time>2010-05-22T11:10:34Z</time>
      </trkpt>
      <trkpt lat="45.0584" lon="4.50764">
        <ele>639.13098144531</ele>
        <time>2010-05-22T11:10:35Z</time>
      </trkpt>
      <trkpt lat="45.05836" lon="4.50768">
        <ele>639.60900878906</ele>
        <time>2010-05-22T11:10:36Z</time>
      </trkpt>
      <trkpt lat="45.05817" lon="4.50791">
        <ele>642.42297363281</ele>
        <time>2010-05-22T11:10:43Z</time>
      </trkpt>
      <trkpt lat="45.05811" lon="4.50809">
        <ele>645.44000244141</ele>
        <time>2010-05-22T11:10:47Z</time>
      </trkpt>
      <trkpt lat="45.05807" lon="4.50822">
        <ele>646.33697509766</ele>
        <time>2010-05-22T11:10:50Z</time>
      </trkpt>
      <trkpt lat="45.05805" lon="4.50855">
        <ele>648.62200927734</ele>
        <time>2010-05-22T11:10:56Z</time>
      </trkpt>
      <trkpt lat="45.05806" lon="4.50874">
        <ele>650.00201416016</ele>
        <time>2010-05-22T11:11:00Z</time>
      </trkpt>
      <trkpt lat="45.05804" lon="4.50896">
        <ele>651.97601318359</ele>
        <time>2010-05-22T11:11:05Z</time>
      </trkpt>
      <trkpt lat="45.05803" lon="4.50904">
        <ele>652.68701171875</ele>
        <time>2010-05-22T11:11:07Z</time>
      </trkpt>
      <trkpt lat="45.058" lon="4.50922">
        <ele>654.64202880859</ele>
        <time>2010-05-22T11:11:11Z</time>
      </trkpt>
      <trkpt lat="45.05789" lon="4.5093">
        <ele>655.66802978516</ele>
        <time>2010-05-22T11:11:15Z</time>
      </trkpt>
      <trkpt lat="45.05778" lon="4.50921">
        <ele>657.07098388672</ele>
        <time>2010-05-22T11:11:19Z</time>
      </trkpt>
      <trkpt lat="45.05763" lon="4.50898">
        <ele>658.89898681641</ele>
        <time>2010-05-22T11:11:26Z</time>
      </trkpt>
      <trkpt lat="45.05748" lon="4.50881">
        <ele>661.25799560547</ele>
        <time>2010-05-22T11:11:32Z</time>
      </trkpt>
      <trkpt lat="45.05732" lon="4.5088">
        <ele>662.95501708984</ele>
        <time>2010-05-22T11:11:37Z</time>
      </trkpt>
      <trkpt lat="45.05708" lon="4.50888">
        <ele>664.83502197266</ele>
        <time>2010-05-22T11:11:44Z</time>
      </trkpt>
      <trkpt lat="45.05687" lon="4.50895">
        <ele>667.15197753906</ele>
        <time>2010-05-22T11:11:51Z</time>
      </trkpt>
      <trkpt lat="45.05663" lon="4.50902">
        <ele>669.40698242188</ele>
        <time>2010-05-22T11:11:59Z</time>
      </trkpt>
      <trkpt lat="45.05642" lon="4.50907">
        <ele>671.05798339844</ele>
        <time>2010-05-22T11:12:06Z</time>
      </trkpt>
      <trkpt lat="45.05629" lon="4.50907">
        <ele>672.24200439453</ele>
        <time>2010-05-22T11:12:10Z</time>
      </trkpt>
      <trkpt lat="45.05614" lon="4.50905">
        <ele>673.55798339844</ele>
        <time>2010-05-22T11:12:15Z</time>
      </trkpt>
      <trkpt lat="45.05595" lon="4.50903">
        <ele>675.32702636719</ele>
        <time>2010-05-22T11:12:21Z</time>
      </trkpt>
      <trkpt lat="45.05581" lon="4.50896">
        <ele>676.57800292969</ele>
        <time>2010-05-22T11:12:26Z</time>
      </trkpt>
      <trkpt lat="45.05559" lon="4.50883">
        <ele>678.57299804688</ele>
        <time>2010-05-22T11:12:33Z</time>
      </trkpt>
      <trkpt lat="45.0554" lon="4.50873">
        <ele>680.19201660156</ele>
        <time>2010-05-22T11:12:39Z</time>
      </trkpt>
      <trkpt lat="45.05526" lon="4.50871">
        <ele>681.44299316406</ele>
        <time>2010-05-22T11:12:44Z</time>
      </trkpt>
      <trkpt lat="45.05523" lon="4.50873">
        <ele>681.78002929688</ele>
        <time>2010-05-22T11:12:45Z</time>
      </trkpt>
      <trkpt lat="45.05523" lon="4.50886">
        <ele>683.22698974609</ele>
        <time>2010-05-22T11:12:49Z</time>
      </trkpt>
      <trkpt lat="45.0553" lon="4.50893">
        <ele>684.06097412109</ele>
        <time>2010-05-22T11:12:52Z</time>
      </trkpt>
      <trkpt lat="45.05547" lon="4.50906">
        <ele>685.99798583984</ele>
        <time>2010-05-22T11:12:59Z</time>
      </trkpt>
      <trkpt lat="45.05563" lon="4.50922">
        <ele>687.81500244141</ele>
        <time>2010-05-22T11:13:06Z</time>
      </trkpt>
      <trkpt lat="45.05582" lon="4.50944">
        <ele>689.92401123047</ele>
        <time>2010-05-22T11:13:14Z</time>
      </trkpt>
      <trkpt lat="45.05598" lon="4.50962">
        <ele>691.70098876953</ele>
        <time>2010-05-22T11:13:21Z</time>
      </trkpt>
      <trkpt lat="45.05609" lon="4.50975">
        <ele>693.041015625</ele>
        <time>2010-05-22T11:13:26Z</time>
      </trkpt>
      <trkpt lat="45.05633" lon="4.50992">
        <ele>695.70397949219</ele>
        <time>2010-05-22T11:13:35Z</time>
      </trkpt>
      <trkpt lat="45.05649" lon="4.51001">
        <ele>697.34399414062</ele>
        <time>2010-05-22T11:13:41Z</time>
      </trkpt>
      <trkpt lat="45.0567" lon="4.51013">
        <ele>699.07098388672</ele>
        <time>2010-05-22T11:13:49Z</time>
      </trkpt>
      <trkpt lat="45.05693" lon="4.51035">
        <ele>700.07800292969</ele>
        <time>2010-05-22T11:13:58Z</time>
      </trkpt>
      <trkpt lat="45.05718" lon="4.51061">
        <ele>702.00799560547</ele>
        <time>2010-05-22T11:14:07Z</time>
      </trkpt>
      <trkpt lat="45.05724" lon="4.51081">
        <ele>703.04602050781</ele>
        <time>2010-05-22T11:14:12Z</time>
      </trkpt>
      <trkpt lat="45.05723" lon="4.51106">
        <ele>705.15197753906</ele>
        <time>2010-05-22T11:14:18Z</time>
      </trkpt>
      <trkpt lat="45.0572" lon="4.51133">
        <ele>706.61102294922</ele>
        <time>2010-05-22T11:14:25Z</time>
      </trkpt>
      <trkpt lat="45.05732" lon="4.51161">
        <ele>707.96002197266</ele>
        <time>2010-05-22T11:14:32Z</time>
      </trkpt>
      <trkpt lat="45.05753" lon="4.51193">
        <ele>708.28497314453</ele>
        <time>2010-05-22T11:14:40Z</time>
      </trkpt>
      <trkpt lat="45.05769" lon="4.51216">
        <ele>709.21002197266</ele>
        <time>2010-05-22T11:14:46Z</time>
      </trkpt>
      <trkpt lat="45.05802" lon="4.51253">
        <ele>711.70098876953</ele>
        <time>2010-05-22T11:14:56Z</time>
      </trkpt>
      <trkpt lat="45.05828" lon="4.51286">
        <ele>713.35400390625</ele>
        <time>2010-05-22T11:15:04Z</time>
      </trkpt>
      <trkpt lat="45.05848" lon="4.51319">
        <ele>713.666015625</ele>
        <time>2010-05-22T11:15:11Z</time>
      </trkpt>
      <trkpt lat="45.0587" lon="4.51337">
        <ele>714.89801025391</ele>
        <time>2010-05-22T11:15:17Z</time>
      </trkpt>
      <trkpt lat="45.05874" lon="4.5134">
        <ele>714.94799804688</ele>
        <time>2010-05-22T11:15:18Z</time>
      </trkpt>
      <trkpt lat="45.0589" lon="4.51367">
        <ele>716.92700195312</ele>
        <time>2010-05-22T11:15:24Z</time>
      </trkpt>
      <trkpt lat="45.059" lon="4.51401">
        <ele>717.66900634766</ele>
        <time>2010-05-22T11:15:30Z</time>
      </trkpt>
      <trkpt lat="45.05898" lon="4.51429">
        <ele>718.64501953125</ele>
        <time>2010-05-22T11:15:35Z</time>
      </trkpt>
      <trkpt lat="45.05885" lon="4.5143">
        <ele>719.08599853516</ele>
        <time>2010-05-22T11:15:38Z</time>
      </trkpt>
      <trkpt lat="45.05882" lon="4.51426">
        <ele>719.23101806641</ele>
        <time>2010-05-22T11:15:39Z</time>
      </trkpt>
      <trkpt lat="45.05867" lon="4.51408">
        <ele>720.38000488281</ele>
        <time>2010-05-22T11:15:44Z</time>
      </trkpt>
      <trkpt lat="45.0586" lon="4.51403">
        <ele>720.93597412109</ele>
        <time>2010-05-22T11:15:46Z</time>
      </trkpt>
      <trkpt lat="45.05833" lon="4.51399">
        <ele>722.30603027344</ele>
        <time>2010-05-22T11:15:52Z</time>
      </trkpt>
      <trkpt lat="45.0582" lon="4.51398">
        <ele>723.06896972656</ele>
        <time>2010-05-22T11:15:55Z</time>
      </trkpt>
      <trkpt lat="45.05791" lon="4.51393">
        <ele>724.22399902344</ele>
        <time>2010-05-22T11:16:01Z</time>
      </trkpt>
      <trkpt lat="45.05776" lon="4.51391">
        <ele>724.61199951172</ele>
        <time>2010-05-22T11:16:04Z</time>
      </trkpt>
      <trkpt lat="45.05746" lon="4.51386">
        <ele>725.7919921875</ele>
        <time>2010-05-22T11:16:10Z</time>
      </trkpt>
      <trkpt lat="45.05714" lon="4.51382">
        <ele>727.22100830078</ele>
        <time>2010-05-22T11:16:16Z</time>
      </trkpt>
      <trkpt lat="45.05675" lon="4.51371">
        <ele>729.00500488281</ele>
        <time>2010-05-22T11:16:24Z</time>
      </trkpt>
      <trkpt lat="45.0567" lon="4.5137">
        <ele>729.12902832031</ele>
        <time>2010-05-22T11:16:25Z</time>
      </trkpt>
      <trkpt lat="45.05646" lon="4.51369">
        <ele>729.65002441406</ele>
        <time>2010-05-22T11:16:30Z</time>
      </trkpt>
      <trkpt lat="45.0563" lon="4.51377">
        <ele>731.14801025391</ele>
        <time>2010-05-22T11:16:34Z</time>
      </trkpt>
      <trkpt lat="45.05616" lon="4.51393">
        <ele>731.70001220703</ele>
        <time>2010-05-22T11:16:38Z</time>
      </trkpt>
      <trkpt lat="45.05605" lon="4.51426">
        <ele>732.45098876953</ele>
        <time>2010-05-22T11:16:44Z</time>
      </trkpt>
      <trkpt lat="45.056" lon="4.51454">
        <ele>733.43902587891</ele>
        <time>2010-05-22T11:16:49Z</time>
      </trkpt>
      <trkpt lat="45.0559" lon="4.51491">
        <ele>734.56201171875</ele>
        <time>2010-05-22T11:16:56Z</time>
      </trkpt>
      <trkpt lat="45.056" lon="4.51502">
        <ele>736.03302001953</ele>
        <time>2010-05-22T11:17:00Z</time>
      </trkpt>
      <trkpt lat="45.05605" lon="4.51487">
        <ele>736.40698242188</ele>
        <time>2010-05-22T11:17:03Z</time>
      </trkpt>
      <trkpt lat="45.05609" lon="4.51454">
        <ele>736.41900634766</ele>
        <time>2010-05-22T11:17:08Z</time>
      </trkpt>
      <trkpt lat="45.05618" lon="4.51429">
        <ele>737.43798828125</ele>
        <time>2010-05-22T11:17:12Z</time>
      </trkpt>
      <trkpt lat="45.05638" lon="4.51406">
        <ele>739.75701904297</ele>
        <time>2010-05-22T11:17:18Z</time>
      </trkpt>
      <trkpt lat="45.05647" lon="4.51404">
        <ele>740.20501708984</ele>
        <time>2010-05-22T11:17:20Z</time>
      </trkpt>
      <trkpt lat="45.05655" lon="4.51404">
        <ele>740.49298095703</ele>
        <time>2010-05-22T11:17:22Z</time>
      </trkpt>
      <trkpt lat="45.0569" lon="4.51414">
        <ele>741.71697998047</ele>
        <time>2010-05-22T11:17:30Z</time>
      </trkpt>
      <trkpt lat="45.05725" lon="4.51431">
        <ele>744.31201171875</ele>
        <time>2010-05-22T11:17:38Z</time>
      </trkpt>
      <trkpt lat="45.05753" lon="4.51445">
        <ele>745.72900390625</ele>
        <time>2010-05-22T11:17:45Z</time>
      </trkpt>
      <trkpt lat="45.05781" lon="4.51458">
        <ele>747.42999267578</ele>
        <time>2010-05-22T11:17:52Z</time>
      </trkpt>
      <trkpt lat="45.05817" lon="4.51476">
        <ele>748.90997314453</ele>
        <time>2010-05-22T11:18:02Z</time>
      </trkpt>
      <trkpt lat="45.05838" lon="4.51497">
        <ele>750.66802978516</ele>
        <time>2010-05-22T11:18:09Z</time>
      </trkpt>
      <trkpt lat="45.05849" lon="4.51511">
        <ele>751.77697753906</ele>
        <time>2010-05-22T11:18:13Z</time>
      </trkpt>
      <trkpt lat="45.05871" lon="4.51542">
        <ele>753.80200195312</ele>
        <time>2010-05-22T11:18:21Z</time>
      </trkpt>
      <trkpt lat="45.05898" lon="4.51582">
        <ele>755.95098876953</ele>
        <time>2010-05-22T11:18:31Z</time>
      </trkpt>
      <trkpt lat="45.05923" lon="4.51613">
        <ele>757.93597412109</ele>
        <time>2010-05-22T11:18:40Z</time>
      </trkpt>
      <trkpt lat="45.0594" lon="4.51631">
        <ele>759.29602050781</ele>
        <time>2010-05-22T11:18:46Z</time>
      </trkpt>
      <trkpt lat="45.05972" lon="4.5166">
        <ele>761.41802978516</ele>
        <time>2010-05-22T11:18:56Z</time>
      </trkpt>
      <trkpt lat="45.05989" lon="4.51681">
        <ele>762.75500488281</ele>
        <time>2010-05-22T11:19:03Z</time>
      </trkpt>
      <trkpt lat="45.06002" lon="4.51693">
        <ele>763.44702148438</ele>
        <time>2010-05-22T11:19:08Z</time>
      </trkpt>
      <trkpt lat="45.06014" lon="4.51688">
        <ele>764.49102783203</ele>
        <time>2010-05-22T11:19:12Z</time>
      </trkpt>
      <trkpt lat="45.06022" lon="4.51673">
        <ele>765.64501953125</ele>
        <time>2010-05-22T11:19:16Z</time>
      </trkpt>
      <trkpt lat="45.06025" lon="4.51656">
        <ele>766.44396972656</ele>
        <time>2010-05-22T11:19:19Z</time>
      </trkpt>
      <trkpt lat="45.06025" lon="4.51631">
        <ele>767.09399414062</ele>
        <time>2010-05-22T11:19:23Z</time>
      </trkpt>
      <trkpt lat="45.06022" lon="4.51591">
        <ele>768.69097900391</ele>
        <time>2010-05-22T11:19:29Z</time>
      </trkpt>
      <trkpt lat="45.06022" lon="4.51558">
        <ele>770.15197753906</ele>
        <time>2010-05-22T11:19:35Z</time>
      </trkpt>
      <trkpt lat="45.06022" lon="4.51552">
        <ele>770.28698730469</ele>
        <time>2010-05-22T11:19:36Z</time>
      </trkpt>
      <trkpt lat="45.06017" lon="4.51516">
        <ele>772.19799804688</ele>
        <time>2010-05-22T11:19:42Z</time>
      </trkpt>
      <trkpt lat="45.06019" lon="4.51489">
        <ele>773.64501953125</ele>
        <time>2010-05-22T11:19:47Z</time>
      </trkpt>
      <trkpt lat="45.06019" lon="4.51453">
        <ele>775.09802246094</ele>
        <time>2010-05-22T11:19:53Z</time>
      </trkpt>
      <trkpt lat="45.06017" lon="4.51413">
        <ele>776.30603027344</ele>
        <time>2010-05-22T11:20:00Z</time>
      </trkpt>
      <trkpt lat="45.06018" lon="4.51378">
        <ele>778.11102294922</ele>
        <time>2010-05-22T11:20:07Z</time>
      </trkpt>
      <trkpt lat="45.06026" lon="4.51365">
        <ele>778.91198730469</ele>
        <time>2010-05-22T11:20:11Z</time>
      </trkpt>
      <trkpt lat="45.06042" lon="4.51364">
        <ele>779.9990234375</ele>
        <time>2010-05-22T11:20:16Z</time>
      </trkpt>
      <trkpt lat="45.06054" lon="4.51372">
        <ele>780.67999267578</ele>
        <time>2010-05-22T11:20:20Z</time>
      </trkpt>
      <trkpt lat="45.06053" lon="4.51388">
        <ele>782.02197265625</ele>
        <time>2010-05-22T11:20:24Z</time>
      </trkpt>
      <trkpt lat="45.06049" lon="4.51394">
        <ele>782.60198974609</ele>
        <time>2010-05-22T11:20:26Z</time>
      </trkpt>
      <trkpt lat="45.06038" lon="4.51412">
        <ele>783.72698974609</ele>
        <time>2010-05-22T11:20:32Z</time>
      </trkpt>
      <trkpt lat="45.06039" lon="4.51439">
        <ele>784.8330078125</ele>
        <time>2010-05-22T11:20:38Z</time>
      </trkpt>
      <trkpt lat="45.0604" lon="4.51443">
        <ele>785.10797119141</ele>
        <time>2010-05-22T11:20:39Z</time>
      </trkpt>
      <trkpt lat="45.06042" lon="4.51476">
        <ele>787.57702636719</ele>
        <time>2010-05-22T11:20:46Z</time>
      </trkpt>
      <trkpt lat="45.06047" lon="4.51507">
        <ele>788.67901611328</ele>
        <time>2010-05-22T11:20:52Z</time>
      </trkpt>
      <trkpt lat="45.06053" lon="4.51537">
        <ele>789.61297607422</ele>
        <time>2010-05-22T11:20:58Z</time>
      </trkpt>
      <trkpt lat="45.06065" lon="4.5157">
        <ele>791.81201171875</ele>
        <time>2010-05-22T11:21:05Z</time>
      </trkpt>
      <trkpt lat="45.06073" lon="4.51586">
        <ele>792.57598876953</ele>
        <time>2010-05-22T11:21:09Z</time>
      </trkpt>
      <trkpt lat="45.06083" lon="4.51607">
        <ele>793.41400146484</ele>
        <time>2010-05-22T11:21:14Z</time>
      </trkpt>
      <trkpt lat="45.06093" lon="4.51626">
        <ele>795.45599365234</ele>
        <time>2010-05-22T11:21:20Z</time>
      </trkpt>
      <trkpt lat="45.06102" lon="4.51649">
        <ele>796.13098144531</ele>
        <time>2010-05-22T11:21:26Z</time>
      </trkpt>
      <trkpt lat="45.06107" lon="4.51672">
        <ele>797.47302246094</ele>
        <time>2010-05-22T11:21:31Z</time>
      </trkpt>
      <trkpt lat="45.06107" lon="4.51702">
        <ele>798.56896972656</ele>
        <time>2010-05-22T11:21:37Z</time>
      </trkpt>
      <trkpt lat="45.06108" lon="4.5174">
        <ele>800.17498779297</ele>
        <time>2010-05-22T11:21:44Z</time>
      </trkpt>
      <trkpt lat="45.0611" lon="4.51784">
        <ele>802.30902099609</ele>
        <time>2010-05-22T11:21:52Z</time>
      </trkpt>
      <trkpt lat="45.06112" lon="4.51821">
        <ele>803.83099365234</ele>
        <time>2010-05-22T11:21:59Z</time>
      </trkpt>
      <trkpt lat="45.06113" lon="4.51861">
        <ele>805.42999267578</ele>
        <time>2010-05-22T11:22:07Z</time>
      </trkpt>
      <trkpt lat="45.06109" lon="4.51892">
        <ele>806.86999511719</ele>
        <time>2010-05-22T11:22:14Z</time>
      </trkpt>
      <trkpt lat="45.061" lon="4.51927">
        <ele>808.68597412109</ele>
        <time>2010-05-22T11:22:22Z</time>
      </trkpt>
      <trkpt lat="45.06095" lon="4.5196">
        <ele>809.30999755859</ele>
        <time>2010-05-22T11:22:29Z</time>
      </trkpt>
      <trkpt lat="45.06094" lon="4.51981">
        <ele>811.39202880859</ele>
        <time>2010-05-22T11:22:33Z</time>
      </trkpt>
      <trkpt lat="45.06094" lon="4.52021">
        <ele>813.60101318359</ele>
        <time>2010-05-22T11:22:41Z</time>
      </trkpt>
      <trkpt lat="45.06081" lon="4.52028">
        <ele>814.00598144531</ele>
        <time>2010-05-22T11:22:45Z</time>
      </trkpt>
      <trkpt lat="45.06067" lon="4.52016">
        <ele>814.69396972656</ele>
        <time>2010-05-22T11:22:49Z</time>
      </trkpt>
      <trkpt lat="45.06046" lon="4.52012">
        <ele>815.86499023438</ele>
        <time>2010-05-22T11:22:54Z</time>
      </trkpt>
      <trkpt lat="45.06017" lon="4.52016">
        <ele>817.97399902344</ele>
        <time>2010-05-22T11:23:02Z</time>
      </trkpt>
      <trkpt lat="45.05991" lon="4.52023">
        <ele>819.74700927734</ele>
        <time>2010-05-22T11:23:09Z</time>
      </trkpt>
      <trkpt lat="45.05978" lon="4.52017">
        <ele>820.90802001953</ele>
        <time>2010-05-22T11:23:13Z</time>
      </trkpt>
      <trkpt lat="45.05957" lon="4.51995">
        <ele>823.03601074219</ele>
        <time>2010-05-22T11:23:20Z</time>
      </trkpt>
      <trkpt lat="45.05934" lon="4.51973">
        <ele>824.73602294922</ele>
        <time>2010-05-22T11:23:27Z</time>
      </trkpt>
      <trkpt lat="45.05909" lon="4.51952">
        <ele>826.78802490234</ele>
        <time>2010-05-22T11:23:34Z</time>
      </trkpt>
      <trkpt lat="45.05891" lon="4.51936">
        <ele>828.28802490234</ele>
        <time>2010-05-22T11:23:40Z</time>
      </trkpt>
      <trkpt lat="45.05872" lon="4.51918">
        <ele>829.96801757812</ele>
        <time>2010-05-22T11:23:46Z</time>
      </trkpt>
      <trkpt lat="45.0586" lon="4.51906">
        <ele>831.09698486328</ele>
        <time>2010-05-22T11:23:50Z</time>
      </trkpt>
      <trkpt lat="45.05835" lon="4.51879">
        <ele>832.89202880859</ele>
        <time>2010-05-22T11:23:58Z</time>
      </trkpt>
      <trkpt lat="45.05817" lon="4.5186">
        <ele>834.3330078125</ele>
        <time>2010-05-22T11:24:04Z</time>
      </trkpt>
      <trkpt lat="45.05798" lon="4.51856">
        <ele>835.39300537109</ele>
        <time>2010-05-22T11:24:09Z</time>
      </trkpt>
      <trkpt lat="45.05788" lon="4.51871">
        <ele>836.55798339844</ele>
        <time>2010-05-22T11:24:13Z</time>
      </trkpt>
      <trkpt lat="45.0578" lon="4.519">
        <ele>838.18902587891</ele>
        <time>2010-05-22T11:24:19Z</time>
      </trkpt>
      <trkpt lat="45.05772" lon="4.51948">
        <ele>839.51501464844</ele>
        <time>2010-05-22T11:24:28Z</time>
      </trkpt>
      <trkpt lat="45.05764" lon="4.51977">
        <ele>840.14398193359</ele>
        <time>2010-05-22T11:24:34Z</time>
      </trkpt>
      <trkpt lat="45.05753" lon="4.5201">
        <ele>842.53399658203</ele>
        <time>2010-05-22T11:24:41Z</time>
      </trkpt>
      <trkpt lat="45.05751" lon="4.5202">
        <ele>843.41302490234</ele>
        <time>2010-05-22T11:24:43Z</time>
      </trkpt>
      <trkpt lat="45.05741" lon="4.52054">
        <ele>844.76898193359</ele>
        <time>2010-05-22T11:24:50Z</time>
      </trkpt>
      <trkpt lat="45.05732" lon="4.52093">
        <ele>846.53100585938</ele>
        <time>2010-05-22T11:24:58Z</time>
      </trkpt>
      <trkpt lat="45.05732" lon="4.52122">
        <ele>847.84002685547</ele>
        <time>2010-05-22T11:25:04Z</time>
      </trkpt>
      <trkpt lat="45.05734" lon="4.52149">
        <ele>849.29602050781</ele>
        <time>2010-05-22T11:25:10Z</time>
      </trkpt>
      <trkpt lat="45.05742" lon="4.52171">
        <ele>849.92102050781</ele>
        <time>2010-05-22T11:25:15Z</time>
      </trkpt>
      <trkpt lat="45.0575" lon="4.52189">
        <ele>851.21502685547</ele>
        <time>2010-05-22T11:25:20Z</time>
      </trkpt>
      <trkpt lat="45.0575" lon="4.5221">
        <ele>851.68701171875</ele>
        <time>2010-05-22T11:25:25Z</time>
      </trkpt>
      <trkpt lat="45.0574" lon="4.52226">
        <ele>852.78900146484</ele>
        <time>2010-05-22T11:25:30Z</time>
      </trkpt>
      <trkpt lat="45.0573" lon="4.52246">
        <ele>854.26397705078</ele>
        <time>2010-05-22T11:25:35Z</time>
      </trkpt>
      <trkpt lat="45.05724" lon="4.52268">
        <ele>854.86602783203</ele>
        <time>2010-05-22T11:25:40Z</time>
      </trkpt>
      <trkpt lat="45.05722" lon="4.52302">
        <ele>856.02301025391</ele>
        <time>2010-05-22T11:25:47Z</time>
      </trkpt>
      <trkpt lat="45.05727" lon="4.52329">
        <ele>856.86102294922</ele>
        <time>2010-05-22T11:25:54Z</time>
      </trkpt>
      <trkpt lat="45.05739" lon="4.52366">
        <ele>859.42901611328</ele>
        <time>2010-05-22T11:26:03Z</time>
      </trkpt>
      <trkpt lat="45.05748" lon="4.52386">
        <ele>860.53497314453</ele>
        <time>2010-05-22T11:26:08Z</time>
      </trkpt>
      <trkpt lat="45.05762" lon="4.52424">
        <ele>862.50500488281</ele>
        <time>2010-05-22T11:26:16Z</time>
      </trkpt>
      <trkpt lat="45.05773" lon="4.52454">
        <ele>863.69598388672</ele>
        <time>2010-05-22T11:26:22Z</time>
      </trkpt>
      <trkpt lat="45.05787" lon="4.52487">
        <ele>865.73199462891</ele>
        <time>2010-05-22T11:26:29Z</time>
      </trkpt>
      <trkpt lat="45.05799" lon="4.52518">
        <ele>867.38897705078</ele>
        <time>2010-05-22T11:26:35Z</time>
      </trkpt>
      <trkpt lat="45.05812" lon="4.52546">
        <ele>868.90698242188</ele>
        <time>2010-05-22T11:26:41Z</time>
      </trkpt>
      <trkpt lat="45.05828" lon="4.52583">
        <ele>870.21600341797</ele>
        <time>2010-05-22T11:26:49Z</time>
      </trkpt>
      <trkpt lat="45.05841" lon="4.52614">
        <ele>872.33099365234</ele>
        <time>2010-05-22T11:26:56Z</time>
      </trkpt>
      <trkpt lat="45.05858" lon="4.52652">
        <ele>873.95697021484</ele>
        <time>2010-05-22T11:27:04Z</time>
      </trkpt>
      <trkpt lat="45.05875" lon="4.52692">
        <ele>876.03997802734</ele>
        <time>2010-05-22T11:27:12Z</time>
      </trkpt>
      <trkpt lat="45.05883" lon="4.52712">
        <ele>877.2919921875</ele>
        <time>2010-05-22T11:27:16Z</time>
      </trkpt>
      <trkpt lat="45.05907" lon="4.52746">
        <ele>879.13299560547</ele>
        <time>2010-05-22T11:27:24Z</time>
      </trkpt>
      <trkpt lat="45.05923" lon="4.52763">
        <ele>880.85998535156</ele>
        <time>2010-05-22T11:27:29Z</time>
      </trkpt>
      <trkpt lat="45.05941" lon="4.52801">
        <ele>882.65698242188</ele>
        <time>2010-05-22T11:27:37Z</time>
      </trkpt>
      <trkpt lat="45.05948" lon="4.52838">
        <ele>884.1240234375</ele>
        <time>2010-05-22T11:27:44Z</time>
      </trkpt>
      <trkpt lat="45.05952" lon="4.52871">
        <ele>885.49700927734</ele>
        <time>2010-05-22T11:27:50Z</time>
      </trkpt>
      <trkpt lat="45.05953" lon="4.52883">
        <ele>885.93902587891</ele>
        <time>2010-05-22T11:27:52Z</time>
      </trkpt>
      <trkpt lat="45.05952" lon="4.52922">
        <ele>887.9990234375</ele>
        <time>2010-05-22T11:27:58Z</time>
      </trkpt>
      <trkpt lat="45.05951" lon="4.52929">
        <ele>888.05603027344</ele>
        <time>2010-05-22T11:27:59Z</time>
      </trkpt>
      <trkpt lat="45.05951" lon="4.52954">
        <ele>888.33502197266</ele>
        <time>2010-05-22T11:28:03Z</time>
      </trkpt>
      <trkpt lat="45.0595" lon="4.53">
        <ele>891.36700439453</ele>
        <time>2010-05-22T11:28:11Z</time>
      </trkpt>
      <trkpt lat="45.05951" lon="4.53033">
        <ele>892.72497558594</ele>
        <time>2010-05-22T11:28:17Z</time>
      </trkpt>
      <trkpt lat="45.0595" lon="4.53051">
        <ele>893.37799072266</ele>
        <time>2010-05-22T11:28:20Z</time>
      </trkpt>
      <trkpt lat="45.0596" lon="4.5306">
        <ele>894.46002197266</ele>
        <time>2010-05-22T11:28:24Z</time>
      </trkpt>
      <trkpt lat="45.05965" lon="4.5305">
        <ele>894.77301025391</ele>
        <time>2010-05-22T11:28:27Z</time>
      </trkpt>
      <trkpt lat="45.05964" lon="4.53034">
        <ele>895.28802490234</ele>
        <time>2010-05-22T11:28:30Z</time>
      </trkpt>
      <trkpt lat="45.05961" lon="4.52993">
        <ele>896.97100830078</ele>
        <time>2010-05-22T11:28:38Z</time>
      </trkpt>
      <trkpt lat="45.05966" lon="4.52957">
        <ele>898.13702392578</ele>
        <time>2010-05-22T11:28:45Z</time>
      </trkpt>
      <trkpt lat="45.05968" lon="4.52947">
        <ele>898.59497070312</ele>
        <time>2010-05-22T11:28:47Z</time>
      </trkpt>
      <trkpt lat="45.0598" lon="4.52944">
        <ele>899.63397216797</ele>
        <time>2010-05-22T11:28:51Z</time>
      </trkpt>
      <trkpt lat="45.05981" lon="4.52955">
        <ele>900.50299072266</ele>
        <time>2010-05-22T11:28:54Z</time>
      </trkpt>
      <trkpt lat="45.05979" lon="4.52959">
        <ele>900.69500732422</ele>
        <time>2010-05-22T11:28:55Z</time>
      </trkpt>
      <trkpt lat="45.05971" lon="4.52991">
        <ele>902.74102783203</ele>
        <time>2010-05-22T11:29:03Z</time>
      </trkpt>
      <trkpt lat="45.05973" lon="4.5302">
        <ele>903.99798583984</ele>
        <time>2010-05-22T11:29:09Z</time>
      </trkpt>
      <trkpt lat="45.05976" lon="4.53041">
        <ele>904.81896972656</ele>
        <time>2010-05-22T11:29:13Z</time>
      </trkpt>
      <trkpt lat="45.05976" lon="4.53059">
        <ele>905.54400634766</ele>
        <time>2010-05-22T11:29:16Z</time>
      </trkpt>
      <trkpt lat="45.05966" lon="4.53086">
        <ele>905.69598388672</ele>
        <time>2010-05-22T11:29:21Z</time>
      </trkpt>
      <trkpt lat="45.05945" lon="4.53129">
        <ele>906.01599121094</ele>
        <time>2010-05-22T11:29:29Z</time>
      </trkpt>
      <trkpt lat="45.05933" lon="4.53159">
        <ele>907.875</ele>
        <time>2010-05-22T11:29:34Z</time>
      </trkpt>
      <trkpt lat="45.05918" lon="4.53204">
        <ele>908.98999023438</ele>
        <time>2010-05-22T11:29:41Z</time>
      </trkpt>
      <trkpt lat="45.05904" lon="4.53243">
        <ele>910.49298095703</ele>
        <time>2010-05-22T11:29:48Z</time>
      </trkpt>
      <trkpt lat="45.059" lon="4.53265">
        <ele>910.56298828125</ele>
        <time>2010-05-22T11:29:52Z</time>
      </trkpt>
      <trkpt lat="45.05907" lon="4.53273">
        <ele>911.92297363281</ele>
        <time>2010-05-22T11:29:56Z</time>
      </trkpt>
      <trkpt lat="45.05911" lon="4.53266">
        <ele>912.97497558594</ele>
        <time>2010-05-22T11:30:00Z</time>
      </trkpt>
      <trkpt lat="45.05913" lon="4.53264">
        <ele>912.98400878906</ele>
        <time>2010-05-22T11:30:04Z</time>
      </trkpt>
      <trkpt lat="45.05913" lon="4.53264">
        <ele>912.97698974609</ele>
        <time>2010-05-22T11:30:05Z</time>
      </trkpt>
      <trkpt lat="45.05905" lon="4.53262">
        <ele>913.98602294922</ele>
        <time>2010-05-22T11:40:12Z</time>
      </trkpt>
      <trkpt lat="45.05904" lon="4.53267">
        <ele>913.20202636719</ele>
        <time>2010-05-22T11:40:15Z</time>
      </trkpt>
      <trkpt lat="45.059" lon="4.53271">
        <ele>913.75402832031</ele>
        <time>2010-05-22T11:40:19Z</time>
      </trkpt>
      <trkpt lat="45.05902" lon="4.53268">
        <ele>914.03802490234</ele>
        <time>2010-05-22T11:40:23Z</time>
      </trkpt>
      <trkpt lat="45.05904" lon="4.53262">
        <ele>914.40600585938</ele>
        <time>2010-05-22T11:40:29Z</time>
      </trkpt>
      <trkpt lat="45.05912" lon="4.53257">
        <ele>914.583984375</ele>
        <time>2010-05-22T11:43:02Z</time>
      </trkpt>
      <trkpt lat="45.05919" lon="4.53238">
        <ele>914.56799316406</ele>
        <time>2010-05-22T11:43:07Z</time>
      </trkpt>
      <trkpt lat="45.05926" lon="4.53214">
        <ele>914.33801269531</ele>
        <time>2010-05-22T11:43:12Z</time>
      </trkpt>
      <trkpt lat="45.05927" lon="4.53209">
        <ele>914.61499023438</ele>
        <time>2010-05-22T11:43:13Z</time>
      </trkpt>
      <trkpt lat="45.05942" lon="4.53167">
        <ele>915.28601074219</ele>
        <time>2010-05-22T11:43:21Z</time>
      </trkpt>
      <trkpt lat="45.05946" lon="4.53156">
        <ele>915.31097412109</ele>
        <time>2010-05-22T11:43:23Z</time>
      </trkpt>
      <trkpt lat="45.05965" lon="4.53123">
        <ele>915.51800537109</ele>
        <time>2010-05-22T11:43:30Z</time>
      </trkpt>
      <trkpt lat="45.05984" lon="4.53094">
        <ele>916.39898681641</ele>
        <time>2010-05-22T11:43:37Z</time>
      </trkpt>
      <trkpt lat="45.05989" lon="4.53085">
        <ele>916.29302978516</ele>
        <time>2010-05-22T11:43:39Z</time>
      </trkpt>
      <trkpt lat="45.05996" lon="4.53063">
        <ele>916.20202636719</ele>
        <time>2010-05-22T11:43:43Z</time>
      </trkpt>
      <trkpt lat="45.05997" lon="4.53026">
        <ele>916.46997070312</ele>
        <time>2010-05-22T11:43:49Z</time>
      </trkpt>
      <trkpt lat="45.05998" lon="4.53008">
        <ele>916.96002197266</ele>
        <time>2010-05-22T11:43:52Z</time>
      </trkpt>
      <trkpt lat="45.0601" lon="4.52954">
        <ele>917.32702636719</ele>
        <time>2010-05-22T11:44:01Z</time>
      </trkpt>
      <trkpt lat="45.06017" lon="4.52911">
        <ele>918.09600830078</ele>
        <time>2010-05-22T11:44:08Z</time>
      </trkpt>
      <trkpt lat="45.06015" lon="4.52868">
        <ele>918.76098632812</ele>
        <time>2010-05-22T11:44:15Z</time>
      </trkpt>
      <trkpt lat="45.06013" lon="4.52841">
        <ele>919.14202880859</ele>
        <time>2010-05-22T11:44:19Z</time>
      </trkpt>
      <trkpt lat="45.06004" lon="4.52792">
        <ele>919.15100097656</ele>
        <time>2010-05-22T11:44:26Z</time>
      </trkpt>
      <trkpt lat="45.05991" lon="4.52745">
        <ele>919.15399169922</ele>
        <time>2010-05-22T11:44:33Z</time>
      </trkpt>
      <trkpt lat="45.05985" lon="4.5272">
        <ele>919.70001220703</ele>
        <time>2010-05-22T11:44:37Z</time>
      </trkpt>
      <trkpt lat="45.05978" lon="4.52704">
        <ele>919.52801513672</ele>
        <time>2010-05-22T11:44:40Z</time>
      </trkpt>
      <trkpt lat="45.05972" lon="4.52694">
        <ele>919.96002197266</ele>
        <time>2010-05-22T11:44:42Z</time>
      </trkpt>
      <trkpt lat="45.05957" lon="4.52677">
        <ele>920.01599121094</ele>
        <time>2010-05-22T11:44:46Z</time>
      </trkpt>
      <trkpt lat="45.05945" lon="4.52648">
        <ele>920.59100341797</ele>
        <time>2010-05-22T11:44:51Z</time>
      </trkpt>
      <trkpt lat="45.05947" lon="4.52621">
        <ele>920.7919921875</ele>
        <time>2010-05-22T11:44:55Z</time>
      </trkpt>
      <trkpt lat="45.0596" lon="4.526">
        <ele>920.70397949219</ele>
        <time>2010-05-22T11:44:59Z</time>
      </trkpt>
      <trkpt lat="45.06003" lon="4.52558">
        <ele>921.72802734375</ele>
        <time>2010-05-22T11:45:09Z</time>
      </trkpt>
      <trkpt lat="45.0604" lon="4.52513">
        <ele>922.08197021484</ele>
        <time>2010-05-22T11:45:18Z</time>
      </trkpt>
      <trkpt lat="45.06069" lon="4.52486">
        <ele>922.04998779297</ele>
        <time>2010-05-22T11:45:24Z</time>
      </trkpt>
      <trkpt lat="45.06096" lon="4.52477">
        <ele>922.04797363281</ele>
        <time>2010-05-22T11:45:29Z</time>
      </trkpt>
      <trkpt lat="45.06107" lon="4.52476">
        <ele>922.48199462891</ele>
        <time>2010-05-22T11:45:31Z</time>
      </trkpt>
      <trkpt lat="45.06128" lon="4.52466">
        <ele>922.48797607422</ele>
        <time>2010-05-22T11:45:35Z</time>
      </trkpt>
      <trkpt lat="45.06173" lon="4.52429">
        <ele>923.48199462891</ele>
        <time>2010-05-22T11:45:44Z</time>
      </trkpt>
      <trkpt lat="45.06186" lon="4.52411">
        <ele>923.71002197266</ele>
        <time>2010-05-22T11:45:47Z</time>
      </trkpt>
      <trkpt lat="45.06204" lon="4.52366">
        <ele>923.41998291016</ele>
        <time>2010-05-22T11:45:53Z</time>
      </trkpt>
      <trkpt lat="45.06226" lon="4.52324">
        <ele>923.76702880859</ele>
        <time>2010-05-22T11:45:59Z</time>
      </trkpt>
      <trkpt lat="45.06248" lon="4.52295">
        <ele>924.30902099609</ele>
        <time>2010-05-22T11:46:04Z</time>
      </trkpt>
      <trkpt lat="45.06276" lon="4.52283">
        <ele>924.53698730469</ele>
        <time>2010-05-22T11:46:09Z</time>
      </trkpt>
      <trkpt lat="45.06287" lon="4.52284">
        <ele>924.33801269531</ele>
        <time>2010-05-22T11:46:11Z</time>
      </trkpt>
      <trkpt lat="45.06305" lon="4.5229">
        <ele>923.74798583984</ele>
        <time>2010-05-22T11:46:14Z</time>
      </trkpt>
      <trkpt lat="45.06326" lon="4.52313">
        <ele>923.52801513672</ele>
        <time>2010-05-22T11:46:19Z</time>
      </trkpt>
      <trkpt lat="45.06358" lon="4.52363">
        <ele>924.59997558594</ele>
        <time>2010-05-22T11:46:28Z</time>
      </trkpt>
      <trkpt lat="45.06393" lon="4.52402">
        <ele>924.88299560547</ele>
        <time>2010-05-22T11:46:36Z</time>
      </trkpt>
      <trkpt lat="45.06406" lon="4.52416">
        <ele>925.31298828125</ele>
        <time>2010-05-22T11:46:39Z</time>
      </trkpt>
      <trkpt lat="45.06427" lon="4.52418">
        <ele>926.73199462891</ele>
        <time>2010-05-22T11:46:43Z</time>
      </trkpt>
      <trkpt lat="45.06441" lon="4.52404">
        <ele>927.10400390625</ele>
        <time>2010-05-22T11:46:46Z</time>
      </trkpt>
      <trkpt lat="45.06444" lon="4.52398">
        <ele>927.15997314453</ele>
        <time>2010-05-22T11:46:47Z</time>
      </trkpt>
      <trkpt lat="45.06474" lon="4.52334">
        <ele>927.33502197266</ele>
        <time>2010-05-22T11:46:56Z</time>
      </trkpt>
      <trkpt lat="45.06491" lon="4.52297">
        <ele>927.55999755859</ele>
        <time>2010-05-22T11:47:01Z</time>
      </trkpt>
      <trkpt lat="45.06511" lon="4.52278">
        <ele>927.83099365234</ele>
        <time>2010-05-22T11:47:05Z</time>
      </trkpt>
      <trkpt lat="45.06565" lon="4.52252">
        <ele>929.10198974609</ele>
        <time>2010-05-22T11:47:15Z</time>
      </trkpt>
      <trkpt lat="45.06599" lon="4.52244">
        <ele>928.51300048828</ele>
        <time>2010-05-22T11:47:21Z</time>
      </trkpt>
      <trkpt lat="45.06609" lon="4.52246">
        <ele>928.12799072266</ele>
        <time>2010-05-22T11:47:23Z</time>
      </trkpt>
      <trkpt lat="45.06639" lon="4.52265">
        <ele>929.04302978516</ele>
        <time>2010-05-22T11:47:29Z</time>
      </trkpt>
      <trkpt lat="45.06643" lon="4.5227">
        <ele>928.72900390625</ele>
        <time>2010-05-22T11:47:30Z</time>
      </trkpt>
      <trkpt lat="45.06681" lon="4.52321">
        <ele>928.40802001953</ele>
        <time>2010-05-22T11:47:40Z</time>
      </trkpt>
      <trkpt lat="45.06717" lon="4.52368">
        <ele>929.91900634766</ele>
        <time>2010-05-22T11:47:49Z</time>
      </trkpt>
      <trkpt lat="45.06739" lon="4.52402">
        <ele>929.99102783203</ele>
        <time>2010-05-22T11:47:55Z</time>
      </trkpt>
      <trkpt lat="45.0679" lon="4.52475">
        <ele>930.5830078125</ele>
        <time>2010-05-22T11:48:08Z</time>
      </trkpt>
      <trkpt lat="45.06828" lon="4.52525">
        <ele>931.86602783203</ele>
        <time>2010-05-22T11:48:17Z</time>
      </trkpt>
      <trkpt lat="45.06853" lon="4.5254">
        <ele>932.71099853516</ele>
        <time>2010-05-22T11:48:22Z</time>
      </trkpt>
      <trkpt lat="45.06875" lon="4.52532">
        <ele>932.78302001953</ele>
        <time>2010-05-22T11:48:26Z</time>
      </trkpt>
      <trkpt lat="45.06898" lon="4.52508">
        <ele>933.04797363281</ele>
        <time>2010-05-22T11:48:31Z</time>
      </trkpt>
      <trkpt lat="45.06906" lon="4.52486">
        <ele>933.11700439453</ele>
        <time>2010-05-22T11:48:34Z</time>
      </trkpt>
      <trkpt lat="45.06921" lon="4.52434">
        <ele>933.53497314453</ele>
        <time>2010-05-22T11:48:41Z</time>
      </trkpt>
      <trkpt lat="45.06939" lon="4.52371">
        <ele>933.72900390625</ele>
        <time>2010-05-22T11:48:49Z</time>
      </trkpt>
      <trkpt lat="45.06951" lon="4.52305">
        <ele>934.73400878906</ele>
        <time>2010-05-22T11:48:57Z</time>
      </trkpt>
      <trkpt lat="45.06956" lon="4.52234">
        <ele>934.90399169922</ele>
        <time>2010-05-22T11:49:05Z</time>
      </trkpt>
      <trkpt lat="45.06949" lon="4.52162">
        <ele>935.98297119141</ele>
        <time>2010-05-22T11:49:13Z</time>
      </trkpt>
      <trkpt lat="45.06944" lon="4.5207">
        <ele>936.61199951172</ele>
        <time>2010-05-22T11:49:23Z</time>
      </trkpt>
      <trkpt lat="45.06942" lon="4.51977">
        <ele>937.32501220703</ele>
        <time>2010-05-22T11:49:33Z</time>
      </trkpt>
      <trkpt lat="45.06952" lon="4.51923">
        <ele>937.79998779297</ele>
        <time>2010-05-22T11:49:39Z</time>
      </trkpt>
      <trkpt lat="45.06971" lon="4.51884">
        <ele>937.82702636719</ele>
        <time>2010-05-22T11:49:44Z</time>
      </trkpt>
      <trkpt lat="45.07014" lon="4.51813">
        <ele>938.20397949219</ele>
        <time>2010-05-22T11:49:54Z</time>
      </trkpt>
      <trkpt lat="45.07046" lon="4.51744">
        <ele>938.35400390625</ele>
        <time>2010-05-22T11:50:03Z</time>
      </trkpt>
      <trkpt lat="45.07066" lon="4.51687">
        <ele>938.86401367188</ele>
        <time>2010-05-22T11:50:10Z</time>
      </trkpt>
      <trkpt lat="45.07076" lon="4.51633">
        <ele>939.46801757812</ele>
        <time>2010-05-22T11:50:16Z</time>
      </trkpt>
      <trkpt lat="45.07076" lon="4.51578">
        <ele>939.78601074219</ele>
        <time>2010-05-22T11:50:22Z</time>
      </trkpt>
      <trkpt lat="45.07067" lon="4.51522">
        <ele>939.82000732422</ele>
        <time>2010-05-22T11:50:28Z</time>
      </trkpt>
      <trkpt lat="45.07061" lon="4.51495">
        <ele>940.46502685547</ele>
        <time>2010-05-22T11:50:31Z</time>
      </trkpt>
      <trkpt lat="45.07062" lon="4.51458">
        <ele>940.84899902344</ele>
        <time>2010-05-22T11:50:35Z</time>
      </trkpt>
      <trkpt lat="45.07072" lon="4.51435">
        <ele>941.02697753906</ele>
        <time>2010-05-22T11:50:38Z</time>
      </trkpt>
      <trkpt lat="45.07108" lon="4.51382">
        <ele>941.10198974609</ele>
        <time>2010-05-22T11:50:46Z</time>
      </trkpt>
      <trkpt lat="45.07114" lon="4.51376">
        <ele>941.00897216797</ele>
        <time>2010-05-22T11:50:47Z</time>
      </trkpt>
      <trkpt lat="45.07143" lon="4.5136">
        <ele>941.25</ele>
        <time>2010-05-22T11:50:52Z</time>
      </trkpt>
      <trkpt lat="45.07161" lon="4.51369">
        <ele>941.26202392578</ele>
        <time>2010-05-22T11:50:55Z</time>
      </trkpt>
      <trkpt lat="45.07169" lon="4.51382">
        <ele>941.69201660156</ele>
        <time>2010-05-22T11:50:57Z</time>
      </trkpt>
      <trkpt lat="45.07184" lon="4.51434">
        <ele>940.77502441406</ele>
        <time>2010-05-22T11:51:03Z</time>
      </trkpt>
      <trkpt lat="45.07192" lon="4.51501">
        <ele>941.73797607422</ele>
        <time>2010-05-22T11:51:11Z</time>
      </trkpt>
      <trkpt lat="45.07205" lon="4.51574">
        <ele>941.47399902344</ele>
        <time>2010-05-22T11:51:20Z</time>
      </trkpt>
      <trkpt lat="45.07222" lon="4.51627">
        <ele>941.39202880859</ele>
        <time>2010-05-22T11:51:27Z</time>
      </trkpt>
      <trkpt lat="45.07246" lon="4.51694">
        <ele>942.11602783203</ele>
        <time>2010-05-22T11:51:36Z</time>
      </trkpt>
      <trkpt lat="45.07262" lon="4.5176">
        <ele>941.41400146484</ele>
        <time>2010-05-22T11:51:44Z</time>
      </trkpt>
      <trkpt lat="45.07269" lon="4.51829">
        <ele>942.11199951172</ele>
        <time>2010-05-22T11:51:52Z</time>
      </trkpt>
      <trkpt lat="45.07277" lon="4.51916">
        <ele>942.40997314453</ele>
        <time>2010-05-22T11:52:02Z</time>
      </trkpt>
      <trkpt lat="45.07277" lon="4.51994">
        <ele>942.18798828125</ele>
        <time>2010-05-22T11:52:11Z</time>
      </trkpt>
      <trkpt lat="45.07267" lon="4.52074">
        <ele>943.85601806641</ele>
        <time>2010-05-22T11:52:20Z</time>
      </trkpt>
      <trkpt lat="45.07261" lon="4.52139">
        <ele>943.85699462891</ele>
        <time>2010-05-22T11:52:27Z</time>
      </trkpt>
      <trkpt lat="45.07267" lon="4.52223">
        <ele>943.23199462891</ele>
        <time>2010-05-22T11:52:36Z</time>
      </trkpt>
      <trkpt lat="45.07277" lon="4.52334">
        <ele>943.08502197266</ele>
        <time>2010-05-22T11:52:48Z</time>
      </trkpt>
      <trkpt lat="45.0729" lon="4.52385">
        <ele>944.375</ele>
        <time>2010-05-22T11:52:54Z</time>
      </trkpt>
      <trkpt lat="45.07297" lon="4.5241">
        <ele>945.23199462891</ele>
        <time>2010-05-22T11:52:57Z</time>
      </trkpt>
      <trkpt lat="45.07313" lon="4.52435">
        <ele>945.02600097656</ele>
        <time>2010-05-22T11:53:01Z</time>
      </trkpt>
      <trkpt lat="45.07331" lon="4.52436">
        <ele>945.51702880859</ele>
        <time>2010-05-22T11:53:04Z</time>
      </trkpt>
      <trkpt lat="45.07348" lon="4.52427">
        <ele>945.93499755859</ele>
        <time>2010-05-22T11:53:07Z</time>
      </trkpt>
      <trkpt lat="45.07388" lon="4.52394">
        <ele>946.28802490234</ele>
        <time>2010-05-22T11:53:14Z</time>
      </trkpt>
      <trkpt lat="45.07413" lon="4.52382">
        <ele>946.33898925781</ele>
        <time>2010-05-22T11:53:18Z</time>
      </trkpt>
      <trkpt lat="45.07436" lon="4.52363">
        <ele>945.73400878906</ele>
        <time>2010-05-22T11:53:22Z</time>
      </trkpt>
      <trkpt lat="45.07447" lon="4.5235">
        <ele>945.50598144531</ele>
        <time>2010-05-22T11:53:24Z</time>
      </trkpt>
      <trkpt lat="45.07488" lon="4.52314">
        <ele>946.51898193359</ele>
        <time>2010-05-22T11:53:31Z</time>
      </trkpt>
      <trkpt lat="45.07501" lon="4.52309">
        <ele>946.27801513672</ele>
        <time>2010-05-22T11:53:33Z</time>
      </trkpt>
      <trkpt lat="45.07538" lon="4.52314">
        <ele>947.27697753906</ele>
        <time>2010-05-22T11:53:39Z</time>
      </trkpt>
      <trkpt lat="45.07553" lon="4.52331">
        <ele>946.61999511719</ele>
        <time>2010-05-22T11:53:42Z</time>
      </trkpt>
      <trkpt lat="45.07596" lon="4.52397">
        <ele>946.59997558594</ele>
        <time>2010-05-22T11:53:52Z</time>
      </trkpt>
      <trkpt lat="45.07603" lon="4.52411">
        <ele>946.8740234375</ele>
        <time>2010-05-22T11:53:54Z</time>
      </trkpt>
      <trkpt lat="45.07613" lon="4.52444">
        <ele>947.16400146484</ele>
        <time>2010-05-22T11:53:58Z</time>
      </trkpt>
      <trkpt lat="45.07629" lon="4.52466">
        <ele>947.67901611328</ele>
        <time>2010-05-22T11:54:02Z</time>
      </trkpt>
      <trkpt lat="45.07641" lon="4.52462">
        <ele>947.51898193359</ele>
        <time>2010-05-22T11:54:04Z</time>
      </trkpt>
      <trkpt lat="45.07674" lon="4.52454">
        <ele>946.47302246094</ele>
        <time>2010-05-22T11:54:09Z</time>
      </trkpt>
      <trkpt lat="45.07718" lon="4.52468">
        <ele>946.6240234375</ele>
        <time>2010-05-22T11:54:16Z</time>
      </trkpt>
      <trkpt lat="45.0774" lon="4.52485">
        <ele>946.39697265625</ele>
        <time>2010-05-22T11:54:20Z</time>
      </trkpt>
      <trkpt lat="45.07775" lon="4.52534">
        <ele>947.44201660156</ele>
        <time>2010-05-22T11:54:28Z</time>
      </trkpt>
      <trkpt lat="45.07789" lon="4.52563">
        <ele>947.57299804688</ele>
        <time>2010-05-22T11:54:32Z</time>
      </trkpt>
      <trkpt lat="45.07795" lon="4.52607">
        <ele>947.77899169922</ele>
        <time>2010-05-22T11:54:37Z</time>
      </trkpt>
      <trkpt lat="45.07793" lon="4.52625">
        <ele>947.61499023438</ele>
        <time>2010-05-22T11:54:39Z</time>
      </trkpt>
      <trkpt lat="45.0779" lon="4.52642">
        <ele>947.68402099609</ele>
        <time>2010-05-22T11:54:41Z</time>
      </trkpt>
      <trkpt lat="45.07796" lon="4.52679">
        <ele>947.79901123047</ele>
        <time>2010-05-22T11:54:45Z</time>
      </trkpt>
      <trkpt lat="45.07799" lon="4.52687">
        <ele>947.97900390625</ele>
        <time>2010-05-22T11:54:46Z</time>
      </trkpt>
      <trkpt lat="45.07817" lon="4.5271">
        <ele>948.63299560547</ele>
        <time>2010-05-22T11:54:50Z</time>
      </trkpt>
      <trkpt lat="45.07829" lon="4.52706">
        <ele>949.02398681641</ele>
        <time>2010-05-22T11:54:52Z</time>
      </trkpt>
      <trkpt lat="45.07873" lon="4.52692">
        <ele>948.29699707031</ele>
        <time>2010-05-22T11:54:59Z</time>
      </trkpt>
      <trkpt lat="45.07914" lon="4.52678">
        <ele>948.91802978516</ele>
        <time>2010-05-22T11:55:06Z</time>
      </trkpt>
      <trkpt lat="45.0792" lon="4.52676">
        <ele>948.76300048828</ele>
        <time>2010-05-22T11:55:07Z</time>
      </trkpt>
      <trkpt lat="45.07945" lon="4.52676">
        <ele>948.99200439453</ele>
        <time>2010-05-22T11:55:11Z</time>
      </trkpt>
      <trkpt lat="45.07987" lon="4.52705">
        <ele>949.74597167969</ele>
        <time>2010-05-22T11:55:19Z</time>
      </trkpt>
      <trkpt lat="45.08009" lon="4.52707">
        <ele>949.65100097656</ele>
        <time>2010-05-22T11:55:23Z</time>
      </trkpt>
      <trkpt lat="45.08021" lon="4.52686">
        <ele>949.583984375</ele>
        <time>2010-05-22T11:55:26Z</time>
      </trkpt>
      <trkpt lat="45.08037" lon="4.52643">
        <ele>948.77899169922</ele>
        <time>2010-05-22T11:55:31Z</time>
      </trkpt>
      <trkpt lat="45.08066" lon="4.52611">
        <ele>949.21997070312</ele>
        <time>2010-05-22T11:55:36Z</time>
      </trkpt>
      <trkpt lat="45.08109" lon="4.52565">
        <ele>949.72399902344</ele>
        <time>2010-05-22T11:55:43Z</time>
      </trkpt>
      <trkpt lat="45.08139" lon="4.52526">
        <ele>949.72802734375</ele>
        <time>2010-05-22T11:55:48Z</time>
      </trkpt>
      <trkpt lat="45.08153" lon="4.52514">
        <ele>950.07299804688</ele>
        <time>2010-05-22T11:55:50Z</time>
      </trkpt>
      <trkpt lat="45.08164" lon="4.52488">
        <ele>950.30401611328</ele>
        <time>2010-05-22T11:55:53Z</time>
      </trkpt>
      <trkpt lat="45.08156" lon="4.52469">
        <ele>950.48400878906</ele>
        <time>2010-05-22T11:55:55Z</time>
      </trkpt>
      <trkpt lat="45.0813" lon="4.5245">
        <ele>950.27502441406</ele>
        <time>2010-05-22T11:55:59Z</time>
      </trkpt>
      <trkpt lat="45.08099" lon="4.52446">
        <ele>949.65899658203</ele>
        <time>2010-05-22T11:56:03Z</time>
      </trkpt>
      <trkpt lat="45.08071" lon="4.52438">
        <ele>950.69702148438</ele>
        <time>2010-05-22T11:56:07Z</time>
      </trkpt>
      <trkpt lat="45.0806" lon="4.52408">
        <ele>950.94598388672</ele>
        <time>2010-05-22T11:56:10Z</time>
      </trkpt>
      <trkpt lat="45.08062" lon="4.52387">
        <ele>951.07299804688</ele>
        <time>2010-05-22T11:56:12Z</time>
      </trkpt>
      <trkpt lat="45.08082" lon="4.52369">
        <ele>950.74200439453</ele>
        <time>2010-05-22T11:56:15Z</time>
      </trkpt>
      <trkpt lat="45.08098" lon="4.52365">
        <ele>950.47198486328</ele>
        <time>2010-05-22T11:56:17Z</time>
      </trkpt>
      <trkpt lat="45.08164" lon="4.52361">
        <ele>950.33502197266</ele>
        <time>2010-05-22T11:56:25Z</time>
      </trkpt>
      <trkpt lat="45.08196" lon="4.52353">
        <ele>951.01599121094</ele>
        <time>2010-05-22T11:56:29Z</time>
      </trkpt>
      <trkpt lat="45.08227" lon="4.52328">
        <ele>951.74102783203</ele>
        <time>2010-05-22T11:56:33Z</time>
      </trkpt>
      <trkpt lat="45.08263" lon="4.52282">
        <ele>952.45501708984</ele>
        <time>2010-05-22T11:56:39Z</time>
      </trkpt>
      <trkpt lat="45.08289" lon="4.52255">
        <ele>951.99597167969</ele>
        <time>2010-05-22T11:56:44Z</time>
      </trkpt>
      <trkpt lat="45.08326" lon="4.52224">
        <ele>952.71398925781</ele>
        <time>2010-05-22T11:56:51Z</time>
      </trkpt>
      <trkpt lat="45.08355" lon="4.52221">
        <ele>952.70098876953</ele>
        <time>2010-05-22T11:56:56Z</time>
      </trkpt>
      <trkpt lat="45.08361" lon="4.52224">
        <ele>953.03302001953</ele>
        <time>2010-05-22T11:56:57Z</time>
      </trkpt>
      <trkpt lat="45.08401" lon="4.52242">
        <ele>953.34997558594</ele>
        <time>2010-05-22T11:57:04Z</time>
      </trkpt>
      <trkpt lat="45.0844" lon="4.5226">
        <ele>953.29302978516</ele>
        <time>2010-05-22T11:57:10Z</time>
      </trkpt>
      <trkpt lat="45.08457" lon="4.5227">
        <ele>953.07501220703</ele>
        <time>2010-05-22T11:57:13Z</time>
      </trkpt>
      <trkpt lat="45.08477" lon="4.52301">
        <ele>952.90399169922</ele>
        <time>2010-05-22T11:57:18Z</time>
      </trkpt>
      <trkpt lat="45.0848" lon="4.52335">
        <ele>953.07098388672</ele>
        <time>2010-05-22T11:57:22Z</time>
      </trkpt>
      <trkpt lat="45.08484" lon="4.52399">
        <ele>952.96301269531</ele>
        <time>2010-05-22T11:57:29Z</time>
      </trkpt>
      <trkpt lat="45.08499" lon="4.52432">
        <ele>953.73400878906</ele>
        <time>2010-05-22T11:57:33Z</time>
      </trkpt>
      <trkpt lat="45.0852" lon="4.52442">
        <ele>953.166015625</ele>
        <time>2010-05-22T11:57:36Z</time>
      </trkpt>
      <trkpt lat="45.08578" lon="4.5246">
        <ele>953.94000244141</ele>
        <time>2010-05-22T11:57:44Z</time>
      </trkpt>
      <trkpt lat="45.08622" lon="4.5248">
        <ele>954.74700927734</ele>
        <time>2010-05-22T11:57:50Z</time>
      </trkpt>
      <trkpt lat="45.08661" lon="4.52491">
        <ele>954.88397216797</ele>
        <time>2010-05-22T11:57:55Z</time>
      </trkpt>
      <trkpt lat="45.08707" lon="4.52491">
        <ele>954.64501953125</ele>
        <time>2010-05-22T11:58:01Z</time>
      </trkpt>
      <trkpt lat="45.08754" lon="4.52491">
        <ele>955.52697753906</ele>
        <time>2010-05-22T11:58:07Z</time>
      </trkpt>
      <trkpt lat="45.08786" lon="4.52501">
        <ele>955.36401367188</ele>
        <time>2010-05-22T11:58:11Z</time>
      </trkpt>
      <trkpt lat="45.08823" lon="4.52524">
        <ele>955.77001953125</ele>
        <time>2010-05-22T11:58:16Z</time>
      </trkpt>
      <trkpt lat="45.08862" lon="4.52536">
        <ele>956.28698730469</ele>
        <time>2010-05-22T11:58:21Z</time>
      </trkpt>
      <trkpt lat="45.08901" lon="4.52548">
        <ele>955.95501708984</ele>
        <time>2010-05-22T11:58:26Z</time>
      </trkpt>
      <trkpt lat="45.08947" lon="4.52569">
        <ele>956.95300292969</ele>
        <time>2010-05-22T11:58:32Z</time>
      </trkpt>
      <trkpt lat="45.08955" lon="4.52573">
        <ele>957.01800537109</ele>
        <time>2010-05-22T11:58:33Z</time>
      </trkpt>
      <trkpt lat="45.08995" lon="4.52572">
        <ele>957.53698730469</ele>
        <time>2010-05-22T11:58:38Z</time>
      </trkpt>
      <trkpt lat="45.09019" lon="4.52566">
        <ele>957.53900146484</ele>
        <time>2010-05-22T11:58:41Z</time>
      </trkpt>
      <trkpt lat="45.09055" lon="4.52541">
        <ele>957.833984375</ele>
        <time>2010-05-22T11:58:46Z</time>
      </trkpt>
      <trkpt lat="45.09065" lon="4.52525">
        <ele>957.79302978516</ele>
        <time>2010-05-22T11:58:48Z</time>
      </trkpt>
      <trkpt lat="45.09102" lon="4.52438">
        <ele>958.77801513672</ele>
        <time>2010-05-22T11:58:57Z</time>
      </trkpt>
      <trkpt lat="45.09108" lon="4.52417">
        <ele>958.72998046875</ele>
        <time>2010-05-22T11:58:59Z</time>
      </trkpt>
      <trkpt lat="45.09125" lon="4.52396">
        <ele>958.19097900391</ele>
        <time>2010-05-22T11:59:02Z</time>
      </trkpt>
      <trkpt lat="45.09137" lon="4.52404">
        <ele>957.64697265625</ele>
        <time>2010-05-22T11:59:04Z</time>
      </trkpt>
      <trkpt lat="45.09144" lon="4.52433">
        <ele>957.58801269531</ele>
        <time>2010-05-22T11:59:07Z</time>
      </trkpt>
      <trkpt lat="45.09146" lon="4.52503">
        <ele>958.28802490234</ele>
        <time>2010-05-22T11:59:14Z</time>
      </trkpt>
      <trkpt lat="45.09146" lon="4.52564">
        <ele>958.84698486328</ele>
        <time>2010-05-22T11:59:20Z</time>
      </trkpt>
      <trkpt lat="45.09148" lon="4.52632">
        <ele>959.5830078125</ele>
        <time>2010-05-22T11:59:27Z</time>
      </trkpt>
      <trkpt lat="45.09151" lon="4.52651">
        <ele>960.05700683594</ele>
        <time>2010-05-22T11:59:29Z</time>
      </trkpt>
      <trkpt lat="45.09175" lon="4.52711">
        <ele>962.31097412109</ele>
        <time>2010-05-22T11:59:36Z</time>
      </trkpt>
      <trkpt lat="45.09196" lon="4.52747">
        <ele>963.06896972656</ele>
        <time>2010-05-22T11:59:41Z</time>
      </trkpt>
      <trkpt lat="45.09219" lon="4.52764">
        <ele>964.76501464844</ele>
        <time>2010-05-22T11:59:45Z</time>
      </trkpt>
      <trkpt lat="45.09268" lon="4.52787">
        <ele>966.86102294922</ele>
        <time>2010-05-22T11:59:54Z</time>
      </trkpt>
      <trkpt lat="45.09285" lon="4.52808">
        <ele>967.30499267578</ele>
        <time>2010-05-22T11:59:58Z</time>
      </trkpt>
      <trkpt lat="45.09309" lon="4.52855">
        <ele>969.90197753906</ele>
        <time>2010-05-22T12:00:06Z</time>
      </trkpt>
      <trkpt lat="45.09311" lon="4.5286">
        <ele>970.18701171875</ele>
        <time>2010-05-22T12:00:07Z</time>
      </trkpt>
      <trkpt lat="45.09317" lon="4.52877">
        <ele>970.91998291016</ele>
        <time>2010-05-22T12:00:10Z</time>
      </trkpt>
      <trkpt lat="45.09316" lon="4.52901">
        <ele>972.84497070312</ele>
        <time>2010-05-22T12:00:14Z</time>
      </trkpt>
      <trkpt lat="45.09304" lon="4.52913">
        <ele>972.78900146484</ele>
        <time>2010-05-22T12:00:17Z</time>
      </trkpt>
      <trkpt lat="45.09292" lon="4.52915">
        <ele>972.26397705078</ele>
        <time>2010-05-22T12:00:19Z</time>
      </trkpt>
      <trkpt lat="45.09255" lon="4.52918">
        <ele>972.32800292969</ele>
        <time>2010-05-22T12:00:25Z</time>
      </trkpt>
      <trkpt lat="45.09224" lon="4.52938">
        <ele>973.51501464844</ele>
        <time>2010-05-22T12:00:31Z</time>
      </trkpt>
      <trkpt lat="45.09203" lon="4.52975">
        <ele>974.19500732422</ele>
        <time>2010-05-22T12:00:37Z</time>
      </trkpt>
      <trkpt lat="45.09199" lon="4.52991">
        <ele>974.44598388672</ele>
        <time>2010-05-22T12:00:39Z</time>
      </trkpt>
      <trkpt lat="45.092" lon="4.53022">
        <ele>976.125</ele>
        <time>2010-05-22T12:00:43Z</time>
      </trkpt>
      <trkpt lat="45.09211" lon="4.53043">
        <ele>976.2509765625</ele>
        <time>2010-05-22T12:00:46Z</time>
      </trkpt>
      <trkpt lat="45.09248" lon="4.53097">
        <ele>978.05499267578</ele>
        <time>2010-05-22T12:00:55Z</time>
      </trkpt>
      <trkpt lat="45.09267" lon="4.53142">
        <ele>979.76501464844</ele>
        <time>2010-05-22T12:01:01Z</time>
      </trkpt>
      <trkpt lat="45.09285" lon="4.53195">
        <ele>981.32202148438</ele>
        <time>2010-05-22T12:01:08Z</time>
      </trkpt>
      <trkpt lat="45.09307" lon="4.53265">
        <ele>983.40100097656</ele>
        <time>2010-05-22T12:01:17Z</time>
      </trkpt>
      <trkpt lat="45.09314" lon="4.53289">
        <ele>983.80200195312</ele>
        <time>2010-05-22T12:01:20Z</time>
      </trkpt>
      <trkpt lat="45.09324" lon="4.53366">
        <ele>985.47198486328</ele>
        <time>2010-05-22T12:01:29Z</time>
      </trkpt>
      <trkpt lat="45.09324" lon="4.53375">
        <ele>985.66198730469</ele>
        <time>2010-05-22T12:01:30Z</time>
      </trkpt>
      <trkpt lat="45.09324" lon="4.53402">
        <ele>986.26501464844</ele>
        <time>2010-05-22T12:01:33Z</time>
      </trkpt>
      <trkpt lat="45.09336" lon="4.53431">
        <ele>987.07397460938</ele>
        <time>2010-05-22T12:01:37Z</time>
      </trkpt>
      <trkpt lat="45.09342" lon="4.53434">
        <ele>987.20098876953</ele>
        <time>2010-05-22T12:01:38Z</time>
      </trkpt>
      <trkpt lat="45.09386" lon="4.53452">
        <ele>988.43402099609</ele>
        <time>2010-05-22T12:01:45Z</time>
      </trkpt>
      <trkpt lat="45.09441" lon="4.53474">
        <ele>990.54699707031</ele>
        <time>2010-05-22T12:01:54Z</time>
      </trkpt>
      <trkpt lat="45.0948" lon="4.53502">
        <ele>991.69097900391</ele>
        <time>2010-05-22T12:02:01Z</time>
      </trkpt>
      <trkpt lat="45.09503" lon="4.53531">
        <ele>993.17102050781</ele>
        <time>2010-05-22T12:02:06Z</time>
      </trkpt>
      <trkpt lat="45.09516" lon="4.53559">
        <ele>993.93499755859</ele>
        <time>2010-05-22T12:02:10Z</time>
      </trkpt>
      <trkpt lat="45.09521" lon="4.53574">
        <ele>994.23901367188</ele>
        <time>2010-05-22T12:02:12Z</time>
      </trkpt>
      <trkpt lat="45.09531" lon="4.53633">
        <ele>995.18597412109</ele>
        <time>2010-05-22T12:02:19Z</time>
      </trkpt>
      <trkpt lat="45.09533" lon="4.53667">
        <ele>996.52398681641</ele>
        <time>2010-05-22T12:02:23Z</time>
      </trkpt>
      <trkpt lat="45.09546" lon="4.53709">
        <ele>997.36199951172</ele>
        <time>2010-05-22T12:02:28Z</time>
      </trkpt>
      <trkpt lat="45.09568" lon="4.53729">
        <ele>998.44396972656</ele>
        <time>2010-05-22T12:02:32Z</time>
      </trkpt>
      <trkpt lat="45.09581" lon="4.53734">
        <ele>998.61602783203</ele>
        <time>2010-05-22T12:02:34Z</time>
      </trkpt>
      <trkpt lat="45.0961" lon="4.53745">
        <ele>999.07897949219</ele>
        <time>2010-05-22T12:02:38Z</time>
      </trkpt>
      <trkpt lat="45.09659" lon="4.53747">
        <ele>1000.9810180664</ele>
        <time>2010-05-22T12:02:45Z</time>
      </trkpt>
      <trkpt lat="45.09666" lon="4.53746">
        <ele>1001.1309814453</ele>
        <time>2010-05-22T12:02:46Z</time>
      </trkpt>
      <trkpt lat="45.09702" lon="4.53744">
        <ele>1002.9000244141</ele>
        <time>2010-05-22T12:02:51Z</time>
      </trkpt>
      <trkpt lat="45.09745" lon="4.53754">
        <ele>1003.1079711914</ele>
        <time>2010-05-22T12:02:57Z</time>
      </trkpt>
      <trkpt lat="45.09771" lon="4.53768">
        <ele>1005.7269897461</ele>
        <time>2010-05-22T12:03:01Z</time>
      </trkpt>
      <trkpt lat="45.09801" lon="4.53793">
        <ele>1006.3959960938</ele>
        <time>2010-05-22T12:03:06Z</time>
      </trkpt>
      <trkpt lat="45.09845" lon="4.53838">
        <ele>1007.2609863281</ele>
        <time>2010-05-22T12:03:14Z</time>
      </trkpt>
      <trkpt lat="45.0985" lon="4.53843">
        <ele>1007.4479980469</ele>
        <time>2010-05-22T12:03:15Z</time>
      </trkpt>
      <trkpt lat="45.09882" lon="4.53885">
        <ele>1009.6450195312</ele>
        <time>2010-05-22T12:03:22Z</time>
      </trkpt>
      <trkpt lat="45.09912" lon="4.5393">
        <ele>1011.1229858398</ele>
        <time>2010-05-22T12:03:28Z</time>
      </trkpt>
      <trkpt lat="45.09938" lon="4.53976">
        <ele>1012.466003418</ele>
        <time>2010-05-22T12:03:34Z</time>
      </trkpt>
      <trkpt lat="45.09959" lon="4.54021">
        <ele>1013.7130126953</ele>
        <time>2010-05-22T12:03:40Z</time>
      </trkpt>
      <trkpt lat="45.09973" lon="4.54049">
        <ele>1014.2180175781</ele>
        <time>2010-05-22T12:03:44Z</time>
      </trkpt>
      <trkpt lat="45.10004" lon="4.54075">
        <ele>1015.7520141602</ele>
        <time>2010-05-22T12:03:50Z</time>
      </trkpt>
      <trkpt lat="45.10009" lon="4.54079">
        <ele>1016.0139770508</ele>
        <time>2010-05-22T12:03:51Z</time>
      </trkpt>
      <trkpt lat="45.10014" lon="4.54083">
        <ele>1015.950012207</ele>
        <time>2010-05-22T12:03:52Z</time>
      </trkpt>
      <trkpt lat="45.10061" lon="4.54095">
        <ele>1016.2810058594</ele>
        <time>2010-05-22T12:04:00Z</time>
      </trkpt>
      <trkpt lat="45.10072" lon="4.54098">
        <ele>1016.3859863281</ele>
        <time>2010-05-22T12:04:02Z</time>
      </trkpt>
      <trkpt lat="45.10087" lon="4.54107">
        <ele>1016.958984375</ele>
        <time>2010-05-22T12:04:05Z</time>
      </trkpt>
      <trkpt lat="45.10125" lon="4.54138">
        <ele>1015.4169921875</ele>
        <time>2010-05-22T12:04:13Z</time>
      </trkpt>
      <trkpt lat="45.1013" lon="4.54141">
        <ele>1014.5700073242</ele>
        <time>2010-05-22T12:04:14Z</time>
      </trkpt>
      <trkpt lat="45.1015" lon="4.54149">
        <ele>1012.8900146484</ele>
        <time>2010-05-22T12:04:17Z</time>
      </trkpt>
      <trkpt lat="45.10164" lon="4.54151">
        <ele>1012.1500244141</ele>
        <time>2010-05-22T12:04:19Z</time>
      </trkpt>
      <trkpt lat="45.10201" lon="4.54154">
        <ele>1009.9780273438</ele>
        <time>2010-05-22T12:04:24Z</time>
      </trkpt>
      <trkpt lat="45.10217" lon="4.54169">
        <ele>1009.6129760742</ele>
        <time>2010-05-22T12:04:28Z</time>
      </trkpt>
      <trkpt lat="45.10224" lon="4.54176">
        <ele>1009.9730224609</ele>
        <time>2010-05-22T12:04:31Z</time>
      </trkpt>
      <trkpt lat="45.10222" lon="4.54169">
        <ele>1010.4400024414</ele>
        <time>2010-05-22T12:04:34Z</time>
      </trkpt>
      <trkpt lat="45.10214" lon="4.54165">
        <ele>1010.6309814453</ele>
        <time>2010-05-22T12:04:40Z</time>
      </trkpt>
      <trkpt lat="45.10209" lon="4.54165">
        <ele>1010.424987793</ele>
        <time>2010-05-22T12:05:09Z</time>
      </trkpt>
      <trkpt lat="45.10199" lon="4.5417">
        <ele>1009.9990234375</ele>
        <time>2010-05-22T12:05:13Z</time>
      </trkpt>
      <trkpt lat="45.10193" lon="4.54169">
        <ele>1009.8220214844</ele>
        <time>2010-05-22T12:05:17Z</time>
      </trkpt>
      <trkpt lat="45.10193" lon="4.54169">
        <ele>1009.9219970703</ele>
        <time>2010-05-22T12:05:18Z</time>
      </trkpt>
      <trkpt lat="45.10184" lon="4.54165">
        <ele>1010.1049804688</ele>
        <time>2010-05-22T12:05:43Z</time>
      </trkpt>
      <trkpt lat="45.10184" lon="4.54164">
        <ele>1010.117980957</ele>
        <time>2010-05-22T12:05:44Z</time>
      </trkpt>
      <trkpt lat="45.10181" lon="4.54164">
        <ele>1010.5029907227</ele>
        <time>2010-05-22T12:06:23Z</time>
      </trkpt>
      <trkpt lat="45.10165" lon="4.54161">
        <ele>1010.4569702148</ele>
        <time>2010-05-22T12:06:28Z</time>
      </trkpt>
      <trkpt lat="45.10146" lon="4.54164">
        <ele>1009.9489746094</ele>
        <time>2010-05-22T12:06:32Z</time>
      </trkpt>
      <trkpt lat="45.10127" lon="4.54183">
        <ele>1008.1909790039</ele>
        <time>2010-05-22T12:06:36Z</time>
      </trkpt>
      <trkpt lat="45.10123" lon="4.542">
        <ele>1006.7550048828</ele>
        <time>2010-05-22T12:06:38Z</time>
      </trkpt>
      <trkpt lat="45.10117" lon="4.54253">
        <ele>1004.6140136719</ele>
        <time>2010-05-22T12:06:43Z</time>
      </trkpt>
      <trkpt lat="45.10097" lon="4.54317">
        <ele>1002.1630249023</ele>
        <time>2010-05-22T12:06:49Z</time>
      </trkpt>
      <trkpt lat="45.10092" lon="4.54327">
        <ele>1001.8770141602</ele>
        <time>2010-05-22T12:06:50Z</time>
      </trkpt>
      <trkpt lat="45.10065" lon="4.54361">
        <ele>1002.3140258789</ele>
        <time>2010-05-22T12:06:54Z</time>
      </trkpt>
      <trkpt lat="45.10046" lon="4.54402">
        <ele>999.35498046875</ele>
        <time>2010-05-22T12:06:58Z</time>
      </trkpt>
      <trkpt lat="45.10047" lon="4.54428">
        <ele>998.25701904297</ele>
        <time>2010-05-22T12:07:00Z</time>
      </trkpt>
      <trkpt lat="45.10053" lon="4.54466">
        <ele>997.29901123047</ele>
        <time>2010-05-22T12:07:03Z</time>
      </trkpt>
      <trkpt lat="45.10056" lon="4.54493">
        <ele>997.04998779297</ele>
        <time>2010-05-22T12:07:05Z</time>
      </trkpt>
      <trkpt lat="45.10044" lon="4.54531">
        <ele>995.05297851562</ele>
        <time>2010-05-22T12:07:08Z</time>
      </trkpt>
      <trkpt lat="45.10037" lon="4.54543">
        <ele>994.77801513672</ele>
        <time>2010-05-22T12:07:09Z</time>
      </trkpt>
      <trkpt lat="45.1002" lon="4.54621">
        <ele>989.42901611328</ele>
        <time>2010-05-22T12:07:14Z</time>
      </trkpt>
      <trkpt lat="45.10019" lon="4.54692">
        <ele>986.22399902344</ele>
        <time>2010-05-22T12:07:18Z</time>
      </trkpt>
      <trkpt lat="45.10032" lon="4.54761">
        <ele>982.71899414062</ele>
        <time>2010-05-22T12:07:22Z</time>
      </trkpt>
      <trkpt lat="45.10046" lon="4.54791">
        <ele>980.28997802734</ele>
        <time>2010-05-22T12:07:24Z</time>
      </trkpt>
      <trkpt lat="45.1006" lon="4.5482">
        <ele>979.48901367188</ele>
        <time>2010-05-22T12:07:26Z</time>
      </trkpt>
      <trkpt lat="45.1011" lon="4.54936">
        <ele>974.70599365234</ele>
        <time>2010-05-22T12:07:34Z</time>
      </trkpt>
      <trkpt lat="45.10144" lon="4.54982">
        <ele>971.76800537109</ele>
        <time>2010-05-22T12:07:38Z</time>
      </trkpt>
      <trkpt lat="45.10155" lon="4.54989">
        <ele>971.15197753906</ele>
        <time>2010-05-22T12:07:39Z</time>
      </trkpt>
      <trkpt lat="45.10205" lon="4.55038">
        <ele>967.35101318359</ele>
        <time>2010-05-22T12:07:44Z</time>
      </trkpt>
      <trkpt lat="45.10252" lon="4.55098">
        <ele>962.45098876953</ele>
        <time>2010-05-22T12:07:49Z</time>
      </trkpt>
      <trkpt lat="45.10299" lon="4.55136">
        <ele>958.76800537109</ele>
        <time>2010-05-22T12:07:53Z</time>
      </trkpt>
      <trkpt lat="45.10323" lon="4.55179">
        <ele>956.18298339844</ele>
        <time>2010-05-22T12:07:56Z</time>
      </trkpt>
      <trkpt lat="45.10327" lon="4.55216">
        <ele>954.86401367188</ele>
        <time>2010-05-22T12:07:58Z</time>
      </trkpt>
      <trkpt lat="45.10326" lon="4.55235">
        <ele>953.541015625</ele>
        <time>2010-05-22T12:07:59Z</time>
      </trkpt>
      <trkpt lat="45.10327" lon="4.55331">
        <ele>949.25799560547</ele>
        <time>2010-05-22T12:08:04Z</time>
      </trkpt>
      <trkpt lat="45.10332" lon="4.55349">
        <ele>947.81402587891</ele>
        <time>2010-05-22T12:08:05Z</time>
      </trkpt>
      <trkpt lat="45.10344" lon="4.55385">
        <ele>945.80603027344</ele>
        <time>2010-05-22T12:08:07Z</time>
      </trkpt>
      <trkpt lat="45.10378" lon="4.5545">
        <ele>941.39697265625</ele>
        <time>2010-05-22T12:08:11Z</time>
      </trkpt>
      <trkpt lat="45.10391" lon="4.55507">
        <ele>939.65600585938</ele>
        <time>2010-05-22T12:08:14Z</time>
      </trkpt>
      <trkpt lat="45.10393" lon="4.55527">
        <ele>939.01599121094</ele>
        <time>2010-05-22T12:08:15Z</time>
      </trkpt>
      <trkpt lat="45.10416" lon="4.55601">
        <ele>934.73999023438</ele>
        <time>2010-05-22T12:08:19Z</time>
      </trkpt>
      <trkpt lat="45.10435" lon="4.55634">
        <ele>933.28399658203</ele>
        <time>2010-05-22T12:08:21Z</time>
      </trkpt>
      <trkpt lat="45.10467" lon="4.55729">
        <ele>928.57800292969</ele>
        <time>2010-05-22T12:08:26Z</time>
      </trkpt>
      <trkpt lat="45.10494" lon="4.55857">
        <ele>920.88000488281</ele>
        <time>2010-05-22T12:08:32Z</time>
      </trkpt>
      <trkpt lat="45.10498" lon="4.55878">
        <ele>919.79400634766</ele>
        <time>2010-05-22T12:08:33Z</time>
      </trkpt>
      <trkpt lat="45.10498" lon="4.55969">
        <ele>914.13500976562</ele>
        <time>2010-05-22T12:08:37Z</time>
      </trkpt>
      <trkpt lat="45.10499" lon="4.56083">
        <ele>906.89501953125</ele>
        <time>2010-05-22T12:08:42Z</time>
      </trkpt>
      <trkpt lat="45.10507" lon="4.56152">
        <ele>905.39697265625</ele>
        <time>2010-05-22T12:08:45Z</time>
      </trkpt>
      <trkpt lat="45.10515" lon="4.56199">
        <ele>902.90802001953</ele>
        <time>2010-05-22T12:08:47Z</time>
      </trkpt>
      <trkpt lat="45.10516" lon="4.5629">
        <ele>896.98400878906</ele>
        <time>2010-05-22T12:08:51Z</time>
      </trkpt>
      <trkpt lat="45.10487" lon="4.56438">
        <ele>893.5</ele>
        <time>2010-05-22T12:08:58Z</time>
      </trkpt>
      <trkpt lat="45.10463" lon="4.56516">
        <ele>891.99499511719</ele>
        <time>2010-05-22T12:09:02Z</time>
      </trkpt>
      <trkpt lat="45.1042" lon="4.56624">
        <ele>888.12097167969</ele>
        <time>2010-05-22T12:09:08Z</time>
      </trkpt>
      <trkpt lat="45.10396" lon="4.56718">
        <ele>886.80700683594</ele>
        <time>2010-05-22T12:09:13Z</time>
      </trkpt>
      <trkpt lat="45.10378" lon="4.56818">
        <ele>882.64001464844</ele>
        <time>2010-05-22T12:09:18Z</time>
      </trkpt>
      <trkpt lat="45.10358" lon="4.56919">
        <ele>877.80700683594</ele>
        <time>2010-05-22T12:09:23Z</time>
      </trkpt>
      <trkpt lat="45.10345" lon="4.56998">
        <ele>876.39300537109</ele>
        <time>2010-05-22T12:09:27Z</time>
      </trkpt>
      <trkpt lat="45.1034" lon="4.57039">
        <ele>874.38897705078</ele>
        <time>2010-05-22T12:09:29Z</time>
      </trkpt>
      <trkpt lat="45.10331" lon="4.57077">
        <ele>872.33898925781</ele>
        <time>2010-05-22T12:09:31Z</time>
      </trkpt>
      <trkpt lat="45.1032" lon="4.57132">
        <ele>870.14398193359</ele>
        <time>2010-05-22T12:09:34Z</time>
      </trkpt>
      <trkpt lat="45.10316" lon="4.57205">
        <ele>870.19201660156</ele>
        <time>2010-05-22T12:09:38Z</time>
      </trkpt>
      <trkpt lat="45.10298" lon="4.57275">
        <ele>868.60198974609</ele>
        <time>2010-05-22T12:09:42Z</time>
      </trkpt>
      <trkpt lat="45.10285" lon="4.57349">
        <ele>867.67102050781</ele>
        <time>2010-05-22T12:09:46Z</time>
      </trkpt>
      <trkpt lat="45.1028" lon="4.57365">
        <ele>867.47698974609</ele>
        <time>2010-05-22T12:09:47Z</time>
      </trkpt>
      <trkpt lat="45.10247" lon="4.57415">
        <ele>867.50799560547</ele>
        <time>2010-05-22T12:09:51Z</time>
      </trkpt>
      <trkpt lat="45.1023" lon="4.57422">
        <ele>866.23901367188</ele>
        <time>2010-05-22T12:09:53Z</time>
      </trkpt>
      <trkpt lat="45.10195" lon="4.57422">
        <ele>865.02099609375</ele>
        <time>2010-05-22T12:09:56Z</time>
      </trkpt>
      <trkpt lat="45.10183" lon="4.57422">
        <ele>864.27398681641</ele>
        <time>2010-05-22T12:09:57Z</time>
      </trkpt>
      <trkpt lat="45.10138" lon="4.57446">
        <ele>862.10797119141</ele>
        <time>2010-05-22T12:10:01Z</time>
      </trkpt>
      <trkpt lat="45.10124" lon="4.57474">
        <ele>862.17901611328</ele>
        <time>2010-05-22T12:10:03Z</time>
      </trkpt>
      <trkpt lat="45.10074" lon="4.57573">
        <ele>859.33001708984</ele>
        <time>2010-05-22T12:10:10Z</time>
      </trkpt>
      <trkpt lat="45.10057" lon="4.57599">
        <ele>858.51000976562</ele>
        <time>2010-05-22T12:10:12Z</time>
      </trkpt>
      <trkpt lat="45.10006" lon="4.57661">
        <ele>854.95599365234</ele>
        <time>2010-05-22T12:10:17Z</time>
      </trkpt>
      <trkpt lat="45.09987" lon="4.57688">
        <ele>854.2509765625</ele>
        <time>2010-05-22T12:10:19Z</time>
      </trkpt>
      <trkpt lat="45.09964" lon="4.57757">
        <ele>849.68798828125</ele>
        <time>2010-05-22T12:10:23Z</time>
      </trkpt>
      <trkpt lat="45.09971" lon="4.57816">
        <ele>847.03802490234</ele>
        <time>2010-05-22T12:10:26Z</time>
      </trkpt>
      <trkpt lat="45.09999" lon="4.57924">
        <ele>842.63800048828</ele>
        <time>2010-05-22T12:10:32Z</time>
      </trkpt>
      <trkpt lat="45.10004" lon="4.57942">
        <ele>842.03198242188</ele>
        <time>2010-05-22T12:10:33Z</time>
      </trkpt>
      <trkpt lat="45.10006" lon="4.57998">
        <ele>840.52398681641</ele>
        <time>2010-05-22T12:10:36Z</time>
      </trkpt>
      <trkpt lat="45.10003" lon="4.58016">
        <ele>840.02600097656</ele>
        <time>2010-05-22T12:10:37Z</time>
      </trkpt>
      <trkpt lat="45.09974" lon="4.58101">
        <ele>835.97399902344</ele>
        <time>2010-05-22T12:10:42Z</time>
      </trkpt>
      <trkpt lat="45.09961" lon="4.58134">
        <ele>835.22802734375</ele>
        <time>2010-05-22T12:10:44Z</time>
      </trkpt>
      <trkpt lat="45.09932" lon="4.58201">
        <ele>832.63299560547</ele>
        <time>2010-05-22T12:10:48Z</time>
      </trkpt>
      <trkpt lat="45.09893" lon="4.58284">
        <ele>827.40002441406</ele>
        <time>2010-05-22T12:10:53Z</time>
      </trkpt>
      <trkpt lat="45.09858" lon="4.58315">
        <ele>824.31597900391</ele>
        <time>2010-05-22T12:10:56Z</time>
      </trkpt>
      <trkpt lat="45.09836" lon="4.58336">
        <ele>822.29602050781</ele>
        <time>2010-05-22T12:10:58Z</time>
      </trkpt>
      <trkpt lat="45.09826" lon="4.58387">
        <ele>821.62200927734</ele>
        <time>2010-05-22T12:11:01Z</time>
      </trkpt>
      <trkpt lat="45.0983" lon="4.58426">
        <ele>820.66198730469</ele>
        <time>2010-05-22T12:11:03Z</time>
      </trkpt>
      <trkpt lat="45.0983" lon="4.58482">
        <ele>817.99401855469</ele>
        <time>2010-05-22T12:11:06Z</time>
      </trkpt>
      <trkpt lat="45.09809" lon="4.58548">
        <ele>814.69702148438</ele>
        <time>2010-05-22T12:11:10Z</time>
      </trkpt>
      <trkpt lat="45.09781" lon="4.58584">
        <ele>812.82098388672</ele>
        <time>2010-05-22T12:11:13Z</time>
      </trkpt>
      <trkpt lat="45.09757" lon="4.58594">
        <ele>811.31896972656</ele>
        <time>2010-05-22T12:11:15Z</time>
      </trkpt>
      <trkpt lat="45.09719" lon="4.58611">
        <ele>809.73797607422</ele>
        <time>2010-05-22T12:11:18Z</time>
      </trkpt>
      <trkpt lat="45.09684" lon="4.58635">
        <ele>807.57299804688</ele>
        <time>2010-05-22T12:11:21Z</time>
      </trkpt>
      <trkpt lat="45.09637" lon="4.58621">
        <ele>805.02697753906</ele>
        <time>2010-05-22T12:11:25Z</time>
      </trkpt>
      <trkpt lat="45.09616" lon="4.58604">
        <ele>804.33599853516</ele>
        <time>2010-05-22T12:11:27Z</time>
      </trkpt>
      <trkpt lat="45.09556" lon="4.58554">
        <ele>799.86102294922</ele>
        <time>2010-05-22T12:11:32Z</time>
      </trkpt>
      <trkpt lat="45.09506" lon="4.58521">
        <ele>796.34698486328</ele>
        <time>2010-05-22T12:11:36Z</time>
      </trkpt>
      <trkpt lat="45.09467" lon="4.58526">
        <ele>794.53802490234</ele>
        <time>2010-05-22T12:11:39Z</time>
      </trkpt>
      <trkpt lat="45.09446" lon="4.58548">
        <ele>793.75701904297</ele>
        <time>2010-05-22T12:11:41Z</time>
      </trkpt>
      <trkpt lat="45.09418" lon="4.58588">
        <ele>791.958984375</ele>
        <time>2010-05-22T12:11:44Z</time>
      </trkpt>
      <trkpt lat="45.09401" lon="4.58617">
        <ele>790.95599365234</ele>
        <time>2010-05-22T12:11:46Z</time>
      </trkpt>
      <trkpt lat="45.09381" lon="4.58689">
        <ele>787.16400146484</ele>
        <time>2010-05-22T12:11:50Z</time>
      </trkpt>
      <trkpt lat="45.09382" lon="4.58745">
        <ele>784.48199462891</ele>
        <time>2010-05-22T12:11:53Z</time>
      </trkpt>
      <trkpt lat="45.09385" lon="4.58764">
        <ele>783.79797363281</ele>
        <time>2010-05-22T12:11:54Z</time>
      </trkpt>
      <trkpt lat="45.09398" lon="4.58861">
        <ele>780.54699707031</ele>
        <time>2010-05-22T12:11:59Z</time>
      </trkpt>
      <trkpt lat="45.09404" lon="4.58959">
        <ele>776.02398681641</ele>
        <time>2010-05-22T12:12:04Z</time>
      </trkpt>
      <trkpt lat="45.09415" lon="4.59091">
        <ele>769.88201904297</ele>
        <time>2010-05-22T12:12:11Z</time>
      </trkpt>
      <trkpt lat="45.09423" lon="4.59145">
        <ele>768.62097167969</ele>
        <time>2010-05-22T12:12:14Z</time>
      </trkpt>
      <trkpt lat="45.09421" lon="4.59216">
        <ele>765.81896972656</ele>
        <time>2010-05-22T12:12:18Z</time>
      </trkpt>
      <trkpt lat="45.09426" lon="4.59286">
        <ele>764.26300048828</ele>
        <time>2010-05-22T12:12:22Z</time>
      </trkpt>
      <trkpt lat="45.09453" lon="4.5935">
        <ele>762.08099365234</ele>
        <time>2010-05-22T12:12:26Z</time>
      </trkpt>
      <trkpt lat="45.09475" lon="4.59374">
        <ele>761.97601318359</ele>
        <time>2010-05-22T12:12:28Z</time>
      </trkpt>
      <trkpt lat="45.09529" lon="4.59427">
        <ele>757.23797607422</ele>
        <time>2010-05-22T12:12:33Z</time>
      </trkpt>
      <trkpt lat="45.0956" lon="4.59482">
        <ele>757.81500244141</ele>
        <time>2010-05-22T12:12:37Z</time>
      </trkpt>
      <trkpt lat="45.09573" lon="4.59531">
        <ele>756.40301513672</ele>
        <time>2010-05-22T12:12:40Z</time>
      </trkpt>
      <trkpt lat="45.09594" lon="4.59617">
        <ele>752.84100341797</ele>
        <time>2010-05-22T12:12:45Z</time>
      </trkpt>
      <trkpt lat="45.09619" lon="4.59661">
        <ele>751.54602050781</ele>
        <time>2010-05-22T12:12:48Z</time>
      </trkpt>
      <trkpt lat="45.09637" lon="4.59691">
        <ele>751.20501708984</ele>
        <time>2010-05-22T12:12:50Z</time>
      </trkpt>
      <trkpt lat="45.09657" lon="4.59765">
        <ele>745.63098144531</ele>
        <time>2010-05-22T12:12:54Z</time>
      </trkpt>
      <trkpt lat="45.09659" lon="4.59863">
        <ele>741.81500244141</ele>
        <time>2010-05-22T12:12:59Z</time>
      </trkpt>
      <trkpt lat="45.09663" lon="4.59921">
        <ele>740.08801269531</ele>
        <time>2010-05-22T12:13:02Z</time>
      </trkpt>
      <trkpt lat="45.09656" lon="4.59995">
        <ele>737.87902832031</ele>
        <time>2010-05-22T12:13:06Z</time>
      </trkpt>
      <trkpt lat="45.09644" lon="4.60049">
        <ele>736.50201416016</ele>
        <time>2010-05-22T12:13:09Z</time>
      </trkpt>
      <trkpt lat="45.09638" lon="4.60082">
        <ele>735.13397216797</ele>
        <time>2010-05-22T12:13:11Z</time>
      </trkpt>
      <trkpt lat="45.09636" lon="4.60138">
        <ele>733.65698242188</ele>
        <time>2010-05-22T12:13:14Z</time>
      </trkpt>
      <trkpt lat="45.09624" lon="4.60193">
        <ele>731.67297363281</ele>
        <time>2010-05-22T12:13:17Z</time>
      </trkpt>
      <trkpt lat="45.09616" lon="4.60208">
        <ele>731.07202148438</ele>
        <time>2010-05-22T12:13:18Z</time>
      </trkpt>
      <trkpt lat="45.09587" lon="4.60268">
        <ele>728.37298583984</ele>
        <time>2010-05-22T12:13:22Z</time>
      </trkpt>
      <trkpt lat="45.09559" lon="4.60303">
        <ele>726.23901367188</ele>
        <time>2010-05-22T12:13:25Z</time>
      </trkpt>
      <trkpt lat="45.0954" lon="4.60325">
        <ele>724.55102539062</ele>
        <time>2010-05-22T12:13:27Z</time>
      </trkpt>
      <trkpt lat="45.09541" lon="4.60357">
        <ele>722.71899414062</ele>
        <time>2010-05-22T12:13:29Z</time>
      </trkpt>
      <trkpt lat="45.09546" lon="4.6037">
        <ele>722.87799072266</ele>
        <time>2010-05-22T12:13:30Z</time>
      </trkpt>
      <trkpt lat="45.09557" lon="4.60416">
        <ele>723.15100097656</ele>
        <time>2010-05-22T12:13:33Z</time>
      </trkpt>
      <trkpt lat="45.09558" lon="4.60433">
        <ele>722.22998046875</ele>
        <time>2010-05-22T12:13:34Z</time>
      </trkpt>
      <trkpt lat="45.09569" lon="4.60571">
        <ele>715.89501953125</ele>
        <time>2010-05-22T12:13:42Z</time>
      </trkpt>
      <trkpt lat="45.09573" lon="4.60638">
        <ele>712.70300292969</ele>
        <time>2010-05-22T12:13:46Z</time>
      </trkpt>
      <trkpt lat="45.09584" lon="4.60702">
        <ele>713.19799804688</ele>
        <time>2010-05-22T12:13:50Z</time>
      </trkpt>
      <trkpt lat="45.09609" lon="4.60815">
        <ele>706.75402832031</ele>
        <time>2010-05-22T12:13:57Z</time>
      </trkpt>
      <trkpt lat="45.09614" lon="4.60887">
        <ele>705.00897216797</ele>
        <time>2010-05-22T12:14:01Z</time>
      </trkpt>
      <trkpt lat="45.09615" lon="4.60905">
        <ele>704.09899902344</ele>
        <time>2010-05-22T12:14:02Z</time>
      </trkpt>
      <trkpt lat="45.0961" lon="4.60939">
        <ele>703.00299072266</ele>
        <time>2010-05-22T12:14:04Z</time>
      </trkpt>
      <trkpt lat="45.09589" lon="4.60961">
        <ele>702.02398681641</ele>
        <time>2010-05-22T12:14:06Z</time>
      </trkpt>
      <trkpt lat="45.09563" lon="4.6096">
        <ele>700.46899414062</ele>
        <time>2010-05-22T12:14:08Z</time>
      </trkpt>
      <trkpt lat="45.09551" lon="4.60956">
        <ele>700.125</ele>
        <time>2010-05-22T12:14:09Z</time>
      </trkpt>
      <trkpt lat="45.09488" lon="4.60931">
        <ele>697.85498046875</ele>
        <time>2010-05-22T12:14:14Z</time>
      </trkpt>
      <trkpt lat="45.09435" lon="4.6092">
        <ele>695.32897949219</ele>
        <time>2010-05-22T12:14:18Z</time>
      </trkpt>
      <trkpt lat="45.09408" lon="4.60922">
        <ele>693.47900390625</ele>
        <time>2010-05-22T12:14:20Z</time>
      </trkpt>
      <trkpt lat="45.09371" lon="4.60943">
        <ele>690.18701171875</ele>
        <time>2010-05-22T12:14:23Z</time>
      </trkpt>
      <trkpt lat="45.09358" lon="4.6098">
        <ele>689.40100097656</ele>
        <time>2010-05-22T12:14:25Z</time>
      </trkpt>
      <trkpt lat="45.09356" lon="4.61">
        <ele>688.91998291016</ele>
        <time>2010-05-22T12:14:26Z</time>
      </trkpt>
      <trkpt lat="45.09352" lon="4.61037">
        <ele>688.11798095703</ele>
        <time>2010-05-22T12:14:28Z</time>
      </trkpt>
      <trkpt lat="45.09339" lon="4.61068">
        <ele>686.68798828125</ele>
        <time>2010-05-22T12:14:30Z</time>
      </trkpt>
      <trkpt lat="45.09302" lon="4.61068">
        <ele>684.65698242188</ele>
        <time>2010-05-22T12:14:33Z</time>
      </trkpt>
      <trkpt lat="45.09262" lon="4.61061">
        <ele>681.56597900391</ele>
        <time>2010-05-22T12:14:36Z</time>
      </trkpt>
      <trkpt lat="45.09232" lon="4.61028">
        <ele>679.47900390625</ele>
        <time>2010-05-22T12:14:39Z</time>
      </trkpt>
      <trkpt lat="45.09223" lon="4.61014">
        <ele>679.18902587891</ele>
        <time>2010-05-22T12:14:40Z</time>
      </trkpt>
      <trkpt lat="45.0921" lon="4.60984">
        <ele>678.06701660156</ele>
        <time>2010-05-22T12:14:42Z</time>
      </trkpt>
      <trkpt lat="45.09161" lon="4.60907">
        <ele>675.26898193359</ele>
        <time>2010-05-22T12:14:48Z</time>
      </trkpt>
      <trkpt lat="45.09111" lon="4.60881">
        <ele>672.67401123047</ele>
        <time>2010-05-22T12:14:52Z</time>
      </trkpt>
      <trkpt lat="45.09071" lon="4.60876">
        <ele>670.72399902344</ele>
        <time>2010-05-22T12:14:55Z</time>
      </trkpt>
      <trkpt lat="45.09032" lon="4.60886">
        <ele>668.40997314453</ele>
        <time>2010-05-22T12:14:58Z</time>
      </trkpt>
      <trkpt lat="45.09009" lon="4.60904">
        <ele>667.61297607422</ele>
        <time>2010-05-22T12:15:00Z</time>
      </trkpt>
      <trkpt lat="45.08998" lon="4.60915">
        <ele>666.96502685547</ele>
        <time>2010-05-22T12:15:01Z</time>
      </trkpt>
      <trkpt lat="45.0896" lon="4.60966">
        <ele>664.98498535156</ele>
        <time>2010-05-22T12:15:05Z</time>
      </trkpt>
      <trkpt lat="45.08941" lon="4.6099">
        <ele>663.32501220703</ele>
        <time>2010-05-22T12:15:07Z</time>
      </trkpt>
      <trkpt lat="45.08905" lon="4.60995">
        <ele>661.32598876953</ele>
        <time>2010-05-22T12:15:10Z</time>
      </trkpt>
      <trkpt lat="45.08885" lon="4.60975">
        <ele>659.76898193359</ele>
        <time>2010-05-22T12:15:12Z</time>
      </trkpt>
      <trkpt lat="45.08873" lon="4.60945">
        <ele>658.75</ele>
        <time>2010-05-22T12:15:14Z</time>
      </trkpt>
      <trkpt lat="45.0887" lon="4.60892">
        <ele>655.17999267578</ele>
        <time>2010-05-22T12:15:17Z</time>
      </trkpt>
      <trkpt lat="45.08875" lon="4.60777">
        <ele>652.98400878906</ele>
        <time>2010-05-22T12:15:24Z</time>
      </trkpt>
      <trkpt lat="45.08874" lon="4.60725">
        <ele>653.21697998047</ele>
        <time>2010-05-22T12:15:27Z</time>
      </trkpt>
      <trkpt lat="45.08858" lon="4.60656">
        <ele>650.59899902344</ele>
        <time>2010-05-22T12:15:31Z</time>
      </trkpt>
      <trkpt lat="45.08838" lon="4.60631">
        <ele>649.23699951172</ele>
        <time>2010-05-22T12:15:33Z</time>
      </trkpt>
      <trkpt lat="45.08814" lon="4.60615">
        <ele>648.21099853516</ele>
        <time>2010-05-22T12:15:35Z</time>
      </trkpt>
      <trkpt lat="45.08757" lon="4.60568">
        <ele>644.21697998047</ele>
        <time>2010-05-22T12:15:40Z</time>
      </trkpt>
      <trkpt lat="45.08703" lon="4.60508">
        <ele>641.19702148438</ele>
        <time>2010-05-22T12:15:45Z</time>
      </trkpt>
      <trkpt lat="45.0868" lon="4.60489">
        <ele>639.52398681641</ele>
        <time>2010-05-22T12:15:47Z</time>
      </trkpt>
      <trkpt lat="45.08641" lon="4.60475">
        <ele>637.55902099609</ele>
        <time>2010-05-22T12:15:50Z</time>
      </trkpt>
      <trkpt lat="45.08615" lon="4.60489">
        <ele>636.35198974609</ele>
        <time>2010-05-22T12:15:52Z</time>
      </trkpt>
      <trkpt lat="45.08596" lon="4.60515">
        <ele>634.73901367188</ele>
        <time>2010-05-22T12:15:54Z</time>
      </trkpt>
      <trkpt lat="45.08588" lon="4.60531">
        <ele>634.69897460938</ele>
        <time>2010-05-22T12:15:55Z</time>
      </trkpt>
      <trkpt lat="45.08583" lon="4.60547">
        <ele>634.69897460938</ele>
        <time>2010-05-22T12:15:56Z</time>
      </trkpt>
      <trkpt lat="45.08546" lon="4.60665">
        <ele>631.2919921875</ele>
        <time>2010-05-22T12:16:03Z</time>
      </trkpt>
      <trkpt lat="45.08546" lon="4.60738">
        <ele>628.61700439453</ele>
        <time>2010-05-22T12:16:07Z</time>
      </trkpt>
      <trkpt lat="45.08562" lon="4.60791">
        <ele>626.46801757812</ele>
        <time>2010-05-22T12:16:10Z</time>
      </trkpt>
      <trkpt lat="45.08576" lon="4.60862">
        <ele>625.03399658203</ele>
        <time>2010-05-22T12:16:14Z</time>
      </trkpt>
      <trkpt lat="45.08582" lon="4.61006">
        <ele>621.65197753906</ele>
        <time>2010-05-22T12:16:22Z</time>
      </trkpt>
      <trkpt lat="45.08595" lon="4.6106">
        <ele>618.59399414062</ele>
        <time>2010-05-22T12:16:25Z</time>
      </trkpt>
      <trkpt lat="45.08602" lon="4.61077">
        <ele>617.09802246094</ele>
        <time>2010-05-22T12:16:26Z</time>
      </trkpt>
      <trkpt lat="45.0862" lon="4.61153">
        <ele>612.73699951172</ele>
        <time>2010-05-22T12:16:30Z</time>
      </trkpt>
      <trkpt lat="45.08624" lon="4.61172">
        <ele>612.10699462891</ele>
        <time>2010-05-22T12:16:31Z</time>
      </trkpt>
      <trkpt lat="45.08662" lon="4.61221">
        <ele>610.93103027344</ele>
        <time>2010-05-22T12:16:35Z</time>
      </trkpt>
      <trkpt lat="45.08698" lon="4.61253">
        <ele>609.00402832031</ele>
        <time>2010-05-22T12:16:38Z</time>
      </trkpt>
      <trkpt lat="45.08715" lon="4.61279">
        <ele>608.55102539062</ele>
        <time>2010-05-22T12:16:40Z</time>
      </trkpt>
      <trkpt lat="45.08708" lon="4.61322">
        <ele>607.57598876953</ele>
        <time>2010-05-22T12:16:43Z</time>
      </trkpt>
      <trkpt lat="45.08685" lon="4.61335">
        <ele>606.91400146484</ele>
        <time>2010-05-22T12:16:45Z</time>
      </trkpt>
      <trkpt lat="45.08671" lon="4.61336">
        <ele>606.89801025391</ele>
        <time>2010-05-22T12:16:46Z</time>
      </trkpt>
      <trkpt lat="45.08608" lon="4.61362">
        <ele>603.73400878906</ele>
        <time>2010-05-22T12:16:51Z</time>
      </trkpt>
      <trkpt lat="45.08548" lon="4.61397">
        <ele>600.44000244141</ele>
        <time>2010-05-22T12:16:56Z</time>
      </trkpt>
      <trkpt lat="45.08523" lon="4.61407">
        <ele>599.69000244141</ele>
        <time>2010-05-22T12:16:58Z</time>
      </trkpt>
      <trkpt lat="45.08493" lon="4.61441">
        <ele>597.40502929688</ele>
        <time>2010-05-22T12:17:01Z</time>
      </trkpt>
      <trkpt lat="45.08484" lon="4.61476">
        <ele>595.84698486328</ele>
        <time>2010-05-22T12:17:03Z</time>
      </trkpt>
      <trkpt lat="45.08483" lon="4.61514">
        <ele>594.98199462891</ele>
        <time>2010-05-22T12:17:05Z</time>
      </trkpt>
      <trkpt lat="45.08484" lon="4.61588">
        <ele>590.29602050781</ele>
        <time>2010-05-22T12:17:09Z</time>
      </trkpt>
      <trkpt lat="45.08489" lon="4.61695">
        <ele>589.29498291016</ele>
        <time>2010-05-22T12:17:15Z</time>
      </trkpt>
      <trkpt lat="45.08485" lon="4.61765">
        <ele>585.875</ele>
        <time>2010-05-22T12:17:19Z</time>
      </trkpt>
      <trkpt lat="45.0847" lon="4.61883">
        <ele>582.38598632812</ele>
        <time>2010-05-22T12:17:26Z</time>
      </trkpt>
      <trkpt lat="45.08469" lon="4.619">
        <ele>582.1240234375</ele>
        <time>2010-05-22T12:17:27Z</time>
      </trkpt>
      <trkpt lat="45.08472" lon="4.6195">
        <ele>581.53198242188</ele>
        <time>2010-05-22T12:17:30Z</time>
      </trkpt>
      <trkpt lat="45.08469" lon="4.62">
        <ele>579.92901611328</ele>
        <time>2010-05-22T12:17:33Z</time>
      </trkpt>
      <trkpt lat="45.08467" lon="4.62015">
        <ele>580.08599853516</ele>
        <time>2010-05-22T12:17:34Z</time>
      </trkpt>
      <trkpt lat="45.0845" lon="4.62109">
        <ele>578.30297851562</ele>
        <time>2010-05-22T12:17:40Z</time>
      </trkpt>
      <trkpt lat="45.08443" lon="4.62142">
        <ele>575.93499755859</ele>
        <time>2010-05-22T12:17:42Z</time>
      </trkpt>
      <trkpt lat="45.08443" lon="4.62195">
        <ele>573.56402587891</ele>
        <time>2010-05-22T12:17:45Z</time>
      </trkpt>
      <trkpt lat="45.08453" lon="4.62229">
        <ele>572.23699951172</ele>
        <time>2010-05-22T12:17:47Z</time>
      </trkpt>
      <trkpt lat="45.08498" lon="4.62348">
        <ele>564.83697509766</ele>
        <time>2010-05-22T12:17:54Z</time>
      </trkpt>
      <trkpt lat="45.08525" lon="4.62427">
        <ele>560.34997558594</ele>
        <time>2010-05-22T12:17:59Z</time>
      </trkpt>
      <trkpt lat="45.08548" lon="4.62502">
        <ele>556.83099365234</ele>
        <time>2010-05-22T12:18:04Z</time>
      </trkpt>
      <trkpt lat="45.08551" lon="4.62514">
        <ele>556.60198974609</ele>
        <time>2010-05-22T12:18:05Z</time>
      </trkpt>
      <trkpt lat="45.08556" lon="4.62535">
        <ele>555.98699951172</ele>
        <time>2010-05-22T12:18:07Z</time>
      </trkpt>
      <trkpt lat="45.08547" lon="4.62551">
        <ele>555.00598144531</ele>
        <time>2010-05-22T12:18:10Z</time>
      </trkpt>
      <trkpt lat="45.08534" lon="4.62544">
        <ele>553.69500732422</ele>
        <time>2010-05-22T12:18:12Z</time>
      </trkpt>
      <trkpt lat="45.08509" lon="4.62528">
        <ele>552.37097167969</ele>
        <time>2010-05-22T12:18:16Z</time>
      </trkpt>
      <trkpt lat="45.08471" lon="4.62501">
        <ele>551.47802734375</ele>
        <time>2010-05-22T12:18:22Z</time>
      </trkpt>
      <trkpt lat="45.08438" lon="4.62481">
        <ele>550.32598876953</ele>
        <time>2010-05-22T12:18:27Z</time>
      </trkpt>
      <trkpt lat="45.08423" lon="4.62478">
        <ele>550.03002929688</ele>
        <time>2010-05-22T12:18:29Z</time>
      </trkpt>
      <trkpt lat="45.08401" lon="4.62481">
        <ele>549.59197998047</ele>
        <time>2010-05-22T12:18:32Z</time>
      </trkpt>
      <trkpt lat="45.0836" lon="4.62506">
        <ele>548.68298339844</ele>
        <time>2010-05-22T12:18:38Z</time>
      </trkpt>
      <trkpt lat="45.08308" lon="4.62546">
        <ele>546.85101318359</ele>
        <time>2010-05-22T12:18:46Z</time>
      </trkpt>
      <trkpt lat="45.08284" lon="4.62565">
        <ele>546.14398193359</ele>
        <time>2010-05-22T12:18:50Z</time>
      </trkpt>
      <trkpt lat="45.08278" lon="4.6259">
        <ele>545.43701171875</ele>
        <time>2010-05-22T12:18:53Z</time>
      </trkpt>
      <trkpt lat="45.08294" lon="4.62613">
        <ele>544.16900634766</ele>
        <time>2010-05-22T12:18:56Z</time>
      </trkpt>
      <trkpt lat="45.08317" lon="4.62626">
        <ele>542.01702880859</ele>
        <time>2010-05-22T12:18:59Z</time>
      </trkpt>
      <trkpt lat="45.08379" lon="4.62645">
        <ele>538.23999023438</ele>
        <time>2010-05-22T12:19:06Z</time>
      </trkpt>
      <trkpt lat="45.08411" lon="4.62656">
        <ele>535.93298339844</ele>
        <time>2010-05-22T12:19:10Z</time>
      </trkpt>
      <trkpt lat="45.08414" lon="4.62676">
        <ele>535.15100097656</ele>
        <time>2010-05-22T12:19:12Z</time>
      </trkpt>
      <trkpt lat="45.08423" lon="4.62693">
        <ele>533.76098632812</ele>
        <time>2010-05-22T12:19:14Z</time>
      </trkpt>
      <trkpt lat="45.08429" lon="4.62698">
        <ele>533.64898681641</ele>
        <time>2010-05-22T12:19:15Z</time>
      </trkpt>
      <trkpt lat="45.08441" lon="4.62707">
        <ele>533.32897949219</ele>
        <time>2010-05-22T12:19:17Z</time>
      </trkpt>
      <trkpt lat="45.08456" lon="4.62721">
        <ele>533.56402587891</ele>
        <time>2010-05-22T12:19:21Z</time>
      </trkpt>
      <trkpt lat="45.08472" lon="4.62733">
        <ele>533.23602294922</ele>
        <time>2010-05-22T12:19:26Z</time>
      </trkpt>
      <trkpt lat="45.08478" lon="4.6273">
        <ele>533.50799560547</ele>
        <time>2010-05-22T12:19:29Z</time>
      </trkpt>
      <trkpt lat="45.08481" lon="4.62731">
        <ele>533.75701904297</ele>
        <time>2010-05-22T12:19:32Z</time>
      </trkpt>
      <trkpt lat="45.08477" lon="4.62734">
        <ele>533.73699951172</ele>
        <time>2010-05-22T12:19:35Z</time>
      </trkpt>
      <trkpt lat="45.08477" lon="4.62727">
        <ele>533.84002685547</ele>
        <time>2010-05-22T12:19:38Z</time>
      </trkpt>
      <trkpt lat="45.08482" lon="4.62733">
        <ele>533.5830078125</ele>
        <time>2010-05-22T12:19:41Z</time>
      </trkpt>
      <trkpt lat="45.08486" lon="4.62741">
        <ele>533.46899414062</ele>
        <time>2010-05-22T12:19:43Z</time>
      </trkpt>
      <trkpt lat="45.08504" lon="4.62764">
        <ele>533.81500244141</ele>
        <time>2010-05-22T12:19:50Z</time>
      </trkpt>
      <trkpt lat="45.08519" lon="4.62786">
        <ele>534.57897949219</ele>
        <time>2010-05-22T12:19:56Z</time>
      </trkpt>
      <trkpt lat="45.08525" lon="4.62797">
        <ele>535.27001953125</ele>
        <time>2010-05-22T12:20:00Z</time>
      </trkpt>
      <trkpt lat="45.08528" lon="4.62792">
        <ele>535.48101806641</ele>
        <time>2010-05-22T12:20:04Z</time>
      </trkpt>
      <trkpt lat="45.0852" lon="4.62783">
        <ele>534.85302734375</ele>
        <time>2010-05-22T12:20:07Z</time>
      </trkpt>
      <trkpt lat="45.08496" lon="4.62747">
        <ele>533.56896972656</ele>
        <time>2010-05-22T12:20:13Z</time>
      </trkpt>
      <trkpt lat="45.08487" lon="4.62735">
        <ele>533.46099853516</ele>
        <time>2010-05-22T12:20:15Z</time>
      </trkpt>
      <trkpt lat="45.08462" lon="4.62726">
        <ele>532.84301757812</ele>
        <time>2010-05-22T12:20:19Z</time>
      </trkpt>
      <trkpt lat="45.08431" lon="4.62744">
        <ele>531.60498046875</ele>
        <time>2010-05-22T12:20:24Z</time>
      </trkpt>
      <trkpt lat="45.08427" lon="4.6275">
        <ele>531.52600097656</ele>
        <time>2010-05-22T12:20:25Z</time>
      </trkpt>
      <trkpt lat="45.08398" lon="4.62774">
        <ele>530.81097412109</ele>
        <time>2010-05-22T12:20:30Z</time>
      </trkpt>
      <trkpt lat="45.08384" lon="4.62791">
        <ele>530.85601806641</ele>
        <time>2010-05-22T12:20:33Z</time>
      </trkpt>
      <trkpt lat="45.08363" lon="4.62801">
        <ele>531.77001953125</ele>
        <time>2010-05-22T12:20:37Z</time>
      </trkpt>
      <trkpt lat="45.08343" lon="4.62793">
        <ele>535.12200927734</ele>
        <time>2010-05-22T12:20:42Z</time>
      </trkpt>
      <trkpt lat="45.08338" lon="4.62805">
        <ele>535.50799560547</ele>
        <time>2010-05-22T12:20:46Z</time>
      </trkpt>
      <trkpt lat="45.08339" lon="4.62814">
        <ele>535.875</ele>
        <time>2010-05-22T12:20:52Z</time>
      </trkpt>
      <trkpt lat="45.0834" lon="4.62815">
        <ele>535.75299072266</ele>
        <time>2010-05-22T12:20:54Z</time>
      </trkpt>
      <trkpt lat="45.08339" lon="4.6281">
        <ele>535.42602539062</ele>
        <time>2010-05-22T12:28:37Z</time>
      </trkpt>
      <trkpt lat="45.0834" lon="4.62805">
        <ele>535.25897216797</ele>
        <time>2010-05-22T12:28:40Z</time>
      </trkpt>
      <trkpt lat="45.08351" lon="4.62799">
        <ele>535.06597900391</ele>
        <time>2010-05-22T12:28:45Z</time>
      </trkpt>
      <trkpt lat="45.08355" lon="4.62799">
        <ele>534.83599853516</ele>
        <time>2010-05-22T12:28:46Z</time>
      </trkpt>
      <trkpt lat="45.08379" lon="4.628">
        <ele>531.69598388672</ele>
        <time>2010-05-22T12:28:50Z</time>
      </trkpt>
      <trkpt lat="45.08385" lon="4.62794">
        <ele>531.53399658203</ele>
        <time>2010-05-22T12:28:51Z</time>
      </trkpt>
      <trkpt lat="45.08403" lon="4.62777">
        <ele>531.47900390625</ele>
        <time>2010-05-22T12:28:54Z</time>
      </trkpt>
      <trkpt lat="45.08409" lon="4.62772">
        <ele>531.25799560547</ele>
        <time>2010-05-22T12:28:55Z</time>
      </trkpt>
      <trkpt lat="45.08426" lon="4.62755">
        <ele>530.94299316406</ele>
        <time>2010-05-22T12:28:58Z</time>
      </trkpt>
      <trkpt lat="45.08435" lon="4.62743">
        <ele>531.59600830078</ele>
        <time>2010-05-22T12:29:00Z</time>
      </trkpt>
      <trkpt lat="45.08462" lon="4.62727">
        <ele>532.23101806641</ele>
        <time>2010-05-22T12:29:05Z</time>
      </trkpt>
      <trkpt lat="45.08484" lon="4.62736">
        <ele>532.87701416016</ele>
        <time>2010-05-22T12:29:09Z</time>
      </trkpt>
      <trkpt lat="45.08511" lon="4.62771">
        <ele>533.73999023438</ele>
        <time>2010-05-22T12:29:15Z</time>
      </trkpt>
      <trkpt lat="45.08519" lon="4.62784">
        <ele>534.43499755859</ele>
        <time>2010-05-22T12:29:17Z</time>
      </trkpt>
      <trkpt lat="45.08541" lon="4.62817">
        <ele>536.291015625</ele>
        <time>2010-05-22T12:29:23Z</time>
      </trkpt>
      <trkpt lat="45.08545" lon="4.62822">
        <ele>536.58801269531</ele>
        <time>2010-05-22T12:29:24Z</time>
      </trkpt>
      <trkpt lat="45.08559" lon="4.6284">
        <ele>537.36499023438</ele>
        <time>2010-05-22T12:29:28Z</time>
      </trkpt>
      <trkpt lat="45.08578" lon="4.62857">
        <ele>537.35900878906</ele>
        <time>2010-05-22T12:29:32Z</time>
      </trkpt>
      <trkpt lat="45.08607" lon="4.62869">
        <ele>539.98199462891</ele>
        <time>2010-05-22T12:29:37Z</time>
      </trkpt>
      <trkpt lat="45.08619" lon="4.62872">
        <ele>540.40100097656</ele>
        <time>2010-05-22T12:29:39Z</time>
      </trkpt>
      <trkpt lat="45.08636" lon="4.62877">
        <ele>540.58099365234</ele>
        <time>2010-05-22T12:29:42Z</time>
      </trkpt>
      <trkpt lat="45.08664" lon="4.62867">
        <ele>542.83898925781</ele>
        <time>2010-05-22T12:29:47Z</time>
      </trkpt>
      <trkpt lat="45.08674" lon="4.62844">
        <ele>544.27801513672</ele>
        <time>2010-05-22T12:29:51Z</time>
      </trkpt>
      <trkpt lat="45.08674" lon="4.62832">
        <ele>544.89001464844</ele>
        <time>2010-05-22T12:29:53Z</time>
      </trkpt>
      <trkpt lat="45.08674" lon="4.62815">
        <ele>545.38897705078</ele>
        <time>2010-05-22T12:29:56Z</time>
      </trkpt>
      <trkpt lat="45.08678" lon="4.62797">
        <ele>544.64202880859</ele>
        <time>2010-05-22T12:29:59Z</time>
      </trkpt>
      <trkpt lat="45.08693" lon="4.62765">
        <ele>544.72497558594</ele>
        <time>2010-05-22T12:30:04Z</time>
      </trkpt>
      <trkpt lat="45.08704" lon="4.62735">
        <ele>543.95202636719</ele>
        <time>2010-05-22T12:30:08Z</time>
      </trkpt>
      <trkpt lat="45.08722" lon="4.62678">
        <ele>543.34802246094</ele>
        <time>2010-05-22T12:30:15Z</time>
      </trkpt>
      <trkpt lat="45.08724" lon="4.6267">
        <ele>543.11901855469</ele>
        <time>2010-05-22T12:30:16Z</time>
      </trkpt>
      <trkpt lat="45.08749" lon="4.62656">
        <ele>542.32702636719</ele>
        <time>2010-05-22T12:30:20Z</time>
      </trkpt>
      <trkpt lat="45.08761" lon="4.62668">
        <ele>541.79400634766</ele>
        <time>2010-05-22T12:30:22Z</time>
      </trkpt>
      <trkpt lat="45.08768" lon="4.62697">
        <ele>541.30700683594</ele>
        <time>2010-05-22T12:30:25Z</time>
      </trkpt>
      <trkpt lat="45.08774" lon="4.62759">
        <ele>539.73101806641</ele>
        <time>2010-05-22T12:30:31Z</time>
      </trkpt>
      <trkpt lat="45.08789" lon="4.62803">
        <ele>539.99597167969</ele>
        <time>2010-05-22T12:30:36Z</time>
      </trkpt>
      <trkpt lat="45.08818" lon="4.62841">
        <ele>539.95098876953</ele>
        <time>2010-05-22T12:30:42Z</time>
      </trkpt>
      <trkpt lat="45.08858" lon="4.6288">
        <ele>538.96002197266</ele>
        <time>2010-05-22T12:30:49Z</time>
      </trkpt>
      <trkpt lat="45.08899" lon="4.62908">
        <ele>538.20501708984</ele>
        <time>2010-05-22T12:30:55Z</time>
      </trkpt>
      <trkpt lat="45.08926" lon="4.6293">
        <ele>537.01800537109</ele>
        <time>2010-05-22T12:30:59Z</time>
      </trkpt>
      <trkpt lat="45.08947" lon="4.62947">
        <ele>536.7080078125</ele>
        <time>2010-05-22T12:31:02Z</time>
      </trkpt>
      <trkpt lat="45.0896" lon="4.62957">
        <ele>536.45202636719</ele>
        <time>2010-05-22T12:31:04Z</time>
      </trkpt>
      <trkpt lat="45.09007" lon="4.62997">
        <ele>535.08801269531</ele>
        <time>2010-05-22T12:31:11Z</time>
      </trkpt>
      <trkpt lat="45.09049" lon="4.63039">
        <ele>532.64202880859</ele>
        <time>2010-05-22T12:31:17Z</time>
      </trkpt>
      <trkpt lat="45.09055" lon="4.63048">
        <ele>532.44702148438</ele>
        <time>2010-05-22T12:31:18Z</time>
      </trkpt>
      <trkpt lat="45.09086" lon="4.63093">
        <ele>531.34100341797</ele>
        <time>2010-05-22T12:31:23Z</time>
      </trkpt>
      <trkpt lat="45.09096" lon="4.63114">
        <ele>530.59301757812</ele>
        <time>2010-05-22T12:31:25Z</time>
      </trkpt>
      <trkpt lat="45.09118" lon="4.63169">
        <ele>528.73297119141</ele>
        <time>2010-05-22T12:31:30Z</time>
      </trkpt>
      <trkpt lat="45.0913" lon="4.63213">
        <ele>528.09301757812</ele>
        <time>2010-05-22T12:31:34Z</time>
      </trkpt>
      <trkpt lat="45.09133" lon="4.63225">
        <ele>527.83001708984</ele>
        <time>2010-05-22T12:31:35Z</time>
      </trkpt>
      <trkpt lat="45.09136" lon="4.63286">
        <ele>526.22998046875</ele>
        <time>2010-05-22T12:31:40Z</time>
      </trkpt>
      <trkpt lat="45.0913" lon="4.63359">
        <ele>526.59197998047</ele>
        <time>2010-05-22T12:31:46Z</time>
      </trkpt>
      <trkpt lat="45.09137" lon="4.63406">
        <ele>525.90197753906</ele>
        <time>2010-05-22T12:31:50Z</time>
      </trkpt>
      <trkpt lat="45.09151" lon="4.63447">
        <ele>525.90399169922</ele>
        <time>2010-05-22T12:31:54Z</time>
      </trkpt>
      <trkpt lat="45.09174" lon="4.63475">
        <ele>526.041015625</ele>
        <time>2010-05-22T12:31:58Z</time>
      </trkpt>
      <trkpt lat="45.09196" lon="4.63475">
        <ele>525.85498046875</ele>
        <time>2010-05-22T12:32:01Z</time>
      </trkpt>
      <trkpt lat="45.09216" lon="4.63461">
        <ele>525.56097412109</ele>
        <time>2010-05-22T12:32:04Z</time>
      </trkpt>
      <trkpt lat="45.09227" lon="4.63445">
        <ele>525.08697509766</ele>
        <time>2010-05-22T12:32:06Z</time>
      </trkpt>
      <trkpt lat="45.09241" lon="4.63417">
        <ele>523.81298828125</ele>
        <time>2010-05-22T12:32:09Z</time>
      </trkpt>
      <trkpt lat="45.09279" lon="4.63375">
        <ele>522.96997070312</ele>
        <time>2010-05-22T12:32:15Z</time>
      </trkpt>
      <trkpt lat="45.0933" lon="4.63336">
        <ele>520.77600097656</ele>
        <time>2010-05-22T12:32:22Z</time>
      </trkpt>
      <trkpt lat="45.09345" lon="4.63322">
        <ele>520.04498291016</ele>
        <time>2010-05-22T12:32:24Z</time>
      </trkpt>
      <trkpt lat="45.09352" lon="4.63315">
        <ele>519.71697998047</ele>
        <time>2010-05-22T12:32:25Z</time>
      </trkpt>
      <trkpt lat="45.09367" lon="4.63302">
        <ele>519.27697753906</ele>
        <time>2010-05-22T12:32:27Z</time>
      </trkpt>
      <trkpt lat="45.09423" lon="4.63271">
        <ele>517.91900634766</ele>
        <time>2010-05-22T12:32:34Z</time>
      </trkpt>
      <trkpt lat="45.09439" lon="4.63265">
        <ele>517.39398193359</ele>
        <time>2010-05-22T12:32:36Z</time>
      </trkpt>
      <trkpt lat="45.09464" lon="4.6327">
        <ele>516.69299316406</ele>
        <time>2010-05-22T12:32:39Z</time>
      </trkpt>
      <trkpt lat="45.09474" lon="4.63288">
        <ele>516.64398193359</ele>
        <time>2010-05-22T12:32:41Z</time>
      </trkpt>
      <trkpt lat="45.09478" lon="4.6332">
        <ele>517.04302978516</ele>
        <time>2010-05-22T12:32:44Z</time>
      </trkpt>
      <trkpt lat="45.0947" lon="4.63336">
        <ele>517.95397949219</ele>
        <time>2010-05-22T12:32:46Z</time>
      </trkpt>
      <trkpt lat="45.09465" lon="4.63341">
        <ele>518.50500488281</ele>
        <time>2010-05-22T12:32:47Z</time>
      </trkpt>
      <trkpt lat="45.09448" lon="4.63354">
        <ele>519.54998779297</ele>
        <time>2010-05-22T12:32:50Z</time>
      </trkpt>
      <trkpt lat="45.09435" lon="4.6337">
        <ele>520.78802490234</ele>
        <time>2010-05-22T12:32:53Z</time>
      </trkpt>
      <trkpt lat="45.09427" lon="4.63391">
        <ele>521.64697265625</ele>
        <time>2010-05-22T12:32:56Z</time>
      </trkpt>
      <trkpt lat="45.09426" lon="4.63399">
        <ele>522.10498046875</ele>
        <time>2010-05-22T12:32:57Z</time>
      </trkpt>
      <trkpt lat="45.09418" lon="4.63458">
        <ele>523.52801513672</ele>
        <time>2010-05-22T12:33:05Z</time>
      </trkpt>
      <trkpt lat="45.09407" lon="4.63496">
        <ele>525.29699707031</ele>
        <time>2010-05-22T12:33:11Z</time>
      </trkpt>
      <trkpt lat="45.09401" lon="4.63539">
        <ele>526.71002197266</ele>
        <time>2010-05-22T12:33:18Z</time>
      </trkpt>
      <trkpt lat="45.09402" lon="4.63582">
        <ele>528.54602050781</ele>
        <time>2010-05-22T12:33:25Z</time>
      </trkpt>
      <trkpt lat="45.09413" lon="4.63622">
        <ele>529.81097412109</ele>
        <time>2010-05-22T12:33:32Z</time>
      </trkpt>
      <trkpt lat="45.09431" lon="4.63674">
        <ele>532.94201660156</ele>
        <time>2010-05-22T12:33:42Z</time>
      </trkpt>
      <trkpt lat="45.0945" lon="4.63726">
        <ele>535.25897216797</ele>
        <time>2010-05-22T12:33:52Z</time>
      </trkpt>
      <trkpt lat="45.09452" lon="4.63732">
        <ele>535.39898681641</ele>
        <time>2010-05-22T12:33:53Z</time>
      </trkpt>
      <trkpt lat="45.09459" lon="4.63753">
        <ele>536.18103027344</ele>
        <time>2010-05-22T12:33:57Z</time>
      </trkpt>
      <trkpt lat="45.09458" lon="4.63786">
        <ele>537.36901855469</ele>
        <time>2010-05-22T12:34:03Z</time>
      </trkpt>
      <trkpt lat="45.09445" lon="4.63799">
        <ele>537.67297363281</ele>
        <time>2010-05-22T12:34:07Z</time>
      </trkpt>
      <trkpt lat="45.09429" lon="4.63793">
        <ele>538.79602050781</ele>
        <time>2010-05-22T12:34:11Z</time>
      </trkpt>
      <trkpt lat="45.09426" lon="4.63789">
        <ele>539.11901855469</ele>
        <time>2010-05-22T12:34:12Z</time>
      </trkpt>
      <trkpt lat="45.09398" lon="4.63763">
        <ele>541.29498291016</ele>
        <time>2010-05-22T12:34:20Z</time>
      </trkpt>
      <trkpt lat="45.09394" lon="4.63761">
        <ele>541.48901367188</ele>
        <time>2010-05-22T12:34:21Z</time>
      </trkpt>
      <trkpt lat="45.09385" lon="4.63757">
        <ele>541.82598876953</ele>
        <time>2010-05-22T12:34:23Z</time>
      </trkpt>
      <trkpt lat="45.09355" lon="4.63758">
        <ele>543.46801757812</ele>
        <time>2010-05-22T12:34:30Z</time>
      </trkpt>
      <trkpt lat="45.09341" lon="4.63764">
        <ele>544.07598876953</ele>
        <time>2010-05-22T12:34:33Z</time>
      </trkpt>
      <trkpt lat="45.09325" lon="4.63779">
        <ele>544.65997314453</ele>
        <time>2010-05-22T12:34:37Z</time>
      </trkpt>
      <trkpt lat="45.09288" lon="4.63818">
        <ele>546.42199707031</ele>
        <time>2010-05-22T12:34:47Z</time>
      </trkpt>
      <trkpt lat="45.09257" lon="4.63848">
        <ele>548.79302978516</ele>
        <time>2010-05-22T12:34:55Z</time>
      </trkpt>
      <trkpt lat="45.09225" lon="4.63875">
        <ele>551.27001953125</ele>
        <time>2010-05-22T12:35:03Z</time>
      </trkpt>
      <trkpt lat="45.09208" lon="4.63904">
        <ele>552.03302001953</ele>
        <time>2010-05-22T12:35:09Z</time>
      </trkpt>
      <trkpt lat="45.09203" lon="4.6393">
        <ele>553.03802490234</ele>
        <time>2010-05-22T12:35:13Z</time>
      </trkpt>
      <trkpt lat="45.09195" lon="4.63981">
        <ele>555.27600097656</ele>
        <time>2010-05-22T12:35:21Z</time>
      </trkpt>
      <trkpt lat="45.09178" lon="4.64018">
        <ele>556.65600585938</ele>
        <time>2010-05-22T12:35:28Z</time>
      </trkpt>
      <trkpt lat="45.09171" lon="4.64027">
        <ele>556.93902587891</ele>
        <time>2010-05-22T12:35:30Z</time>
      </trkpt>
      <trkpt lat="45.09147" lon="4.64043">
        <ele>558.35699462891</ele>
        <time>2010-05-22T12:35:36Z</time>
      </trkpt>
      <trkpt lat="45.0913" lon="4.64037">
        <ele>559.74102783203</ele>
        <time>2010-05-22T12:35:40Z</time>
      </trkpt>
      <trkpt lat="45.0912" lon="4.64026">
        <ele>561.11700439453</ele>
        <time>2010-05-22T12:35:43Z</time>
      </trkpt>
      <trkpt lat="45.09111" lon="4.64014">
        <ele>562.29302978516</ele>
        <time>2010-05-22T12:35:46Z</time>
      </trkpt>
      <trkpt lat="45.09089" lon="4.63996">
        <ele>563.63897705078</ele>
        <time>2010-05-22T12:35:52Z</time>
      </trkpt>
      <trkpt lat="45.0905" lon="4.63996">
        <ele>565.14697265625</ele>
        <time>2010-05-22T12:36:00Z</time>
      </trkpt>
      <trkpt lat="45.09013" lon="4.63995">
        <ele>567.64398193359</ele>
        <time>2010-05-22T12:36:08Z</time>
      </trkpt>
      <trkpt lat="45.08994" lon="4.63996">
        <ele>568.51501464844</ele>
        <time>2010-05-22T12:36:12Z</time>
      </trkpt>
      <trkpt lat="45.08975" lon="4.64015">
        <ele>568.83502197266</ele>
        <time>2010-05-22T12:36:17Z</time>
      </trkpt>
      <trkpt lat="45.08973" lon="4.64035">
        <ele>569.08001708984</ele>
        <time>2010-05-22T12:36:20Z</time>
      </trkpt>
      <trkpt lat="45.08982" lon="4.64056">
        <ele>570.083984375</ele>
        <time>2010-05-22T12:36:24Z</time>
      </trkpt>
      <trkpt lat="45.08994" lon="4.64066">
        <ele>571.38598632812</ele>
        <time>2010-05-22T12:36:27Z</time>
      </trkpt>
      <trkpt lat="45.09034" lon="4.64088">
        <ele>574.03100585938</ele>
        <time>2010-05-22T12:36:37Z</time>
      </trkpt>
      <trkpt lat="45.09071" lon="4.64114">
        <ele>575.79797363281</ele>
        <time>2010-05-22T12:36:46Z</time>
      </trkpt>
      <trkpt lat="45.09109" lon="4.64147">
        <ele>577.37200927734</ele>
        <time>2010-05-22T12:36:56Z</time>
      </trkpt>
      <trkpt lat="45.09113" lon="4.6415">
        <ele>577.69097900391</ele>
        <time>2010-05-22T12:36:57Z</time>
      </trkpt>
      <trkpt lat="45.09148" lon="4.64156">
        <ele>580.52697753906</ele>
        <time>2010-05-22T12:37:05Z</time>
      </trkpt>
      <trkpt lat="45.09179" lon="4.64156">
        <ele>581.97302246094</ele>
        <time>2010-05-22T12:37:12Z</time>
      </trkpt>
      <trkpt lat="45.09225" lon="4.64155">
        <ele>584.57397460938</ele>
        <time>2010-05-22T12:37:22Z</time>
      </trkpt>
      <trkpt lat="45.09256" lon="4.64158">
        <ele>586.33197021484</ele>
        <time>2010-05-22T12:37:29Z</time>
      </trkpt>
      <trkpt lat="45.09286" lon="4.64169">
        <ele>587.34399414062</ele>
        <time>2010-05-22T12:37:36Z</time>
      </trkpt>
      <trkpt lat="45.09314" lon="4.64189">
        <ele>589.11798095703</ele>
        <time>2010-05-22T12:37:43Z</time>
      </trkpt>
      <trkpt lat="45.09337" lon="4.64221">
        <ele>590.48901367188</ele>
        <time>2010-05-22T12:37:51Z</time>
      </trkpt>
      <trkpt lat="45.09354" lon="4.64248">
        <ele>592.52301025391</ele>
        <time>2010-05-22T12:37:57Z</time>
      </trkpt>
      <trkpt lat="45.09371" lon="4.64291">
        <ele>594.31799316406</ele>
        <time>2010-05-22T12:38:05Z</time>
      </trkpt>
      <trkpt lat="45.09386" lon="4.6433">
        <ele>595.78802490234</ele>
        <time>2010-05-22T12:38:12Z</time>
      </trkpt>
      <trkpt lat="45.0939" lon="4.64341">
        <ele>595.77197265625</ele>
        <time>2010-05-22T12:38:14Z</time>
      </trkpt>
      <trkpt lat="45.09416" lon="4.64375">
        <ele>597.82702636719</ele>
        <time>2010-05-22T12:38:22Z</time>
      </trkpt>
      <trkpt lat="45.09446" lon="4.64403">
        <ele>599.80401611328</ele>
        <time>2010-05-22T12:38:30Z</time>
      </trkpt>
      <trkpt lat="45.09478" lon="4.64433">
        <ele>602.55902099609</ele>
        <time>2010-05-22T12:38:39Z</time>
      </trkpt>
      <trkpt lat="45.09506" lon="4.64465">
        <ele>604.72802734375</ele>
        <time>2010-05-22T12:38:47Z</time>
      </trkpt>
      <trkpt lat="45.09535" lon="4.64492">
        <ele>607.10998535156</ele>
        <time>2010-05-22T12:38:55Z</time>
      </trkpt>
      <trkpt lat="45.0957" lon="4.64516">
        <ele>608.59997558594</ele>
        <time>2010-05-22T12:39:03Z</time>
      </trkpt>
      <trkpt lat="45.09597" lon="4.64535">
        <ele>610.19097900391</ele>
        <time>2010-05-22T12:39:09Z</time>
      </trkpt>
      <trkpt lat="45.09631" lon="4.64577">
        <ele>612.09399414062</ele>
        <time>2010-05-22T12:39:19Z</time>
      </trkpt>
      <trkpt lat="45.09641" lon="4.64592">
        <ele>613.60302734375</ele>
        <time>2010-05-22T12:39:22Z</time>
      </trkpt>
      <trkpt lat="45.09654" lon="4.64634">
        <ele>615.23400878906</ele>
        <time>2010-05-22T12:39:29Z</time>
      </trkpt>
      <trkpt lat="45.09665" lon="4.6469">
        <ele>616.43402099609</ele>
        <time>2010-05-22T12:39:38Z</time>
      </trkpt>
      <trkpt lat="45.09674" lon="4.6474">
        <ele>617.27099609375</ele>
        <time>2010-05-22T12:39:47Z</time>
      </trkpt>
      <trkpt lat="45.09677" lon="4.64781">
        <ele>615.20098876953</ele>
        <time>2010-05-22T12:39:53Z</time>
      </trkpt>
      <trkpt lat="45.09677" lon="4.64797">
        <ele>614.58502197266</ele>
        <time>2010-05-22T12:39:55Z</time>
      </trkpt>
      <trkpt lat="45.09677" lon="4.64814">
        <ele>613.94702148438</ele>
        <time>2010-05-22T12:39:57Z</time>
      </trkpt>
      <trkpt lat="45.09681" lon="4.6489">
        <ele>610.96002197266</ele>
        <time>2010-05-22T12:40:04Z</time>
      </trkpt>
      <trkpt lat="45.09682" lon="4.64926">
        <ele>609.52099609375</ele>
        <time>2010-05-22T12:40:07Z</time>
      </trkpt>
      <trkpt lat="45.09685" lon="4.65015">
        <ele>607.3759765625</ele>
        <time>2010-05-22T12:40:14Z</time>
      </trkpt>
      <trkpt lat="45.09687" lon="4.65055">
        <ele>606.01397705078</ele>
        <time>2010-05-22T12:40:17Z</time>
      </trkpt>
      <trkpt lat="45.0969" lon="4.65184">
        <ele>602.57501220703</ele>
        <time>2010-05-22T12:40:26Z</time>
      </trkpt>
      <trkpt lat="45.09689" lon="4.65212">
        <ele>601.66400146484</ele>
        <time>2010-05-22T12:40:28Z</time>
      </trkpt>
      <trkpt lat="45.09682" lon="4.65308">
        <ele>600.51300048828</ele>
        <time>2010-05-22T12:40:35Z</time>
      </trkpt>
      <trkpt lat="45.09683" lon="4.65348">
        <ele>599.07598876953</ele>
        <time>2010-05-22T12:40:38Z</time>
      </trkpt>
      <trkpt lat="45.09694" lon="4.65401">
        <ele>598.90100097656</ele>
        <time>2010-05-22T12:40:42Z</time>
      </trkpt>
      <trkpt lat="45.09698" lon="4.65413">
        <ele>598.3330078125</ele>
        <time>2010-05-22T12:40:43Z</time>
      </trkpt>
      <trkpt lat="45.09726" lon="4.65467">
        <ele>595.11102294922</ele>
        <time>2010-05-22T12:40:48Z</time>
      </trkpt>
      <trkpt lat="45.09732" lon="4.65477">
        <ele>595.43902587891</ele>
        <time>2010-05-22T12:40:49Z</time>
      </trkpt>
      <trkpt lat="45.09766" lon="4.65502">
        <ele>595.27697753906</ele>
        <time>2010-05-22T12:40:53Z</time>
      </trkpt>
      <trkpt lat="45.09795" lon="4.65508">
        <ele>593.625</ele>
        <time>2010-05-22T12:40:56Z</time>
      </trkpt>
      <trkpt lat="45.09806" lon="4.6551">
        <ele>593.36700439453</ele>
        <time>2010-05-22T12:40:57Z</time>
      </trkpt>
      <trkpt lat="45.09835" lon="4.65527">
        <ele>591.79901123047</ele>
        <time>2010-05-22T12:41:00Z</time>
      </trkpt>
      <trkpt lat="45.09876" lon="4.65549">
        <ele>588.74597167969</ele>
        <time>2010-05-22T12:41:04Z</time>
      </trkpt>
      <trkpt lat="45.09922" lon="4.65589">
        <ele>584.66998291016</ele>
        <time>2010-05-22T12:41:09Z</time>
      </trkpt>
      <trkpt lat="45.09961" lon="4.65607">
        <ele>583.458984375</ele>
        <time>2010-05-22T12:41:13Z</time>
      </trkpt>
      <trkpt lat="45.09991" lon="4.65602">
        <ele>583.58001708984</ele>
        <time>2010-05-22T12:41:16Z</time>
      </trkpt>
      <trkpt lat="45.10008" lon="4.65587">
        <ele>582.35797119141</ele>
        <time>2010-05-22T12:41:18Z</time>
      </trkpt>
      <trkpt lat="45.10051" lon="4.65551">
        <ele>578.76098632812</ele>
        <time>2010-05-22T12:41:23Z</time>
      </trkpt>
      <trkpt lat="45.1006" lon="4.65549">
        <ele>578.47198486328</ele>
        <time>2010-05-22T12:41:24Z</time>
      </trkpt>
      <trkpt lat="45.10086" lon="4.65546">
        <ele>576.86999511719</ele>
        <time>2010-05-22T12:41:27Z</time>
      </trkpt>
      <trkpt lat="45.10103" lon="4.65553">
        <ele>575.96697998047</ele>
        <time>2010-05-22T12:41:29Z</time>
      </trkpt>
      <trkpt lat="45.10114" lon="4.65571">
        <ele>576.22302246094</ele>
        <time>2010-05-22T12:41:31Z</time>
      </trkpt>
      <trkpt lat="45.10117" lon="4.65604">
        <ele>577.34802246094</ele>
        <time>2010-05-22T12:41:34Z</time>
      </trkpt>
      <trkpt lat="45.10106" lon="4.65633">
        <ele>577.57501220703</ele>
        <time>2010-05-22T12:41:37Z</time>
      </trkpt>
      <trkpt lat="45.101" lon="4.6564">
        <ele>577.79400634766</ele>
        <time>2010-05-22T12:41:38Z</time>
      </trkpt>
      <trkpt lat="45.10069" lon="4.65691">
        <ele>578.62200927734</ele>
        <time>2010-05-22T12:41:45Z</time>
      </trkpt>
      <trkpt lat="45.10066" lon="4.65699">
        <ele>578.68298339844</ele>
        <time>2010-05-22T12:41:46Z</time>
      </trkpt>
      <trkpt lat="45.10054" lon="4.65766">
        <ele>578.58599853516</ele>
        <time>2010-05-22T12:41:54Z</time>
      </trkpt>
      <trkpt lat="45.10049" lon="4.65799">
        <ele>578.78900146484</ele>
        <time>2010-05-22T12:41:58Z</time>
      </trkpt>
      <trkpt lat="45.10034" lon="4.65845">
        <ele>578.06402587891</ele>
        <time>2010-05-22T12:42:04Z</time>
      </trkpt>
      <trkpt lat="45.10023" lon="4.65868">
        <ele>579.50402832031</ele>
        <time>2010-05-22T12:42:07Z</time>
      </trkpt>
      <trkpt lat="45.10003" lon="4.65902">
        <ele>578.44598388672</ele>
        <time>2010-05-22T12:42:11Z</time>
      </trkpt>
      <trkpt lat="45.09993" lon="4.65949">
        <ele>579.84100341797</ele>
        <time>2010-05-22T12:42:15Z</time>
      </trkpt>
      <trkpt lat="45.09994" lon="4.65962">
        <ele>580.07501220703</ele>
        <time>2010-05-22T12:42:16Z</time>
      </trkpt>
      <trkpt lat="45.09988" lon="4.6602">
        <ele>580.78002929688</ele>
        <time>2010-05-22T12:42:21Z</time>
      </trkpt>
      <trkpt lat="45.09967" lon="4.66038">
        <ele>581.82800292969</ele>
        <time>2010-05-22T12:42:24Z</time>
      </trkpt>
      <trkpt lat="45.09929" lon="4.66055">
        <ele>582.68298339844</ele>
        <time>2010-05-22T12:42:29Z</time>
      </trkpt>
      <trkpt lat="45.09897" lon="4.66085">
        <ele>583.37799072266</ele>
        <time>2010-05-22T12:42:34Z</time>
      </trkpt>
      <trkpt lat="45.0985" lon="4.66147">
        <ele>584.65197753906</ele>
        <time>2010-05-22T12:42:43Z</time>
      </trkpt>
      <trkpt lat="45.09801" lon="4.6621">
        <ele>585.43298339844</ele>
        <time>2010-05-22T12:42:52Z</time>
      </trkpt>
      <trkpt lat="45.09796" lon="4.66218">
        <ele>585.39501953125</ele>
        <time>2010-05-22T12:42:53Z</time>
      </trkpt>
      <trkpt lat="45.09787" lon="4.66255">
        <ele>585.35498046875</ele>
        <time>2010-05-22T12:42:57Z</time>
      </trkpt>
      <trkpt lat="45.09792" lon="4.66294">
        <ele>586.59698486328</ele>
        <time>2010-05-22T12:43:01Z</time>
      </trkpt>
      <trkpt lat="45.09797" lon="4.66313">
        <ele>587.09899902344</ele>
        <time>2010-05-22T12:43:03Z</time>
      </trkpt>
      <trkpt lat="45.09808" lon="4.6634">
        <ele>587.40100097656</ele>
        <time>2010-05-22T12:43:06Z</time>
      </trkpt>
      <trkpt lat="45.09844" lon="4.66391">
        <ele>587.95599365234</ele>
        <time>2010-05-22T12:43:13Z</time>
      </trkpt>
      <trkpt lat="45.09898" lon="4.6645">
        <ele>589.45501708984</ele>
        <time>2010-05-22T12:43:22Z</time>
      </trkpt>
      <trkpt lat="45.09928" lon="4.66493">
        <ele>590.66198730469</ele>
        <time>2010-05-22T12:43:28Z</time>
      </trkpt>
      <trkpt lat="45.09938" lon="4.66517">
        <ele>590.81402587891</ele>
        <time>2010-05-22T12:43:31Z</time>
      </trkpt>
      <trkpt lat="45.09945" lon="4.66542">
        <ele>590.77197265625</ele>
        <time>2010-05-22T12:43:34Z</time>
      </trkpt>
      <trkpt lat="45.09961" lon="4.6658">
        <ele>591.54998779297</ele>
        <time>2010-05-22T12:43:39Z</time>
      </trkpt>
      <trkpt lat="45.09966" lon="4.66586">
        <ele>592.09497070312</ele>
        <time>2010-05-22T12:43:40Z</time>
      </trkpt>
      <trkpt lat="45.09989" lon="4.66618">
        <ele>593.05401611328</ele>
        <time>2010-05-22T12:43:45Z</time>
      </trkpt>
      <trkpt lat="45.10001" lon="4.66649">
        <ele>592.708984375</ele>
        <time>2010-05-22T12:43:49Z</time>
      </trkpt>
      <trkpt lat="45.1002" lon="4.66724">
        <ele>593.81097412109</ele>
        <time>2010-05-22T12:43:58Z</time>
      </trkpt>
      <trkpt lat="45.10023" lon="4.66732">
        <ele>594.08502197266</ele>
        <time>2010-05-22T12:43:59Z</time>
      </trkpt>
      <trkpt lat="45.10029" lon="4.66759">
        <ele>594.53100585938</ele>
        <time>2010-05-22T12:44:02Z</time>
      </trkpt>
      <trkpt lat="45.10027" lon="4.66806">
        <ele>594.39898681641</ele>
        <time>2010-05-22T12:44:07Z</time>
      </trkpt>
      <trkpt lat="45.10025" lon="4.66815">
        <ele>594.57000732422</ele>
        <time>2010-05-22T12:44:08Z</time>
      </trkpt>
      <trkpt lat="45.10017" lon="4.66841">
        <ele>596.291015625</ele>
        <time>2010-05-22T12:44:11Z</time>
      </trkpt>
      <trkpt lat="45.10014" lon="4.66888">
        <ele>596.75299072266</ele>
        <time>2010-05-22T12:44:16Z</time>
      </trkpt>
      <trkpt lat="45.10027" lon="4.66942">
        <ele>596.88299560547</ele>
        <time>2010-05-22T12:44:22Z</time>
      </trkpt>
      <trkpt lat="45.10041" lon="4.66972">
        <ele>596.78198242188</ele>
        <time>2010-05-22T12:44:26Z</time>
      </trkpt>
      <trkpt lat="45.10061" lon="4.66995">
        <ele>598.91497802734</ele>
        <time>2010-05-22T12:44:30Z</time>
      </trkpt>
      <trkpt lat="45.101" lon="4.67036">
        <ele>599.61901855469</ele>
        <time>2010-05-22T12:44:38Z</time>
      </trkpt>
      <trkpt lat="45.10116" lon="4.67072">
        <ele>600.17901611328</ele>
        <time>2010-05-22T12:44:43Z</time>
      </trkpt>
      <trkpt lat="45.10116" lon="4.67098">
        <ele>600.81298828125</ele>
        <time>2010-05-22T12:44:46Z</time>
      </trkpt>
      <trkpt lat="45.10109" lon="4.67148">
        <ele>602.33099365234</ele>
        <time>2010-05-22T12:44:52Z</time>
      </trkpt>
      <trkpt lat="45.10089" lon="4.67196">
        <ele>603.16900634766</ele>
        <time>2010-05-22T12:44:58Z</time>
      </trkpt>
      <trkpt lat="45.10074" lon="4.67227">
        <ele>604.17297363281</ele>
        <time>2010-05-22T12:45:02Z</time>
      </trkpt>
      <trkpt lat="45.10063" lon="4.67251">
        <ele>604.02697753906</ele>
        <time>2010-05-22T12:45:05Z</time>
      </trkpt>
      <trkpt lat="45.10052" lon="4.67285">
        <ele>605.77001953125</ele>
        <time>2010-05-22T12:45:09Z</time>
      </trkpt>
      <trkpt lat="45.10049" lon="4.67341">
        <ele>607.91998291016</ele>
        <time>2010-05-22T12:45:16Z</time>
      </trkpt>
      <trkpt lat="45.10049" lon="4.67354">
        <ele>608.38598632812</ele>
        <time>2010-05-22T12:45:18Z</time>
      </trkpt>
      <trkpt lat="45.10056" lon="4.67379">
        <ele>609.19299316406</ele>
        <time>2010-05-22T12:45:22Z</time>
      </trkpt>
      <trkpt lat="45.10065" lon="4.67383">
        <ele>609.32299804688</ele>
        <time>2010-05-22T12:45:24Z</time>
      </trkpt>
      <trkpt lat="45.10096" lon="4.6739">
        <ele>610.09802246094</ele>
        <time>2010-05-22T12:45:30Z</time>
      </trkpt>
      <trkpt lat="45.10103" lon="4.67397">
        <ele>610.70098876953</ele>
        <time>2010-05-22T12:45:32Z</time>
      </trkpt>
      <trkpt lat="45.10131" lon="4.67408">
        <ele>608.541015625</ele>
        <time>2010-05-22T12:45:38Z</time>
      </trkpt>
      <trkpt lat="45.10141" lon="4.67408">
        <ele>607.63299560547</ele>
        <time>2010-05-22T12:45:40Z</time>
      </trkpt>
      <trkpt lat="45.10175" lon="4.67401">
        <ele>606.80902099609</ele>
        <time>2010-05-22T12:45:46Z</time>
      </trkpt>
      <trkpt lat="45.10218" lon="4.67392">
        <ele>604.7509765625</ele>
        <time>2010-05-22T12:45:52Z</time>
      </trkpt>
      <trkpt lat="45.10242" lon="4.6739">
        <ele>601.91497802734</ele>
        <time>2010-05-22T12:45:55Z</time>
      </trkpt>
      <trkpt lat="45.10266" lon="4.67395">
        <ele>600.24700927734</ele>
        <time>2010-05-22T12:45:58Z</time>
      </trkpt>
      <trkpt lat="45.10289" lon="4.67402">
        <ele>598.68402099609</ele>
        <time>2010-05-22T12:46:01Z</time>
      </trkpt>
      <trkpt lat="45.1032" lon="4.6741">
        <ele>598.92700195312</ele>
        <time>2010-05-22T12:46:05Z</time>
      </trkpt>
      <trkpt lat="45.10336" lon="4.67413">
        <ele>598.40600585938</ele>
        <time>2010-05-22T12:46:07Z</time>
      </trkpt>
      <trkpt lat="45.1038" lon="4.67424">
        <ele>595.81896972656</ele>
        <time>2010-05-22T12:46:12Z</time>
      </trkpt>
      <trkpt lat="45.10389" lon="4.67426">
        <ele>595.23297119141</ele>
        <time>2010-05-22T12:46:13Z</time>
      </trkpt>
      <trkpt lat="45.10443" lon="4.67426">
        <ele>591.01800537109</ele>
        <time>2010-05-22T12:46:19Z</time>
      </trkpt>
      <trkpt lat="45.10452" lon="4.67425">
        <ele>590.72900390625</ele>
        <time>2010-05-22T12:46:20Z</time>
      </trkpt>
      <trkpt lat="45.10461" lon="4.67423">
        <ele>590.4990234375</ele>
        <time>2010-05-22T12:46:21Z</time>
      </trkpt>
      <trkpt lat="45.1049" lon="4.67419">
        <ele>589.14099121094</ele>
        <time>2010-05-22T12:46:24Z</time>
      </trkpt>
      <trkpt lat="45.1051" lon="4.67419">
        <ele>588.15399169922</ele>
        <time>2010-05-22T12:46:26Z</time>
      </trkpt>
      <trkpt lat="45.10539" lon="4.6743">
        <ele>585.68103027344</ele>
        <time>2010-05-22T12:46:29Z</time>
      </trkpt>
      <trkpt lat="45.10547" lon="4.67437">
        <ele>585.13397216797</ele>
        <time>2010-05-22T12:46:30Z</time>
      </trkpt>
      <trkpt lat="45.10564" lon="4.67452">
        <ele>584.16400146484</ele>
        <time>2010-05-22T12:46:32Z</time>
      </trkpt>
      <trkpt lat="45.10603" lon="4.67466">
        <ele>582.28997802734</ele>
        <time>2010-05-22T12:46:36Z</time>
      </trkpt>
      <trkpt lat="45.10612" lon="4.67466">
        <ele>581.98999023438</ele>
        <time>2010-05-22T12:46:37Z</time>
      </trkpt>
      <trkpt lat="45.10651" lon="4.67465">
        <ele>579.73901367188</ele>
        <time>2010-05-22T12:46:41Z</time>
      </trkpt>
      <trkpt lat="45.1067" lon="4.6746">
        <ele>579.10998535156</ele>
        <time>2010-05-22T12:46:43Z</time>
      </trkpt>
      <trkpt lat="45.10697" lon="4.67447">
        <ele>577.55297851562</ele>
        <time>2010-05-22T12:46:46Z</time>
      </trkpt>
      <trkpt lat="45.10737" lon="4.67444">
        <ele>576.3330078125</ele>
        <time>2010-05-22T12:46:50Z</time>
      </trkpt>
      <trkpt lat="45.10764" lon="4.67472">
        <ele>574.71801757812</ele>
        <time>2010-05-22T12:46:53Z</time>
      </trkpt>
      <trkpt lat="45.10775" lon="4.67498">
        <ele>573.34197998047</ele>
        <time>2010-05-22T12:46:55Z</time>
      </trkpt>
      <trkpt lat="45.10801" lon="4.67549">
        <ele>570.38897705078</ele>
        <time>2010-05-22T12:46:59Z</time>
      </trkpt>
      <trkpt lat="45.10836" lon="4.67584">
        <ele>569.02301025391</ele>
        <time>2010-05-22T12:47:03Z</time>
      </trkpt>
      <trkpt lat="45.10857" lon="4.6758">
        <ele>567.66497802734</ele>
        <time>2010-05-22T12:47:05Z</time>
      </trkpt>
      <trkpt lat="45.10868" lon="4.67576">
        <ele>566.9990234375</ele>
        <time>2010-05-22T12:47:06Z</time>
      </trkpt>
      <trkpt lat="45.10923" lon="4.67553">
        <ele>563.9169921875</ele>
        <time>2010-05-22T12:47:11Z</time>
      </trkpt>
      <trkpt lat="45.10961" lon="4.67517">
        <ele>561.82800292969</ele>
        <time>2010-05-22T12:47:15Z</time>
      </trkpt>
      <trkpt lat="45.10991" lon="4.67495">
        <ele>561.47302246094</ele>
        <time>2010-05-22T12:47:20Z</time>
      </trkpt>
      <trkpt lat="45.11005" lon="4.67506">
        <ele>561.05499267578</ele>
        <time>2010-05-22T12:47:23Z</time>
      </trkpt>
      <trkpt lat="45.11009" lon="4.67512">
        <ele>560.92999267578</ele>
        <time>2010-05-22T12:47:24Z</time>
      </trkpt>
      <trkpt lat="45.11018" lon="4.67553">
        <ele>560.18701171875</ele>
        <time>2010-05-22T12:47:30Z</time>
      </trkpt>
      <trkpt lat="45.11012" lon="4.67592">
        <ele>559.31701660156</ele>
        <time>2010-05-22T12:47:34Z</time>
      </trkpt>
      <trkpt lat="45.10999" lon="4.67634">
        <ele>557.84497070312</ele>
        <time>2010-05-22T12:47:38Z</time>
      </trkpt>
      <trkpt lat="45.1098" lon="4.67706">
        <ele>555.08001708984</ele>
        <time>2010-05-22T12:47:44Z</time>
      </trkpt>
      <trkpt lat="45.10951" lon="4.67819">
        <ele>550.81298828125</ele>
        <time>2010-05-22T12:47:53Z</time>
      </trkpt>
      <trkpt lat="45.10936" lon="4.67881">
        <ele>548.31597900391</ele>
        <time>2010-05-22T12:47:58Z</time>
      </trkpt>
      <trkpt lat="45.10919" lon="4.67941">
        <ele>545.76397705078</ele>
        <time>2010-05-22T12:48:03Z</time>
      </trkpt>
      <trkpt lat="45.10896" lon="4.68033">
        <ele>543.07702636719</ele>
        <time>2010-05-22T12:48:11Z</time>
      </trkpt>
      <trkpt lat="45.10894" lon="4.68044">
        <ele>542.84802246094</ele>
        <time>2010-05-22T12:48:12Z</time>
      </trkpt>
      <trkpt lat="45.10877" lon="4.68108">
        <ele>542.17901611328</ele>
        <time>2010-05-22T12:48:18Z</time>
      </trkpt>
      <trkpt lat="45.10853" lon="4.68204">
        <ele>539.375</ele>
        <time>2010-05-22T12:48:27Z</time>
      </trkpt>
      <trkpt lat="45.10847" lon="4.68226">
        <ele>538.56799316406</ele>
        <time>2010-05-22T12:48:29Z</time>
      </trkpt>
      <trkpt lat="45.10833" lon="4.68289">
        <ele>537.10699462891</ele>
        <time>2010-05-22T12:48:35Z</time>
      </trkpt>
      <trkpt lat="45.10832" lon="4.6834">
        <ele>536.19598388672</ele>
        <time>2010-05-22T12:48:40Z</time>
      </trkpt>
      <trkpt lat="45.10838" lon="4.68402">
        <ele>534.46002197266</ele>
        <time>2010-05-22T12:48:46Z</time>
      </trkpt>
      <trkpt lat="45.10837" lon="4.6844">
        <ele>532.97601318359</ele>
        <time>2010-05-22T12:48:49Z</time>
      </trkpt>
      <trkpt lat="45.10831" lon="4.68481">
        <ele>531.80102539062</ele>
        <time>2010-05-22T12:48:52Z</time>
      </trkpt>
      <trkpt lat="45.10825" lon="4.68523">
        <ele>531.80999755859</ele>
        <time>2010-05-22T12:48:55Z</time>
      </trkpt>
      <trkpt lat="45.10819" lon="4.68552">
        <ele>530.92797851562</ele>
        <time>2010-05-22T12:48:57Z</time>
      </trkpt>
      <trkpt lat="45.10809" lon="4.68626">
        <ele>529.42102050781</ele>
        <time>2010-05-22T12:49:02Z</time>
      </trkpt>
      <trkpt lat="45.10808" lon="4.68686">
        <ele>528.46697998047</ele>
        <time>2010-05-22T12:49:06Z</time>
      </trkpt>
      <trkpt lat="45.10825" lon="4.68757">
        <ele>525.91302490234</ele>
        <time>2010-05-22T12:49:11Z</time>
      </trkpt>
      <trkpt lat="45.10846" lon="4.68841">
        <ele>525.92797851562</ele>
        <time>2010-05-22T12:49:17Z</time>
      </trkpt>
      <trkpt lat="45.10864" lon="4.68936">
        <ele>526.70599365234</ele>
        <time>2010-05-22T12:49:24Z</time>
      </trkpt>
      <trkpt lat="45.10889" lon="4.69011">
        <ele>525.70697021484</ele>
        <time>2010-05-22T12:49:30Z</time>
      </trkpt>
      <trkpt lat="45.10928" lon="4.69122">
        <ele>526.17999267578</ele>
        <time>2010-05-22T12:49:39Z</time>
      </trkpt>
      <trkpt lat="45.1095" lon="4.69215">
        <ele>525.49102783203</ele>
        <time>2010-05-22T12:49:46Z</time>
      </trkpt>
      <trkpt lat="45.10973" lon="4.69319">
        <ele>523.13098144531</ele>
        <time>2010-05-22T12:49:53Z</time>
      </trkpt>
      <trkpt lat="45.10992" lon="4.69405">
        <ele>518.63598632812</ele>
        <time>2010-05-22T12:49:58Z</time>
      </trkpt>
      <trkpt lat="45.11022" lon="4.6949">
        <ele>511.74301147461</ele>
        <time>2010-05-22T12:50:03Z</time>
      </trkpt>
      <trkpt lat="45.1103" lon="4.69505">
        <ele>511.59899902344</ele>
        <time>2010-05-22T12:50:04Z</time>
      </trkpt>
      <trkpt lat="45.11039" lon="4.6952">
        <ele>512.04797363281</ele>
        <time>2010-05-22T12:50:05Z</time>
      </trkpt>
      <trkpt lat="45.11069" lon="4.69558">
        <ele>510.52200317383</ele>
        <time>2010-05-22T12:50:08Z</time>
      </trkpt>
      <trkpt lat="45.11096" lon="4.696">
        <ele>506.91598510742</ele>
        <time>2010-05-22T12:50:11Z</time>
      </trkpt>
      <trkpt lat="45.11147" lon="4.69705">
        <ele>504.97799682617</ele>
        <time>2010-05-22T12:50:18Z</time>
      </trkpt>
      <trkpt lat="45.1119" lon="4.69771">
        <ele>500.18798828125</ele>
        <time>2010-05-22T12:50:23Z</time>
      </trkpt>
      <trkpt lat="45.11197" lon="4.69785">
        <ele>500.00698852539</ele>
        <time>2010-05-22T12:50:24Z</time>
      </trkpt>
      <trkpt lat="45.11217" lon="4.69858">
        <ele>502.05200195312</ele>
        <time>2010-05-22T12:50:29Z</time>
      </trkpt>
      <trkpt lat="45.11232" lon="4.6992">
        <ele>504.18499755859</ele>
        <time>2010-05-22T12:50:34Z</time>
      </trkpt>
      <trkpt lat="45.11252" lon="4.69979">
        <ele>505.89999389648</ele>
        <time>2010-05-22T12:50:40Z</time>
      </trkpt>
      <trkpt lat="45.11278" lon="4.70016">
        <ele>506.3330078125</ele>
        <time>2010-05-22T12:50:45Z</time>
      </trkpt>
      <trkpt lat="45.11311" lon="4.70057">
        <ele>508.46798706055</ele>
        <time>2010-05-22T12:50:51Z</time>
      </trkpt>
      <trkpt lat="45.11329" lon="4.70091">
        <ele>508.16799926758</ele>
        <time>2010-05-22T12:50:55Z</time>
      </trkpt>
      <trkpt lat="45.11355" lon="4.70165">
        <ele>510.11801147461</ele>
        <time>2010-05-22T12:51:03Z</time>
      </trkpt>
      <trkpt lat="45.11362" lon="4.70212">
        <ele>510.70700073242</ele>
        <time>2010-05-22T12:51:08Z</time>
      </trkpt>
      <trkpt lat="45.11363" lon="4.70258">
        <ele>510.03298950195</ele>
        <time>2010-05-22T12:51:13Z</time>
      </trkpt>
      <trkpt lat="45.1137" lon="4.7032">
        <ele>511.88299560547</ele>
        <time>2010-05-22T12:51:20Z</time>
      </trkpt>
      <trkpt lat="45.11386" lon="4.70376">
        <ele>513.39001464844</ele>
        <time>2010-05-22T12:51:27Z</time>
      </trkpt>
      <trkpt lat="45.11408" lon="4.70449">
        <ele>516.17602539062</ele>
        <time>2010-05-22T12:51:37Z</time>
      </trkpt>
      <trkpt lat="45.11428" lon="4.70517">
        <ele>518.86700439453</ele>
        <time>2010-05-22T12:51:47Z</time>
      </trkpt>
      <trkpt lat="45.11457" lon="4.70579">
        <ele>520.97998046875</ele>
        <time>2010-05-22T12:51:57Z</time>
      </trkpt>
      <trkpt lat="45.11489" lon="4.70645">
        <ele>523.04498291016</ele>
        <time>2010-05-22T12:52:08Z</time>
      </trkpt>
      <trkpt lat="45.11515" lon="4.70693">
        <ele>524.39099121094</ele>
        <time>2010-05-22T12:52:16Z</time>
      </trkpt>
      <trkpt lat="45.11539" lon="4.70747">
        <ele>525.52697753906</ele>
        <time>2010-05-22T12:52:24Z</time>
      </trkpt>
      <trkpt lat="45.11552" lon="4.70801">
        <ele>526.71997070312</ele>
        <time>2010-05-22T12:52:31Z</time>
      </trkpt>
      <trkpt lat="45.11555" lon="4.70857">
        <ele>528.39898681641</ele>
        <time>2010-05-22T12:52:38Z</time>
      </trkpt>
      <trkpt lat="45.11553" lon="4.70929">
        <ele>530.31799316406</ele>
        <time>2010-05-22T12:52:47Z</time>
      </trkpt>
      <trkpt lat="45.11558" lon="4.71002">
        <ele>532.44799804688</ele>
        <time>2010-05-22T12:52:56Z</time>
      </trkpt>
      <trkpt lat="45.1157" lon="4.71058">
        <ele>533.64300537109</ele>
        <time>2010-05-22T12:53:03Z</time>
      </trkpt>
      <trkpt lat="45.11591" lon="4.71101">
        <ele>534.38201904297</ele>
        <time>2010-05-22T12:53:09Z</time>
      </trkpt>
      <trkpt lat="45.11618" lon="4.71162">
        <ele>534.80401611328</ele>
        <time>2010-05-22T12:53:17Z</time>
      </trkpt>
      <trkpt lat="45.11638" lon="4.71235">
        <ele>532.93402099609</ele>
        <time>2010-05-22T12:53:24Z</time>
      </trkpt>
      <trkpt lat="45.11663" lon="4.7133">
        <ele>532.66101074219</ele>
        <time>2010-05-22T12:53:32Z</time>
      </trkpt>
      <trkpt lat="45.11691" lon="4.71437">
        <ele>529.50299072266</ele>
        <time>2010-05-22T12:53:40Z</time>
      </trkpt>
      <trkpt lat="45.117" lon="4.71481">
        <ele>527.38201904297</ele>
        <time>2010-05-22T12:53:43Z</time>
      </trkpt>
      <trkpt lat="45.11705" lon="4.71544">
        <ele>525.50598144531</ele>
        <time>2010-05-22T12:53:47Z</time>
      </trkpt>
      <trkpt lat="45.11707" lon="4.71609">
        <ele>523.0419921875</ele>
        <time>2010-05-22T12:53:51Z</time>
      </trkpt>
      <trkpt lat="45.11708" lon="4.71692">
        <ele>519.65600585938</ele>
        <time>2010-05-22T12:53:56Z</time>
      </trkpt>
      <trkpt lat="45.1171" lon="4.71786">
        <ele>518.15002441406</ele>
        <time>2010-05-22T12:54:02Z</time>
      </trkpt>
      <trkpt lat="45.11703" lon="4.71867">
        <ele>516.28601074219</ele>
        <time>2010-05-22T12:54:07Z</time>
      </trkpt>
      <trkpt lat="45.117" lon="4.71954">
        <ele>513.54998779297</ele>
        <time>2010-05-22T12:54:12Z</time>
      </trkpt>
      <trkpt lat="45.11708" lon="4.72023">
        <ele>510.17700195312</ele>
        <time>2010-05-22T12:54:16Z</time>
      </trkpt>
      <trkpt lat="45.11711" lon="4.72039">
        <ele>509.97698974609</ele>
        <time>2010-05-22T12:54:17Z</time>
      </trkpt>
      <trkpt lat="45.11737" lon="4.72094">
        <ele>508.29998779297</ele>
        <time>2010-05-22T12:54:21Z</time>
      </trkpt>
      <trkpt lat="45.11796" lon="4.7216">
        <ele>507.32699584961</ele>
        <time>2010-05-22T12:54:27Z</time>
      </trkpt>
      <trkpt lat="45.11832" lon="4.7221">
        <ele>506.2080078125</ele>
        <time>2010-05-22T12:54:31Z</time>
      </trkpt>
      <trkpt lat="45.11856" lon="4.72271">
        <ele>502.72500610352</ele>
        <time>2010-05-22T12:54:35Z</time>
      </trkpt>
      <trkpt lat="45.11862" lon="4.72304">
        <ele>502.72900390625</ele>
        <time>2010-05-22T12:54:37Z</time>
      </trkpt>
      <trkpt lat="45.11867" lon="4.72371">
        <ele>502.48400878906</ele>
        <time>2010-05-22T12:54:41Z</time>
      </trkpt>
      <trkpt lat="45.11853" lon="4.72457">
        <ele>500.64001464844</ele>
        <time>2010-05-22T12:54:46Z</time>
      </trkpt>
      <trkpt lat="45.1185" lon="4.72475">
        <ele>500.45098876953</ele>
        <time>2010-05-22T12:54:47Z</time>
      </trkpt>
      <trkpt lat="45.11822" lon="4.72591">
        <ele>498.69198608398</ele>
        <time>2010-05-22T12:54:54Z</time>
      </trkpt>
      <trkpt lat="45.11791" lon="4.72728">
        <ele>499.94299316406</ele>
        <time>2010-05-22T12:55:03Z</time>
      </trkpt>
      <trkpt lat="45.11779" lon="4.72768">
        <ele>499.26901245117</ele>
        <time>2010-05-22T12:55:06Z</time>
      </trkpt>
      <trkpt lat="45.11732" lon="4.72848">
        <ele>498.2380065918</ele>
        <time>2010-05-22T12:55:13Z</time>
      </trkpt>
      <trkpt lat="45.11687" lon="4.72923">
        <ele>496.51098632812</ele>
        <time>2010-05-22T12:55:19Z</time>
      </trkpt>
      <trkpt lat="45.1165" lon="4.72968">
        <ele>495.20098876953</ele>
        <time>2010-05-22T12:55:23Z</time>
      </trkpt>
      <trkpt lat="45.11584" lon="4.73019">
        <ele>493.77499389648</ele>
        <time>2010-05-22T12:55:29Z</time>
      </trkpt>
      <trkpt lat="45.11507" lon="4.73078">
        <ele>492.18899536133</ele>
        <time>2010-05-22T12:55:36Z</time>
      </trkpt>
      <trkpt lat="45.1143" lon="4.73141">
        <ele>490.38000488281</ele>
        <time>2010-05-22T12:55:43Z</time>
      </trkpt>
      <trkpt lat="45.11346" lon="4.73217">
        <ele>487.63000488281</ele>
        <time>2010-05-22T12:55:51Z</time>
      </trkpt>
      <trkpt lat="45.11295" lon="4.73266">
        <ele>485.89300537109</ele>
        <time>2010-05-22T12:55:56Z</time>
      </trkpt>
      <trkpt lat="45.11212" lon="4.73347">
        <ele>481.1969909668</ele>
        <time>2010-05-22T12:56:04Z</time>
      </trkpt>
      <trkpt lat="45.11138" lon="4.73419">
        <ele>477.87701416016</ele>
        <time>2010-05-22T12:56:11Z</time>
      </trkpt>
      <trkpt lat="45.11076" lon="4.73479">
        <ele>476.24798583984</ele>
        <time>2010-05-22T12:56:17Z</time>
      </trkpt>
      <trkpt lat="45.11038" lon="4.73518">
        <ele>472.57998657227</ele>
        <time>2010-05-22T12:56:21Z</time>
      </trkpt>
      <trkpt lat="45.10994" lon="4.73576">
        <ele>474.125</ele>
        <time>2010-05-22T12:56:26Z</time>
      </trkpt>
      <trkpt lat="45.10956" lon="4.73656">
        <ele>472.99600219727</ele>
        <time>2010-05-22T12:56:32Z</time>
      </trkpt>
      <trkpt lat="45.10916" lon="4.73759">
        <ele>475.86999511719</ele>
        <time>2010-05-22T12:56:40Z</time>
      </trkpt>
      <trkpt lat="45.10907" lon="4.73784">
        <ele>477.18200683594</ele>
        <time>2010-05-22T12:56:42Z</time>
      </trkpt>
      <trkpt lat="45.10885" lon="4.7384">
        <ele>478.09298706055</ele>
        <time>2010-05-22T12:56:47Z</time>
      </trkpt>
      <trkpt lat="45.10862" lon="4.73907">
        <ele>478.22698974609</ele>
        <time>2010-05-22T12:56:52Z</time>
      </trkpt>
      <trkpt lat="45.10843" lon="4.7398">
        <ele>478.25</ele>
        <time>2010-05-22T12:56:57Z</time>
      </trkpt>
      <trkpt lat="45.10824" lon="4.74054">
        <ele>475.53298950195</ele>
        <time>2010-05-22T12:57:02Z</time>
      </trkpt>
      <trkpt lat="45.10816" lon="4.74081">
        <ele>474.6549987793</ele>
        <time>2010-05-22T12:57:04Z</time>
      </trkpt>
      <trkpt lat="45.10795" lon="4.74176">
        <ele>472.73098754883</ele>
        <time>2010-05-22T12:57:11Z</time>
      </trkpt>
      <trkpt lat="45.10785" lon="4.74243">
        <ele>472.82598876953</ele>
        <time>2010-05-22T12:57:16Z</time>
      </trkpt>
      <trkpt lat="45.10783" lon="4.74308">
        <ele>474.29501342773</ele>
        <time>2010-05-22T12:57:21Z</time>
      </trkpt>
      <trkpt lat="45.10785" lon="4.74385">
        <ele>475.42401123047</ele>
        <time>2010-05-22T12:57:27Z</time>
      </trkpt>
      <trkpt lat="45.10784" lon="4.74506">
        <ele>472.38500976562</ele>
        <time>2010-05-22T12:57:36Z</time>
      </trkpt>
      <trkpt lat="45.10777" lon="4.74579">
        <ele>469.23300170898</ele>
        <time>2010-05-22T12:57:41Z</time>
      </trkpt>
      <trkpt lat="45.10757" lon="4.74656">
        <ele>465.68200683594</ele>
        <time>2010-05-22T12:57:46Z</time>
      </trkpt>
      <trkpt lat="45.10733" lon="4.74736">
        <ele>461.21099853516</ele>
        <time>2010-05-22T12:57:51Z</time>
      </trkpt>
      <trkpt lat="45.10701" lon="4.74846">
        <ele>460.08200073242</ele>
        <time>2010-05-22T12:57:58Z</time>
      </trkpt>
      <trkpt lat="45.10668" lon="4.74954">
        <ele>459.96499633789</ele>
        <time>2010-05-22T12:58:05Z</time>
      </trkpt>
      <trkpt lat="45.10663" lon="4.74969">
        <ele>459.8039855957</ele>
        <time>2010-05-22T12:58:06Z</time>
      </trkpt>
      <trkpt lat="45.10629" lon="4.75052">
        <ele>458.53399658203</ele>
        <time>2010-05-22T12:58:12Z</time>
      </trkpt>
      <trkpt lat="45.10587" lon="4.75153">
        <ele>460.42300415039</ele>
        <time>2010-05-22T12:58:20Z</time>
      </trkpt>
      <trkpt lat="45.10566" lon="4.75214">
        <ele>461.59100341797</ele>
        <time>2010-05-22T12:58:25Z</time>
      </trkpt>
      <trkpt lat="45.10553" lon="4.75281">
        <ele>461.7619934082</ele>
        <time>2010-05-22T12:58:30Z</time>
      </trkpt>
      <trkpt lat="45.10533" lon="4.75329">
        <ele>463.74700927734</ele>
        <time>2010-05-22T12:58:34Z</time>
      </trkpt>
      <trkpt lat="45.10526" lon="4.75339">
        <ele>464.0299987793</ele>
        <time>2010-05-22T12:58:35Z</time>
      </trkpt>
      <trkpt lat="45.1049" lon="4.75382">
        <ele>466.35101318359</ele>
        <time>2010-05-22T12:58:40Z</time>
      </trkpt>
      <trkpt lat="45.1046" lon="4.75434">
        <ele>465.76901245117</ele>
        <time>2010-05-22T12:58:45Z</time>
      </trkpt>
      <trkpt lat="45.1043" lon="4.75509">
        <ele>465.34201049805</ele>
        <time>2010-05-22T12:58:51Z</time>
      </trkpt>
      <trkpt lat="45.10382" lon="4.75632">
        <ele>464.45901489258</ele>
        <time>2010-05-22T12:59:01Z</time>
      </trkpt>
      <trkpt lat="45.10373" lon="4.75656">
        <ele>463.79299926758</ele>
        <time>2010-05-22T12:59:03Z</time>
      </trkpt>
      <trkpt lat="45.10339" lon="4.75725">
        <ele>464.63400268555</ele>
        <time>2010-05-22T12:59:09Z</time>
      </trkpt>
      <trkpt lat="45.10301" lon="4.75795">
        <ele>464.66900634766</ele>
        <time>2010-05-22T12:59:15Z</time>
      </trkpt>
      <trkpt lat="45.10278" lon="4.75865">
        <ele>462.85998535156</ele>
        <time>2010-05-22T12:59:20Z</time>
      </trkpt>
      <trkpt lat="45.10266" lon="4.75894">
        <ele>462.19100952148</ele>
        <time>2010-05-22T12:59:22Z</time>
      </trkpt>
      <trkpt lat="45.10243" lon="4.75932">
        <ele>460.70599365234</ele>
        <time>2010-05-22T12:59:25Z</time>
      </trkpt>
      <trkpt lat="45.10234" lon="4.75944">
        <ele>460.35501098633</ele>
        <time>2010-05-22T12:59:26Z</time>
      </trkpt>
      <trkpt lat="45.10151" lon="4.7604">
        <ele>458.03500366211</ele>
        <time>2010-05-22T12:59:35Z</time>
      </trkpt>
      <trkpt lat="45.10096" lon="4.76077">
        <ele>456.28100585938</ele>
        <time>2010-05-22T12:59:40Z</time>
      </trkpt>
      <trkpt lat="45.10049" lon="4.76096">
        <ele>455.99700927734</ele>
        <time>2010-05-22T12:59:44Z</time>
      </trkpt>
      <trkpt lat="45.09986" lon="4.76091">
        <ele>455.20401000977</ele>
        <time>2010-05-22T12:59:49Z</time>
      </trkpt>
      <trkpt lat="45.0995" lon="4.76076">
        <ele>455.02600097656</ele>
        <time>2010-05-22T12:59:52Z</time>
      </trkpt>
      <trkpt lat="45.09909" lon="4.76047">
        <ele>456.35800170898</ele>
        <time>2010-05-22T12:59:56Z</time>
      </trkpt>
      <trkpt lat="45.09829" lon="4.7599">
        <ele>456.25799560547</ele>
        <time>2010-05-22T13:00:04Z</time>
      </trkpt>
      <trkpt lat="45.09784" lon="4.75964">
        <ele>453.67098999023</ele>
        <time>2010-05-22T13:00:08Z</time>
      </trkpt>
      <trkpt lat="45.0973" lon="4.75948">
        <ele>452.36801147461</ele>
        <time>2010-05-22T13:00:12Z</time>
      </trkpt>
      <trkpt lat="45.09655" lon="4.75934">
        <ele>448.88800048828</ele>
        <time>2010-05-22T13:00:17Z</time>
      </trkpt>
      <trkpt lat="45.09594" lon="4.75944">
        <ele>445.74398803711</ele>
        <time>2010-05-22T13:00:21Z</time>
      </trkpt>
      <trkpt lat="45.0954" lon="4.75985">
        <ele>441.96200561523</ele>
        <time>2010-05-22T13:00:25Z</time>
      </trkpt>
      <trkpt lat="45.09529" lon="4.76001">
        <ele>441.75500488281</ele>
        <time>2010-05-22T13:00:26Z</time>
      </trkpt>
      <trkpt lat="45.09505" lon="4.76055">
        <ele>440.26901245117</ele>
        <time>2010-05-22T13:00:29Z</time>
      </trkpt>
      <trkpt lat="45.09499" lon="4.76075">
        <ele>440.20199584961</ele>
        <time>2010-05-22T13:00:30Z</time>
      </trkpt>
      <trkpt lat="45.0946" lon="4.7619">
        <ele>437.23098754883</ele>
        <time>2010-05-22T13:00:36Z</time>
      </trkpt>
      <trkpt lat="45.09421" lon="4.76246">
        <ele>434.91000366211</ele>
        <time>2010-05-22T13:00:40Z</time>
      </trkpt>
      <trkpt lat="45.09381" lon="4.76264">
        <ele>433.15200805664</ele>
        <time>2010-05-22T13:00:43Z</time>
      </trkpt>
      <trkpt lat="45.09336" lon="4.76299">
        <ele>431.09100341797</ele>
        <time>2010-05-22T13:00:47Z</time>
      </trkpt>
      <trkpt lat="45.09335" lon="4.76355">
        <ele>428.78900146484</ele>
        <time>2010-05-22T13:00:50Z</time>
      </trkpt>
      <trkpt lat="45.09325" lon="4.76403">
        <ele>427.33099365234</ele>
        <time>2010-05-22T13:00:53Z</time>
      </trkpt>
      <trkpt lat="45.09302" lon="4.76421">
        <ele>426.85699462891</ele>
        <time>2010-05-22T13:00:55Z</time>
      </trkpt>
      <trkpt lat="45.09257" lon="4.76454">
        <ele>425.73699951172</ele>
        <time>2010-05-22T13:00:59Z</time>
      </trkpt>
      <trkpt lat="45.09219" lon="4.7646">
        <ele>424.00698852539</ele>
        <time>2010-05-22T13:01:02Z</time>
      </trkpt>
      <trkpt lat="45.09183" lon="4.76447">
        <ele>422.49700927734</ele>
        <time>2010-05-22T13:01:05Z</time>
      </trkpt>
      <trkpt lat="45.09145" lon="4.76453">
        <ele>422.10598754883</ele>
        <time>2010-05-22T13:01:08Z</time>
      </trkpt>
      <trkpt lat="45.09127" lon="4.76481">
        <ele>420.04400634766</ele>
        <time>2010-05-22T13:01:10Z</time>
      </trkpt>
      <trkpt lat="45.09124" lon="4.76519">
        <ele>417.88800048828</ele>
        <time>2010-05-22T13:01:12Z</time>
      </trkpt>
      <trkpt lat="45.09136" lon="4.76555">
        <ele>415.92098999023</ele>
        <time>2010-05-22T13:01:14Z</time>
      </trkpt>
      <trkpt lat="45.09144" lon="4.76569">
        <ele>415.47299194336</ele>
        <time>2010-05-22T13:01:15Z</time>
      </trkpt>
      <trkpt lat="45.09176" lon="4.76621">
        <ele>414.40600585938</ele>
        <time>2010-05-22T13:01:19Z</time>
      </trkpt>
      <trkpt lat="45.09188" lon="4.76668">
        <ele>413.01699829102</ele>
        <time>2010-05-22T13:01:22Z</time>
      </trkpt>
      <trkpt lat="45.09179" lon="4.767">
        <ele>411.84201049805</ele>
        <time>2010-05-22T13:01:24Z</time>
      </trkpt>
      <trkpt lat="45.09172" lon="4.76714">
        <ele>411.67098999023</ele>
        <time>2010-05-22T13:01:25Z</time>
      </trkpt>
      <trkpt lat="45.09151" lon="4.76757">
        <ele>410.93899536133</ele>
        <time>2010-05-22T13:01:28Z</time>
      </trkpt>
      <trkpt lat="45.09138" lon="4.76821">
        <ele>408.81100463867</ele>
        <time>2010-05-22T13:01:32Z</time>
      </trkpt>
      <trkpt lat="45.09133" lon="4.76869">
        <ele>406.88800048828</ele>
        <time>2010-05-22T13:01:35Z</time>
      </trkpt>
      <trkpt lat="45.09125" lon="4.76899">
        <ele>406.00900268555</ele>
        <time>2010-05-22T13:01:37Z</time>
      </trkpt>
      <trkpt lat="45.09096" lon="4.76967">
        <ele>404.75399780273</ele>
        <time>2010-05-22T13:01:42Z</time>
      </trkpt>
      <trkpt lat="45.09052" lon="4.77066">
        <ele>402.50500488281</ele>
        <time>2010-05-22T13:01:49Z</time>
      </trkpt>
      <trkpt lat="45.09046" lon="4.77082">
        <ele>402.15399169922</ele>
        <time>2010-05-22T13:01:50Z</time>
      </trkpt>
      <trkpt lat="45.09033" lon="4.77151">
        <ele>399.78698730469</ele>
        <time>2010-05-22T13:01:54Z</time>
      </trkpt>
      <trkpt lat="45.09018" lon="4.77202">
        <ele>398.11700439453</ele>
        <time>2010-05-22T13:01:57Z</time>
      </trkpt>
      <trkpt lat="45.08994" lon="4.77221">
        <ele>397.06799316406</ele>
        <time>2010-05-22T13:01:59Z</time>
      </trkpt>
      <trkpt lat="45.08968" lon="4.77223">
        <ele>395.0719909668</ele>
        <time>2010-05-22T13:02:01Z</time>
      </trkpt>
      <trkpt lat="45.08943" lon="4.77214">
        <ele>394.00100708008</ele>
        <time>2010-05-22T13:02:03Z</time>
      </trkpt>
      <trkpt lat="45.08849" lon="4.77172">
        <ele>394.07299804688</ele>
        <time>2010-05-22T13:02:11Z</time>
      </trkpt>
      <trkpt lat="45.08776" lon="4.77141">
        <ele>395.62799072266</ele>
        <time>2010-05-22T13:02:18Z</time>
      </trkpt>
      <trkpt lat="45.08765" lon="4.77138">
        <ele>396.04098510742</ele>
        <time>2010-05-22T13:02:19Z</time>
      </trkpt>
      <trkpt lat="45.08727" lon="4.77146">
        <ele>396.89199829102</ele>
        <time>2010-05-22T13:02:23Z</time>
      </trkpt>
      <trkpt lat="45.08705" lon="4.77169">
        <ele>398.37200927734</ele>
        <time>2010-05-22T13:02:26Z</time>
      </trkpt>
      <trkpt lat="45.08669" lon="4.77229">
        <ele>398.2200012207</ele>
        <time>2010-05-22T13:02:32Z</time>
      </trkpt>
      <trkpt lat="45.0867" lon="4.77246">
        <ele>398.22500610352</ele>
        <time>2010-05-22T13:02:33Z</time>
      </trkpt>
      <trkpt lat="45.08697" lon="4.77293">
        <ele>400.30700683594</ele>
        <time>2010-05-22T13:02:37Z</time>
      </trkpt>
      <trkpt lat="45.08706" lon="4.77299">
        <ele>400.56298828125</ele>
        <time>2010-05-22T13:02:38Z</time>
      </trkpt>
      <trkpt lat="45.08739" lon="4.77339">
        <ele>401.32501220703</ele>
        <time>2010-05-22T13:02:43Z</time>
      </trkpt>
      <trkpt lat="45.08746" lon="4.77374">
        <ele>401.14700317383</ele>
        <time>2010-05-22T13:02:46Z</time>
      </trkpt>
      <trkpt lat="45.08743" lon="4.77409">
        <ele>400.99798583984</ele>
        <time>2010-05-22T13:02:49Z</time>
      </trkpt>
      <trkpt lat="45.08727" lon="4.77476">
        <ele>402.79998779297</ele>
        <time>2010-05-22T13:02:55Z</time>
      </trkpt>
      <trkpt lat="45.08723" lon="4.77487">
        <ele>402.78698730469</ele>
        <time>2010-05-22T13:02:56Z</time>
      </trkpt>
      <trkpt lat="45.08702" lon="4.77519">
        <ele>404.52499389648</ele>
        <time>2010-05-22T13:03:00Z</time>
      </trkpt>
      <trkpt lat="45.08694" lon="4.77524">
        <ele>404.69799804688</ele>
        <time>2010-05-22T13:03:01Z</time>
      </trkpt>
      <trkpt lat="45.0867" lon="4.7753">
        <ele>404.9580078125</ele>
        <time>2010-05-22T13:03:04Z</time>
      </trkpt>
      <trkpt lat="45.08629" lon="4.77528">
        <ele>405.65301513672</ele>
        <time>2010-05-22T13:03:09Z</time>
      </trkpt>
      <trkpt lat="45.08601" lon="4.77508">
        <ele>406.91900634766</ele>
        <time>2010-05-22T13:03:13Z</time>
      </trkpt>
      <trkpt lat="45.08557" lon="4.7746">
        <ele>408.23098754883</ele>
        <time>2010-05-22T13:03:20Z</time>
      </trkpt>
      <trkpt lat="45.08519" lon="4.77445">
        <ele>408.06298828125</ele>
        <time>2010-05-22T13:03:25Z</time>
      </trkpt>
      <trkpt lat="45.08459" lon="4.77437">
        <ele>409.67199707031</ele>
        <time>2010-05-22T13:03:33Z</time>
      </trkpt>
      <trkpt lat="45.08411" lon="4.77424">
        <ele>409.375</ele>
        <time>2010-05-22T13:03:39Z</time>
      </trkpt>
      <trkpt lat="45.08385" lon="4.77416">
        <ele>407.63900756836</ele>
        <time>2010-05-22T13:03:42Z</time>
      </trkpt>
      <trkpt lat="45.08347" lon="4.77418">
        <ele>406.01300048828</ele>
        <time>2010-05-22T13:03:46Z</time>
      </trkpt>
      <trkpt lat="45.08338" lon="4.77423">
        <ele>405.52700805664</ele>
        <time>2010-05-22T13:03:47Z</time>
      </trkpt>
      <trkpt lat="45.0831" lon="4.77436">
        <ele>404.19000244141</ele>
        <time>2010-05-22T13:03:50Z</time>
      </trkpt>
      <trkpt lat="45.08289" lon="4.77434">
        <ele>403.98001098633</ele>
        <time>2010-05-22T13:03:52Z</time>
      </trkpt>
      <trkpt lat="45.08258" lon="4.77424">
        <ele>402.92098999023</ele>
        <time>2010-05-22T13:03:55Z</time>
      </trkpt>
      <trkpt lat="45.0823" lon="4.77398">
        <ele>401.24600219727</ele>
        <time>2010-05-22T13:03:58Z</time>
      </trkpt>
      <trkpt lat="45.08222" lon="4.77387">
        <ele>400.08200073242</ele>
        <time>2010-05-22T13:03:59Z</time>
      </trkpt>
      <trkpt lat="45.08193" lon="4.77375">
        <ele>398.32299804688</ele>
        <time>2010-05-22T13:04:02Z</time>
      </trkpt>
      <trkpt lat="45.08179" lon="4.77395">
        <ele>397.27499389648</ele>
        <time>2010-05-22T13:04:04Z</time>
      </trkpt>
      <trkpt lat="45.08178" lon="4.77426">
        <ele>396.79000854492</ele>
        <time>2010-05-22T13:04:06Z</time>
      </trkpt>
      <trkpt lat="45.08189" lon="4.7747">
        <ele>396.14700317383</ele>
        <time>2010-05-22T13:04:09Z</time>
      </trkpt>
      <trkpt lat="45.08222" lon="4.77542">
        <ele>393.92999267578</ele>
        <time>2010-05-22T13:04:14Z</time>
      </trkpt>
      <trkpt lat="45.0823" lon="4.77575">
        <ele>393.23300170898</ele>
        <time>2010-05-22T13:04:16Z</time>
      </trkpt>
      <trkpt lat="45.08223" lon="4.7761">
        <ele>392.28601074219</ele>
        <time>2010-05-22T13:04:18Z</time>
      </trkpt>
      <trkpt lat="45.0821" lon="4.77641">
        <ele>391.00299072266</ele>
        <time>2010-05-22T13:04:20Z</time>
      </trkpt>
      <trkpt lat="45.08186" lon="4.77683">
        <ele>390.04000854492</ele>
        <time>2010-05-22T13:04:23Z</time>
      </trkpt>
      <trkpt lat="45.08168" lon="4.7775">
        <ele>388.25698852539</ele>
        <time>2010-05-22T13:04:27Z</time>
      </trkpt>
      <trkpt lat="45.08155" lon="4.77806">
        <ele>386.13598632812</ele>
        <time>2010-05-22T13:04:30Z</time>
      </trkpt>
      <trkpt lat="45.08129" lon="4.77852">
        <ele>383.51998901367</ele>
        <time>2010-05-22T13:04:33Z</time>
      </trkpt>
      <trkpt lat="45.08102" lon="4.77864">
        <ele>381.3219909668</ele>
        <time>2010-05-22T13:04:35Z</time>
      </trkpt>
      <trkpt lat="45.08041" lon="4.77914">
        <ele>376.43600463867</ele>
        <time>2010-05-22T13:04:40Z</time>
      </trkpt>
      <trkpt lat="45.08015" lon="4.77963">
        <ele>374.22900390625</ele>
        <time>2010-05-22T13:04:43Z</time>
      </trkpt>
      <trkpt lat="45.07987" lon="4.77982">
        <ele>370.77200317383</ele>
        <time>2010-05-22T13:04:45Z</time>
      </trkpt>
      <trkpt lat="45.07891" lon="4.78029">
        <ele>362.70199584961</ele>
        <time>2010-05-22T13:04:51Z</time>
      </trkpt>
      <trkpt lat="45.0782" lon="4.78046">
        <ele>358.53399658203</ele>
        <time>2010-05-22T13:04:55Z</time>
      </trkpt>
      <trkpt lat="45.07749" lon="4.78039">
        <ele>354.58999633789</ele>
        <time>2010-05-22T13:04:59Z</time>
      </trkpt>
      <trkpt lat="45.07682" lon="4.78014">
        <ele>349.20498657227</ele>
        <time>2010-05-22T13:05:03Z</time>
      </trkpt>
      <trkpt lat="45.07636" lon="4.77982">
        <ele>345.8210144043</ele>
        <time>2010-05-22T13:05:06Z</time>
      </trkpt>
      <trkpt lat="45.07534" lon="4.77904">
        <ele>338.5950012207</ele>
        <time>2010-05-22T13:05:13Z</time>
      </trkpt>
      <trkpt lat="45.07505" lon="4.77883">
        <ele>336.45098876953</ele>
        <time>2010-05-22T13:05:15Z</time>
      </trkpt>
      <trkpt lat="45.07478" lon="4.77858">
        <ele>335.31500244141</ele>
        <time>2010-05-22T13:05:17Z</time>
      </trkpt>
      <trkpt lat="45.07435" lon="4.77832">
        <ele>331.60800170898</ele>
        <time>2010-05-22T13:05:20Z</time>
      </trkpt>
      <trkpt lat="45.07404" lon="4.77842">
        <ele>330.34799194336</ele>
        <time>2010-05-22T13:05:22Z</time>
      </trkpt>
      <trkpt lat="45.07359" lon="4.77863">
        <ele>328.29299926758</ele>
        <time>2010-05-22T13:05:25Z</time>
      </trkpt>
      <trkpt lat="45.0725" lon="4.77875">
        <ele>321.15600585938</ele>
        <time>2010-05-22T13:05:32Z</time>
      </trkpt>
      <trkpt lat="45.07187" lon="4.77885">
        <ele>317.16900634766</ele>
        <time>2010-05-22T13:05:36Z</time>
      </trkpt>
      <trkpt lat="45.07141" lon="4.77909">
        <ele>314.21099853516</ele>
        <time>2010-05-22T13:05:39Z</time>
      </trkpt>
      <trkpt lat="45.07093" lon="4.77923">
        <ele>310.87200927734</ele>
        <time>2010-05-22T13:05:42Z</time>
      </trkpt>
      <trkpt lat="45.07055" lon="4.77952">
        <ele>308.78799438477</ele>
        <time>2010-05-22T13:05:45Z</time>
      </trkpt>
      <trkpt lat="45.07056" lon="4.77992">
        <ele>308.41799926758</ele>
        <time>2010-05-22T13:05:47Z</time>
      </trkpt>
      <trkpt lat="45.07076" lon="4.78046">
        <ele>307.73498535156</ele>
        <time>2010-05-22T13:05:50Z</time>
      </trkpt>
      <trkpt lat="45.07095" lon="4.78077">
        <ele>306.55999755859</ele>
        <time>2010-05-22T13:05:52Z</time>
      </trkpt>
      <trkpt lat="45.07129" lon="4.78148">
        <ele>300.5830078125</ele>
        <time>2010-05-22T13:05:56Z</time>
      </trkpt>
      <trkpt lat="45.07156" lon="4.78175">
        <ele>297.9469909668</ele>
        <time>2010-05-22T13:05:58Z</time>
      </trkpt>
      <trkpt lat="45.07198" lon="4.78213">
        <ele>291.83999633789</ele>
        <time>2010-05-22T13:06:01Z</time>
      </trkpt>
      <trkpt lat="45.07246" lon="4.7828">
        <ele>286.87399291992</ele>
        <time>2010-05-22T13:06:05Z</time>
      </trkpt>
      <trkpt lat="45.07259" lon="4.78294">
        <ele>286.59899902344</ele>
        <time>2010-05-22T13:06:06Z</time>
      </trkpt>
      <trkpt lat="45.07272" lon="4.78308">
        <ele>286.26901245117</ele>
        <time>2010-05-22T13:06:07Z</time>
      </trkpt>
      <trkpt lat="45.07299" lon="4.7836">
        <ele>282.86401367188</ele>
        <time>2010-05-22T13:06:10Z</time>
      </trkpt>
      <trkpt lat="45.073" lon="4.78399">
        <ele>281.54000854492</ele>
        <time>2010-05-22T13:06:12Z</time>
      </trkpt>
      <trkpt lat="45.07281" lon="4.7842">
        <ele>280.30599975586</ele>
        <time>2010-05-22T13:06:14Z</time>
      </trkpt>
      <trkpt lat="45.07269" lon="4.78418">
        <ele>280.11999511719</ele>
        <time>2010-05-22T13:06:15Z</time>
      </trkpt>
      <trkpt lat="45.07257" lon="4.7841">
        <ele>280.14401245117</ele>
        <time>2010-05-22T13:06:16Z</time>
      </trkpt>
      <trkpt lat="45.07195" lon="4.78373">
        <ele>275.99899291992</ele>
        <time>2010-05-22T13:06:21Z</time>
      </trkpt>
      <trkpt lat="45.07135" lon="4.7836">
        <ele>272.41400146484</ele>
        <time>2010-05-22T13:06:25Z</time>
      </trkpt>
      <trkpt lat="45.07092" lon="4.78377">
        <ele>266.7200012207</ele>
        <time>2010-05-22T13:06:28Z</time>
      </trkpt>
      <trkpt lat="45.07073" lon="4.78411">
        <ele>265.89700317383</ele>
        <time>2010-05-22T13:06:30Z</time>
      </trkpt>
      <trkpt lat="45.07065" lon="4.78453">
        <ele>265.43200683594</ele>
        <time>2010-05-22T13:06:32Z</time>
      </trkpt>
      <trkpt lat="45.07064" lon="4.78493">
        <ele>263.99899291992</ele>
        <time>2010-05-22T13:06:34Z</time>
      </trkpt>
      <trkpt lat="45.07047" lon="4.78526">
        <ele>261.4469909668</ele>
        <time>2010-05-22T13:06:36Z</time>
      </trkpt>
      <trkpt lat="45.07035" lon="4.78539">
        <ele>259.19400024414</ele>
        <time>2010-05-22T13:06:37Z</time>
      </trkpt>
      <trkpt lat="45.0699" lon="4.78602">
        <ele>255.33799743652</ele>
        <time>2010-05-22T13:06:41Z</time>
      </trkpt>
      <trkpt lat="45.06987" lon="4.78644">
        <ele>252.4049987793</ele>
        <time>2010-05-22T13:06:43Z</time>
      </trkpt>
      <trkpt lat="45.07002" lon="4.78684">
        <ele>250.42399597168</ele>
        <time>2010-05-22T13:06:45Z</time>
      </trkpt>
      <trkpt lat="45.07024" lon="4.78738">
        <ele>247.2559967041</ele>
        <time>2010-05-22T13:06:48Z</time>
      </trkpt>
      <trkpt lat="45.07018" lon="4.7878">
        <ele>245.34599304199</ele>
        <time>2010-05-22T13:06:50Z</time>
      </trkpt>
      <trkpt lat="45.07016" lon="4.78843">
        <ele>241.03199768066</ele>
        <time>2010-05-22T13:06:53Z</time>
      </trkpt>
      <trkpt lat="45.07034" lon="4.78898">
        <ele>240.21499633789</ele>
        <time>2010-05-22T13:06:56Z</time>
      </trkpt>
      <trkpt lat="45.07024" lon="4.78929">
        <ele>239.70300292969</ele>
        <time>2010-05-22T13:06:58Z</time>
      </trkpt>
      <trkpt lat="45.07012" lon="4.78936">
        <ele>239.1309967041</ele>
        <time>2010-05-22T13:06:59Z</time>
      </trkpt>
      <trkpt lat="45.0697" lon="4.78978">
        <ele>235.25500488281</ele>
        <time>2010-05-22T13:07:03Z</time>
      </trkpt>
      <trkpt lat="45.06961" lon="4.79018">
        <ele>232.51600646973</ele>
        <time>2010-05-22T13:07:05Z</time>
      </trkpt>
      <trkpt lat="45.06969" lon="4.79058">
        <ele>230.49200439453</ele>
        <time>2010-05-22T13:07:07Z</time>
      </trkpt>
      <trkpt lat="45.06994" lon="4.79086">
        <ele>228.38400268555</ele>
        <time>2010-05-22T13:07:09Z</time>
      </trkpt>
      <trkpt lat="45.07019" lon="4.79108">
        <ele>228.45399475098</ele>
        <time>2010-05-22T13:07:12Z</time>
      </trkpt>
      <trkpt lat="45.07008" lon="4.79118">
        <ele>229.38000488281</ele>
        <time>2010-05-22T13:07:14Z</time>
      </trkpt>
      <trkpt lat="45.06992" lon="4.79108">
        <ele>228.40800476074</ele>
        <time>2010-05-22T13:07:16Z</time>
      </trkpt>
      <trkpt lat="45.06967" lon="4.79082">
        <ele>224.48300170898</ele>
        <time>2010-05-22T13:07:19Z</time>
      </trkpt>
      <trkpt lat="45.06943" lon="4.79042">
        <ele>222.38600158691</ele>
        <time>2010-05-22T13:07:22Z</time>
      </trkpt>
      <trkpt lat="45.06938" lon="4.79005">
        <ele>219.54100036621</ele>
        <time>2010-05-22T13:07:24Z</time>
      </trkpt>
      <trkpt lat="45.06946" lon="4.78944">
        <ele>216.0299987793</ele>
        <time>2010-05-22T13:07:27Z</time>
      </trkpt>
      <trkpt lat="45.06966" lon="4.78912">
        <ele>213.71499633789</ele>
        <time>2010-05-22T13:07:29Z</time>
      </trkpt>
      <trkpt lat="45.06979" lon="4.7888">
        <ele>212.44599914551</ele>
        <time>2010-05-22T13:07:31Z</time>
      </trkpt>
      <trkpt lat="45.06969" lon="4.78846">
        <ele>210.2619934082</ele>
        <time>2010-05-22T13:07:33Z</time>
      </trkpt>
      <trkpt lat="45.0696" lon="4.78808">
        <ele>208.42999267578</ele>
        <time>2010-05-22T13:07:35Z</time>
      </trkpt>
      <trkpt lat="45.06951" lon="4.78756">
        <ele>205.22799682617</ele>
        <time>2010-05-22T13:07:38Z</time>
      </trkpt>
      <trkpt lat="45.06944" lon="4.78744">
        <ele>204.78999328613</ele>
        <time>2010-05-22T13:07:39Z</time>
      </trkpt>
      <trkpt lat="45.06908" lon="4.78664">
        <ele>201.29499816894</ele>
        <time>2010-05-22T13:07:44Z</time>
      </trkpt>
      <trkpt lat="45.06892" lon="4.78557">
        <ele>194.44599914551</ele>
        <time>2010-05-22T13:07:49Z</time>
      </trkpt>
      <trkpt lat="45.06881" lon="4.78492">
        <ele>190.54200744629</ele>
        <time>2010-05-22T13:07:52Z</time>
      </trkpt>
      <trkpt lat="45.06888" lon="4.78428">
        <ele>188.14700317383</ele>
        <time>2010-05-22T13:07:55Z</time>
      </trkpt>
      <trkpt lat="45.069" lon="4.78412">
        <ele>186.67599487305</ele>
        <time>2010-05-22T13:07:56Z</time>
      </trkpt>
      <trkpt lat="45.06905" lon="4.78353">
        <ele>181.98599243164</ele>
        <time>2010-05-22T13:08:00Z</time>
      </trkpt>
      <trkpt lat="45.0688" lon="4.78344">
        <ele>180.09399414062</ele>
        <time>2010-05-22T13:08:02Z</time>
      </trkpt>
      <trkpt lat="45.06839" lon="4.78338">
        <ele>176.77000427246</ele>
        <time>2010-05-22T13:08:05Z</time>
      </trkpt>
      <trkpt lat="45.06799" lon="4.78317">
        <ele>174.55799865723</ele>
        <time>2010-05-22T13:08:08Z</time>
      </trkpt>
      <trkpt lat="45.06758" lon="4.78258">
        <ele>170.10200500488</ele>
        <time>2010-05-22T13:08:12Z</time>
      </trkpt>
      <trkpt lat="45.06754" lon="4.78238">
        <ele>168.74200439453</ele>
        <time>2010-05-22T13:08:13Z</time>
      </trkpt>
      <trkpt lat="45.06733" lon="4.7814">
        <ele>163.63000488281</ele>
        <time>2010-05-22T13:08:18Z</time>
      </trkpt>
      <trkpt lat="45.06721" lon="4.78116">
        <ele>164.20399475098</ele>
        <time>2010-05-22T13:08:21Z</time>
      </trkpt>
      <trkpt lat="45.06718" lon="4.78124">
        <ele>164.42999267578</ele>
        <time>2010-05-22T13:08:23Z</time>
      </trkpt>
      <trkpt lat="45.0672" lon="4.78133">
        <ele>164.4109954834</ele>
        <time>2010-05-22T13:08:25Z</time>
      </trkpt>
      <trkpt lat="45.06727" lon="4.78169">
        <ele>162.46600341797</ele>
        <time>2010-05-22T13:08:31Z</time>
      </trkpt>
      <trkpt lat="45.06732" lon="4.78212">
        <ele>160.72300720215</ele>
        <time>2010-05-22T13:08:36Z</time>
      </trkpt>
      <trkpt lat="45.06738" lon="4.78263">
        <ele>158.18800354004</ele>
        <time>2010-05-22T13:08:41Z</time>
      </trkpt>
      <trkpt lat="45.06754" lon="4.78315">
        <ele>157.07000732422</ele>
        <time>2010-05-22T13:08:46Z</time>
      </trkpt>
      <trkpt lat="45.06786" lon="4.78382">
        <ele>156.91299438477</ele>
        <time>2010-05-22T13:08:53Z</time>
      </trkpt>
      <trkpt lat="45.06802" lon="4.78433">
        <ele>157.30099487305</ele>
        <time>2010-05-22T13:08:58Z</time>
      </trkpt>
      <trkpt lat="45.06807" lon="4.78487">
        <ele>157.08799743652</ele>
        <time>2010-05-22T13:09:03Z</time>
      </trkpt>
      <trkpt lat="45.06805" lon="4.78559">
        <ele>157.3869934082</ele>
        <time>2010-05-22T13:09:10Z</time>
      </trkpt>
      <trkpt lat="45.06804" lon="4.78625">
        <ele>156.97700500488</ele>
        <time>2010-05-22T13:09:16Z</time>
      </trkpt>
      <trkpt lat="45.06802" lon="4.78713">
        <ele>157.71499633789</ele>
        <time>2010-05-22T13:09:24Z</time>
      </trkpt>
      <trkpt lat="45.068" lon="4.78758">
        <ele>156.45199584961</ele>
        <time>2010-05-22T13:09:28Z</time>
      </trkpt>
      <trkpt lat="45.06802" lon="4.78814">
        <ele>155.99299621582</ele>
        <time>2010-05-22T13:09:33Z</time>
      </trkpt>
      <trkpt lat="45.06814" lon="4.78902">
        <ele>153.76300048828</ele>
        <time>2010-05-22T13:09:41Z</time>
      </trkpt>
      <trkpt lat="45.06819" lon="4.78957">
        <ele>154.21000671387</ele>
        <time>2010-05-22T13:09:46Z</time>
      </trkpt>
      <trkpt lat="45.06821" lon="4.79042">
        <ele>151.81300354004</ele>
        <time>2010-05-22T13:09:53Z</time>
      </trkpt>
      <trkpt lat="45.06831" lon="4.79117">
        <ele>151.19099426269</ele>
        <time>2010-05-22T13:09:59Z</time>
      </trkpt>
      <trkpt lat="45.06846" lon="4.7916">
        <ele>152.49000549316</ele>
        <time>2010-05-22T13:10:03Z</time>
      </trkpt>
      <trkpt lat="45.06881" lon="4.79235">
        <ele>153.84700012207</ele>
        <time>2010-05-22T13:10:11Z</time>
      </trkpt>
      <trkpt lat="45.06897" lon="4.79286">
        <ele>154.39599609375</ele>
        <time>2010-05-22T13:10:16Z</time>
      </trkpt>
      <trkpt lat="45.06912" lon="4.79339">
        <ele>153.85299682617</ele>
        <time>2010-05-22T13:10:21Z</time>
      </trkpt>
      <trkpt lat="45.06927" lon="4.79378">
        <ele>153.41700744629</ele>
        <time>2010-05-22T13:10:25Z</time>
      </trkpt>
      <trkpt lat="45.06941" lon="4.79404">
        <ele>151.96800231934</ele>
        <time>2010-05-22T13:10:28Z</time>
      </trkpt>
      <trkpt lat="45.06982" lon="4.79479">
        <ele>149.30700683594</ele>
        <time>2010-05-22T13:10:36Z</time>
      </trkpt>
      <trkpt lat="45.07019" lon="4.79553">
        <ele>148.80599975586</ele>
        <time>2010-05-22T13:10:44Z</time>
      </trkpt>
      <trkpt lat="45.07053" lon="4.79623">
        <ele>149.52299499512</ele>
        <time>2010-05-22T13:10:52Z</time>
      </trkpt>
      <trkpt lat="45.07092" lon="4.79698">
        <ele>148.4880065918</ele>
        <time>2010-05-22T13:11:00Z</time>
      </trkpt>
      <trkpt lat="45.07131" lon="4.79783">
        <ele>147.75</ele>
        <time>2010-05-22T13:11:08Z</time>
      </trkpt>
      <trkpt lat="45.07158" lon="4.79838">
        <ele>148.27799987793</ele>
        <time>2010-05-22T13:11:14Z</time>
      </trkpt>
      <trkpt lat="45.07179" lon="4.79886">
        <ele>148.07800292969</ele>
        <time>2010-05-22T13:11:20Z</time>
      </trkpt>
      <trkpt lat="45.07204" lon="4.79916">
        <ele>146.70100402832</ele>
        <time>2010-05-22T13:11:24Z</time>
      </trkpt>
      <trkpt lat="45.07227" lon="4.79934">
        <ele>144.96800231934</ele>
        <time>2010-05-22T13:11:27Z</time>
      </trkpt>
      <trkpt lat="45.07272" lon="4.7998">
        <ele>146.18699645996</ele>
        <time>2010-05-22T13:11:34Z</time>
      </trkpt>
      <trkpt lat="45.07302" lon="4.80021">
        <ele>148.79800415039</ele>
        <time>2010-05-22T13:11:40Z</time>
      </trkpt>
      <trkpt lat="45.07339" lon="4.80076">
        <ele>148.62199401856</ele>
        <time>2010-05-22T13:11:48Z</time>
      </trkpt>
      <trkpt lat="45.07353" lon="4.80097">
        <ele>148.21499633789</ele>
        <time>2010-05-22T13:11:51Z</time>
      </trkpt>
      <trkpt lat="45.07373" lon="4.80143">
        <ele>148.69200134277</ele>
        <time>2010-05-22T13:11:57Z</time>
      </trkpt>
      <trkpt lat="45.07396" lon="4.80189">
        <ele>146.34700012207</ele>
        <time>2010-05-22T13:12:03Z</time>
      </trkpt>
      <trkpt lat="45.0743" lon="4.8024">
        <ele>144.59899902344</ele>
        <time>2010-05-22T13:12:10Z</time>
      </trkpt>
      <trkpt lat="45.07467" lon="4.80296">
        <ele>144.36999511719</ele>
        <time>2010-05-22T13:12:18Z</time>
      </trkpt>
      <trkpt lat="45.07495" lon="4.80345">
        <ele>144.12600708008</ele>
        <time>2010-05-22T13:12:25Z</time>
      </trkpt>
      <trkpt lat="45.07529" lon="4.8041">
        <ele>144.12199401856</ele>
        <time>2010-05-22T13:12:33Z</time>
      </trkpt>
      <trkpt lat="45.07547" lon="4.80454">
        <ele>143.95700073242</ele>
        <time>2010-05-22T13:12:38Z</time>
      </trkpt>
      <trkpt lat="45.07558" lon="4.8051">
        <ele>145.64599609375</ele>
        <time>2010-05-22T13:12:44Z</time>
      </trkpt>
      <trkpt lat="45.0757" lon="4.80559">
        <ele>146.61599731445</ele>
        <time>2010-05-22T13:12:50Z</time>
      </trkpt>
      <trkpt lat="45.07584" lon="4.80622">
        <ele>146.49499511719</ele>
        <time>2010-05-22T13:12:58Z</time>
      </trkpt>
      <trkpt lat="45.076" lon="4.80682">
        <ele>148.55200195312</ele>
        <time>2010-05-22T13:13:06Z</time>
      </trkpt>
      <trkpt lat="45.07618" lon="4.80727">
        <ele>148.53199768066</ele>
        <time>2010-05-22T13:13:12Z</time>
      </trkpt>
      <trkpt lat="45.07633" lon="4.80761">
        <ele>147.28300476074</ele>
        <time>2010-05-22T13:13:16Z</time>
      </trkpt>
      <trkpt lat="45.0764" lon="4.80779">
        <ele>146.54899597168</ele>
        <time>2010-05-22T13:13:18Z</time>
      </trkpt>
      <trkpt lat="45.07643" lon="4.808">
        <ele>146.29400634766</ele>
        <time>2010-05-22T13:13:20Z</time>
      </trkpt>
      <trkpt lat="45.07656" lon="4.80885">
        <ele>145.26300048828</ele>
        <time>2010-05-22T13:13:28Z</time>
      </trkpt>
      <trkpt lat="45.07667" lon="4.80929">
        <ele>143.38499450684</ele>
        <time>2010-05-22T13:13:32Z</time>
      </trkpt>
      <trkpt lat="45.07689" lon="4.81005">
        <ele>142.53799438477</ele>
        <time>2010-05-22T13:13:39Z</time>
      </trkpt>
      <trkpt lat="45.07696" lon="4.81025">
        <ele>142.21200561523</ele>
        <time>2010-05-22T13:13:41Z</time>
      </trkpt>
      <trkpt lat="45.07699" lon="4.81055">
        <ele>141.94700622559</ele>
        <time>2010-05-22T13:13:44Z</time>
      </trkpt>
      <trkpt lat="45.07695" lon="4.81066">
        <ele>141.80499267578</ele>
        <time>2010-05-22T13:13:45Z</time>
      </trkpt>
      <trkpt lat="45.07669" lon="4.81127">
        <ele>137.93699645996</ele>
        <time>2010-05-22T13:13:51Z</time>
      </trkpt>
      <trkpt lat="45.0764" lon="4.81182">
        <ele>134.99299621582</ele>
        <time>2010-05-22T13:13:56Z</time>
      </trkpt>
      <trkpt lat="45.07634" lon="4.81192">
        <ele>134.73699951172</ele>
        <time>2010-05-22T13:13:57Z</time>
      </trkpt>
      <trkpt lat="45.07609" lon="4.8122">
        <ele>134.81399536133</ele>
        <time>2010-05-22T13:14:01Z</time>
      </trkpt>
      <trkpt lat="45.07602" lon="4.81238">
        <ele>134.6549987793</ele>
        <time>2010-05-22T13:14:03Z</time>
      </trkpt>
      <trkpt lat="45.07582" lon="4.81322">
        <ele>135.49800109863</ele>
        <time>2010-05-22T13:14:12Z</time>
      </trkpt>
      <trkpt lat="45.07574" lon="4.81347">
        <ele>135.52200317383</ele>
        <time>2010-05-22T13:14:15Z</time>
      </trkpt>
      <trkpt lat="45.07564" lon="4.8137">
        <ele>135.39500427246</ele>
        <time>2010-05-22T13:14:18Z</time>
      </trkpt>
      <trkpt lat="45.07561" lon="4.81414">
        <ele>135.10400390625</ele>
        <time>2010-05-22T13:14:23Z</time>
      </trkpt>
      <trkpt lat="45.07564" lon="4.81448">
        <ele>135.12100219727</ele>
        <time>2010-05-22T13:14:27Z</time>
      </trkpt>
      <trkpt lat="45.07576" lon="4.81466">
        <ele>134.69900512695</ele>
        <time>2010-05-22T13:14:30Z</time>
      </trkpt>
      <trkpt lat="45.07586" lon="4.81473">
        <ele>134.27600097656</ele>
        <time>2010-05-22T13:14:32Z</time>
      </trkpt>
      <trkpt lat="45.07596" lon="4.81479">
        <ele>134.70500183106</ele>
        <time>2010-05-22T13:14:34Z</time>
      </trkpt>
      <trkpt lat="45.0761" lon="4.81486">
        <ele>135.58099365234</ele>
        <time>2010-05-22T13:14:37Z</time>
      </trkpt>
      <trkpt lat="45.07631" lon="4.81514">
        <ele>135.55400085449</ele>
        <time>2010-05-22T13:14:42Z</time>
      </trkpt>
      <trkpt lat="45.07635" lon="4.81529">
        <ele>135.44200134277</ele>
        <time>2010-05-22T13:14:44Z</time>
      </trkpt>
      <trkpt lat="45.07628" lon="4.81568">
        <ele>136.09100341797</ele>
        <time>2010-05-22T13:14:49Z</time>
      </trkpt>
      <trkpt lat="45.07612" lon="4.81585">
        <ele>136.7559967041</ele>
        <time>2010-05-22T13:14:52Z</time>
      </trkpt>
      <trkpt lat="45.07563" lon="4.81614">
        <ele>137.19599914551</ele>
        <time>2010-05-22T13:15:00Z</time>
      </trkpt>
      <trkpt lat="45.0753" lon="4.81637">
        <ele>138.97900390625</ele>
        <time>2010-05-22T13:15:06Z</time>
      </trkpt>
      <trkpt lat="45.07492" lon="4.81662">
        <ele>139.6309967041</ele>
        <time>2010-05-22T13:15:13Z</time>
      </trkpt>
      <trkpt lat="45.07449" lon="4.81693">
        <ele>139.45399475098</ele>
        <time>2010-05-22T13:15:21Z</time>
      </trkpt>
      <trkpt lat="45.07414" lon="4.81718">
        <ele>139.5950012207</ele>
        <time>2010-05-22T13:15:28Z</time>
      </trkpt>
      <trkpt lat="45.07398" lon="4.81715">
        <ele>139.29200744629</ele>
        <time>2010-05-22T13:15:31Z</time>
      </trkpt>
      <trkpt lat="45.0739" lon="4.81698">
        <ele>138.66900634766</ele>
        <time>2010-05-22T13:15:33Z</time>
      </trkpt>
      <trkpt lat="45.07371" lon="4.81625">
        <ele>136.45700073242</ele>
        <time>2010-05-22T13:15:40Z</time>
      </trkpt>
      <trkpt lat="45.07363" lon="4.81591">
        <ele>136.45899963379</ele>
        <time>2010-05-22T13:15:44Z</time>
      </trkpt>
      <trkpt lat="45.07359" lon="4.81575">
        <ele>136.58700561523</ele>
        <time>2010-05-22T13:15:46Z</time>
      </trkpt>
      <trkpt lat="45.07347" lon="4.81552">
        <ele>136.70100402832</ele>
        <time>2010-05-22T13:15:51Z</time>
      </trkpt>
      <trkpt lat="45.07341" lon="4.81548">
        <ele>136.43699645996</ele>
        <time>2010-05-22T13:15:53Z</time>
      </trkpt>
      <trkpt lat="45.07333" lon="4.81539">
        <ele>135.87699890137</ele>
        <time>2010-05-22T13:15:58Z</time>
      </trkpt>
      <trkpt lat="45.07334" lon="4.81527">
        <ele>135.60600280762</ele>
        <time>2010-05-22T13:16:03Z</time>
      </trkpt>
      <trkpt lat="45.07334" lon="4.81527">
        <ele>135.66600036621</ele>
        <time>2010-05-22T13:16:04Z</time>
      </trkpt>
      <trkpt lat="45.07331" lon="4.81535">
        <ele>135.72099304199</ele>
        <time>2010-05-22T13:16:18Z</time>
      </trkpt>
      <trkpt lat="45.07329" lon="4.81554">
        <ele>135.05900573731</ele>
        <time>2010-05-22T13:16:25Z</time>
      </trkpt>
      <trkpt lat="45.07327" lon="4.81572">
        <ele>135.58799743652</ele>
        <time>2010-05-22T13:16:33Z</time>
      </trkpt>
      <trkpt lat="45.07322" lon="4.81583">
        <ele>135.41000366211</ele>
        <time>2010-05-22T13:16:40Z</time>
      </trkpt>
      <trkpt lat="45.0732" lon="4.81585">
        <ele>135.61199951172</ele>
        <time>2010-05-22T13:16:45Z</time>
      </trkpt>
      <trkpt lat="45.0732" lon="4.81585">
        <ele>135.66999816894</ele>
        <time>2010-05-22T13:16:46Z</time>
      </trkpt>
      <trkpt lat="45.07321" lon="4.81578">
        <ele>136.18499755859</ele>
        <time>2010-05-22T13:21:48Z</time>
      </trkpt>
      <trkpt lat="45.07325" lon="4.81562">
        <ele>135.95199584961</ele>
        <time>2010-05-22T13:21:54Z</time>
      </trkpt>
      <trkpt lat="45.07327" lon="4.81539">
        <ele>135.7559967041</ele>
        <time>2010-05-22T13:21:59Z</time>
      </trkpt>
      <trkpt lat="45.07322" lon="4.81509">
        <ele>135.89900207519</ele>
        <time>2010-05-22T13:22:05Z</time>
      </trkpt>
      <trkpt lat="45.07313" lon="4.81475">
        <ele>136.0890045166</ele>
        <time>2010-05-22T13:22:12Z</time>
      </trkpt>
      <trkpt lat="45.07308" lon="4.81459">
        <ele>136.20399475098</ele>
        <time>2010-05-22T13:22:17Z</time>
      </trkpt>
      <trkpt lat="45.07299" lon="4.8145">
        <ele>136.09399414062</ele>
        <time>2010-05-22T13:22:22Z</time>
      </trkpt>
      <trkpt lat="45.07294" lon="4.81431">
        <ele>135.70700073242</ele>
        <time>2010-05-22T13:22:25Z</time>
      </trkpt>
      <trkpt lat="45.07287" lon="4.81402">
        <ele>135.99299621582</ele>
        <time>2010-05-22T13:22:29Z</time>
      </trkpt>
      <trkpt lat="45.07289" lon="4.81378">
        <ele>136.12199401856</ele>
        <time>2010-05-22T13:22:33Z</time>
      </trkpt>
      <trkpt lat="45.0729" lon="4.81361">
        <ele>135.79100036621</ele>
        <time>2010-05-22T13:22:36Z</time>
      </trkpt>
      <trkpt lat="45.07288" lon="4.81355">
        <ele>135.74299621582</ele>
        <time>2010-05-22T13:22:37Z</time>
      </trkpt>
      <trkpt lat="45.07272" lon="4.81299">
        <ele>136.16000366211</ele>
        <time>2010-05-22T13:22:46Z</time>
      </trkpt>
      <trkpt lat="45.07269" lon="4.81281">
        <ele>136.21200561523</ele>
        <time>2010-05-22T13:22:49Z</time>
      </trkpt>
      <trkpt lat="45.07258" lon="4.81247">
        <ele>135.78700256348</ele>
        <time>2010-05-22T13:22:55Z</time>
      </trkpt>
      <trkpt lat="45.07248" lon="4.81235">
        <ele>136.3869934082</ele>
        <time>2010-05-22T13:22:59Z</time>
      </trkpt>
      <trkpt lat="45.07239" lon="4.81236">
        <ele>136.52900695801</ele>
        <time>2010-05-22T13:23:02Z</time>
      </trkpt>
      <trkpt lat="45.07219" lon="4.81245">
        <ele>136.71800231934</ele>
        <time>2010-05-22T13:23:09Z</time>
      </trkpt>
      <trkpt lat="45.07214" lon="4.81245">
        <ele>136.84899902344</ele>
        <time>2010-05-22T13:23:14Z</time>
      </trkpt>
    </trkseg>
  </trk>
</gpx>